<?xml version='1.0' encoding='UTF-8'?><gpx version="1.1" creator="JPX - https://github.com/jenetics/jpx" xmlns="http://www.topografix.com/GPX/1/1"><trk><trkseg><trkpt lat="42.056866591622686" lon="11.994122208493408"><ele>259.0</ele><time>2026-03-29T06:54:57.999Z</time></trkpt><trkpt lat="42.05690578691385" lon="11.993998790208542"><ele>259.0</ele><time>2026-03-29T06:54:58.999Z</time></trkpt><trkpt lat="42.05693573369101" lon="11.993857266732554"><ele>259.0</ele><time>2026-03-29T06:54:59.999Z</time></trkpt><trkpt lat="42.05696902626785" lon="11.99375712426975"><ele>259.0</ele><time>2026-03-29T06:55:00.999Z</time></trkpt><trkpt lat="42.05699669743657" lon="11.993654355929861"><ele>259.0</ele><time>2026-03-29T06:55:01.999Z</time></trkpt><trkpt lat="42.05705741758435" lon="11.9935269200242"><ele>259.0</ele><time>2026-03-29T06:55:02.999Z</time></trkpt><trkpt lat="42.0571061601687" lon="11.99337308531553"><ele>259.0</ele><time>2026-03-29T06:55:03.999Z</time></trkpt><trkpt lat="42.05714847281699" lon="11.993213094811193"><ele>259.0</ele><time>2026-03-29T06:55:04.999Z</time></trkpt><trkpt lat="42.05718127030322" lon="11.993064908869695"><ele>259.0</ele><time>2026-03-29T06:55:05.999Z</time></trkpt><trkpt lat="42.05722094931754" lon="11.992944459682917"><ele>259.0</ele><time>2026-03-29T06:55:06.999Z</time></trkpt><trkpt lat="42.057256017656705" lon="11.992828404380456"><ele>259.0</ele><time>2026-03-29T06:55:07.999Z</time></trkpt><trkpt lat="42.05729371400512" lon="11.992742165202168"><ele>259.0</ele><time>2026-03-29T06:55:08.999Z</time></trkpt><trkpt lat="42.05734466000242" lon="11.992645723256405"><ele>259.0</ele><time>2026-03-29T06:55:09.999Z</time></trkpt><trkpt lat="42.05740348828849" lon="11.992580453713686"><ele>259.0</ele><time>2026-03-29T06:55:10.999Z</time></trkpt><trkpt lat="42.05747241863947" lon="11.992510550678297"><ele>259.0</ele><time>2026-03-29T06:55:12Z</time></trkpt><trkpt lat="42.05754565588809" lon="11.992434086117983"><ele>257.5</ele><time>2026-03-29T06:55:13Z</time></trkpt><trkpt lat="42.057610497442965" lon="11.992376360466855"><ele>256.0</ele><time>2026-03-29T06:55:14Z</time></trkpt><trkpt lat="42.05767714596688" lon="11.992315767905522"><ele>254.5</ele><time>2026-03-29T06:55:15Z</time></trkpt><trkpt lat="42.057746112664006" lon="11.992247301341587"><ele>253.0</ele><time>2026-03-29T06:55:16Z</time></trkpt><trkpt lat="42.0578388343231" lon="11.992165778316215"><ele>251.49999999999997</ele><time>2026-03-29T06:55:17Z</time></trkpt><trkpt lat="42.05790371970338" lon="11.992094274226144"><ele>250.0</ele><time>2026-03-29T06:55:18Z</time></trkpt><trkpt lat="42.05793876029793" lon="11.992011397547579"><ele>250.0</ele><time>2026-03-29T06:55:19Z</time></trkpt><trkpt lat="42.05795583326298" lon="11.99186507180729"><ele>250.0</ele><time>2026-03-29T06:55:21Z</time></trkpt><trkpt lat="42.05791042397846" lon="11.99174586719029"><ele>250.0</ele><time>2026-03-29T06:55:22Z</time></trkpt><trkpt lat="42.057866263403476" lon="11.99161749080428"><ele>250.0</ele><time>2026-03-29T06:55:23Z</time></trkpt><trkpt lat="42.05781354152655" lon="11.991477329312419"><ele>250.0</ele><time>2026-03-29T06:55:24Z</time></trkpt><trkpt lat="42.0577749698229" lon="11.991360826435718"><ele>249.16666666666666</ele><time>2026-03-29T06:55:25Z</time></trkpt><trkpt lat="42.05775439072546" lon="11.99124181237054"><ele>248.33333333333331</ele><time>2026-03-29T06:55:26Z</time></trkpt><trkpt lat="42.057730248043384" lon="11.991145541264293"><ele>247.5</ele><time>2026-03-29T06:55:27Z</time></trkpt><trkpt lat="42.05769029905399" lon="11.991054253405387"><ele>246.66666666666669</ele><time>2026-03-29T06:55:28Z</time></trkpt><trkpt lat="42.05763449957847" lon="11.990969341246947"><ele>245.83333333333334</ele><time>2026-03-29T06:55:29Z</time></trkpt><trkpt lat="42.05758420239121" lon="11.990888887576464"><ele>245.0</ele><time>2026-03-29T06:55:30Z</time></trkpt><trkpt lat="42.05755149570373" lon="11.990814970570323"><ele>244.4</ele><time>2026-03-29T06:55:31Z</time></trkpt><trkpt lat="42.0575344851615" lon="11.990724755207609"><ele>243.8</ele><time>2026-03-29T06:55:32Z</time></trkpt><trkpt lat="42.057583525084894" lon="11.990570196617531"><ele>243.2</ele><time>2026-03-29T06:55:34Z</time></trkpt><trkpt lat="42.05762389857149" lon="11.990488977948297"><ele>242.6</ele><time>2026-03-29T06:55:35Z</time></trkpt><trkpt lat="42.057715445319296" lon="11.990364171666995"><ele>242.0</ele><time>2026-03-29T06:55:37Z</time></trkpt><trkpt lat="42.057769415522976" lon="11.990285216060933"><ele>242.0</ele><time>2026-03-29T06:55:38Z</time></trkpt><trkpt lat="42.05781301400373" lon="11.990201218698365"><ele>241.99999999999997</ele><time>2026-03-29T06:55:39Z</time></trkpt><trkpt lat="42.05785863918214" lon="11.990115523741855"><ele>242.0</ele><time>2026-03-29T06:55:40Z</time></trkpt><trkpt lat="42.05790394517355" lon="11.99003193888739"><ele>242.0</ele><time>2026-03-29T06:55:41Z</time></trkpt><trkpt lat="42.0579461090008" lon="11.989949660722868"><ele>241.99999999999997</ele><time>2026-03-29T06:55:42Z</time></trkpt><trkpt lat="42.05798580795617" lon="11.989872492840078"><ele>242.0</ele><time>2026-03-29T06:55:43Z</time></trkpt><trkpt lat="42.05802078715717" lon="11.98979654115695"><ele>242.0</ele><time>2026-03-29T06:55:44Z</time></trkpt><trkpt lat="42.05805602237345" lon="11.989718846613945"><ele>241.66666666666669</ele><time>2026-03-29T06:55:45Z</time></trkpt><trkpt lat="42.05808795403459" lon="11.989624651820266"><ele>241.33333333333334</ele><time>2026-03-29T06:55:46Z</time></trkpt><trkpt lat="42.05814877990897" lon="11.98954664518478"><ele>241.0</ele><time>2026-03-29T06:55:47Z</time></trkpt><trkpt lat="42.058204545223006" lon="11.989460688781739"><ele>240.66666666666669</ele><time>2026-03-29T06:55:48Z</time></trkpt><trkpt lat="42.05826190288351" lon="11.989401034974158"><ele>240.33333333333334</ele><time>2026-03-29T06:55:49Z</time></trkpt><trkpt lat="42.05831644015364" lon="11.989332574293302"><ele>240.0</ele><time>2026-03-29T06:55:50Z</time></trkpt><trkpt lat="42.05836934253136" lon="11.989269869821765"><ele>240.66666666666666</ele><time>2026-03-29T06:55:51Z</time></trkpt><trkpt lat="42.058431105541096" lon="11.989208418844735"><ele>241.33333333333331</ele><time>2026-03-29T06:55:52Z</time></trkpt><trkpt lat="42.05849089974191" lon="11.98913301035713"><ele>242.0</ele><time>2026-03-29T06:55:53Z</time></trkpt><trkpt lat="42.058532348109836" lon="11.98905197367446"><ele>242.66666666666666</ele><time>2026-03-29T06:55:54Z</time></trkpt><trkpt lat="42.05857136116539" lon="11.988959475873925"><ele>243.33333333333331</ele><time>2026-03-29T06:55:55Z</time></trkpt><trkpt lat="42.05863686292491" lon="11.988836765421885"><ele>244.0</ele><time>2026-03-29T06:55:57Z</time></trkpt><trkpt lat="42.05866601394134" lon="11.988758433697177"><ele>242.16666666666666</ele><time>2026-03-29T06:55:58Z</time></trkpt><trkpt lat="42.05869242912465" lon="11.988677726184337"><ele>240.33333333333331</ele><time>2026-03-29T06:55:59Z</time></trkpt><trkpt lat="42.05871865965744" lon="11.988595635685469"><ele>238.5</ele><time>2026-03-29T06:56:00Z</time></trkpt><trkpt lat="42.058767822849646" lon="11.988437476910246"><ele>236.66666666666669</ele><time>2026-03-29T06:56:02Z</time></trkpt><trkpt lat="42.058794092626535" lon="11.98834649616612"><ele>234.83333333333334</ele><time>2026-03-29T06:56:03Z</time></trkpt><trkpt lat="42.05884565638548" lon="11.988271985561061"><ele>233.0</ele><time>2026-03-29T06:56:04Z</time></trkpt><trkpt lat="42.058864858498794" lon="11.988177385053824"><ele>232.50000000000003</ele><time>2026-03-29T06:56:05Z</time></trkpt><trkpt lat="42.058885019113575" lon="11.98806730409984"><ele>232.0</ele><time>2026-03-29T06:56:06Z</time></trkpt><trkpt lat="42.058863084761875" lon="11.98795522275798"><ele>231.5</ele><time>2026-03-29T06:56:07Z</time></trkpt><trkpt lat="42.05881829145497" lon="11.987875427754648"><ele>231.0</ele><time>2026-03-29T06:56:08Z</time></trkpt><trkpt lat="42.058787164558076" lon="11.987769081085686"><ele>230.50000000000003</ele><time>2026-03-29T06:56:09Z</time></trkpt><trkpt lat="42.05876094177056" lon="11.987646694396386"><ele>230.0</ele><time>2026-03-29T06:56:10Z</time></trkpt><trkpt lat="42.058758941607095" lon="11.987504070032847"><ele>229.33333333333334</ele><time>2026-03-29T06:56:11Z</time></trkpt><trkpt lat="42.0587627769507" lon="11.987351852016552"><ele>228.66666666666669</ele><time>2026-03-29T06:56:12Z</time></trkpt><trkpt lat="42.05876778793735" lon="11.987219120328108"><ele>228.0</ele><time>2026-03-29T06:56:13Z</time></trkpt><trkpt lat="42.05878853912962" lon="11.987111479360284"><ele>227.33333333333331</ele><time>2026-03-29T06:56:14Z</time></trkpt><trkpt lat="42.05879558318847" lon="11.987015965221747"><ele>226.66666666666666</ele><time>2026-03-29T06:56:14.999Z</time></trkpt><trkpt lat="42.058773985460356" lon="11.986927332751996"><ele>226.0</ele><time>2026-03-29T06:56:15.999Z</time></trkpt><trkpt lat="42.05873351549134" lon="11.986842957418038"><ele>226.0</ele><time>2026-03-29T06:56:16.999Z</time></trkpt><trkpt lat="42.05866831298524" lon="11.986756175006539"><ele>226.00000000000003</ele><time>2026-03-29T06:56:17.999Z</time></trkpt><trkpt lat="42.05857765506267" lon="11.986607589896419"><ele>226.00000000000003</ele><time>2026-03-29T06:56:19.999Z</time></trkpt><trkpt lat="42.05856085983615" lon="11.98650075181385"><ele>226.0</ele><time>2026-03-29T06:56:20.999Z</time></trkpt><trkpt lat="42.058552320035666" lon="11.986413069294054"><ele>226.0</ele><time>2026-03-29T06:56:21.999Z</time></trkpt><trkpt lat="42.058544024262325" lon="11.98631385722171"><ele>225.33333333333331</ele><time>2026-03-29T06:56:22.999Z</time></trkpt><trkpt lat="42.05850843525952" lon="11.986217276813981"><ele>224.66666666666666</ele><time>2026-03-29T06:56:23.999Z</time></trkpt><trkpt lat="42.05850127797332" lon="11.98612283644092"><ele>224.0</ele><time>2026-03-29T06:56:24.999Z</time></trkpt><trkpt lat="42.058501033164944" lon="11.986017949593052"><ele>223.33333333333331</ele><time>2026-03-29T06:56:25.999Z</time></trkpt><trkpt lat="42.05856089778601" lon="11.985908103615802"><ele>222.66666666666666</ele><time>2026-03-29T06:56:26.999Z</time></trkpt><trkpt lat="42.05861336218123" lon="11.985809655390579"><ele>222.0</ele><time>2026-03-29T06:56:27.999Z</time></trkpt><trkpt lat="42.05865746976927" lon="11.985691163807012"><ele>220.5</ele><time>2026-03-29T06:56:28.999Z</time></trkpt><trkpt lat="42.058682833304836" lon="11.985573436710043"><ele>219.0</ele><time>2026-03-29T06:56:29.999Z</time></trkpt><trkpt lat="42.05869651549552" lon="11.985480029508226"><ele>217.5</ele><time>2026-03-29T06:56:30.999Z</time></trkpt><trkpt lat="42.05869910559064" lon="11.985371367244651"><ele>216.0</ele><time>2026-03-29T06:56:31.999Z</time></trkpt><trkpt lat="42.05868244566344" lon="11.985289543491781"><ele>214.5</ele><time>2026-03-29T06:56:32.999Z</time></trkpt><trkpt lat="42.05862213241584" lon="11.985208115546493"><ele>213.0</ele><time>2026-03-29T06:56:33.999Z</time></trkpt><trkpt lat="42.058579816988065" lon="11.985125708946086"><ele>213.0</ele><time>2026-03-29T06:56:34.999Z</time></trkpt><trkpt lat="42.05854305433806" lon="11.98502417478506"><ele>213.0</ele><time>2026-03-29T06:56:35.999Z</time></trkpt><trkpt lat="42.05852420994019" lon="11.98491203766691"><ele>213.0</ele><time>2026-03-29T06:56:36.999Z</time></trkpt><trkpt lat="42.05852118378408" lon="11.98479364943706"><ele>213.0</ele><time>2026-03-29T06:56:37.999Z</time></trkpt><trkpt lat="42.05853131289748" lon="11.984693183653098"><ele>213.0</ele><time>2026-03-29T06:56:38.999Z</time></trkpt><trkpt lat="42.05854245453362" lon="11.984603357510922"><ele>213.0</ele><time>2026-03-29T06:56:39.999Z</time></trkpt><trkpt lat="42.05853572654352" lon="11.984504637322937"><ele>212.2</ele><time>2026-03-29T06:56:40.999Z</time></trkpt><trkpt lat="42.05853194123734" lon="11.98438362520659"><ele>211.4</ele><time>2026-03-29T06:56:41.999Z</time></trkpt><trkpt lat="42.05855392697595" lon="11.98428517332769"><ele>210.6</ele><time>2026-03-29T06:56:42.999Z</time></trkpt><trkpt lat="42.05857492804803" lon="11.984183678027502"><ele>209.79999999999998</ele><time>2026-03-29T06:56:43.999Z</time></trkpt><trkpt lat="42.0586078208427" lon="11.984031523190932"><ele>209.0</ele><time>2026-03-29T06:56:45.999Z</time></trkpt><trkpt lat="42.058558949823" lon="11.983890859144013"><ele>208.33333333333334</ele><time>2026-03-29T06:56:47.999Z</time></trkpt><trkpt lat="42.05850665234637" lon="11.983817953598116"><ele>207.66666666666669</ele><time>2026-03-29T06:56:48.999Z</time></trkpt><trkpt lat="42.058427951974465" lon="11.98374748056875"><ele>207.0</ele><time>2026-03-29T06:56:49.999Z</time></trkpt><trkpt lat="42.05838440329096" lon="11.983664908645848"><ele>206.33333333333331</ele><time>2026-03-29T06:56:50.999Z</time></trkpt><trkpt lat="42.05834680501744" lon="11.983577683602288"><ele>205.66666666666666</ele><time>2026-03-29T06:56:51.999Z</time></trkpt><trkpt lat="42.058331335980874" lon="11.983480629923514"><ele>205.0</ele><time>2026-03-29T06:56:52.999Z</time></trkpt><trkpt lat="42.0583395419787" lon="11.983377600851144"><ele>205.6</ele><time>2026-03-29T06:56:53.999Z</time></trkpt><trkpt lat="42.058348668351286" lon="11.983272776717538"><ele>206.2</ele><time>2026-03-29T06:56:54.999Z</time></trkpt><trkpt lat="42.058314856472336" lon="11.983117478006376"><ele>206.8</ele><time>2026-03-29T06:56:56.999Z</time></trkpt><trkpt lat="42.05828100359469" lon="11.983045463622839"><ele>207.4</ele><time>2026-03-29T06:56:57.999Z</time></trkpt><trkpt lat="42.05825229985417" lon="11.982957404427905"><ele>208.0</ele><time>2026-03-29T06:56:58.999Z</time></trkpt><trkpt lat="42.05821318172127" lon="11.982778273760674"><ele>206.8</ele><time>2026-03-29T06:57:00.999Z</time></trkpt><trkpt lat="42.05817816242817" lon="11.982688194498229"><ele>205.60000000000002</ele><time>2026-03-29T06:57:01.999Z</time></trkpt><trkpt lat="42.05810065263795" lon="11.982572319364197"><ele>204.39999999999998</ele><time>2026-03-29T06:57:03.999Z</time></trkpt><trkpt lat="42.05806170581998" lon="11.982485627743172"><ele>203.2</ele><time>2026-03-29T06:57:04.999Z</time></trkpt><trkpt lat="42.05803145328582" lon="11.982360144339323"><ele>202.0</ele><time>2026-03-29T06:57:05.999Z</time></trkpt><trkpt lat="42.05800558464827" lon="11.982231890368181"><ele>201.83333333333331</ele><time>2026-03-29T06:57:06.999Z</time></trkpt><trkpt lat="42.05799258991556" lon="11.982123658276697"><ele>201.66666666666666</ele><time>2026-03-29T06:57:07.999Z</time></trkpt><trkpt lat="42.05797003766075" lon="11.982035231747991"><ele>201.5</ele><time>2026-03-29T06:57:08.999Z</time></trkpt><trkpt lat="42.05795263983674" lon="11.981951831303714"><ele>201.33333333333331</ele><time>2026-03-29T06:57:09.999Z</time></trkpt><trkpt lat="42.05795099719768" lon="11.981851794813762"><ele>201.16666666666666</ele><time>2026-03-29T06:57:10.999Z</time></trkpt><trkpt lat="42.057945912191016" lon="11.98173532474405"><ele>201.0</ele><time>2026-03-29T06:57:11.999Z</time></trkpt><trkpt lat="42.05793526634562" lon="11.981631430298586"><ele>202.0</ele><time>2026-03-29T06:57:12.999Z</time></trkpt><trkpt lat="42.057934383425554" lon="11.981537267160599"><ele>203.0</ele><time>2026-03-29T06:57:13.999Z</time></trkpt><trkpt lat="42.05792517675236" lon="11.98143200160182"><ele>204.0</ele><time>2026-03-29T06:57:14.999Z</time></trkpt><trkpt lat="42.05792365100836" lon="11.98132042969316"><ele>205.0</ele><time>2026-03-29T06:57:15.999Z</time></trkpt><trkpt lat="42.05792821547655" lon="11.98121027420129"><ele>206.0</ele><time>2026-03-29T06:57:16.999Z</time></trkpt><trkpt lat="42.057932569664715" lon="11.98110087989375"><ele>207.0</ele><time>2026-03-29T06:57:18Z</time></trkpt><trkpt lat="42.05795670464493" lon="11.980980675610075"><ele>207.0</ele><time>2026-03-29T06:57:19Z</time></trkpt><trkpt lat="42.057968889097765" lon="11.98085559207394"><ele>207.0</ele><time>2026-03-29T06:57:20Z</time></trkpt><trkpt lat="42.05798454149323" lon="11.980746490281398"><ele>207.0</ele><time>2026-03-29T06:57:21Z</time></trkpt><trkpt lat="42.05800242749008" lon="11.980637341725556"><ele>207.0</ele><time>2026-03-29T06:57:22Z</time></trkpt><trkpt lat="42.05800647707638" lon="11.98054036479199"><ele>207.0</ele><time>2026-03-29T06:57:23Z</time></trkpt><trkpt lat="42.05801296487759" lon="11.980431422595732"><ele>207.0</ele><time>2026-03-29T06:57:24Z</time></trkpt><trkpt lat="42.058009911426" lon="11.980297177982498"><ele>208.0</ele><time>2026-03-29T06:57:25Z</time></trkpt><trkpt lat="42.05800917905788" lon="11.980158158506867"><ele>209.0</ele><time>2026-03-29T06:57:26Z</time></trkpt><trkpt lat="42.058022823299765" lon="11.98003816678997"><ele>210.0</ele><time>2026-03-29T06:57:27Z</time></trkpt><trkpt lat="42.05804784443975" lon="11.97992788939418"><ele>211.0</ele><time>2026-03-29T06:57:28Z</time></trkpt><trkpt lat="42.05807993391944" lon="11.979837116365717"><ele>212.0</ele><time>2026-03-29T06:57:29Z</time></trkpt><trkpt lat="42.0581074744601" lon="11.979739081610589"><ele>213.0</ele><time>2026-03-29T06:57:30Z</time></trkpt><trkpt lat="42.058132491798794" lon="11.979639516899566"><ele>213.16666666666666</ele><time>2026-03-29T06:57:31Z</time></trkpt><trkpt lat="42.05817531268641" lon="11.97954205234751"><ele>213.33333333333331</ele><time>2026-03-29T06:57:32Z</time></trkpt><trkpt lat="42.05821915889113" lon="11.979443117842797"><ele>213.5</ele><time>2026-03-29T06:57:33Z</time></trkpt><trkpt lat="42.05826138677263" lon="11.979349847160266"><ele>213.66666666666666</ele><time>2026-03-29T06:57:34Z</time></trkpt><trkpt lat="42.05830399219643" lon="11.979260207406865"><ele>213.83333333333331</ele><time>2026-03-29T06:57:35Z</time></trkpt><trkpt lat="42.05834982860141" lon="11.979177494468084"><ele>214.0</ele><time>2026-03-29T06:57:36Z</time></trkpt><trkpt lat="42.05841342602297" lon="11.97907386109417"><ele>215.16666666666666</ele><time>2026-03-29T06:57:37Z</time></trkpt><trkpt lat="42.0584682669377" lon="11.978985618183161"><ele>216.33333333333331</ele><time>2026-03-29T06:57:38Z</time></trkpt><trkpt lat="42.058497631398296" lon="11.97889237474658"><ele>217.5</ele><time>2026-03-29T06:57:39Z</time></trkpt><trkpt lat="42.05851809391246" lon="11.97880842808486"><ele>218.66666666666669</ele><time>2026-03-29T06:57:40Z</time></trkpt><trkpt lat="42.05852913762048" lon="11.978709639990972"><ele>219.83333333333334</ele><time>2026-03-29T06:57:41Z</time></trkpt><trkpt lat="42.058519925128294" lon="11.97858767387851"><ele>221.0</ele><time>2026-03-29T06:57:42Z</time></trkpt><trkpt lat="42.058494219716906" lon="11.978471610507139"><ele>221.00000000000003</ele><time>2026-03-29T06:57:43Z</time></trkpt><trkpt lat="42.05847480196906" lon="11.978370869149636"><ele>221.0</ele><time>2026-03-29T06:57:44Z</time></trkpt><trkpt lat="42.05847436056662" lon="11.978259270793135"><ele>221.0</ele><time>2026-03-29T06:57:45Z</time></trkpt><trkpt lat="42.05847884547229" lon="11.978134295695792"><ele>221.0</ele><time>2026-03-29T06:57:46Z</time></trkpt><trkpt lat="42.05848535743731" lon="11.978015545247692"><ele>221.00000000000003</ele><time>2026-03-29T06:57:47Z</time></trkpt><trkpt lat="42.05851181146969" lon="11.977896037006902"><ele>221.0</ele><time>2026-03-29T06:57:48Z</time></trkpt><trkpt lat="42.058539297980936" lon="11.977770661036477"><ele>221.0</ele><time>2026-03-29T06:57:49Z</time></trkpt><trkpt lat="42.05857159751614" lon="11.977654354168209"><ele>221.00000000000003</ele><time>2026-03-29T06:57:50Z</time></trkpt><trkpt lat="42.058607030827325" lon="11.977553592461314"><ele>221.00000000000003</ele><time>2026-03-29T06:57:51Z</time></trkpt><trkpt lat="42.05866018458761" lon="11.977458981878504"><ele>221.0</ele><time>2026-03-29T06:57:52Z</time></trkpt><trkpt lat="42.058720108035914" lon="11.977367289074701"><ele>221.0</ele><time>2026-03-29T06:57:53Z</time></trkpt><trkpt lat="42.05879718564402" lon="11.977282764481949"><ele>221.0</ele><time>2026-03-29T06:57:54Z</time></trkpt><trkpt lat="42.05889100272814" lon="11.977190186434843"><ele>221.0</ele><time>2026-03-29T06:57:55Z</time></trkpt><trkpt lat="42.058967332260295" lon="11.977093947969594"><ele>221.0</ele><time>2026-03-29T06:57:56Z</time></trkpt><trkpt lat="42.05903558987115" lon="11.97696555322549"><ele>221.0</ele><time>2026-03-29T06:57:57Z</time></trkpt><trkpt lat="42.059097359984484" lon="11.976835966561781"><ele>222.4</ele><time>2026-03-29T06:57:58Z</time></trkpt><trkpt lat="42.05915511383532" lon="11.976721143435848"><ele>223.8</ele><time>2026-03-29T06:57:59Z</time></trkpt><trkpt lat="42.05920665740114" lon="11.976608803549649"><ele>225.20000000000002</ele><time>2026-03-29T06:58:00Z</time></trkpt><trkpt lat="42.05924901386108" lon="11.976496161795637"><ele>226.60000000000002</ele><time>2026-03-29T06:58:01Z</time></trkpt><trkpt lat="42.05928605411745" lon="11.97636784216073"><ele>228.0</ele><time>2026-03-29T06:58:02Z</time></trkpt><trkpt lat="42.059314973405996" lon="11.97624701603925"><ele>228.0</ele><time>2026-03-29T06:58:03Z</time></trkpt><trkpt lat="42.05935684990933" lon="11.976113835358476"><ele>228.0</ele><time>2026-03-29T06:58:04Z</time></trkpt><trkpt lat="42.0594083204579" lon="11.97598354938959"><ele>228.0</ele><time>2026-03-29T06:58:05Z</time></trkpt><trkpt lat="42.05945458437813" lon="11.975856456192886"><ele>228.0</ele><time>2026-03-29T06:58:06Z</time></trkpt><trkpt lat="42.05949832775659" lon="11.975757456903763"><ele>228.0</ele><time>2026-03-29T06:58:07Z</time></trkpt><trkpt lat="42.05953045053549" lon="11.975625129083921"><ele>226.4</ele><time>2026-03-29T06:58:08Z</time></trkpt><trkpt lat="42.05957609692021" lon="11.975487840118852"><ele>224.8</ele><time>2026-03-29T06:58:09Z</time></trkpt><trkpt lat="42.05962511818511" lon="11.975371018398095"><ele>223.2</ele><time>2026-03-29T06:58:10Z</time></trkpt><trkpt lat="42.05969101971071" lon="11.975264382865728"><ele>221.6</ele><time>2026-03-29T06:58:11Z</time></trkpt><trkpt lat="42.059762408921024" lon="11.97516505860845"><ele>220.0</ele><time>2026-03-29T06:58:12Z</time></trkpt><trkpt lat="42.059838859742115" lon="11.975052299096633"><ele>219.0</ele><time>2026-03-29T06:58:13Z</time></trkpt><trkpt lat="42.05991486195315" lon="11.974923723088715"><ele>218.0</ele><time>2026-03-29T06:58:14Z</time></trkpt><trkpt lat="42.05998190198641" lon="11.974821422191024"><ele>217.0</ele><time>2026-03-29T06:58:15Z</time></trkpt><trkpt lat="42.060039908409266" lon="11.974698607605877"><ele>216.0</ele><time>2026-03-29T06:58:16Z</time></trkpt><trkpt lat="42.060082098000386" lon="11.974592630057684"><ele>215.0</ele><time>2026-03-29T06:58:17Z</time></trkpt><trkpt lat="42.060132437151836" lon="11.974498205798968"><ele>217.33333333333334</ele><time>2026-03-29T06:58:18Z</time></trkpt><trkpt lat="42.06018818073346" lon="11.974422693657385"><ele>219.66666666666669</ele><time>2026-03-29T06:58:19Z</time></trkpt><trkpt lat="42.0602563651429" lon="11.974375298580584"><ele>222.0</ele><time>2026-03-29T06:58:19.999Z</time></trkpt><trkpt lat="42.06032378982485" lon="11.97434967217524"><ele>224.33333333333331</ele><time>2026-03-29T06:58:20.999Z</time></trkpt><trkpt lat="42.060388052280466" lon="11.974318532114987"><ele>226.66666666666666</ele><time>2026-03-29T06:58:21.999Z</time></trkpt><trkpt lat="42.06050796130278" lon="11.974262999194377"><ele>229.0</ele><time>2026-03-29T06:58:23.999Z</time></trkpt><trkpt lat="42.060578214799015" lon="11.974218670290782"><ele>228.0</ele><time>2026-03-29T06:58:24.999Z</time></trkpt><trkpt lat="42.060657645649044" lon="11.974173488948773"><ele>226.99999999999997</ele><time>2026-03-29T06:58:25.999Z</time></trkpt><trkpt lat="42.06072500413852" lon="11.974111172108541"><ele>225.99999999999997</ele><time>2026-03-29T06:58:26.999Z</time></trkpt><trkpt lat="42.060783698966716" lon="11.974069625133652"><ele>225.0</ele><time>2026-03-29T06:58:27.999Z</time></trkpt><trkpt lat="42.060846267444326" lon="11.973959793457842"><ele>224.0</ele><time>2026-03-29T06:58:29.999Z</time></trkpt><trkpt lat="42.06080651934915" lon="11.97379661350239"><ele>223.50000000000003</ele><time>2026-03-29T06:58:31.999Z</time></trkpt><trkpt lat="42.0607643955912" lon="11.973696713503138"><ele>223.0</ele><time>2026-03-29T06:58:32.999Z</time></trkpt><trkpt lat="42.060751886299435" lon="11.973611600119058"><ele>222.5</ele><time>2026-03-29T06:58:33.999Z</time></trkpt><trkpt lat="42.060738551783075" lon="11.973520489705608"><ele>222.0</ele><time>2026-03-29T06:58:34.999Z</time></trkpt><trkpt lat="42.060753135155515" lon="11.973343427114942"><ele>221.50000000000003</ele><time>2026-03-29T06:58:36.999Z</time></trkpt><trkpt lat="42.06075393519307" lon="11.973241137670396"><ele>221.0</ele><time>2026-03-29T06:58:37.999Z</time></trkpt><trkpt lat="42.06075994306385" lon="11.973141621137854"><ele>221.20000000000002</ele><time>2026-03-29T06:58:38.999Z</time></trkpt><trkpt lat="42.06078140605976" lon="11.973044854272223"><ele>221.40000000000003</ele><time>2026-03-29T06:58:39.999Z</time></trkpt><trkpt lat="42.06082034562706" lon="11.972932723081295"><ele>221.6</ele><time>2026-03-29T06:58:40.999Z</time></trkpt><trkpt lat="42.06087690113732" lon="11.972818277459302"><ele>221.8</ele><time>2026-03-29T06:58:41.999Z</time></trkpt><trkpt lat="42.060942543737795" lon="11.9727279344073"><ele>222.0</ele><time>2026-03-29T06:58:42.999Z</time></trkpt><trkpt lat="42.06100009806343" lon="11.972640341838307"><ele>222.0</ele><time>2026-03-29T06:58:43.999Z</time></trkpt><trkpt lat="42.06105093116099" lon="11.972535354819922"><ele>222.0</ele><time>2026-03-29T06:58:44.999Z</time></trkpt><trkpt lat="42.061097256059384" lon="11.972415109664077"><ele>222.0</ele><time>2026-03-29T06:58:45.999Z</time></trkpt><trkpt lat="42.06114277722065" lon="11.97230159853123"><ele>222.0</ele><time>2026-03-29T06:58:46.999Z</time></trkpt><trkpt lat="42.061184866378795" lon="11.972203207737671"><ele>222.0</ele><time>2026-03-29T06:58:47.999Z</time></trkpt><trkpt lat="42.06123543972132" lon="11.972108056479243"><ele>221.33333333333334</ele><time>2026-03-29T06:58:48.999Z</time></trkpt><trkpt lat="42.06129110157511" lon="11.97201094783818"><ele>220.66666666666669</ele><time>2026-03-29T06:58:49.999Z</time></trkpt><trkpt lat="42.06135276337372" lon="11.971926632651456"><ele>220.0</ele><time>2026-03-29T06:58:50.999Z</time></trkpt><trkpt lat="42.0614014831881" lon="11.97184023090282"><ele>219.33333333333334</ele><time>2026-03-29T06:58:51.999Z</time></trkpt><trkpt lat="42.061452577211796" lon="11.971756803539476"><ele>218.66666666666669</ele><time>2026-03-29T06:58:52.999Z</time></trkpt><trkpt lat="42.06150743542636" lon="11.9716843225834"><ele>218.0</ele><time>2026-03-29T06:58:53.999Z</time></trkpt><trkpt lat="42.061557474663395" lon="11.971561972168953"><ele>218.50000000000003</ele><time>2026-03-29T06:58:54.999Z</time></trkpt><trkpt lat="42.06161308809705" lon="11.971487058288773"><ele>219.0</ele><time>2026-03-29T06:58:55.999Z</time></trkpt><trkpt lat="42.06167714696216" lon="11.971427858793984"><ele>219.5</ele><time>2026-03-29T06:58:56.999Z</time></trkpt><trkpt lat="42.06175827332525" lon="11.9713944284412"><ele>220.0</ele><time>2026-03-29T06:58:57.999Z</time></trkpt><trkpt lat="42.06182694391713" lon="11.971352034276443"><ele>220.50000000000003</ele><time>2026-03-29T06:58:58.999Z</time></trkpt><trkpt lat="42.0618901597462" lon="11.971313826161193"><ele>221.0</ele><time>2026-03-29T06:58:59.999Z</time></trkpt><trkpt lat="42.06195066099113" lon="11.971284261821081"><ele>221.00000000000003</ele><time>2026-03-29T06:59:00.999Z</time></trkpt><trkpt lat="42.06201282747326" lon="11.971251022599159"><ele>221.0</ele><time>2026-03-29T06:59:01.999Z</time></trkpt><trkpt lat="42.062080301740146" lon="11.971168155925831"><ele>221.0</ele><time>2026-03-29T06:59:03.999Z</time></trkpt><trkpt lat="42.062148307493715" lon="11.971062586503468"><ele>221.0</ele><time>2026-03-29T06:59:05.999Z</time></trkpt><trkpt lat="42.062230458885026" lon="11.970995255345455"><ele>221.00000000000003</ele><time>2026-03-29T06:59:07.999Z</time></trkpt><trkpt lat="42.06230360742822" lon="11.97093324372279"><ele>221.0</ele><time>2026-03-29T06:59:09.999Z</time></trkpt><trkpt lat="42.06237453797521" lon="11.97088341572798"><ele>221.00000000000003</ele><time>2026-03-29T06:59:11.999Z</time></trkpt><trkpt lat="42.06243790058234" lon="11.970801989665281"><ele>221.0</ele><time>2026-03-29T06:59:13.999Z</time></trkpt><trkpt lat="42.06249686194552" lon="11.970748633745723"><ele>221.0</ele><time>2026-03-29T06:59:25Z</time></trkpt><trkpt lat="42.06247899851527" lon="11.97066158592652"><ele>221.0</ele><time>2026-03-29T06:59:42Z</time></trkpt><trkpt lat="42.06243328316248" lon="11.970579974351113"><ele>221.00000000000003</ele><time>2026-03-29T07:00:22Z</time></trkpt><trkpt lat="42.062425250621615" lon="11.97047137397386"><ele>221.0</ele><time>2026-03-29T07:00:26.999Z</time></trkpt><trkpt lat="42.062394066881005" lon="11.97035944518771"><ele>221.00000000000003</ele><time>2026-03-29T07:00:29.999Z</time></trkpt><trkpt lat="42.06240009790469" lon="11.970244646781262"><ele>221.0</ele><time>2026-03-29T07:00:31.999Z</time></trkpt><trkpt lat="42.0623889235937" lon="11.970150195668383"><ele>221.0</ele><time>2026-03-29T07:00:34.999Z</time></trkpt><trkpt lat="42.062382478774865" lon="11.97006522057159"><ele>221.0</ele><time>2026-03-29T07:00:39.999Z</time></trkpt><trkpt lat="42.06244386071943" lon="11.970096489708672"><ele>221.00000000000003</ele><time>2026-03-29T07:00:49.999Z</time></trkpt><trkpt lat="42.062542342896435" lon="11.970103079633937"><ele>221.0</ele><time>2026-03-29T07:00:51.999Z</time></trkpt><trkpt lat="42.06261793883692" lon="11.970099648062194"><ele>221.0</ele><time>2026-03-29T07:00:52.999Z</time></trkpt><trkpt lat="42.062691070540026" lon="11.970087532084484"><ele>221.00000000000003</ele><time>2026-03-29T07:00:53.999Z</time></trkpt><trkpt lat="42.06274599333596" lon="11.970032800387079"><ele>221.00000000000003</ele><time>2026-03-29T07:00:54.999Z</time></trkpt><trkpt lat="42.062799715039944" lon="11.969888020726023"><ele>221.0</ele><time>2026-03-29T07:00:56.999Z</time></trkpt><trkpt lat="42.062787955894315" lon="11.969762085710112"><ele>221.0</ele><time>2026-03-29T07:00:57.999Z</time></trkpt><trkpt lat="42.06283157392679" lon="11.969645687935742"><ele>221.60000000000002</ele><time>2026-03-29T07:00:58.999Z</time></trkpt><trkpt lat="42.06289065278003" lon="11.96952661459653"><ele>222.20000000000002</ele><time>2026-03-29T07:00:59.999Z</time></trkpt><trkpt lat="42.06294041877661" lon="11.969405917721366"><ele>222.79999999999998</ele><time>2026-03-29T07:01:00.999Z</time></trkpt><trkpt lat="42.062993859630524" lon="11.96931546199531"><ele>223.39999999999998</ele><time>2026-03-29T07:01:01.999Z</time></trkpt><trkpt lat="42.06303854522756" lon="11.969213304632367"><ele>224.0</ele><time>2026-03-29T07:01:02.999Z</time></trkpt><trkpt lat="42.063093939374085" lon="11.969099910551515"><ele>225.16666666666669</ele><time>2026-03-29T07:01:04.999Z</time></trkpt><trkpt lat="42.063101736265715" lon="11.968999169697621"><ele>226.33333333333334</ele><time>2026-03-29T07:01:05.999Z</time></trkpt><trkpt lat="42.06307000502395" lon="11.968844799707211"><ele>227.5</ele><time>2026-03-29T07:01:07.999Z</time></trkpt><trkpt lat="42.06303671521837" lon="11.968770668583097"><ele>228.66666666666669</ele><time>2026-03-29T07:01:08.999Z</time></trkpt><trkpt lat="42.06298925233927" lon="11.968703013503701"><ele>229.83333333333334</ele><time>2026-03-29T07:01:09.999Z</time></trkpt><trkpt lat="42.06297059268199" lon="11.968621265994733"><ele>231.0</ele><time>2026-03-29T07:01:10.999Z</time></trkpt><trkpt lat="42.0630140807341" lon="11.96846325911771"><ele>231.0</ele><time>2026-03-29T07:01:12.999Z</time></trkpt><trkpt lat="42.06304617749818" lon="11.968390164370359"><ele>231.0</ele><time>2026-03-29T07:01:13.999Z</time></trkpt><trkpt lat="42.06310072382499" lon="11.968317424206845"><ele>231.0</ele><time>2026-03-29T07:01:14.999Z</time></trkpt><trkpt lat="42.06314304573308" lon="11.968236286327043"><ele>231.0</ele><time>2026-03-29T07:01:15.999Z</time></trkpt><trkpt lat="42.063160479403805" lon="11.968086010325658"><ele>231.0</ele><time>2026-03-29T07:01:17.999Z</time></trkpt><trkpt lat="42.06317459871777" lon="11.967960971930442"><ele>231.0</ele><time>2026-03-29T07:01:18.999Z</time></trkpt><trkpt lat="42.0631821251395" lon="11.967836869497527"><ele>231.8</ele><time>2026-03-29T07:01:19.999Z</time></trkpt><trkpt lat="42.063190531025036" lon="11.967708957193882"><ele>232.60000000000002</ele><time>2026-03-29T07:01:20.999Z</time></trkpt><trkpt lat="42.06322122225185" lon="11.967608537866287"><ele>233.4</ele><time>2026-03-29T07:01:21.999Z</time></trkpt><trkpt lat="42.0632735895189" lon="11.967521248476864"><ele>234.2</ele><time>2026-03-29T07:01:22.999Z</time></trkpt><trkpt lat="42.06336879105944" lon="11.967397539936508"><ele>235.0</ele><time>2026-03-29T07:01:24.999Z</time></trkpt><trkpt lat="42.06342748686241" lon="11.967361495176972"><ele>237.49999999999997</ele><time>2026-03-29T07:01:25.999Z</time></trkpt><trkpt lat="42.0634870413891" lon="11.967326398747382"><ele>240.0</ele><time>2026-03-29T07:01:26.999Z</time></trkpt><trkpt lat="42.06359114476042" lon="11.967336915489252"><ele>242.5</ele><time>2026-03-29T07:01:28.999Z</time></trkpt><trkpt lat="42.06369259474637" lon="11.967285025538203"><ele>245.0</ele><time>2026-03-29T07:01:31Z</time></trkpt><trkpt lat="42.06376325707062" lon="11.967228114210453"><ele>247.49999999999997</ele><time>2026-03-29T07:01:32Z</time></trkpt><trkpt lat="42.063827204390236" lon="11.967147868386096"><ele>250.0</ele><time>2026-03-29T07:01:33Z</time></trkpt><trkpt lat="42.06388886889442" lon="11.967055064527292"><ele>249.99999999999997</ele><time>2026-03-29T07:01:34Z</time></trkpt><trkpt lat="42.063950967399585" lon="11.966987228393046"><ele>250.0</ele><time>2026-03-29T07:01:35Z</time></trkpt><trkpt lat="42.06402218070027" lon="11.96695316014314"><ele>250.0</ele><time>2026-03-29T07:01:36Z</time></trkpt><trkpt lat="42.064115174698955" lon="11.966936220488552"><ele>250.0</ele><time>2026-03-29T07:01:37Z</time></trkpt><trkpt lat="42.06420324594586" lon="11.966926894169745"><ele>249.99999999999997</ele><time>2026-03-29T07:01:38Z</time></trkpt><trkpt lat="42.06428901482942" lon="11.96689631749957"><ele>250.0</ele><time>2026-03-29T07:01:39Z</time></trkpt><trkpt lat="42.06438934227138" lon="11.966834809553976"><ele>250.6</ele><time>2026-03-29T07:01:40Z</time></trkpt><trkpt lat="42.064481384538034" lon="11.966771868447664"><ele>251.2</ele><time>2026-03-29T07:01:41Z</time></trkpt><trkpt lat="42.06458840069602" lon="11.966708289425359"><ele>251.8</ele><time>2026-03-29T07:01:42Z</time></trkpt><trkpt lat="42.06468342355392" lon="11.96665681855057"><ele>252.4</ele><time>2026-03-29T07:01:43Z</time></trkpt><trkpt lat="42.06475574704465" lon="11.966603792002422"><ele>253.0</ele><time>2026-03-29T07:01:44Z</time></trkpt><trkpt lat="42.06482824260473" lon="11.966530868064133"><ele>253.0</ele><time>2026-03-29T07:01:45Z</time></trkpt><trkpt lat="42.06491243068384" lon="11.966454246033106"><ele>253.0</ele><time>2026-03-29T07:01:46Z</time></trkpt><trkpt lat="42.064979225905766" lon="11.966393458488144"><ele>253.0</ele><time>2026-03-29T07:01:47Z</time></trkpt><trkpt lat="42.065105706993485" lon="11.966362627682104"><ele>253.0</ele><time>2026-03-29T07:01:49Z</time></trkpt><trkpt lat="42.06517056281967" lon="11.96637963459963"><ele>253.0</ele><time>2026-03-29T07:01:50Z</time></trkpt><trkpt lat="42.065287674364285" lon="11.966445697949572"><ele>254.4</ele><time>2026-03-29T07:01:52Z</time></trkpt><trkpt lat="42.06536080408456" lon="11.966444171092846"><ele>255.8</ele><time>2026-03-29T07:01:53Z</time></trkpt><trkpt lat="42.065495706320945" lon="11.966435499485696"><ele>257.2</ele><time>2026-03-29T07:01:55Z</time></trkpt><trkpt lat="42.06556570375582" lon="11.966395959073795"><ele>258.6</ele><time>2026-03-29T07:01:56Z</time></trkpt><trkpt lat="42.06561784139947" lon="11.96627256892819"><ele>260.0</ele><time>2026-03-29T07:01:58Z</time></trkpt><trkpt lat="42.065657675051945" lon="11.966077818954671"><ele>260.0</ele><time>2026-03-29T07:02:00Z</time></trkpt><trkpt lat="42.065683217134634" lon="11.965999165480598"><ele>260.0</ele><time>2026-03-29T07:02:01Z</time></trkpt><trkpt lat="42.06571861909954" lon="11.965924482988013"><ele>260.0</ele><time>2026-03-29T07:02:02Z</time></trkpt><trkpt lat="42.06576173562372" lon="11.965857600264432"><ele>260.0</ele><time>2026-03-29T07:02:03Z</time></trkpt><trkpt lat="42.06584344346886" lon="11.965733001797734"><ele>260.0</ele><time>2026-03-29T07:02:05Z</time></trkpt><trkpt lat="42.06590896998689" lon="11.965716172712453"><ele>260.0</ele><time>2026-03-29T07:02:06Z</time></trkpt><trkpt lat="42.066007716832246" lon="11.96568957371681"><ele>263.2</ele><time>2026-03-29T07:02:08Z</time></trkpt><trkpt lat="42.06609292418163" lon="11.965685228408864"><ele>266.4</ele><time>2026-03-29T07:02:10Z</time></trkpt><trkpt lat="42.066186486693745" lon="11.965622638439696"><ele>269.6</ele><time>2026-03-29T07:02:12Z</time></trkpt><trkpt lat="42.066296915573346" lon="11.965572913508836"><ele>272.8</ele><time>2026-03-29T07:02:14Z</time></trkpt><trkpt lat="42.06639608244807" lon="11.965552235148719"><ele>276.0</ele><time>2026-03-29T07:02:16Z</time></trkpt><trkpt lat="42.06645905326109" lon="11.965536382284533"><ele>276.0</ele><time>2026-03-29T07:02:20Z</time></trkpt><trkpt lat="42.06658109914069" lon="11.965463618831706"><ele>276.0</ele><time>2026-03-29T07:02:23Z</time></trkpt><trkpt lat="42.06665276909123" lon="11.965408375711"><ele>276.0</ele><time>2026-03-29T07:02:25Z</time></trkpt><trkpt lat="42.0667059969808" lon="11.965351010461568"><ele>276.0</ele><time>2026-03-29T07:02:26Z</time></trkpt><trkpt lat="42.06681696707013" lon="11.965295075655645"><ele>276.0</ele><time>2026-03-29T07:02:27Z</time></trkpt><trkpt lat="42.06690843259187" lon="11.965171330291367"><ele>278.6</ele><time>2026-03-29T07:02:28Z</time></trkpt><trkpt lat="42.06697898342488" lon="11.96511182978194"><ele>281.20000000000005</ele><time>2026-03-29T07:02:29Z</time></trkpt><trkpt lat="42.06702425744238" lon="11.965049836010389"><ele>283.79999999999995</ele><time>2026-03-29T07:02:29.999Z</time></trkpt><trkpt lat="42.067059823351684" lon="11.964917091814765"><ele>286.4</ele><time>2026-03-29T07:02:31.999Z</time></trkpt><trkpt lat="42.06714039305808" lon="11.96490936597227"><ele>289.0</ele><time>2026-03-29T07:02:35.999Z</time></trkpt><trkpt lat="42.0672763897015" lon="11.964870210422724"><ele>290.25</ele><time>2026-03-29T07:02:38.999Z</time></trkpt><trkpt lat="42.067380897078394" lon="11.964877195410562"><ele>291.5</ele><time>2026-03-29T07:02:39.999Z</time></trkpt><trkpt lat="42.06753955479524" lon="11.964937431508424"><ele>292.75</ele><time>2026-03-29T07:02:40.999Z</time></trkpt><trkpt lat="42.067666540579" lon="11.964997002129255"><ele>294.0</ele><time>2026-03-29T07:02:41.999Z</time></trkpt><trkpt lat="42.06776742568411" lon="11.965059104501751"><ele>294.59999999999997</ele><time>2026-03-29T07:02:42.999Z</time></trkpt><trkpt lat="42.06786432826291" lon="11.96511796762164"><ele>295.2</ele><time>2026-03-29T07:02:43.999Z</time></trkpt><trkpt lat="42.06793206050013" lon="11.965148646556198"><ele>295.79999999999995</ele><time>2026-03-29T07:02:44.999Z</time></trkpt><trkpt lat="42.06800202255441" lon="11.965160570160029"><ele>296.4</ele><time>2026-03-29T07:02:45.999Z</time></trkpt><trkpt lat="42.068110578595864" lon="11.965192867941257"><ele>297.0</ele><time>2026-03-29T07:02:47.999Z</time></trkpt><trkpt lat="42.06821073439192" lon="11.965269370610805"><ele>298.1666666666667</ele><time>2026-03-29T07:02:49.999Z</time></trkpt><trkpt lat="42.068298400460954" lon="11.96535674619941"><ele>299.3333333333333</ele><time>2026-03-29T07:02:51.999Z</time></trkpt><trkpt lat="42.06835320457877" lon="11.965406318179712"><ele>300.5</ele><time>2026-03-29T07:02:52.999Z</time></trkpt><trkpt lat="42.06841675991786" lon="11.965477283525226"><ele>301.66666666666663</ele><time>2026-03-29T07:02:53.999Z</time></trkpt><trkpt lat="42.06848839344818" lon="11.965536856509837"><ele>302.8333333333333</ele><time>2026-03-29T07:02:54.999Z</time></trkpt><trkpt lat="42.068547458536585" lon="11.96558398471289"><ele>304.0</ele><time>2026-03-29T07:02:55.999Z</time></trkpt><trkpt lat="42.06862006751999" lon="11.965622651418537"><ele>304.0</ele><time>2026-03-29T07:02:56.999Z</time></trkpt><trkpt lat="42.068711538430605" lon="11.96567017899029"><ele>304.0</ele><time>2026-03-29T07:02:57.999Z</time></trkpt><trkpt lat="42.06881486513734" lon="11.965715212024582"><ele>304.0</ele><time>2026-03-29T07:02:58.999Z</time></trkpt><trkpt lat="42.06893276650669" lon="11.96573186883773"><ele>304.0</ele><time>2026-03-29T07:02:59.999Z</time></trkpt><trkpt lat="42.06903362679187" lon="11.965759359454411"><ele>304.0</ele><time>2026-03-29T07:03:00.999Z</time></trkpt><trkpt lat="42.069109164514295" lon="11.96578311899821"><ele>304.8333333333333</ele><time>2026-03-29T07:03:01.999Z</time></trkpt><trkpt lat="42.069187719418046" lon="11.965798544847685"><ele>305.66666666666663</ele><time>2026-03-29T07:03:02.999Z</time></trkpt><trkpt lat="42.06930612453915" lon="11.965826387962284"><ele>306.5</ele><time>2026-03-29T07:03:04.999Z</time></trkpt><trkpt lat="42.06936713184836" lon="11.965869574586076"><ele>307.3333333333333</ele><time>2026-03-29T07:03:05.999Z</time></trkpt><trkpt lat="42.0694168131333" lon="11.965937098690715"><ele>308.1666666666667</ele><time>2026-03-29T07:03:09.999Z</time></trkpt><trkpt lat="42.06946722630209" lon="11.966042314092542"><ele>309.0</ele><time>2026-03-29T07:03:15.999Z</time></trkpt><trkpt lat="42.06946927886817" lon="11.966148564753096"><ele>309.0</ele><time>2026-03-29T07:03:17.999Z</time></trkpt><trkpt lat="42.06946119466088" lon="11.966325252531764"><ele>309.0</ele><time>2026-03-29T07:03:19.999Z</time></trkpt><trkpt lat="42.06946424194572" lon="11.966417895552716"><ele>309.0</ele><time>2026-03-29T07:03:20.999Z</time></trkpt><trkpt lat="42.06949156870606" lon="11.966559671007492"><ele>309.0</ele><time>2026-03-29T07:03:22.999Z</time></trkpt><trkpt lat="42.06955454931527" lon="11.966708223690237"><ele>309.0</ele><time>2026-03-29T07:03:24.999Z</time></trkpt><trkpt lat="42.069585181427364" lon="11.966804630848968"><ele>309.1666666666667</ele><time>2026-03-29T07:03:25.999Z</time></trkpt><trkpt lat="42.0696013731555" lon="11.966913081103227"><ele>309.3333333333333</ele><time>2026-03-29T07:03:26.999Z</time></trkpt><trkpt lat="42.06961548263099" lon="11.967007100250068"><ele>309.5</ele><time>2026-03-29T07:03:27.999Z</time></trkpt><trkpt lat="42.069651184733075" lon="11.967094232427087"><ele>309.66666666666663</ele><time>2026-03-29T07:03:28.999Z</time></trkpt><trkpt lat="42.069697785306836" lon="11.96716048953645"><ele>309.8333333333333</ele><time>2026-03-29T07:03:29.999Z</time></trkpt><trkpt lat="42.069777054629505" lon="11.967275776200168"><ele>310.0</ele><time>2026-03-29T07:03:31.999Z</time></trkpt><trkpt lat="42.069777222089165" lon="11.967409425629496"><ele>310.0</ele><time>2026-03-29T07:03:33.999Z</time></trkpt><trkpt lat="42.06974278248306" lon="11.967489872728384"><ele>310.0</ele><time>2026-03-29T07:03:34.999Z</time></trkpt><trkpt lat="42.069707756031136" lon="11.967561161170552"><ele>310.0</ele><time>2026-03-29T07:03:36Z</time></trkpt><trkpt lat="42.06966709327944" lon="11.967642375364575"><ele>310.0</ele><time>2026-03-29T07:03:37Z</time></trkpt><trkpt lat="42.06965641554807" lon="11.96780322296129"><ele>310.0</ele><time>2026-03-29T07:03:39Z</time></trkpt><trkpt lat="42.069713416359654" lon="11.967951804022505"><ele>310.0</ele><time>2026-03-29T07:03:41Z</time></trkpt><trkpt lat="42.069794534302" lon="11.968072580695662"><ele>310.3333333333333</ele><time>2026-03-29T07:03:43Z</time></trkpt><trkpt lat="42.06979754014041" lon="11.968263042828763"><ele>310.66666666666663</ele><time>2026-03-29T07:03:45Z</time></trkpt><trkpt lat="42.069798618123656" lon="11.96835655943208"><ele>311.0</ele><time>2026-03-29T07:03:46Z</time></trkpt><trkpt lat="42.069801766629205" lon="11.96844998377956"><ele>311.3333333333333</ele><time>2026-03-29T07:03:47Z</time></trkpt><trkpt lat="42.069783327151946" lon="11.968542141107093"><ele>311.6666666666667</ele><time>2026-03-29T07:03:48Z</time></trkpt><trkpt lat="42.06979220039315" lon="11.968656459505228"><ele>312.0</ele><time>2026-03-29T07:03:50Z</time></trkpt><trkpt lat="42.06982727642869" lon="11.96873179558795"><ele>312.0</ele><time>2026-03-29T07:03:52Z</time></trkpt><trkpt lat="42.06986098278176" lon="11.968875227764665"><ele>312.0</ele><time>2026-03-29T07:03:54Z</time></trkpt><trkpt lat="42.06987689602227" lon="11.969017832136748"><ele>312.0</ele><time>2026-03-29T07:03:56Z</time></trkpt><trkpt lat="42.06995117357991" lon="11.96912005300231"><ele>312.0</ele><time>2026-03-29T07:03:58Z</time></trkpt><trkpt lat="42.07000753322115" lon="11.969166095923304"><ele>312.0</ele><time>2026-03-29T07:03:59Z</time></trkpt><trkpt lat="42.07009507411973" lon="11.969261799242872"><ele>311.8333333333333</ele><time>2026-03-29T07:04:01Z</time></trkpt><trkpt lat="42.070102357700435" lon="11.969404800671555"><ele>311.6666666666667</ele><time>2026-03-29T07:04:03Z</time></trkpt><trkpt lat="42.070059798349675" lon="11.969487097583366"><ele>311.5</ele><time>2026-03-29T07:04:04Z</time></trkpt><trkpt lat="42.07007297256319" lon="11.969622997415383"><ele>311.33333333333337</ele><time>2026-03-29T07:04:06Z</time></trkpt><trkpt lat="42.07017500305444" lon="11.96961818226824"><ele>311.1666666666667</ele><time>2026-03-29T07:04:08Z</time></trkpt><trkpt lat="42.07023363915034" lon="11.969653949268354"><ele>311.0</ele><time>2026-03-29T07:04:09Z</time></trkpt><trkpt lat="42.07036054449148" lon="11.969662492947045"><ele>311.0</ele><time>2026-03-29T07:04:11Z</time></trkpt><trkpt lat="42.0704512980506" lon="11.969657682501193"><ele>311.0</ele><time>2026-03-29T07:04:12Z</time></trkpt><trkpt lat="42.0705142740653" lon="11.96966701249127"><ele>311.0</ele><time>2026-03-29T07:04:13Z</time></trkpt><trkpt lat="42.070618867275336" lon="11.969721432955117"><ele>311.0</ele><time>2026-03-29T07:04:15Z</time></trkpt><trkpt lat="42.07074444951682" lon="11.969759284390893"><ele>311.0</ele><time>2026-03-29T07:04:17Z</time></trkpt><trkpt lat="42.07084566193779" lon="11.969758300229012"><ele>313.0</ele><time>2026-03-29T07:04:19Z</time></trkpt><trkpt lat="42.07093297454162" lon="11.969860105555389"><ele>315.0</ele><time>2026-03-29T07:04:21Z</time></trkpt><trkpt lat="42.07102078673522" lon="11.969939980212262"><ele>317.0</ele><time>2026-03-29T07:04:23Z</time></trkpt><trkpt lat="42.071108822698505" lon="11.969991810437671"><ele>319.0</ele><time>2026-03-29T07:04:25Z</time></trkpt><trkpt lat="42.07117696602131" lon="11.969956909269529"><ele>321.0</ele><time>2026-03-29T07:04:27Z</time></trkpt><trkpt lat="42.071273690416774" lon="11.969975165860262"><ele>321.0</ele><time>2026-03-29T07:04:29Z</time></trkpt><trkpt lat="42.07133962602937" lon="11.96998375940927"><ele>321.0</ele><time>2026-03-29T07:04:30Z</time></trkpt><trkpt lat="42.0714522485321" lon="11.969995415438062"><ele>321.0</ele><time>2026-03-29T07:04:32Z</time></trkpt><trkpt lat="42.07156923560355" lon="11.970026939191827"><ele>321.0</ele><time>2026-03-29T07:04:34Z</time></trkpt><trkpt lat="42.07166789483426" lon="11.970103895140781"><ele>321.0</ele><time>2026-03-29T07:04:35.999Z</time></trkpt><trkpt lat="42.07174163081651" lon="11.97010458270345"><ele>324.4</ele><time>2026-03-29T07:04:37.999Z</time></trkpt><trkpt lat="42.071855018934606" lon="11.970054563579074"><ele>327.8</ele><time>2026-03-29T07:04:39.999Z</time></trkpt><trkpt lat="42.07194782801444" lon="11.970044692411689"><ele>331.2</ele><time>2026-03-29T07:04:41.999Z</time></trkpt><trkpt lat="42.0720101737545" lon="11.970107908516683"><ele>334.59999999999997</ele><time>2026-03-29T07:04:43.999Z</time></trkpt><trkpt lat="42.072080517377785" lon="11.970164447159874"><ele>338.0</ele><time>2026-03-29T07:04:45.999Z</time></trkpt><trkpt lat="42.07217483075197" lon="11.970208449480923"><ele>338.0</ele><time>2026-03-29T07:04:47.999Z</time></trkpt><trkpt lat="42.07226845071989" lon="11.970246026733651"><ele>338.0</ele><time>2026-03-29T07:04:50.999Z</time></trkpt><trkpt lat="42.07230481946909" lon="11.97036801436629"><ele>338.0</ele><time>2026-03-29T07:07:49Z</time></trkpt><trkpt lat="42.07234330929171" lon="11.970457467124374"><ele>338.0</ele><time>2026-03-29T07:07:51Z</time></trkpt><trkpt lat="42.072389305743634" lon="11.970574132090212"><ele>338.0</ele><time>2026-03-29T07:07:53Z</time></trkpt><trkpt lat="42.07241822114163" lon="11.970690823504546"><ele>342.1666666666667</ele><time>2026-03-29T07:07:55Z</time></trkpt><trkpt lat="42.0724751804079" lon="11.97074110522956"><ele>346.33333333333337</ele><time>2026-03-29T07:07:57Z</time></trkpt><trkpt lat="42.07256039256727" lon="11.970706757764582"><ele>350.5</ele><time>2026-03-29T07:08:00Z</time></trkpt><trkpt lat="42.072650097016435" lon="11.970616890876776"><ele>354.6666666666667</ele><time>2026-03-29T07:08:02Z</time></trkpt><trkpt lat="42.07271765974798" lon="11.970566439783859"><ele>358.8333333333333</ele><time>2026-03-29T07:08:04Z</time></trkpt><trkpt lat="42.072782111744296" lon="11.970654411481462"><ele>363.0</ele><time>2026-03-29T07:08:07Z</time></trkpt><trkpt lat="42.072867155857125" lon="11.970749924332043"><ele>363.0</ele><time>2026-03-29T07:08:09Z</time></trkpt><trkpt lat="42.072940257341564" lon="11.9708253404113"><ele>363.0</ele><time>2026-03-29T07:08:11Z</time></trkpt><trkpt lat="42.07302778970214" lon="11.97086732237171"><ele>363.0</ele><time>2026-03-29T07:08:13Z</time></trkpt><trkpt lat="42.07311791412588" lon="11.970810815690022"><ele>363.0</ele><time>2026-03-29T07:08:15Z</time></trkpt><trkpt lat="42.07323050671673" lon="11.970781857023328"><ele>363.0</ele><time>2026-03-29T07:08:17Z</time></trkpt><trkpt lat="42.073310301934185" lon="11.97077498641563"><ele>362.1666666666667</ele><time>2026-03-29T07:08:19Z</time></trkpt><trkpt lat="42.07336126454055" lon="11.970882137902835"><ele>361.3333333333333</ele><time>2026-03-29T07:08:21Z</time></trkpt><trkpt lat="42.07340638162193" lon="11.970964996853947"><ele>360.5</ele><time>2026-03-29T07:08:23Z</time></trkpt><trkpt lat="42.07346909374334" lon="11.971046723545287"><ele>359.66666666666663</ele><time>2026-03-29T07:08:25Z</time></trkpt><trkpt lat="42.07352262515905" lon="11.971112548401916"><ele>358.8333333333333</ele><time>2026-03-29T07:08:27Z</time></trkpt><trkpt lat="42.073608256915584" lon="11.971212954762372"><ele>358.0</ele><time>2026-03-29T07:08:29Z</time></trkpt><trkpt lat="42.07368008222577" lon="11.971321549438096"><ele>358.0</ele><time>2026-03-29T07:08:31Z</time></trkpt><trkpt lat="42.073747467695554" lon="11.971398028556862"><ele>358.0</ele><time>2026-03-29T07:08:33Z</time></trkpt><trkpt lat="42.073843736440345" lon="11.971408183139445"><ele>358.0</ele><time>2026-03-29T07:08:35Z</time></trkpt><trkpt lat="42.07396692751668" lon="11.971488689476034"><ele>358.0</ele><time>2026-03-29T07:08:37Z</time></trkpt><trkpt lat="42.07402118802015" lon="11.971533874962473"><ele>358.0</ele><time>2026-03-29T07:08:38Z</time></trkpt><trkpt lat="42.074119435924096" lon="11.971609942697935"><ele>358.66666666666663</ele><time>2026-03-29T07:08:40Z</time></trkpt><trkpt lat="42.0742087524752" lon="11.971661236938782"><ele>359.3333333333333</ele><time>2026-03-29T07:08:42Z</time></trkpt><trkpt lat="42.074292252174345" lon="11.971705253793651"><ele>360.0</ele><time>2026-03-29T07:08:44Z</time></trkpt><trkpt lat="42.07438614191998" lon="11.971772565284816"><ele>360.6666666666667</ele><time>2026-03-29T07:08:45.999Z</time></trkpt><trkpt lat="42.07444050912807" lon="11.971821534022533"><ele>361.33333333333337</ele><time>2026-03-29T07:08:46.999Z</time></trkpt><trkpt lat="42.07448831694344" lon="11.971886061302092"><ele>362.0</ele><time>2026-03-29T07:08:47.999Z</time></trkpt><trkpt lat="42.07455900730868" lon="11.971930501678695"><ele>360.0</ele><time>2026-03-29T07:08:48.999Z</time></trkpt><trkpt lat="42.07462092147407" lon="11.97196994588951"><ele>358.0</ele><time>2026-03-29T07:08:49.999Z</time></trkpt><trkpt lat="42.07470359306953" lon="11.972046519393583"><ele>356.0</ele><time>2026-03-29T07:08:51.999Z</time></trkpt><trkpt lat="42.07473932065576" lon="11.972117288354582"><ele>354.0</ele><time>2026-03-29T07:08:53.999Z</time></trkpt><trkpt lat="42.07482077106676" lon="11.97222202726342"><ele>352.0</ele><time>2026-03-29T07:08:55.999Z</time></trkpt><trkpt lat="42.074918017187464" lon="11.972280519040911"><ele>353.6</ele><time>2026-03-29T07:08:57.999Z</time></trkpt><trkpt lat="42.07502263530887" lon="11.972329422669096"><ele>355.20000000000005</ele><time>2026-03-29T07:08:59.999Z</time></trkpt><trkpt lat="42.07510845124412" lon="11.972401469522437"><ele>356.8</ele><time>2026-03-29T07:09:01.999Z</time></trkpt><trkpt lat="42.0752003205306" lon="11.972441918171482"><ele>358.4</ele><time>2026-03-29T07:09:03.999Z</time></trkpt><trkpt lat="42.075301956378574" lon="11.972496125279314"><ele>360.0</ele><time>2026-03-29T07:09:05.999Z</time></trkpt><trkpt lat="42.07536456573161" lon="11.972581586863429"><ele>360.0</ele><time>2026-03-29T07:09:07.999Z</time></trkpt><trkpt lat="42.07539988816775" lon="11.972696499723192"><ele>360.0</ele><time>2026-03-29T07:09:10.999Z</time></trkpt><trkpt lat="42.07546752404122" lon="11.972741408667082"><ele>360.0</ele><time>2026-03-29T07:09:12.999Z</time></trkpt><trkpt lat="42.075546543364084" lon="11.97278074850422"><ele>360.0</ele><time>2026-03-29T07:09:13.999Z</time></trkpt><trkpt lat="42.07561581907006" lon="11.972796236049733"><ele>360.0</ele><time>2026-03-29T07:09:14.999Z</time></trkpt><trkpt lat="42.075705560133294" lon="11.97277905270088"><ele>360.0</ele><time>2026-03-29T07:09:16.999Z</time></trkpt><trkpt lat="42.07573236676194" lon="11.972875277714355"><ele>360.0</ele><time>2026-03-29T07:09:21.999Z</time></trkpt><trkpt lat="42.075746814779" lon="11.972975630261677"><ele>360.0</ele><time>2026-03-29T07:09:25.999Z</time></trkpt><trkpt lat="42.07579473090959" lon="11.973061461833932"><ele>360.0</ele><time>2026-03-29T07:09:28.999Z</time></trkpt><trkpt lat="42.0758393160827" lon="11.973174855699463"><ele>360.0</ele><time>2026-03-29T07:09:31.999Z</time></trkpt><trkpt lat="42.075895256343124" lon="11.973292968712848"><ele>360.0</ele><time>2026-03-29T07:09:33.999Z</time></trkpt><trkpt lat="42.07595849454056" lon="11.973382824344553"><ele>360.0</ele><time>2026-03-29T07:09:35.999Z</time></trkpt><trkpt lat="42.076016166840446" lon="11.973470216412515"><ele>358.5</ele><time>2026-03-29T07:09:37.999Z</time></trkpt><trkpt lat="42.07606181670872" lon="11.973569743652032"><ele>357.0</ele><time>2026-03-29T07:09:39.999Z</time></trkpt><trkpt lat="42.07609687848044" lon="11.973679117619932"><ele>355.5</ele><time>2026-03-29T07:09:41.999Z</time></trkpt><trkpt lat="42.07611143962156" lon="11.973810988115636"><ele>354.0</ele><time>2026-03-29T07:09:43.999Z</time></trkpt><trkpt lat="42.07614538267829" lon="11.97389691764378"><ele>352.5</ele><time>2026-03-29T07:09:45.999Z</time></trkpt><trkpt lat="42.076186715814714" lon="11.973972844950966"><ele>351.0</ele><time>2026-03-29T07:09:47.999Z</time></trkpt><trkpt lat="42.07622451936494" lon="11.97404983293348"><ele>351.0</ele><time>2026-03-29T07:09:49.999Z</time></trkpt><trkpt lat="42.076261254201476" lon="11.974149072213594"><ele>351.0</ele><time>2026-03-29T07:09:51.999Z</time></trkpt><trkpt lat="42.076300763061006" lon="11.974281859300167"><ele>351.0</ele><time>2026-03-29T07:09:54Z</time></trkpt><trkpt lat="42.0763240650738" lon="11.974373665506096"><ele>351.0</ele><time>2026-03-29T07:09:56Z</time></trkpt><trkpt lat="42.07632228519481" lon="11.97446954185078"><ele>351.0</ele><time>2026-03-29T07:09:58Z</time></trkpt><trkpt lat="42.07633445876716" lon="11.974585768799995"><ele>351.0</ele><time>2026-03-29T07:10:00Z</time></trkpt><trkpt lat="42.076292976749784" lon="11.974703428405078"><ele>346.6</ele><time>2026-03-29T07:10:02Z</time></trkpt><trkpt lat="42.07622172219149" lon="11.97480757419239"><ele>342.20000000000005</ele><time>2026-03-29T07:10:04Z</time></trkpt><trkpt lat="42.07614971329649" lon="11.974878813331042"><ele>337.79999999999995</ele><time>2026-03-29T07:10:06Z</time></trkpt><trkpt lat="42.0760227244336" lon="11.974847059442723"><ele>333.4</ele><time>2026-03-29T07:10:08Z</time></trkpt><trkpt lat="42.075927241442756" lon="11.974868221834916"><ele>329.0</ele><time>2026-03-29T07:10:10Z</time></trkpt><trkpt lat="42.075816771724156" lon="11.97487412551212"><ele>326.6666666666667</ele><time>2026-03-29T07:10:12Z</time></trkpt><trkpt lat="42.07572918481931" lon="11.974861035046345"><ele>324.33333333333337</ele><time>2026-03-29T07:10:14Z</time></trkpt><trkpt lat="42.075658905882634" lon="11.974911084177887"><ele>322.0</ele><time>2026-03-29T07:10:16Z</time></trkpt><trkpt lat="42.07557825890339" lon="11.974923048979987"><ele>319.6666666666667</ele><time>2026-03-29T07:10:18Z</time></trkpt><trkpt lat="42.07551305171171" lon="11.974921339916513"><ele>317.3333333333333</ele><time>2026-03-29T07:10:20Z</time></trkpt><trkpt lat="42.075480616996465" lon="11.975031321276544"><ele>315.0</ele><time>2026-03-29T07:10:23Z</time></trkpt><trkpt lat="42.07548622777779" lon="11.975148611593303"><ele>313.0</ele><time>2026-03-29T07:10:26Z</time></trkpt><trkpt lat="42.07549607356718" lon="11.975264389699458"><ele>311.0</ele><time>2026-03-29T07:10:28Z</time></trkpt><trkpt lat="42.07551390815587" lon="11.975365335411414"><ele>309.0</ele><time>2026-03-29T07:10:30Z</time></trkpt><trkpt lat="42.075548637503" lon="11.97548206983332"><ele>307.0</ele><time>2026-03-29T07:10:34Z</time></trkpt><trkpt lat="42.07550813235979" lon="11.975567719445527"><ele>305.0</ele><time>2026-03-29T07:10:36Z</time></trkpt><trkpt lat="42.07551134045389" lon="11.975663454343318"><ele>303.0</ele><time>2026-03-29T07:10:39Z</time></trkpt><trkpt lat="42.07554553812531" lon="11.975746507261873"><ele>302.5</ele><time>2026-03-29T07:10:41Z</time></trkpt><trkpt lat="42.075577189000455" lon="11.97585934378784"><ele>302.0</ele><time>2026-03-29T07:10:43Z</time></trkpt><trkpt lat="42.075594089917274" lon="11.975971632774364"><ele>301.5</ele><time>2026-03-29T07:10:45Z</time></trkpt><trkpt lat="42.07559161467119" lon="11.976106746885394"><ele>301.0</ele><time>2026-03-29T07:10:47Z</time></trkpt><trkpt lat="42.07558660615688" lon="11.976231754926411"><ele>300.5</ele><time>2026-03-29T07:10:49Z</time></trkpt><trkpt lat="42.075587592094216" lon="11.976334660844682"><ele>300.0</ele><time>2026-03-29T07:10:52.999Z</time></trkpt><trkpt lat="42.07563630625826" lon="11.97643333288115"><ele>300.0</ele><time>2026-03-29T07:10:55.999Z</time></trkpt><trkpt lat="42.07570651172309" lon="11.9765188310536"><ele>300.0</ele><time>2026-03-29T07:10:57.999Z</time></trkpt><trkpt lat="42.075761007919326" lon="11.976574706824941"><ele>300.0</ele><time>2026-03-29T07:10:58.999Z</time></trkpt><trkpt lat="42.0758401239276" lon="11.976638729715717"><ele>300.0</ele><time>2026-03-29T07:10:59.999Z</time></trkpt><trkpt lat="42.07589708006794" lon="11.976694176812671"><ele>300.0</ele><time>2026-03-29T07:11:00.999Z</time></trkpt><trkpt lat="42.075962122858975" lon="11.976747247856729"><ele>300.0</ele><time>2026-03-29T07:11:01.999Z</time></trkpt><trkpt lat="42.07602166432517" lon="11.976804986964845"><ele>303.0</ele><time>2026-03-29T07:11:02.999Z</time></trkpt><trkpt lat="42.07608496873034" lon="11.976866696074346"><ele>306.0</ele><time>2026-03-29T07:11:03.999Z</time></trkpt><trkpt lat="42.076147383553945" lon="11.976936455069543"><ele>309.0</ele><time>2026-03-29T07:11:04.999Z</time></trkpt><trkpt lat="42.07620358498786" lon="11.977003606718096"><ele>312.0</ele><time>2026-03-29T07:11:05.999Z</time></trkpt><trkpt lat="42.076258733119225" lon="11.977076307118514"><ele>315.0</ele><time>2026-03-29T07:11:06.999Z</time></trkpt><trkpt lat="42.07634721923037" lon="11.977188753698998"><ele>318.0</ele><time>2026-03-29T07:11:08.999Z</time></trkpt><trkpt lat="42.07645967164379" lon="11.977289166206358"><ele>318.0</ele><time>2026-03-29T07:11:10.999Z</time></trkpt><trkpt lat="42.07656200844289" lon="11.977335987261807"><ele>318.0</ele><time>2026-03-29T07:11:12.999Z</time></trkpt><trkpt lat="42.07663027160849" lon="11.977354629227786"><ele>318.0</ele><time>2026-03-29T07:11:13.999Z</time></trkpt><trkpt lat="42.07669762788073" lon="11.977381607546146"><ele>318.0</ele><time>2026-03-29T07:11:14.999Z</time></trkpt><trkpt lat="42.076757196819756" lon="11.977414851677835"><ele>318.0</ele><time>2026-03-29T07:11:15.999Z</time></trkpt><trkpt lat="42.07682322690567" lon="11.977450250774107"><ele>318.0</ele><time>2026-03-29T07:11:16.999Z</time></trkpt><trkpt lat="42.07688499999706" lon="11.977481953219884"><ele>318.5</ele><time>2026-03-29T07:11:17.999Z</time></trkpt><trkpt lat="42.07695069822035" lon="11.97752111410458"><ele>319.0</ele><time>2026-03-29T07:11:18.999Z</time></trkpt><trkpt lat="42.0770139838013" lon="11.977569627624602"><ele>319.5</ele><time>2026-03-29T07:11:19.999Z</time></trkpt><trkpt lat="42.0770670923443" lon="11.977635543371475"><ele>320.0</ele><time>2026-03-29T07:11:20.999Z</time></trkpt><trkpt lat="42.0771140341739" lon="11.977780919651607"><ele>320.5</ele><time>2026-03-29T07:11:22.999Z</time></trkpt><trkpt lat="42.07711492629988" lon="11.97788290076643"><ele>321.0</ele><time>2026-03-29T07:11:23.999Z</time></trkpt><trkpt lat="42.07712123384737" lon="11.977995127142135"><ele>321.0</ele><time>2026-03-29T07:11:24.999Z</time></trkpt><trkpt lat="42.07713181641684" lon="11.978101927849794"><ele>321.0</ele><time>2026-03-29T07:11:25.999Z</time></trkpt><trkpt lat="42.07714980744411" lon="11.978205685651302"><ele>321.0</ele><time>2026-03-29T07:11:26.999Z</time></trkpt><trkpt lat="42.07715454128128" lon="11.978366342144659"><ele>321.0</ele><time>2026-03-29T07:11:28.999Z</time></trkpt><trkpt lat="42.07711907016476" lon="11.978529792104776"><ele>321.0</ele><time>2026-03-29T07:11:30.999Z</time></trkpt><trkpt lat="42.07712731854881" lon="11.978628832471"><ele>321.0</ele><time>2026-03-29T07:11:31.999Z</time></trkpt><trkpt lat="42.07712189419423" lon="11.978748978990044"><ele>321.0</ele><time>2026-03-29T07:11:32.999Z</time></trkpt><trkpt lat="42.07710322826734" lon="11.978856078428674"><ele>321.0</ele><time>2026-03-29T07:11:33.999Z</time></trkpt><trkpt lat="42.07709033268643" lon="11.978961550840435"><ele>321.0</ele><time>2026-03-29T07:11:34.999Z</time></trkpt><trkpt lat="42.07708437661146" lon="11.979080389849695"><ele>321.0</ele><time>2026-03-29T07:11:35.999Z</time></trkpt><trkpt lat="42.0771087678127" lon="11.979257600073757"><ele>321.0</ele><time>2026-03-29T07:11:37.999Z</time></trkpt><trkpt lat="42.07711245609785" lon="11.97934719964909"><ele>321.0</ele><time>2026-03-29T07:11:38.999Z</time></trkpt><trkpt lat="42.0771108089117" lon="11.979455096397913"><ele>321.0</ele><time>2026-03-29T07:11:39.999Z</time></trkpt><trkpt lat="42.077097494761276" lon="11.979550126937285"><ele>321.0</ele><time>2026-03-29T07:11:40.999Z</time></trkpt><trkpt lat="42.07708012243354" lon="11.979635358520223"><ele>321.0</ele><time>2026-03-29T07:11:41.999Z</time></trkpt><trkpt lat="42.07701621617458" lon="11.979803611534601"><ele>321.0</ele><time>2026-03-29T07:11:43.999Z</time></trkpt><trkpt lat="42.07696935022047" lon="11.97989276166426"><ele>321.0</ele><time>2026-03-29T07:11:44.999Z</time></trkpt><trkpt lat="42.07693770072147" lon="11.979987640962921"><ele>321.0</ele><time>2026-03-29T07:11:45.999Z</time></trkpt><trkpt lat="42.07691417626375" lon="11.980080269438565"><ele>321.0</ele><time>2026-03-29T07:11:46.999Z</time></trkpt><trkpt lat="42.076894133318405" lon="11.980167059636827"><ele>321.0</ele><time>2026-03-29T07:11:47.999Z</time></trkpt><trkpt lat="42.076877596902726" lon="11.980256070755091"><ele>321.0</ele><time>2026-03-29T07:11:48.999Z</time></trkpt><trkpt lat="42.076866834653295" lon="11.98037495480545"><ele>321.0</ele><time>2026-03-29T07:11:49.999Z</time></trkpt><trkpt lat="42.076882984792014" lon="11.980510757335013"><ele>320.8333333333333</ele><time>2026-03-29T07:11:51.999Z</time></trkpt><trkpt lat="42.07693188714421" lon="11.980670612932407"><ele>320.6666666666667</ele><time>2026-03-29T07:11:53.999Z</time></trkpt><trkpt lat="42.076953155745535" lon="11.980764716673503"><ele>320.5</ele><time>2026-03-29T07:11:54.999Z</time></trkpt><trkpt lat="42.076963450760935" lon="11.980867871482985"><ele>320.33333333333337</ele><time>2026-03-29T07:11:55.999Z</time></trkpt><trkpt lat="42.07698736544914" lon="11.980981971092007"><ele>320.1666666666667</ele><time>2026-03-29T07:11:56.999Z</time></trkpt><trkpt lat="42.077007294554086" lon="11.98107829156546"><ele>320.0</ele><time>2026-03-29T07:11:57.999Z</time></trkpt><trkpt lat="42.07701673010771" lon="11.981169178731106"><ele>320.5</ele><time>2026-03-29T07:11:58.999Z</time></trkpt><trkpt lat="42.076994290826285" lon="11.981259091081736"><ele>321.0</ele><time>2026-03-29T07:12:00Z</time></trkpt><trkpt lat="42.07698658748889" lon="11.981358504475983"><ele>321.5</ele><time>2026-03-29T07:12:01Z</time></trkpt><trkpt lat="42.07697527598444" lon="11.981456760082281"><ele>322.0</ele><time>2026-03-29T07:12:02Z</time></trkpt><trkpt lat="42.076955824439196" lon="11.981569028684005"><ele>322.5</ele><time>2026-03-29T07:12:03Z</time></trkpt><trkpt lat="42.07697420008337" lon="11.98165694362509"><ele>323.0</ele><time>2026-03-29T07:12:04Z</time></trkpt><trkpt lat="42.07700446167474" lon="11.981758022025012"><ele>323.79999999999995</ele><time>2026-03-29T07:12:05Z</time></trkpt><trkpt lat="42.07702304702573" lon="11.981875339518886"><ele>324.6</ele><time>2026-03-29T07:12:06Z</time></trkpt><trkpt lat="42.077055996602816" lon="11.981999275634639"><ele>325.4</ele><time>2026-03-29T07:12:07Z</time></trkpt><trkpt lat="42.077094344492245" lon="11.982114362105543"><ele>326.20000000000005</ele><time>2026-03-29T07:12:08Z</time></trkpt><trkpt lat="42.07712685754888" lon="11.982222903394101"><ele>327.0</ele><time>2026-03-29T07:12:09Z</time></trkpt><trkpt lat="42.077147605541825" lon="11.98233252393082"><ele>327.0</ele><time>2026-03-29T07:12:10Z</time></trkpt><trkpt lat="42.07716081891644" lon="11.982436529518475"><ele>327.0</ele><time>2026-03-29T07:12:11Z</time></trkpt><trkpt lat="42.07714299851084" lon="11.98251983892896"><ele>327.0</ele><time>2026-03-29T07:12:12Z</time></trkpt><trkpt lat="42.077138061878664" lon="11.98263232385901"><ele>327.0</ele><time>2026-03-29T07:12:13Z</time></trkpt><trkpt lat="42.07713949935297" lon="11.982772048624115"><ele>327.0</ele><time>2026-03-29T07:12:15Z</time></trkpt><trkpt lat="42.07710702240125" lon="11.982860768095607"><ele>327.0</ele><time>2026-03-29T07:12:16Z</time></trkpt><trkpt lat="42.077090138288476" lon="11.982968692119957"><ele>327.6666666666667</ele><time>2026-03-29T07:12:17Z</time></trkpt><trkpt lat="42.077092156714095" lon="11.983068644341676"><ele>328.3333333333333</ele><time>2026-03-29T07:12:18Z</time></trkpt><trkpt lat="42.07708198596544" lon="11.983158692183927"><ele>329.0</ele><time>2026-03-29T07:12:19Z</time></trkpt><trkpt lat="42.077085153378675" lon="11.983307366392745"><ele>329.66666666666663</ele><time>2026-03-29T07:12:21Z</time></trkpt><trkpt lat="42.077076819496874" lon="11.98340480269827"><ele>330.3333333333333</ele><time>2026-03-29T07:12:22Z</time></trkpt><trkpt lat="42.077082539720195" lon="11.983500350469942"><ele>331.0</ele><time>2026-03-29T07:12:23Z</time></trkpt><trkpt lat="42.07710084701194" lon="11.983594465422122"><ele>331.8</ele><time>2026-03-29T07:12:24Z</time></trkpt><trkpt lat="42.077086195640575" lon="11.983763573625389"><ele>332.6</ele><time>2026-03-29T07:12:26Z</time></trkpt><trkpt lat="42.07707943389319" lon="11.983848286222825"><ele>333.4</ele><time>2026-03-29T07:12:27Z</time></trkpt><trkpt lat="42.07706886613473" lon="11.983987554999233"><ele>334.2</ele><time>2026-03-29T07:12:29Z</time></trkpt><trkpt lat="42.077098420545234" lon="11.984156469296947"><ele>335.0</ele><time>2026-03-29T07:12:31Z</time></trkpt><trkpt lat="42.07713284083358" lon="11.984252739439501"><ele>335.33333333333337</ele><time>2026-03-29T07:12:32Z</time></trkpt><trkpt lat="42.07715043719284" lon="11.984344321108036"><ele>335.6666666666667</ele><time>2026-03-29T07:12:33Z</time></trkpt><trkpt lat="42.07713793242534" lon="11.984510121565949"><ele>336.0</ele><time>2026-03-29T07:12:35Z</time></trkpt><trkpt lat="42.07712886418499" lon="11.984601502662468"><ele>336.3333333333333</ele><time>2026-03-29T07:12:36Z</time></trkpt><trkpt lat="42.077101877749435" lon="11.98474082577676"><ele>336.66666666666663</ele><time>2026-03-29T07:12:38Z</time></trkpt><trkpt lat="42.07707152270517" lon="11.984826190006572"><ele>337.0</ele><time>2026-03-29T07:12:39Z</time></trkpt><trkpt lat="42.07704609190639" lon="11.984909716012753"><ele>337.40000000000003</ele><time>2026-03-29T07:12:40Z</time></trkpt><trkpt lat="42.07702633828854" lon="11.98505608579599"><ele>337.8</ele><time>2026-03-29T07:12:42Z</time></trkpt><trkpt lat="42.07703712742797" lon="11.985197644892729"><ele>338.2</ele><time>2026-03-29T07:12:44Z</time></trkpt><trkpt lat="42.07705553456942" lon="11.985332977829486"><ele>338.6</ele><time>2026-03-29T07:12:46Z</time></trkpt><trkpt lat="42.07706338216581" lon="11.985425839978259"><ele>339.0</ele><time>2026-03-29T07:12:47Z</time></trkpt><trkpt lat="42.0770523794955" lon="11.985511762332122"><ele>339.0</ele><time>2026-03-29T07:12:48Z</time></trkpt><trkpt lat="42.07704546322698" lon="11.985637862932604"><ele>339.0</ele><time>2026-03-29T07:12:49Z</time></trkpt><trkpt lat="42.07705052920874" lon="11.985756695156565"><ele>339.0</ele><time>2026-03-29T07:12:50Z</time></trkpt><trkpt lat="42.07706068933673" lon="11.985870451204164"><ele>339.0</ele><time>2026-03-29T07:12:51Z</time></trkpt><trkpt lat="42.077066334151354" lon="11.98596394699397"><ele>339.0</ele><time>2026-03-29T07:12:52Z</time></trkpt><trkpt lat="42.0770516934157" lon="11.986137088733694"><ele>339.0</ele><time>2026-03-29T07:12:54Z</time></trkpt><trkpt lat="42.07703370501899" lon="11.986228781128847"><ele>339.0</ele><time>2026-03-29T07:12:55Z</time></trkpt><trkpt lat="42.077005979829366" lon="11.986395619340804"><ele>339.0</ele><time>2026-03-29T07:12:57Z</time></trkpt><trkpt lat="42.076982108223476" lon="11.986476075566106"><ele>339.0</ele><time>2026-03-29T07:12:57.999Z</time></trkpt><trkpt lat="42.076945541140375" lon="11.986555626637704"><ele>339.0</ele><time>2026-03-29T07:12:58.999Z</time></trkpt><trkpt lat="42.07691579404215" lon="11.98663587480602"><ele>339.0</ele><time>2026-03-29T07:12:59.999Z</time></trkpt><trkpt lat="42.07688791375517" lon="11.98672230032198"><ele>339.2</ele><time>2026-03-29T07:13:00.999Z</time></trkpt><trkpt lat="42.0768554496197" lon="11.98679746535389"><ele>339.4</ele><time>2026-03-29T07:13:01.999Z</time></trkpt><trkpt lat="42.07680465475759" lon="11.98696488434724"><ele>339.6</ele><time>2026-03-29T07:13:03.999Z</time></trkpt><trkpt lat="42.07678100470942" lon="11.987094332262284"><ele>339.8</ele><time>2026-03-29T07:13:05.999Z</time></trkpt><trkpt lat="42.07682912301726" lon="11.987193375085537"><ele>340.0</ele><time>2026-03-29T07:13:07.999Z</time></trkpt><trkpt lat="42.076874297360206" lon="11.98728463596831"><ele>340.0</ele><time>2026-03-29T07:13:08.999Z</time></trkpt><trkpt lat="42.076907121920264" lon="11.987372791548564"><ele>340.0</ele><time>2026-03-29T07:13:09.999Z</time></trkpt><trkpt lat="42.07692876192545" lon="11.987464939390126"><ele>340.0</ele><time>2026-03-29T07:13:10.999Z</time></trkpt><trkpt lat="42.07693778573731" lon="11.987556935928106"><ele>340.0</ele><time>2026-03-29T07:13:11.999Z</time></trkpt><trkpt lat="42.07694906308754" lon="11.987655023533856"><ele>340.0</ele><time>2026-03-29T07:13:12.999Z</time></trkpt><trkpt lat="42.07696120689866" lon="11.987741009901415"><ele>340.0</ele><time>2026-03-29T07:13:13.999Z</time></trkpt><trkpt lat="42.0769813934955" lon="11.987840217022752"><ele>340.0</ele><time>2026-03-29T07:13:14.999Z</time></trkpt><trkpt lat="42.07697698858779" lon="11.98794739439565"><ele>340.16666666666663</ele><time>2026-03-29T07:13:15.999Z</time></trkpt><trkpt lat="42.07695724759459" lon="11.988049037101938"><ele>340.3333333333333</ele><time>2026-03-29T07:13:16.999Z</time></trkpt><trkpt lat="42.07695120849761" lon="11.988158860251906"><ele>340.5</ele><time>2026-03-29T07:13:17.999Z</time></trkpt><trkpt lat="42.076932454685036" lon="11.988252598477423"><ele>340.6666666666667</ele><time>2026-03-29T07:13:18.999Z</time></trkpt><trkpt lat="42.07690608156" lon="11.988356374124564"><ele>340.83333333333337</ele><time>2026-03-29T07:13:19.999Z</time></trkpt><trkpt lat="42.07687325139794" lon="11.988459555341393"><ele>341.0</ele><time>2026-03-29T07:13:20.999Z</time></trkpt><trkpt lat="42.0768344946742" lon="11.988548293630068"><ele>340.1666666666667</ele><time>2026-03-29T07:13:21.999Z</time></trkpt><trkpt lat="42.076793859306235" lon="11.988650872727058"><ele>339.33333333333337</ele><time>2026-03-29T07:13:22.999Z</time></trkpt><trkpt lat="42.07675904437065" lon="11.98874266791315"><ele>338.5</ele><time>2026-03-29T07:13:23.999Z</time></trkpt><trkpt lat="42.0767294547826" lon="11.988841334412834"><ele>337.6666666666667</ele><time>2026-03-29T07:13:24.999Z</time></trkpt><trkpt lat="42.076714588140334" lon="11.988952182498762"><ele>336.8333333333333</ele><time>2026-03-29T07:13:25.999Z</time></trkpt><trkpt lat="42.07672703149812" lon="11.98905638003954"><ele>336.0</ele><time>2026-03-29T07:13:26.999Z</time></trkpt><trkpt lat="42.07675311393185" lon="11.989139715316252"><ele>335.8333333333333</ele><time>2026-03-29T07:13:27.999Z</time></trkpt><trkpt lat="42.07679753781914" lon="11.989236826595448"><ele>335.6666666666667</ele><time>2026-03-29T07:13:28.999Z</time></trkpt><trkpt lat="42.076839196458174" lon="11.98935238682182"><ele>335.5</ele><time>2026-03-29T07:13:29.999Z</time></trkpt><trkpt lat="42.07684584073794" lon="11.98946294729629"><ele>335.33333333333337</ele><time>2026-03-29T07:13:30.999Z</time></trkpt><trkpt lat="42.076863256683964" lon="11.98958365244068"><ele>335.1666666666667</ele><time>2026-03-29T07:13:31.999Z</time></trkpt><trkpt lat="42.076877420728664" lon="11.989708397401493"><ele>335.0</ele><time>2026-03-29T07:13:32.999Z</time></trkpt><trkpt lat="42.07688813543124" lon="11.989850595703674"><ele>335.0</ele><time>2026-03-29T07:13:33.999Z</time></trkpt><trkpt lat="42.0768889827019" lon="11.98999270527082"><ele>335.0</ele><time>2026-03-29T07:13:34.999Z</time></trkpt><trkpt lat="42.07690498197562" lon="11.990100327056043"><ele>335.0</ele><time>2026-03-29T07:13:35.999Z</time></trkpt><trkpt lat="42.076940148037906" lon="11.990194593366622"><ele>335.0</ele><time>2026-03-29T07:13:36.999Z</time></trkpt><trkpt lat="42.076975321843676" lon="11.99029263673199"><ele>335.0</ele><time>2026-03-29T07:13:37.999Z</time></trkpt><trkpt lat="42.07703276210901" lon="11.990377278691325"><ele>335.0</ele><time>2026-03-29T07:13:38.999Z</time></trkpt><trkpt lat="42.077084337444056" lon="11.990469227329552"><ele>335.4</ele><time>2026-03-29T07:13:39.999Z</time></trkpt><trkpt lat="42.07712997809973" lon="11.990533249516426"><ele>335.8</ele><time>2026-03-29T07:13:40.999Z</time></trkpt><trkpt lat="42.07722129110495" lon="11.990649549547475"><ele>336.20000000000005</ele><time>2026-03-29T07:13:42.999Z</time></trkpt><trkpt lat="42.07728646597462" lon="11.990755252112017"><ele>336.6</ele><time>2026-03-29T07:13:44.999Z</time></trkpt><trkpt lat="42.07732435016739" lon="11.990875453489025"><ele>337.0</ele><time>2026-03-29T07:13:46.999Z</time></trkpt><trkpt lat="42.07731780865366" lon="11.991021273255905"><ele>337.0</ele><time>2026-03-29T07:13:48.999Z</time></trkpt><trkpt lat="42.07728701805269" lon="11.991113261306358"><ele>337.0</ele><time>2026-03-29T07:13:49.999Z</time></trkpt><trkpt lat="42.07725848663615" lon="11.991276569230985"><ele>337.0</ele><time>2026-03-29T07:13:51.999Z</time></trkpt><trkpt lat="42.07728588307359" lon="11.991406663539085"><ele>337.0</ele><time>2026-03-29T07:13:53.999Z</time></trkpt><trkpt lat="42.077332573716745" lon="11.991551146578448"><ele>337.0</ele><time>2026-03-29T07:13:55.999Z</time></trkpt><trkpt lat="42.077390556944444" lon="11.991631366833596"><ele>335.66666666666663</ele><time>2026-03-29T07:13:56.999Z</time></trkpt><trkpt lat="42.07748287527407" lon="11.99166391197023"><ele>334.3333333333333</ele><time>2026-03-29T07:13:58.999Z</time></trkpt><trkpt lat="42.0775731472693" lon="11.99168191657392"><ele>333.0</ele><time>2026-03-29T07:14:00.999Z</time></trkpt><trkpt lat="42.077604988057466" lon="11.991766301489493"><ele>331.6666666666667</ele><time>2026-03-29T07:14:03.999Z</time></trkpt><trkpt lat="42.077624924958535" lon="11.991863574701295"><ele>330.33333333333337</ele><time>2026-03-29T07:14:06Z</time></trkpt><trkpt lat="42.07764528067111" lon="11.991951503090634"><ele>329.0</ele><time>2026-03-29T07:14:08Z</time></trkpt><trkpt lat="42.07770451467442" lon="11.992061345764734"><ele>329.0</ele><time>2026-03-29T07:14:10Z</time></trkpt><trkpt lat="42.07775253483622" lon="11.992184814886658"><ele>329.0</ele><time>2026-03-29T07:14:12Z</time></trkpt><trkpt lat="42.07778531170174" lon="11.992291217757186"><ele>329.0</ele><time>2026-03-29T07:14:14Z</time></trkpt><trkpt lat="42.07780942613481" lon="11.992431197069264"><ele>329.0</ele><time>2026-03-29T07:14:16Z</time></trkpt><trkpt lat="42.077855679669774" lon="11.992560151696205"><ele>329.0</ele><time>2026-03-29T07:14:18Z</time></trkpt><trkpt lat="42.077864608706236" lon="11.992659668143526"><ele>329.0</ele><time>2026-03-29T07:14:21Z</time></trkpt><trkpt lat="42.07792712242834" lon="11.992721259207288"><ele>329.0</ele><time>2026-03-29T07:14:24Z</time></trkpt><trkpt lat="42.07799144219986" lon="11.992720113472096"><ele>329.0</ele><time>2026-03-29T07:14:26Z</time></trkpt><trkpt lat="42.07806357007609" lon="11.992674099398906"><ele>329.0</ele><time>2026-03-29T07:14:27Z</time></trkpt><trkpt lat="42.07809446096473" lon="11.992597502012963"><ele>329.0</ele><time>2026-03-29T07:14:28Z</time></trkpt><trkpt lat="42.07815255023911" lon="11.992422424818058"><ele>329.0</ele><time>2026-03-29T07:14:30Z</time></trkpt><trkpt lat="42.07820073488232" lon="11.992331197827898"><ele>329.0</ele><time>2026-03-29T07:14:31Z</time></trkpt><trkpt lat="42.07824876053662" lon="11.992249463111609"><ele>329.0</ele><time>2026-03-29T07:14:32Z</time></trkpt><trkpt lat="42.078299047110555" lon="11.992181115777518"><ele>329.0</ele><time>2026-03-29T07:14:33Z</time></trkpt><trkpt lat="42.078342941808536" lon="11.992084824433567"><ele>329.0</ele><time>2026-03-29T07:14:35Z</time></trkpt><trkpt lat="42.07838180215264" lon="11.99199755588406"><ele>329.0</ele><time>2026-03-29T07:14:36Z</time></trkpt><trkpt lat="42.07842659927211" lon="11.991879332483805"><ele>329.0</ele><time>2026-03-29T07:14:41Z</time></trkpt><trkpt lat="42.07849571365164" lon="11.99171007289034"><ele>328.1666666666667</ele><time>2026-03-29T07:14:43Z</time></trkpt><trkpt lat="42.0785394034585" lon="11.991619384002487"><ele>327.33333333333337</ele><time>2026-03-29T07:14:44Z</time></trkpt><trkpt lat="42.078577321620415" lon="11.991538198407993"><ele>326.5</ele><time>2026-03-29T07:14:45Z</time></trkpt><trkpt lat="42.07860470739777" lon="11.99145073283814"><ele>325.6666666666667</ele><time>2026-03-29T07:14:46Z</time></trkpt><trkpt lat="42.078632702076035" lon="11.991367170561197"><ele>324.8333333333333</ele><time>2026-03-29T07:14:47Z</time></trkpt><trkpt lat="42.07869150893271" lon="11.991234157840374"><ele>324.0</ele><time>2026-03-29T07:14:49Z</time></trkpt><trkpt lat="42.07874238325342" lon="11.991114500958536"><ele>324.0</ele><time>2026-03-29T07:14:51Z</time></trkpt><trkpt lat="42.07880453609218" lon="11.991006746220858"><ele>324.0</ele><time>2026-03-29T07:14:53Z</time></trkpt><trkpt lat="42.07890759646921" lon="11.990958972880767"><ele>324.0</ele><time>2026-03-29T07:14:55Z</time></trkpt><trkpt lat="42.07898452160213" lon="11.990874770164972"><ele>324.0</ele><time>2026-03-29T07:14:57Z</time></trkpt><trkpt lat="42.07900994565818" lon="11.990789629010612"><ele>324.0</ele><time>2026-03-29T07:14:58Z</time></trkpt><trkpt lat="42.0790511460886" lon="11.990698206256129"><ele>323.6</ele><time>2026-03-29T07:15:00Z</time></trkpt><trkpt lat="42.079086229824696" lon="11.990615949653662"><ele>323.2</ele><time>2026-03-29T07:15:02Z</time></trkpt><trkpt lat="42.07908005965528" lon="11.990476361733247"><ele>322.8</ele><time>2026-03-29T07:15:03.999Z</time></trkpt><trkpt lat="42.07908739872851" lon="11.990358755766836"><ele>322.40000000000003</ele><time>2026-03-29T07:15:05.999Z</time></trkpt><trkpt lat="42.079128322233025" lon="11.990231437248232"><ele>322.0</ele><time>2026-03-29T07:15:07.999Z</time></trkpt><trkpt lat="42.07918813909267" lon="11.990122034385953"><ele>322.0</ele><time>2026-03-29T07:15:09.999Z</time></trkpt><trkpt lat="42.07922567938576" lon="11.990029586376082"><ele>322.0</ele><time>2026-03-29T07:15:11.999Z</time></trkpt><trkpt lat="42.07934232697908" lon="11.989976133517217"><ele>322.0</ele><time>2026-03-29T07:15:39.999Z</time></trkpt><trkpt lat="42.079374275655226" lon="11.990119367357424"><ele>322.0</ele><time>2026-03-29T07:15:43.999Z</time></trkpt><trkpt lat="42.07940195773027" lon="11.99020751725847"><ele>322.0</ele><time>2026-03-29T07:15:44.999Z</time></trkpt><trkpt lat="42.07943943558268" lon="11.990326432315685"><ele>322.0</ele><time>2026-03-29T07:15:46.999Z</time></trkpt><trkpt lat="42.07949794284721" lon="11.990395668148384"><ele>322.0</ele><time>2026-03-29T07:15:48.999Z</time></trkpt><trkpt lat="42.0795200073783" lon="11.990491744963839"><ele>322.0</ele><time>2026-03-29T07:15:50.999Z</time></trkpt><trkpt lat="42.079533320716166" lon="11.990605834950761"><ele>322.0</ele><time>2026-03-29T07:15:52.999Z</time></trkpt><trkpt lat="42.079538683253965" lon="11.990693856661842"><ele>322.0</ele><time>2026-03-29T07:15:53.999Z</time></trkpt><trkpt lat="42.07956220873717" lon="11.990842798136322"><ele>322.0</ele><time>2026-03-29T07:15:55.999Z</time></trkpt><trkpt lat="42.07958728574636" lon="11.990981702538836"><ele>325.0</ele><time>2026-03-29T07:15:57.999Z</time></trkpt><trkpt lat="42.079591270806006" lon="11.991112958892229"><ele>328.0</ele><time>2026-03-29T07:15:59.999Z</time></trkpt><trkpt lat="42.079571397660956" lon="11.991283592448733"><ele>331.0</ele><time>2026-03-29T07:16:06.999Z</time></trkpt><trkpt lat="42.07957670355363" lon="11.991374608648817"><ele>334.0</ele><time>2026-03-29T07:16:08.999Z</time></trkpt><trkpt lat="42.07969957274129" lon="11.991480011122688"><ele>337.0</ele><time>2026-03-29T07:16:10.999Z</time></trkpt><trkpt lat="42.079749604925254" lon="11.991536127871731"><ele>337.0</ele><time>2026-03-29T07:16:12Z</time></trkpt><trkpt lat="42.079809391578785" lon="11.991584787627536"><ele>337.0</ele><time>2026-03-29T07:16:13Z</time></trkpt><trkpt lat="42.07984659664044" lon="11.991657513980503"><ele>337.0</ele><time>2026-03-29T07:16:18Z</time></trkpt><trkpt lat="42.07987425306177" lon="11.991781129967512"><ele>337.0</ele><time>2026-03-29T07:16:22Z</time></trkpt><trkpt lat="42.07986583014783" lon="11.991896680854923"><ele>337.0</ele><time>2026-03-29T07:16:26Z</time></trkpt><trkpt lat="42.07980678577045" lon="11.991992875441793"><ele>337.0</ele><time>2026-03-29T07:16:28Z</time></trkpt><trkpt lat="42.0798376414983" lon="11.992178053517254"><ele>339.66666666666663</ele><time>2026-03-29T07:16:30Z</time></trkpt><trkpt lat="42.07991379553618" lon="11.992289444864236"><ele>342.3333333333333</ele><time>2026-03-29T07:16:31Z</time></trkpt><trkpt lat="42.07996636515508" lon="11.99237732908428"><ele>345.0</ele><time>2026-03-29T07:16:32Z</time></trkpt><trkpt lat="42.079935662506294" lon="11.992476223785447"><ele>347.6666666666667</ele><time>2026-03-29T07:16:37Z</time></trkpt><trkpt lat="42.07997059607534" lon="11.992547837436316"><ele>350.33333333333337</ele><time>2026-03-29T07:16:39Z</time></trkpt><trkpt lat="42.07997612805493" lon="11.992640259803867"><ele>353.0</ele><time>2026-03-29T07:16:40Z</time></trkpt><trkpt lat="42.08002801384747" lon="11.99268877106738"><ele>364.0</ele><time>2026-03-29T07:16:41Z</time></trkpt><trkpt lat="42.0800663204212" lon="11.992821150222172"><ele>375.0</ele><time>2026-03-29T07:16:42Z</time></trkpt><trkpt lat="42.080306932446604" lon="11.993029717043443"><ele>386.0</ele><time>2026-03-29T07:16:43Z</time></trkpt><trkpt lat="42.08036507314203" lon="11.99306693334747"><ele>385.99999999999994</ele><time>2026-03-29T07:16:46Z</time></trkpt><trkpt lat="42.08042193732954" lon="11.993145231393648"><ele>386.0</ele><time>2026-03-29T07:16:48Z</time></trkpt><trkpt lat="42.08048666010078" lon="11.993197559170182"><ele>386.0</ele><time>2026-03-29T07:16:50Z</time></trkpt><trkpt lat="42.0804746713732" lon="11.993286675739856"><ele>386.0</ele><time>2026-03-29T07:16:53Z</time></trkpt><trkpt lat="42.08054113099343" lon="11.993421500404326"><ele>385.99999999999994</ele><time>2026-03-29T07:16:55Z</time></trkpt><trkpt lat="42.080605512375115" lon="11.993510077227008"><ele>386.0</ele><time>2026-03-29T07:16:56Z</time></trkpt><trkpt lat="42.08074636043849" lon="11.993644230675013"><ele>390.0</ele><time>2026-03-29T07:16:57Z</time></trkpt><trkpt lat="42.08084736003001" lon="11.993739348970331"><ele>394.0</ele><time>2026-03-29T07:16:58Z</time></trkpt><trkpt lat="42.080899393183614" lon="11.993808250398123"><ele>398.0</ele><time>2026-03-29T07:16:59Z</time></trkpt><trkpt lat="42.08097950696627" lon="11.993889028770688"><ele>402.0</ele><time>2026-03-29T07:17:01Z</time></trkpt><trkpt lat="42.08101692803152" lon="11.993957412170513"><ele>406.0</ele><time>2026-03-29T07:17:02Z</time></trkpt><trkpt lat="42.081109694989905" lon="11.994033576427748"><ele>406.00000000000006</ele><time>2026-03-29T07:17:04Z</time></trkpt><trkpt lat="42.0811721069033" lon="11.994049262667307"><ele>406.0</ele><time>2026-03-29T07:19:14Z</time></trkpt><trkpt lat="42.081234443354866" lon="11.994158032820296"><ele>406.0</ele><time>2026-03-29T07:19:16Z</time></trkpt><trkpt lat="42.081275552784696" lon="11.994236509679258"><ele>406.0</ele><time>2026-03-29T07:19:17Z</time></trkpt><trkpt lat="42.08134455369472" lon="11.99430859609114"><ele>406.00000000000006</ele><time>2026-03-29T07:19:18.999Z</time></trkpt><trkpt lat="42.08139058264978" lon="11.994372352350336"><ele>406.0</ele><time>2026-03-29T07:19:19.999Z</time></trkpt><trkpt lat="42.081424559041075" lon="11.99444568853453"><ele>410.20000000000005</ele><time>2026-03-29T07:19:20.999Z</time></trkpt><trkpt lat="42.08146630737362" lon="11.9945580509888"><ele>414.40000000000003</ele><time>2026-03-29T07:19:22.999Z</time></trkpt><trkpt lat="42.081507005992414" lon="11.994702970618375"><ele>418.6</ele><time>2026-03-29T07:19:24.999Z</time></trkpt><trkpt lat="42.08156435484792" lon="11.994830251523306"><ele>422.8</ele><time>2026-03-29T07:19:26.999Z</time></trkpt><trkpt lat="42.08155673315522" lon="11.99495320843472"><ele>427.0</ele><time>2026-03-29T07:19:28.999Z</time></trkpt><trkpt lat="42.08160660960224" lon="11.995023941021039"><ele>431.33333333333337</ele><time>2026-03-29T07:19:29.999Z</time></trkpt><trkpt lat="42.08162878799296" lon="11.99512752743052"><ele>435.6666666666667</ele><time>2026-03-29T07:19:30.999Z</time></trkpt><trkpt lat="42.0816665575583" lon="11.995225592009387"><ele>440.0</ele><time>2026-03-29T07:19:31.999Z</time></trkpt><trkpt lat="42.08165505531844" lon="11.995359662676506"><ele>444.33333333333337</ele><time>2026-03-29T07:19:32.999Z</time></trkpt><trkpt lat="42.08171920492595" lon="11.99548121045719"><ele>448.6666666666667</ele><time>2026-03-29T07:19:33.999Z</time></trkpt><trkpt lat="42.081712755463485" lon="11.995582117424195"><ele>453.0</ele><time>2026-03-29T07:19:34.999Z</time></trkpt><trkpt lat="42.081743259777866" lon="11.995696179961984"><ele>453.0</ele><time>2026-03-29T07:19:35.999Z</time></trkpt><trkpt lat="42.08177423556831" lon="11.995806390441608"><ele>453.0</ele><time>2026-03-29T07:19:36.999Z</time></trkpt><trkpt lat="42.08179857600711" lon="11.995913501742647"><ele>453.0</ele><time>2026-03-29T07:19:37.999Z</time></trkpt><trkpt lat="42.081822710668675" lon="11.996000522398502"><ele>453.0</ele><time>2026-03-29T07:19:38.999Z</time></trkpt><trkpt lat="42.08186936312671" lon="11.996082976280809"><ele>453.0</ele><time>2026-03-29T07:19:40.999Z</time></trkpt><trkpt lat="42.08194807326375" lon="11.996130125231982"><ele>453.0</ele><time>2026-03-29T07:19:42.999Z</time></trkpt><trkpt lat="42.08201785446109" lon="11.996174020654738"><ele>456.2</ele><time>2026-03-29T07:19:44.999Z</time></trkpt><trkpt lat="42.08200650412489" lon="11.996290158526817"><ele>459.4</ele><time>2026-03-29T07:19:49.999Z</time></trkpt><trkpt lat="42.081980330474245" lon="11.996398057426106"><ele>462.59999999999997</ele><time>2026-03-29T07:19:52.999Z</time></trkpt><trkpt lat="42.08205139706109" lon="11.996543277085383"><ele>465.79999999999995</ele><time>2026-03-29T07:19:55.999Z</time></trkpt><trkpt lat="42.08212792995574" lon="11.99660077139318"><ele>469.0</ele><time>2026-03-29T07:19:58.999Z</time></trkpt><trkpt lat="42.08224700236701" lon="11.996647148647101"><ele>470.0</ele><time>2026-03-29T07:20:00.999Z</time></trkpt><trkpt lat="42.0823122183836" lon="11.996772430013522"><ele>471.0</ele><time>2026-03-29T07:20:01.999Z</time></trkpt><trkpt lat="42.082340812321334" lon="11.996920340686646"><ele>472.0</ele><time>2026-03-29T07:20:03.999Z</time></trkpt><trkpt lat="42.08238739608097" lon="11.997075288647881"><ele>473.0</ele><time>2026-03-29T07:20:05.999Z</time></trkpt><trkpt lat="42.082432109044646" lon="11.997138440491415"><ele>474.0</ele><time>2026-03-29T07:20:07.999Z</time></trkpt><trkpt lat="42.082523260532696" lon="11.99721332824383"><ele>476.4</ele><time>2026-03-29T07:20:11.999Z</time></trkpt><trkpt lat="42.08263181616407" lon="11.997263780800882"><ele>478.79999999999995</ele><time>2026-03-29T07:20:13.999Z</time></trkpt><trkpt lat="42.08271357217319" lon="11.997320878253523"><ele>481.20000000000005</ele><time>2026-03-29T07:20:14.999Z</time></trkpt><trkpt lat="42.08277576515899" lon="11.997357740989528"><ele>483.6</ele><time>2026-03-29T07:20:15.999Z</time></trkpt><trkpt lat="42.08284123722716" lon="11.997374943108639"><ele>486.0</ele><time>2026-03-29T07:20:16.999Z</time></trkpt><trkpt lat="42.082952935052" lon="11.997361943201103"><ele>486.0</ele><time>2026-03-29T07:20:18.999Z</time></trkpt><trkpt lat="42.08301849502611" lon="11.997266797764723"><ele>486.0</ele><time>2026-03-29T07:20:20.999Z</time></trkpt><trkpt lat="42.083052367182184" lon="11.99712103304912"><ele>486.0</ele><time>2026-03-29T07:20:23Z</time></trkpt><trkpt lat="42.083090454405095" lon="11.997039163269504"><ele>486.0</ele><time>2026-03-29T07:20:24Z</time></trkpt><trkpt lat="42.083140472173014" lon="11.996973492043725"><ele>486.0</ele><time>2026-03-29T07:20:25Z</time></trkpt><trkpt lat="42.08318542385021" lon="11.996906955990278"><ele>486.0</ele><time>2026-03-29T07:20:26Z</time></trkpt><trkpt lat="42.08326818844173" lon="11.996764633476854"><ele>486.0</ele><time>2026-03-29T07:20:28Z</time></trkpt><trkpt lat="42.08331114302069" lon="11.996694744071776"><ele>486.0</ele><time>2026-03-29T07:20:29Z</time></trkpt><trkpt lat="42.0833400029859" lon="11.996618490998436"><ele>486.0</ele><time>2026-03-29T07:20:30Z</time></trkpt><trkpt lat="42.083384804997756" lon="11.996537889285866"><ele>486.0</ele><time>2026-03-29T07:20:31Z</time></trkpt><trkpt lat="42.0834354344261" lon="11.996460165649756"><ele>486.0</ele><time>2026-03-29T07:20:32Z</time></trkpt><trkpt lat="42.08348559438885" lon="11.996377865927146"><ele>486.0</ele><time>2026-03-29T07:20:33Z</time></trkpt><trkpt lat="42.08353020196069" lon="11.996298420337626"><ele>486.0</ele><time>2026-03-29T07:20:34Z</time></trkpt><trkpt lat="42.08357250862981" lon="11.996205408998167"><ele>485.4</ele><time>2026-03-29T07:20:35Z</time></trkpt><trkpt lat="42.08362380940378" lon="11.996063166711142"><ele>484.8</ele><time>2026-03-29T07:20:36Z</time></trkpt><trkpt lat="42.08367304867798" lon="11.99591785059634"><ele>484.19999999999993</ele><time>2026-03-29T07:20:37Z</time></trkpt><trkpt lat="42.08371034448015" lon="11.995808428261403"><ele>483.59999999999997</ele><time>2026-03-29T07:20:38Z</time></trkpt><trkpt lat="42.0837452427" lon="11.995715955692603"><ele>483.0</ele><time>2026-03-29T07:20:39Z</time></trkpt><trkpt lat="42.08378487583289" lon="11.995637403467434"><ele>481.5</ele><time>2026-03-29T07:20:40Z</time></trkpt><trkpt lat="42.08382454367566" lon="11.995542372529481"><ele>480.0</ele><time>2026-03-29T07:20:41Z</time></trkpt><trkpt lat="42.0838542947532" lon="11.995453777239147"><ele>478.5</ele><time>2026-03-29T07:20:42Z</time></trkpt><trkpt lat="42.08389772993512" lon="11.995371397443082"><ele>477.0</ele><time>2026-03-29T07:20:43Z</time></trkpt><trkpt lat="42.08394553897045" lon="11.99528599177876"><ele>475.5</ele><time>2026-03-29T07:20:44Z</time></trkpt><trkpt lat="42.083982834205756" lon="11.995208673797137"><ele>474.0</ele><time>2026-03-29T07:20:45Z</time></trkpt><trkpt lat="42.084031961681845" lon="11.995123434512637"><ele>474.0</ele><time>2026-03-29T07:20:46Z</time></trkpt><trkpt lat="42.08409423290973" lon="11.995063964832381"><ele>474.0</ele><time>2026-03-29T07:20:47Z</time></trkpt><trkpt lat="42.08420597190524" lon="11.994998876294485"><ele>474.0</ele><time>2026-03-29T07:20:49Z</time></trkpt><trkpt lat="42.08427396710481" lon="11.994971461925129"><ele>474.0</ele><time>2026-03-29T07:20:50Z</time></trkpt><trkpt lat="42.084341749081" lon="11.994938798768747"><ele>474.0</ele><time>2026-03-29T07:20:51Z</time></trkpt><trkpt lat="42.08440077883422" lon="11.994895596353116"><ele>474.0</ele><time>2026-03-29T07:20:52Z</time></trkpt><trkpt lat="42.084450589454484" lon="11.994832232241299"><ele>474.71428571428567</ele><time>2026-03-29T07:20:53Z</time></trkpt><trkpt lat="42.084485583828155" lon="11.994737207201668"><ele>475.42857142857144</ele><time>2026-03-29T07:20:54Z</time></trkpt><trkpt lat="42.084516575304164" lon="11.994657580908992"><ele>476.1428571428571</ele><time>2026-03-29T07:20:55Z</time></trkpt><trkpt lat="42.08454188278483" lon="11.994567443542376"><ele>476.85714285714283</ele><time>2026-03-29T07:20:56Z</time></trkpt><trkpt lat="42.0845665672856" lon="11.9944872460389"><ele>477.57142857142856</ele><time>2026-03-29T07:20:57Z</time></trkpt><trkpt lat="42.08459829299664" lon="11.994390706988698"><ele>478.2857142857143</ele><time>2026-03-29T07:20:58Z</time></trkpt><trkpt lat="42.0846046472331" lon="11.994273982874645"><ele>479.0</ele><time>2026-03-29T07:20:59Z</time></trkpt><trkpt lat="42.08462592237901" lon="11.994143372883878"><ele>478.99999999999994</ele><time>2026-03-29T07:21:00Z</time></trkpt><trkpt lat="42.08463183194954" lon="11.994049157850672"><ele>479.0</ele><time>2026-03-29T07:21:01Z</time></trkpt><trkpt lat="42.08460803690483" lon="11.99390564727275"><ele>479.0</ele><time>2026-03-29T07:21:03Z</time></trkpt><trkpt lat="42.08459053234731" lon="11.993814670343802"><ele>479.0</ele><time>2026-03-29T07:21:04Z</time></trkpt><trkpt lat="42.084584660139775" lon="11.993728042781834"><ele>478.99999999999994</ele><time>2026-03-29T07:21:05Z</time></trkpt><trkpt lat="42.08457758979045" lon="11.993626136551528"><ele>479.0</ele><time>2026-03-29T07:21:06Z</time></trkpt><trkpt lat="42.084566160762805" lon="11.993527171667262"><ele>478.99999999999994</ele><time>2026-03-29T07:21:07Z</time></trkpt><trkpt lat="42.084550162949576" lon="11.99342607834607"><ele>479.0</ele><time>2026-03-29T07:21:08Z</time></trkpt><trkpt lat="42.084544963582175" lon="11.99331955887038"><ele>479.0</ele><time>2026-03-29T07:21:09Z</time></trkpt><trkpt lat="42.0845489209196" lon="11.993230669954439"><ele>479.0</ele><time>2026-03-29T07:21:10Z</time></trkpt><trkpt lat="42.084551561446844" lon="11.993145175292693"><ele>478.99999999999994</ele><time>2026-03-29T07:21:11Z</time></trkpt><trkpt lat="42.0845589789037" lon="11.99295782974585"><ele>479.0</ele><time>2026-03-29T07:21:13Z</time></trkpt><trkpt lat="42.084582033141366" lon="11.992871123174908"><ele>479.49999999999994</ele><time>2026-03-29T07:21:14Z</time></trkpt><trkpt lat="42.08464188924014" lon="11.992841649714595"><ele>480.0</ele><time>2026-03-29T07:21:15Z</time></trkpt><trkpt lat="42.08470558014293" lon="11.992812356005645"><ele>480.5</ele><time>2026-03-29T07:21:16Z</time></trkpt><trkpt lat="42.08477223080359" lon="11.992805498543254"><ele>481.0</ele><time>2026-03-29T07:21:17Z</time></trkpt><trkpt lat="42.08486595849972" lon="11.99283659973597"><ele>481.49999999999994</ele><time>2026-03-29T07:21:18Z</time></trkpt><trkpt lat="42.084969036591076" lon="11.992823475820222"><ele>482.0</ele><time>2026-03-29T07:21:20Z</time></trkpt><trkpt lat="42.08506491510878" lon="11.992767661775908"><ele>485.16666666666663</ele><time>2026-03-29T07:21:22Z</time></trkpt><trkpt lat="42.08514748571074" lon="11.992752964298749"><ele>488.3333333333333</ele><time>2026-03-29T07:21:24Z</time></trkpt><trkpt lat="42.08524134592787" lon="11.992709223255401"><ele>491.5</ele><time>2026-03-29T07:21:25.999Z</time></trkpt><trkpt lat="42.08531768942327" lon="11.992652860857032"><ele>494.66666666666663</ele><time>2026-03-29T07:21:27.999Z</time></trkpt><trkpt lat="42.08539970429429" lon="11.992626125675578"><ele>497.8333333333333</ele><time>2026-03-29T07:21:29.999Z</time></trkpt><trkpt lat="42.085490810319726" lon="11.99265525444869"><ele>501.0</ele><time>2026-03-29T07:21:33.999Z</time></trkpt><trkpt lat="42.08557241773637" lon="11.99269529343873"><ele>501.0</ele><time>2026-03-29T07:21:36.999Z</time></trkpt><trkpt lat="42.085631188526264" lon="11.99275277395899"><ele>501.0</ele><time>2026-03-29T07:21:38.999Z</time></trkpt><trkpt lat="42.08572978896905" lon="11.992812042123548"><ele>501.0</ele><time>2026-03-29T07:21:40.999Z</time></trkpt><trkpt lat="42.08584122327809" lon="11.992886191441455"><ele>501.0</ele><time>2026-03-29T07:21:41.999Z</time></trkpt><trkpt lat="42.08589875158618" lon="11.992934132132595"><ele>501.0</ele><time>2026-03-29T07:21:42.999Z</time></trkpt><trkpt lat="42.08600465488881" lon="11.99300172124323"><ele>501.8333333333333</ele><time>2026-03-29T07:21:43.999Z</time></trkpt><trkpt lat="42.08608630590709" lon="11.993017441188254"><ele>502.66666666666663</ele><time>2026-03-29T07:21:44.999Z</time></trkpt><trkpt lat="42.086173006677896" lon="11.99301246078604"><ele>503.5</ele><time>2026-03-29T07:21:45.999Z</time></trkpt><trkpt lat="42.086240405826906" lon="11.992996832037253"><ele>504.3333333333333</ele><time>2026-03-29T07:21:46.999Z</time></trkpt><trkpt lat="42.08633160791252" lon="11.993015678826868"><ele>505.16666666666663</ele><time>2026-03-29T07:21:47.999Z</time></trkpt><trkpt lat="42.08641955674474" lon="11.993044036585175"><ele>506.0</ele><time>2026-03-29T07:21:48.999Z</time></trkpt><trkpt lat="42.086502086708215" lon="11.993061162016101"><ele>505.99999999999994</ele><time>2026-03-29T07:21:49.999Z</time></trkpt><trkpt lat="42.086576558356505" lon="11.993073417616218"><ele>506.0</ele><time>2026-03-29T07:21:50.999Z</time></trkpt><trkpt lat="42.08670355012036" lon="11.993067238873227"><ele>506.0</ele><time>2026-03-29T07:21:52.999Z</time></trkpt><trkpt lat="42.08678930067146" lon="11.993041402677294"><ele>506.0</ele><time>2026-03-29T07:21:54.999Z</time></trkpt><trkpt lat="42.08685204308598" lon="11.993009512027447"><ele>505.99999999999994</ele><time>2026-03-29T07:21:55.999Z</time></trkpt><trkpt lat="42.08689952610374" lon="11.992943652459378"><ele>506.0</ele><time>2026-03-29T07:21:56.999Z</time></trkpt><trkpt lat="42.087020410915805" lon="11.992899204963976"><ele>505.8333333333333</ele><time>2026-03-29T07:21:58.999Z</time></trkpt><trkpt lat="42.087089033850795" lon="11.992905929025676"><ele>505.66666666666663</ele><time>2026-03-29T07:21:59.999Z</time></trkpt><trkpt lat="42.08716334255873" lon="11.992956586539686"><ele>505.5</ele><time>2026-03-29T07:22:01.999Z</time></trkpt><trkpt lat="42.08722339170897" lon="11.993014901920347"><ele>505.33333333333337</ele><time>2026-03-29T07:22:02.999Z</time></trkpt><trkpt lat="42.08730490262134" lon="11.993133610364273"><ele>505.1666666666667</ele><time>2026-03-29T07:22:04.999Z</time></trkpt><trkpt lat="42.08732776372399" lon="11.993231633997205"><ele>505.0</ele><time>2026-03-29T07:22:05.999Z</time></trkpt><trkpt lat="42.08740074131167" lon="11.993311939164698"><ele>504.4</ele><time>2026-03-29T07:22:06.999Z</time></trkpt><trkpt lat="42.08751040043376" lon="11.993362982655507"><ele>503.8</ele><time>2026-03-29T07:22:08.999Z</time></trkpt><trkpt lat="42.08757706231666" lon="11.993389607471688"><ele>503.20000000000005</ele><time>2026-03-29T07:22:09.999Z</time></trkpt><trkpt lat="42.087679265219144" lon="11.993431663009652"><ele>502.6</ele><time>2026-03-29T07:22:11.999Z</time></trkpt><trkpt lat="42.08776964298717" lon="11.993482843048692"><ele>502.0</ele><time>2026-03-29T07:22:13.999Z</time></trkpt><trkpt lat="42.08782840888689" lon="11.993545556324104"><ele>502.0</ele><time>2026-03-29T07:22:15.999Z</time></trkpt><trkpt lat="42.08790155579659" lon="11.993593696570597"><ele>502.00000000000006</ele><time>2026-03-29T07:22:17.999Z</time></trkpt><trkpt lat="42.08798065136825" lon="11.993691550274773"><ele>502.00000000000006</ele><time>2026-03-29T07:22:19.999Z</time></trkpt><trkpt lat="42.08805476368338" lon="11.99375754884412"><ele>502.0</ele><time>2026-03-29T07:22:21.999Z</time></trkpt><trkpt lat="42.088106238147574" lon="11.993862402778845"><ele>502.0</ele><time>2026-03-29T07:22:23.999Z</time></trkpt><trkpt lat="42.08824755136494" lon="11.993894332745466"><ele>499.42857142857133</ele><time>2026-03-29T07:22:27.999Z</time></trkpt><trkpt lat="42.088311029160714" lon="11.993901922146955"><ele>496.85714285714283</ele><time>2026-03-29T07:22:29Z</time></trkpt><trkpt lat="42.088380383150195" lon="11.993897184315621"><ele>494.2857142857142</ele><time>2026-03-29T07:22:30Z</time></trkpt><trkpt lat="42.088443375087444" lon="11.993866896216414"><ele>491.71428571428567</ele><time>2026-03-29T07:22:31Z</time></trkpt><trkpt lat="42.088505828656054" lon="11.99384048150425"><ele>489.1428571428571</ele><time>2026-03-29T07:22:32Z</time></trkpt><trkpt lat="42.088560444086575" lon="11.99378747442832"><ele>486.57142857142856</ele><time>2026-03-29T07:22:33Z</time></trkpt><trkpt lat="42.08862952033104" lon="11.993721542370649"><ele>484.0</ele><time>2026-03-29T07:22:35Z</time></trkpt><trkpt lat="42.08868329204195" lon="11.993632725084538"><ele>484.00000000000006</ele><time>2026-03-29T07:22:37Z</time></trkpt><trkpt lat="42.088713983049495" lon="11.993558080028745"><ele>484.0</ele><time>2026-03-29T07:22:38Z</time></trkpt><trkpt lat="42.08868549341559" lon="11.993463228374745"><ele>484.0</ele><time>2026-03-29T07:22:48Z</time></trkpt><trkpt lat="42.08862206607439" lon="11.993493126561924"><ele>484.0</ele><time>2026-03-29T07:22:52Z</time></trkpt><trkpt lat="42.08862824138336" lon="11.993353938270191"><ele>484.00000000000006</ele><time>2026-03-29T07:22:59Z</time></trkpt><trkpt lat="42.08855145529896" lon="11.99320242871175"><ele>484.0</ele><time>2026-03-29T07:23:01Z</time></trkpt><trkpt lat="42.08853095766989" lon="11.993054000657875"><ele>481.6</ele><time>2026-03-29T07:23:05Z</time></trkpt><trkpt lat="42.08860742106743" lon="11.992961987902207"><ele>479.2</ele><time>2026-03-29T07:23:07Z</time></trkpt><trkpt lat="42.088621672339656" lon="11.992856840996042"><ele>476.80000000000007</ele><time>2026-03-29T07:23:10Z</time></trkpt><trkpt lat="42.08863709149256" lon="11.99276727423535"><ele>474.40000000000003</ele><time>2026-03-29T07:23:12Z</time></trkpt><trkpt lat="42.08859922131419" lon="11.99261256922343"><ele>472.0</ele><time>2026-03-29T07:23:15Z</time></trkpt><trkpt lat="42.08857794485824" lon="11.992501468099654"><ele>468.40000000000003</ele><time>2026-03-29T07:23:17Z</time></trkpt><trkpt lat="42.08851406698843" lon="11.99241745206148"><ele>464.80000000000007</ele><time>2026-03-29T07:23:19Z</time></trkpt><trkpt lat="42.08848160425201" lon="11.99233464327597"><ele>461.2</ele><time>2026-03-29T07:23:22Z</time></trkpt><trkpt lat="42.088505099153544" lon="11.992211759001629"><ele>457.6</ele><time>2026-03-29T07:23:24Z</time></trkpt><trkpt lat="42.08847576590173" lon="11.992034598663867"><ele>454.0</ele><time>2026-03-29T07:23:26Z</time></trkpt><trkpt lat="42.088439019717825" lon="11.991958044085921"><ele>454.00000000000006</ele><time>2026-03-29T07:23:28Z</time></trkpt><trkpt lat="42.08841393955979" lon="11.991842625663518"><ele>454.0</ele><time>2026-03-29T07:23:29.999Z</time></trkpt><trkpt lat="42.088429412902805" lon="11.991746664107652"><ele>454.0</ele><time>2026-03-29T07:23:31.999Z</time></trkpt><trkpt lat="42.08845954478666" lon="11.991670982291467"><ele>454.0</ele><time>2026-03-29T07:23:32.999Z</time></trkpt><trkpt lat="42.08849075642702" lon="11.99155015692657"><ele>454.00000000000006</ele><time>2026-03-29T07:23:34.999Z</time></trkpt><trkpt lat="42.088501287465014" lon="11.991436820408165"><ele>454.0</ele><time>2026-03-29T07:23:36.999Z</time></trkpt><trkpt lat="42.08851573053617" lon="11.99130685213016"><ele>451.33333333333337</ele><time>2026-03-29T07:23:38.999Z</time></trkpt><trkpt lat="42.08855575581701" lon="11.991179389237182"><ele>448.6666666666667</ele><time>2026-03-29T07:23:40.999Z</time></trkpt><trkpt lat="42.088568529339504" lon="11.991088044690537"><ele>446.0</ele><time>2026-03-29T07:23:43.999Z</time></trkpt><trkpt lat="42.0885225054234" lon="11.990975832730912"><ele>443.33333333333337</ele><time>2026-03-29T07:23:45.999Z</time></trkpt><trkpt lat="42.08845837272622" lon="11.990922236215363"><ele>440.6666666666667</ele><time>2026-03-29T07:23:46.999Z</time></trkpt><trkpt lat="42.08838962972199" lon="11.990851238169201"><ele>438.0</ele><time>2026-03-29T07:23:47.999Z</time></trkpt><trkpt lat="42.08832801327956" lon="11.990807434828483"><ele>436.3333333333333</ele><time>2026-03-29T07:23:48.999Z</time></trkpt><trkpt lat="42.08825130081124" lon="11.990757218686815"><ele>434.66666666666663</ele><time>2026-03-29T07:23:49.999Z</time></trkpt><trkpt lat="42.08819178444033" lon="11.990715083583847"><ele>433.0</ele><time>2026-03-29T07:23:50.999Z</time></trkpt><trkpt lat="42.08810542055034" lon="11.990678008182034"><ele>431.3333333333333</ele><time>2026-03-29T07:23:52.999Z</time></trkpt><trkpt lat="42.0879981072277" lon="11.990624803579323"><ele>429.66666666666663</ele><time>2026-03-29T07:23:54.999Z</time></trkpt><trkpt lat="42.087957775634806" lon="11.990555744221957"><ele>428.0</ele><time>2026-03-29T07:23:55.999Z</time></trkpt><trkpt lat="42.08793273307734" lon="11.990421678172703"><ele>427.99999999999994</ele><time>2026-03-29T07:23:57.999Z</time></trkpt><trkpt lat="42.08784949361309" lon="11.9903463102003"><ele>428.0</ele><time>2026-03-29T07:23:59.999Z</time></trkpt><trkpt lat="42.087807441725424" lon="11.990262518729361"><ele>428.0</ele><time>2026-03-29T07:24:01.999Z</time></trkpt><trkpt lat="42.08781333639995" lon="11.990169473295317"><ele>428.0</ele><time>2026-03-29T07:24:03.999Z</time></trkpt><trkpt lat="42.08785783151151" lon="11.990069201181104"><ele>427.99999999999994</ele><time>2026-03-29T07:24:07.999Z</time></trkpt><trkpt lat="42.08787788267751" lon="11.989982641994906"><ele>428.0</ele><time>2026-03-29T07:24:09.999Z</time></trkpt><trkpt lat="42.08790919862888" lon="11.9898948808246"><ele>424.59999999999997</ele><time>2026-03-29T07:24:22.999Z</time></trkpt><trkpt lat="42.087944332439754" lon="11.98977550279729"><ele>421.19999999999993</ele><time>2026-03-29T07:24:25.999Z</time></trkpt><trkpt lat="42.08792284602645" lon="11.989675419021166"><ele>417.8</ele><time>2026-03-29T07:24:28.999Z</time></trkpt><trkpt lat="42.08786276331178" lon="11.989584510755197"><ele>414.4</ele><time>2026-03-29T07:24:31.999Z</time></trkpt><trkpt lat="42.0878065235832" lon="11.989498984017779"><ele>411.0</ele><time>2026-03-29T07:24:33.999Z</time></trkpt><trkpt lat="42.08773084884911" lon="11.989376041714582"><ele>411.0</ele><time>2026-03-29T07:24:36Z</time></trkpt><trkpt lat="42.08767841971163" lon="11.989287546426706"><ele>411.0</ele><time>2026-03-29T07:24:39Z</time></trkpt><trkpt lat="42.08762447541223" lon="11.989222930984623"><ele>411.0</ele><time>2026-03-29T07:24:42Z</time></trkpt><trkpt lat="42.08757948221093" lon="11.989133193632922"><ele>411.0</ele><time>2026-03-29T07:24:44Z</time></trkpt><trkpt lat="42.08751788026066" lon="11.989035263043188"><ele>411.0</ele><time>2026-03-29T07:24:46Z</time></trkpt><trkpt lat="42.08747544836675" lon="11.98895735664217"><ele>411.0</ele><time>2026-03-29T07:24:48Z</time></trkpt><trkpt lat="42.08755318620248" lon="11.988854741110332"><ele>407.8333333333333</ele><time>2026-03-29T07:24:55Z</time></trkpt><trkpt lat="42.08756512627913" lon="11.988697992325143"><ele>404.66666666666663</ele><time>2026-03-29T07:24:57Z</time></trkpt><trkpt lat="42.08755299944192" lon="11.988591687434068"><ele>401.5</ele><time>2026-03-29T07:24:59Z</time></trkpt><trkpt lat="42.08751604840106" lon="11.988516570577605"><ele>398.3333333333333</ele><time>2026-03-29T07:25:16Z</time></trkpt><trkpt lat="42.0875423032453" lon="11.98841726872437"><ele>395.16666666666663</ele><time>2026-03-29T07:25:19Z</time></trkpt><trkpt lat="42.0874731588318" lon="11.988324247304423"><ele>392.0</ele><time>2026-03-29T07:25:22Z</time></trkpt><trkpt lat="42.08739353167165" lon="11.98825748414789"><ele>387.6</ele><time>2026-03-29T07:25:25Z</time></trkpt><trkpt lat="42.08731684535862" lon="11.988218364941503"><ele>383.20000000000005</ele><time>2026-03-29T07:25:29Z</time></trkpt><trkpt lat="42.08725883467269" lon="11.988161999902466"><ele>378.8</ele><time>2026-03-29T07:25:31Z</time></trkpt><trkpt lat="42.08730484306533" lon="11.988080381183117"><ele>374.4</ele><time>2026-03-29T07:25:41.999Z</time></trkpt><trkpt lat="42.087432631597885" lon="11.988064329514936"><ele>370.0</ele><time>2026-03-29T07:25:45.999Z</time></trkpt><trkpt lat="42.08752963036124" lon="11.988062580119642"><ele>370.0</ele><time>2026-03-29T07:25:48.999Z</time></trkpt><trkpt lat="42.08759745603256" lon="11.988035753490825"><ele>370.0</ele><time>2026-03-29T07:25:50.999Z</time></trkpt><trkpt lat="42.087777199559966" lon="11.988022258468874"><ele>370.0</ele><time>2026-03-29T07:25:55.999Z</time></trkpt><trkpt lat="42.08787027536158" lon="11.988064191495779"><ele>370.0</ele><time>2026-03-29T07:25:57.999Z</time></trkpt><trkpt lat="42.08793760885396" lon="11.98805156276717"><ele>370.0</ele><time>2026-03-29T07:25:59.999Z</time></trkpt><trkpt lat="42.087978769973326" lon="11.987976953035643"><ele>370.0</ele><time>2026-03-29T07:26:02.999Z</time></trkpt><trkpt lat="42.08802026978484" lon="11.987812265173295"><ele>370.0</ele><time>2026-03-29T07:26:05.999Z</time></trkpt><trkpt lat="42.08807196175855" lon="11.987639007038478"><ele>370.0</ele><time>2026-03-29T07:26:07.999Z</time></trkpt><trkpt lat="42.08813046353281" lon="11.987529463846284"><ele>370.0</ele><time>2026-03-29T07:26:09.999Z</time></trkpt><trkpt lat="42.088164075636506" lon="11.987340878570862"><ele>366.8333333333333</ele><time>2026-03-29T07:26:24.999Z</time></trkpt><trkpt lat="42.08819537416117" lon="11.987256822970014"><ele>363.66666666666663</ele><time>2026-03-29T07:26:26.999Z</time></trkpt><trkpt lat="42.0882621447923" lon="11.987173154356825"><ele>360.5</ele><time>2026-03-29T07:26:29.999Z</time></trkpt><trkpt lat="42.08830590373511" lon="11.987040754142656"><ele>357.3333333333333</ele><time>2026-03-29T07:26:31.999Z</time></trkpt><trkpt lat="42.08837608205993" lon="11.986937586731235"><ele>354.1666666666667</ele><time>2026-03-29T07:26:33.999Z</time></trkpt><trkpt lat="42.08841832031615" lon="11.98685875026853"><ele>351.0</ele><time>2026-03-29T07:26:35.999Z</time></trkpt><trkpt lat="42.08847405911715" lon="11.986789373307044"><ele>350.5</ele><time>2026-03-29T07:26:37.999Z</time></trkpt><trkpt lat="42.08849320364579" lon="11.986705135655805"><ele>350.0</ele><time>2026-03-29T07:26:39.999Z</time></trkpt><trkpt lat="42.088471575640405" lon="11.986580172785102"><ele>349.5</ele><time>2026-03-29T07:26:44Z</time></trkpt><trkpt lat="42.08848965978955" lon="11.986400346148955"><ele>349.0</ele><time>2026-03-29T07:26:47Z</time></trkpt><trkpt lat="42.08851248264098" lon="11.986316445722485"><ele>348.5</ele><time>2026-03-29T07:26:48Z</time></trkpt><trkpt lat="42.088531916172485" lon="11.986227923681524"><ele>348.0</ele><time>2026-03-29T07:26:50Z</time></trkpt><trkpt lat="42.088556235808745" lon="11.986143159788826"><ele>345.0</ele><time>2026-03-29T07:26:53Z</time></trkpt><trkpt lat="42.08857963339164" lon="11.98605236137607"><ele>342.0</ele><time>2026-03-29T07:26:57Z</time></trkpt><trkpt lat="42.088551870794824" lon="11.985941837853392"><ele>339.0</ele><time>2026-03-29T07:26:59Z</time></trkpt><trkpt lat="42.0885101900125" lon="11.985867434876628"><ele>336.0</ele><time>2026-03-29T07:27:02Z</time></trkpt><trkpt lat="42.08845300848406" lon="11.98581612744225"><ele>333.0</ele><time>2026-03-29T07:27:04Z</time></trkpt><trkpt lat="42.08839262876303" lon="11.985710345983348"><ele>330.0</ele><time>2026-03-29T07:27:06Z</time></trkpt><trkpt lat="42.08832695866698" lon="11.985646175909059"><ele>328.28571428571433</ele><time>2026-03-29T07:27:08Z</time></trkpt><trkpt lat="42.08831074218301" lon="11.985564071910765"><ele>326.57142857142856</ele><time>2026-03-29T07:27:10Z</time></trkpt><trkpt lat="42.088283208880355" lon="11.985475030776058"><ele>324.8571428571429</ele><time>2026-03-29T07:27:15Z</time></trkpt><trkpt lat="42.08821972301591" lon="11.985445844170377"><ele>323.14285714285717</ele><time>2026-03-29T07:27:38.999Z</time></trkpt><trkpt lat="42.088206680570714" lon="11.985353955138338"><ele>321.42857142857144</ele><time>2026-03-29T07:27:46.999Z</time></trkpt><trkpt lat="42.0882190582856" lon="11.985256903436134"><ele>319.7142857142857</ele><time>2026-03-29T07:27:48.999Z</time></trkpt><trkpt lat="42.088210857596756" lon="11.985154016436807"><ele>318.0</ele><time>2026-03-29T07:27:50.999Z</time></trkpt><trkpt lat="42.088201449434415" lon="11.985039181159276"><ele>312.6</ele><time>2026-03-29T07:27:52.999Z</time></trkpt><trkpt lat="42.08826295396001" lon="11.984936560966432"><ele>307.20000000000005</ele><time>2026-03-29T07:27:54.999Z</time></trkpt><trkpt lat="42.08829927799639" lon="11.98485513925596"><ele>301.8</ele><time>2026-03-29T07:27:56.999Z</time></trkpt><trkpt lat="42.088301932603066" lon="11.984726080951255"><ele>296.40000000000003</ele><time>2026-03-29T07:27:59.999Z</time></trkpt><trkpt lat="42.08840098360168" lon="11.984654231176798"><ele>291.0</ele><time>2026-03-29T07:28:02.999Z</time></trkpt><trkpt lat="42.088457707699035" lon="11.984590058964688"><ele>291.0</ele><time>2026-03-29T07:28:04.999Z</time></trkpt><trkpt lat="42.088484117380766" lon="11.984512601052487"><ele>291.0</ele><time>2026-03-29T07:28:06.999Z</time></trkpt><trkpt lat="42.0884684378695" lon="11.984415009763937"><ele>291.0</ele><time>2026-03-29T07:28:09.999Z</time></trkpt><trkpt lat="42.08844615064083" lon="11.984312622152562"><ele>291.0</ele><time>2026-03-29T07:28:12.999Z</time></trkpt><trkpt lat="42.08837066051236" lon="11.984235853324543"><ele>291.0</ele><time>2026-03-29T07:28:14.999Z</time></trkpt><trkpt lat="42.08832559128471" lon="11.984172486783589"><ele>291.0</ele><time>2026-03-29T07:28:16.999Z</time></trkpt><trkpt lat="42.088383721471715" lon="11.984121025063237"><ele>291.0</ele><time>2026-03-29T07:28:21.999Z</time></trkpt><trkpt lat="42.08845315961026" lon="11.98412105687054"><ele>288.3333333333333</ele><time>2026-03-29T07:28:23.999Z</time></trkpt><trkpt lat="42.08853290196675" lon="11.984081280993674"><ele>285.6666666666667</ele><time>2026-03-29T07:28:25.999Z</time></trkpt><trkpt lat="42.0885874641484" lon="11.984019655459253"><ele>283.0</ele><time>2026-03-29T07:28:28.999Z</time></trkpt><trkpt lat="42.088651355604604" lon="11.984006302874821"><ele>280.33333333333337</ele><time>2026-03-29T07:28:30.999Z</time></trkpt><trkpt lat="42.088748182136115" lon="11.984010399283456"><ele>277.6666666666667</ele><time>2026-03-29T07:28:32.999Z</time></trkpt><trkpt lat="42.08881319476383" lon="11.983972281028809"><ele>275.0</ele><time>2026-03-29T07:28:34.999Z</time></trkpt><trkpt lat="42.08889970552823" lon="11.983925439831339"><ele>275.0</ele><time>2026-03-29T07:28:37.999Z</time></trkpt><trkpt lat="42.08897487827347" lon="11.983872166778053"><ele>275.0</ele><time>2026-03-29T07:28:39.999Z</time></trkpt><trkpt lat="42.08890097329395" lon="11.983906777164526"><ele>275.0</ele><time>2026-03-29T07:28:53Z</time></trkpt><trkpt lat="42.08881862112795" lon="11.983875994290653"><ele>275.0</ele><time>2026-03-29T07:28:55Z</time></trkpt><trkpt lat="42.08874721032859" lon="11.983810026826706"><ele>275.0</ele><time>2026-03-29T07:28:57Z</time></trkpt><trkpt lat="42.088661946050884" lon="11.983744064507867"><ele>275.0</ele><time>2026-03-29T07:28:59Z</time></trkpt><trkpt lat="42.08857670408707" lon="11.983760694999559"><ele>275.0</ele><time>2026-03-29T07:29:01Z</time></trkpt><trkpt lat="42.08849446975451" lon="11.983768914292439"><ele>275.0</ele><time>2026-03-29T07:29:03Z</time></trkpt><trkpt lat="42.088377229679516" lon="11.98382478328269"><ele>275.0</ele><time>2026-03-29T07:29:06Z</time></trkpt><trkpt lat="42.08830627724587" lon="11.983832246327697"><ele>275.0</ele><time>2026-03-29T07:29:07Z</time></trkpt><trkpt lat="42.08818803477004" lon="11.98379643680498"><ele>275.0</ele><time>2026-03-29T07:29:09Z</time></trkpt><trkpt lat="42.088126861692274" lon="11.983744489703904"><ele>276.42857142857144</ele><time>2026-03-29T07:29:11Z</time></trkpt><trkpt lat="42.08809433052414" lon="11.983668439668383"><ele>277.85714285714283</ele><time>2026-03-29T07:29:13Z</time></trkpt><trkpt lat="42.0881252766655" lon="11.983589366740851"><ele>279.2857142857143</ele><time>2026-03-29T07:29:27Z</time></trkpt><trkpt lat="42.08811153086748" lon="11.983503913548827"><ele>280.7142857142857</ele><time>2026-03-29T07:29:30Z</time></trkpt><trkpt lat="42.08814793488602" lon="11.983412175987825"><ele>282.14285714285717</ele><time>2026-03-29T07:29:32Z</time></trkpt><trkpt lat="42.08812087689241" lon="11.983324433063126"><ele>283.57142857142856</ele><time>2026-03-29T07:29:35Z</time></trkpt><trkpt lat="42.088054460871064" lon="11.983228678482003"><ele>285.0</ele><time>2026-03-29T07:29:38Z</time></trkpt><trkpt lat="42.088046742398035" lon="11.983098732442457"><ele>285.0</ele><time>2026-03-29T07:29:40Z</time></trkpt><trkpt lat="42.08805794860277" lon="11.982952816004627"><ele>285.0</ele><time>2026-03-29T07:29:42Z</time></trkpt><trkpt lat="42.08810034997946" lon="11.982849133509424"><ele>285.0</ele><time>2026-03-29T07:29:44.999Z</time></trkpt><trkpt lat="42.08813618746205" lon="11.982743121156082"><ele>285.0</ele><time>2026-03-29T07:29:47.999Z</time></trkpt><trkpt lat="42.088187915522425" lon="11.982689219606822"><ele>285.0</ele><time>2026-03-29T07:29:49.999Z</time></trkpt><trkpt lat="42.088259848296616" lon="11.982623053058965"><ele>285.0</ele><time>2026-03-29T07:29:53.999Z</time></trkpt><trkpt lat="42.088305170018515" lon="11.982516432611396"><ele>282.57142857142856</ele><time>2026-03-29T07:29:55.999Z</time></trkpt><trkpt lat="42.088358974915174" lon="11.982443682432658"><ele>280.14285714285717</ele><time>2026-03-29T07:29:58.999Z</time></trkpt><trkpt lat="42.08844029817588" lon="11.982438595495585"><ele>277.7142857142857</ele><time>2026-03-29T07:30:04.999Z</time></trkpt><trkpt lat="42.0885021971457" lon="11.98240916620403"><ele>275.2857142857143</ele><time>2026-03-29T07:30:10.999Z</time></trkpt><trkpt lat="42.0884981568924" lon="11.982315511371887"><ele>272.85714285714283</ele><time>2026-03-29T07:30:15.999Z</time></trkpt><trkpt lat="42.08851036236149" lon="11.982223937625259"><ele>270.42857142857144</ele><time>2026-03-29T07:30:18.999Z</time></trkpt><trkpt lat="42.088546907213015" lon="11.982132278468148"><ele>268.0</ele><time>2026-03-29T07:30:20.999Z</time></trkpt><trkpt lat="42.088598761365645" lon="11.981983416968841"><ele>268.0</ele><time>2026-03-29T07:30:22.999Z</time></trkpt><trkpt lat="42.08864092703763" lon="11.981912509731544"><ele>268.0</ele><time>2026-03-29T07:30:23.999Z</time></trkpt><trkpt lat="42.088659055976166" lon="11.981812818490223"><ele>268.0</ele><time>2026-03-29T07:30:25.999Z</time></trkpt><trkpt lat="42.08869543214181" lon="11.98171733692587"><ele>268.0</ele><time>2026-03-29T07:30:28.999Z</time></trkpt><trkpt lat="42.08877223854038" lon="11.981564838920013"><ele>268.0</ele><time>2026-03-29T07:30:31.999Z</time></trkpt><trkpt lat="42.08874472565013" lon="11.981429042595405"><ele>266.8</ele><time>2026-03-29T07:30:36.999Z</time></trkpt><trkpt lat="42.088821457238005" lon="11.981270072819"><ele>265.6</ele><time>2026-03-29T07:30:39.999Z</time></trkpt><trkpt lat="42.08881842263301" lon="11.981163380763185"><ele>264.4</ele><time>2026-03-29T07:30:41.999Z</time></trkpt><trkpt lat="42.0888044881434" lon="11.981021896513745"><ele>263.2</ele><time>2026-03-29T07:30:42.999Z</time></trkpt><trkpt lat="42.08879695768318" lon="11.98092325779073"><ele>262.0</ele><time>2026-03-29T07:30:43.999Z</time></trkpt><trkpt lat="42.08879290475589" lon="11.980782266006862"><ele>260.0</ele><time>2026-03-29T07:30:45.999Z</time></trkpt><trkpt lat="42.08880384473755" lon="11.980666460303507"><ele>258.0</ele><time>2026-03-29T07:30:47.999Z</time></trkpt><trkpt lat="42.08883612870889" lon="11.980528685801984"><ele>256.0</ele><time>2026-03-29T07:30:49.999Z</time></trkpt><trkpt lat="42.088871525754676" lon="11.980387463737456"><ele>254.0</ele><time>2026-03-29T07:30:51.999Z</time></trkpt><trkpt lat="42.08892355883446" lon="11.980265439247468"><ele>252.0</ele><time>2026-03-29T07:30:54Z</time></trkpt><trkpt lat="42.088974200507614" lon="11.980129734844942"><ele>251.0</ele><time>2026-03-29T07:30:56Z</time></trkpt><trkpt lat="42.08898421702474" lon="11.979955303230486"><ele>250.0</ele><time>2026-03-29T07:30:58Z</time></trkpt><trkpt lat="42.08899195447828" lon="11.97982217570211"><ele>249.0</ele><time>2026-03-29T07:30:59Z</time></trkpt><trkpt lat="42.08901509214446" lon="11.979712265608976"><ele>248.0</ele><time>2026-03-29T07:31:00Z</time></trkpt><trkpt lat="42.089040890400234" lon="11.979559573854418"><ele>247.0</ele><time>2026-03-29T07:31:02Z</time></trkpt><trkpt lat="42.089062781374174" lon="11.979429052245292"><ele>246.99999999999997</ele><time>2026-03-29T07:31:04Z</time></trkpt><trkpt lat="42.08901182626418" lon="11.979348293078239"><ele>247.0</ele><time>2026-03-29T07:31:09Z</time></trkpt><trkpt lat="42.08892653482797" lon="11.97928258117111"><ele>247.0</ele><time>2026-03-29T07:31:12Z</time></trkpt><trkpt lat="42.08884662371577" lon="11.979277289101786"><ele>247.0</ele><time>2026-03-29T07:31:14Z</time></trkpt><trkpt lat="42.08885005737341" lon="11.979189088204787"><ele>246.99999999999997</ele><time>2026-03-29T07:31:18Z</time></trkpt><trkpt lat="42.08885923337895" lon="11.979103598455355"><ele>247.0</ele><time>2026-03-29T07:31:22Z</time></trkpt><trkpt lat="42.088840887108674" lon="11.9789844837399"><ele>245.16666666666666</ele><time>2026-03-29T07:31:26Z</time></trkpt><trkpt lat="42.08883697589274" lon="11.978896963168802"><ele>243.33333333333331</ele><time>2026-03-29T07:31:29Z</time></trkpt><trkpt lat="42.08891945846499" lon="11.97875544217512"><ele>241.5</ele><time>2026-03-29T07:31:34Z</time></trkpt><trkpt lat="42.0889363592405" lon="11.978661124682711"><ele>239.66666666666669</ele><time>2026-03-29T07:31:41Z</time></trkpt><trkpt lat="42.0889200160691" lon="11.978563228084187"><ele>237.83333333333334</ele><time>2026-03-29T07:31:51Z</time></trkpt><trkpt lat="42.088979219753774" lon="11.9785126544098"><ele>236.0</ele><time>2026-03-29T07:31:52.999Z</time></trkpt><trkpt lat="42.08905848895485" lon="11.978460881003931"><ele>233.83333333333334</ele><time>2026-03-29T07:31:54.999Z</time></trkpt><trkpt lat="42.089116320645154" lon="11.978377069035313"><ele>231.66666666666669</ele><time>2026-03-29T07:31:58.999Z</time></trkpt><trkpt lat="42.08914108770272" lon="11.978225286468843"><ele>229.5</ele><time>2026-03-29T07:32:00.999Z</time></trkpt><trkpt lat="42.08915518905619" lon="11.978139994433494"><ele>227.33333333333331</ele><time>2026-03-29T07:32:02.999Z</time></trkpt><trkpt lat="42.08916616032257" lon="11.978036163816283"><ele>225.16666666666666</ele><time>2026-03-29T07:32:04.999Z</time></trkpt><trkpt lat="42.089112817100805" lon="11.977974265521963"><ele>223.0</ele><time>2026-03-29T07:32:09.999Z</time></trkpt><trkpt lat="42.08905005251882" lon="11.97790341619888"><ele>222.99999999999997</ele><time>2026-03-29T07:32:11.999Z</time></trkpt><trkpt lat="42.08899824992365" lon="11.9778242583527"><ele>223.0</ele><time>2026-03-29T07:32:13.999Z</time></trkpt><trkpt lat="42.08895266473683" lon="11.977754939123288"><ele>223.0</ele><time>2026-03-29T07:32:15.999Z</time></trkpt><trkpt lat="42.08894335668909" lon="11.97763270206727"><ele>223.0</ele><time>2026-03-29T07:32:18.999Z</time></trkpt><trkpt lat="42.08893471421503" lon="11.977487430216211"><ele>222.99999999999997</ele><time>2026-03-29T07:32:21.999Z</time></trkpt><trkpt lat="42.088882825947266" lon="11.977396782363423"><ele>223.0</ele><time>2026-03-29T07:32:24.999Z</time></trkpt><trkpt lat="42.088832996023626" lon="11.977251530361373"><ele>220.66666666666666</ele><time>2026-03-29T07:32:27.999Z</time></trkpt><trkpt lat="42.088793290237945" lon="11.977180890992342"><ele>218.33333333333331</ele><time>2026-03-29T07:32:29.999Z</time></trkpt><trkpt lat="42.08873555358015" lon="11.977069315782883"><ele>216.0</ele><time>2026-03-29T07:32:31.999Z</time></trkpt><trkpt lat="42.088689143862155" lon="11.97699765719096"><ele>213.66666666666669</ele><time>2026-03-29T07:32:33.999Z</time></trkpt><trkpt lat="42.088619257862995" lon="11.97693005661102"><ele>211.33333333333334</ele><time>2026-03-29T07:32:36.999Z</time></trkpt><trkpt lat="42.088560684284985" lon="11.976890453029373"><ele>209.0</ele><time>2026-03-29T07:32:39.999Z</time></trkpt><trkpt lat="42.08845741939578" lon="11.976877269288602"><ele>209.0</ele><time>2026-03-29T07:32:42.999Z</time></trkpt><trkpt lat="42.08836272732036" lon="11.976699585046195"><ele>209.0</ele><time>2026-03-29T07:32:47.999Z</time></trkpt><trkpt lat="42.08828261520013" lon="11.976626118036004"><ele>209.0</ele><time>2026-03-29T07:32:50.999Z</time></trkpt><trkpt lat="42.08821424846021" lon="11.976561157987476"><ele>209.0</ele><time>2026-03-29T07:32:51.999Z</time></trkpt><trkpt lat="42.08814877338201" lon="11.976496848253536"><ele>209.0</ele><time>2026-03-29T07:32:54.999Z</time></trkpt><trkpt lat="42.088106502573744" lon="11.976378808248537"><ele>206.33333333333334</ele><time>2026-03-29T07:32:57.999Z</time></trkpt><trkpt lat="42.088080843629164" lon="11.97625273512916"><ele>203.66666666666669</ele><time>2026-03-29T07:33:00Z</time></trkpt><trkpt lat="42.08804838452558" lon="11.976148584791844"><ele>201.0</ele><time>2026-03-29T07:33:01Z</time></trkpt><trkpt lat="42.08799136376136" lon="11.97610397644251"><ele>198.33333333333331</ele><time>2026-03-29T07:33:02Z</time></trkpt><trkpt lat="42.08793562530491" lon="11.976033332609623"><ele>195.66666666666666</ele><time>2026-03-29T07:33:03Z</time></trkpt><trkpt lat="42.08785175890297" lon="11.975938700589417"><ele>193.0</ele><time>2026-03-29T07:33:05Z</time></trkpt><trkpt lat="42.08779097621014" lon="11.975908518531611"><ele>193.00000000000003</ele><time>2026-03-29T07:33:07Z</time></trkpt><trkpt lat="42.08772938403846" lon="11.975889704119451"><ele>193.0</ele><time>2026-03-29T07:33:09Z</time></trkpt><trkpt lat="42.08763788258498" lon="11.97589848920265"><ele>193.0</ele><time>2026-03-29T07:33:11Z</time></trkpt><trkpt lat="42.08760467786143" lon="11.975819048867432"><ele>193.0</ele><time>2026-03-29T07:33:31Z</time></trkpt><trkpt lat="42.08756741814169" lon="11.975734407008867"><ele>193.0</ele><time>2026-03-29T07:33:40Z</time></trkpt><trkpt lat="42.08750894276636" lon="11.975694830345692"><ele>193.00000000000003</ele><time>2026-03-29T07:33:42Z</time></trkpt><trkpt lat="42.08745786600768" lon="11.975631471323787"><ele>193.0</ele><time>2026-03-29T07:33:44Z</time></trkpt><trkpt lat="42.0873910721793" lon="11.9755074471039"><ele>191.49999999999997</ele><time>2026-03-29T07:33:46Z</time></trkpt><trkpt lat="42.087346311902586" lon="11.975414274677227"><ele>190.0</ele><time>2026-03-29T07:33:48Z</time></trkpt><trkpt lat="42.08725845275052" lon="11.975373880552114"><ele>188.5</ele><time>2026-03-29T07:33:51Z</time></trkpt><trkpt lat="42.087200582374734" lon="11.97534027506335"><ele>187.0</ele><time>2026-03-29T07:33:54Z</time></trkpt><trkpt lat="42.087137971912625" lon="11.975400986868255"><ele>185.5</ele><time>2026-03-29T07:33:57Z</time></trkpt><trkpt lat="42.08705470999042" lon="11.97543420894223"><ele>184.0</ele><time>2026-03-29T07:33:59.999Z</time></trkpt><trkpt lat="42.08696976692193" lon="11.975414011661584"><ele>184.0</ele><time>2026-03-29T07:34:01.999Z</time></trkpt><trkpt lat="42.08688869856086" lon="11.97540193378688"><ele>184.0</ele><time>2026-03-29T07:34:04.999Z</time></trkpt><trkpt lat="42.08681121784263" lon="11.975306186907934"><ele>184.0</ele><time>2026-03-29T07:34:06.999Z</time></trkpt><trkpt lat="42.08674110579141" lon="11.975299930609571"><ele>184.0</ele><time>2026-03-29T07:34:10.999Z</time></trkpt><trkpt lat="42.086680252091625" lon="11.97521225172807"><ele>184.0</ele><time>2026-03-29T07:34:13.999Z</time></trkpt><trkpt lat="42.08657884275879" lon="11.975286656138454"><ele>185.5</ele><time>2026-03-29T07:34:16.999Z</time></trkpt><trkpt lat="42.0864443668952" lon="11.975345745487386"><ele>187.0</ele><time>2026-03-29T07:34:22.999Z</time></trkpt><trkpt lat="42.08633095036968" lon="11.975331512286363"><ele>188.5</ele><time>2026-03-29T07:34:24.999Z</time></trkpt><trkpt lat="42.08621452516942" lon="11.975334055320438"><ele>190.0</ele><time>2026-03-29T07:34:26.999Z</time></trkpt><trkpt lat="42.086115821515904" lon="11.975301435180587"><ele>190.0</ele><time>2026-03-29T07:34:27.999Z</time></trkpt><trkpt lat="42.086098986382574" lon="11.975211147588176"><ele>190.0</ele><time>2026-03-29T07:34:30.999Z</time></trkpt><trkpt lat="42.086042892408436" lon="11.975138859778196"><ele>190.0</ele><time>2026-03-29T07:34:32.999Z</time></trkpt><trkpt lat="42.0859887824255" lon="11.97503957059956"><ele>190.0</ele><time>2026-03-29T07:34:34.999Z</time></trkpt><trkpt lat="42.0859221083813" lon="11.974962395614254"><ele>190.0</ele><time>2026-03-29T07:34:39.999Z</time></trkpt><trkpt lat="42.08592578998756" lon="11.974876438162314"><ele>190.0</ele><time>2026-03-29T07:34:41.999Z</time></trkpt><trkpt lat="42.085854585754326" lon="11.974760530147744"><ele>188.2</ele><time>2026-03-29T07:34:43.999Z</time></trkpt><trkpt lat="42.085710206131445" lon="11.974715077049565"><ele>186.4</ele><time>2026-03-29T07:34:44.999Z</time></trkpt><trkpt lat="42.08563409771743" lon="11.974683320393005"><ele>184.60000000000002</ele><time>2026-03-29T07:34:45.999Z</time></trkpt><trkpt lat="42.085547259172735" lon="11.974665472906516"><ele>182.8</ele><time>2026-03-29T07:34:46.999Z</time></trkpt><trkpt lat="42.08545973244274" lon="11.974639360840202"><ele>181.0</ele><time>2026-03-29T07:34:47.999Z</time></trkpt><trkpt lat="42.08538553618491" lon="11.974607913119517"><ele>181.0</ele><time>2026-03-29T07:34:48.999Z</time></trkpt><trkpt lat="42.085317543454735" lon="11.974600281072854"><ele>181.0</ele><time>2026-03-29T07:34:49.999Z</time></trkpt><trkpt lat="42.08525156243857" lon="11.974570989665905"><ele>181.0</ele><time>2026-03-29T07:34:50.999Z</time></trkpt><trkpt lat="42.08514423587078" lon="11.974522367979949"><ele>181.0</ele><time>2026-03-29T07:34:52.999Z</time></trkpt><trkpt lat="42.085048538360056" lon="11.974455057376609"><ele>181.0</ele><time>2026-03-29T07:34:54.999Z</time></trkpt><trkpt lat="42.08498655395804" lon="11.974382329648082"><ele>181.0</ele><time>2026-03-29T07:34:56.999Z</time></trkpt><trkpt lat="42.08489430691378" lon="11.974343164856455"><ele>180.0</ele><time>2026-03-29T07:34:58.999Z</time></trkpt><trkpt lat="42.08481823815142" lon="11.974336186091387"><ele>179.0</ele><time>2026-03-29T07:34:59.999Z</time></trkpt><trkpt lat="42.08476104660296" lon="11.974300134543192"><ele>178.0</ele><time>2026-03-29T07:35:00.999Z</time></trkpt><trkpt lat="42.084676049222594" lon="11.974229641434698"><ele>177.0</ele><time>2026-03-29T07:35:02.999Z</time></trkpt><trkpt lat="42.084578789765956" lon="11.974179401677523"><ele>176.0</ele><time>2026-03-29T07:35:05Z</time></trkpt><trkpt lat="42.084499948103925" lon="11.974150830574931"><ele>175.0</ele><time>2026-03-29T07:35:07Z</time></trkpt><trkpt lat="42.084452984607545" lon="11.97407727116678"><ele>175.0</ele><time>2026-03-29T07:35:09Z</time></trkpt><trkpt lat="42.08436091903156" lon="11.974075692854434"><ele>175.0</ele><time>2026-03-29T07:35:12Z</time></trkpt><trkpt lat="42.08437895237396" lon="11.974158372589185"><ele>175.0</ele><time>2026-03-29T07:35:13Z</time></trkpt><trkpt lat="42.0843310540049" lon="11.974097926337397"><ele>175.0</ele><time>2026-03-29T07:35:27Z</time></trkpt><trkpt lat="42.08436211809229" lon="11.973988994311991"><ele>175.0</ele><time>2026-03-29T07:35:32Z</time></trkpt><trkpt lat="42.08436161944651" lon="11.973888008003263"><ele>175.0</ele><time>2026-03-29T07:35:36.02Z</time></trkpt><trkpt lat="42.08431660887683" lon="11.973790303746814"><ele>175.0</ele><time>2026-03-29T07:35:38.02Z</time></trkpt><trkpt lat="42.08428943377568" lon="11.97364883940199"><ele>175.0</ele><time>2026-03-29T07:35:42Z</time></trkpt><trkpt lat="42.084266794522065" lon="11.973550930047377"><ele>175.0</ele><time>2026-03-29T07:35:44Z</time></trkpt><trkpt lat="42.084319388571174" lon="11.973484855104006"><ele>175.0</ele><time>2026-03-29T07:35:46Z</time></trkpt><trkpt lat="42.084364649772574" lon="11.97332638865991"><ele>175.0</ele><time>2026-03-29T07:35:48Z</time></trkpt><trkpt lat="42.0843638389987" lon="11.97318892852752"><ele>173.66666666666669</ele><time>2026-03-29T07:35:51Z</time></trkpt><trkpt lat="42.08432671611158" lon="11.973102419243471"><ele>172.33333333333334</ele><time>2026-03-29T07:35:55Z</time></trkpt><trkpt lat="42.08424322531906" lon="11.973057391092432"><ele>171.0</ele><time>2026-03-29T07:35:57Z</time></trkpt><trkpt lat="42.08425851071792" lon="11.972949594639168"><ele>169.66666666666666</ele><time>2026-03-29T07:36:01Z</time></trkpt><trkpt lat="42.08420531956015" lon="11.97288748354117"><ele>168.33333333333331</ele><time>2026-03-29T07:36:05Z</time></trkpt><trkpt lat="42.08415372601009" lon="11.972819910345978"><ele>167.0</ele><time>2026-03-29T07:36:10.999Z</time></trkpt><trkpt lat="42.08408306446668" lon="11.972783900916257"><ele>167.0</ele><time>2026-03-29T07:36:12.999Z</time></trkpt><trkpt lat="42.083986625561884" lon="11.972702085402885"><ele>167.0</ele><time>2026-03-29T07:36:13.999Z</time></trkpt><trkpt lat="42.083944500693455" lon="11.972627709557711"><ele>167.0</ele><time>2026-03-29T07:36:17.999Z</time></trkpt><trkpt lat="42.08385489284356" lon="11.972565231303633"><ele>167.0</ele><time>2026-03-29T07:36:19.999Z</time></trkpt><trkpt lat="42.08374879015999" lon="11.972450767145649"><ele>167.0</ele><time>2026-03-29T07:36:21.999Z</time></trkpt><trkpt lat="42.083681559405754" lon="11.97242463619544"><ele>165.83333333333331</ele><time>2026-03-29T07:36:22.999Z</time></trkpt><trkpt lat="42.083570808606204" lon="11.972378936735348"><ele>164.66666666666666</ele><time>2026-03-29T07:36:23.999Z</time></trkpt><trkpt lat="42.08350715586829" lon="11.972331311123044"><ele>163.5</ele><time>2026-03-29T07:36:24.999Z</time></trkpt><trkpt lat="42.08344287659889" lon="11.972300422980526"><ele>162.33333333333334</ele><time>2026-03-29T07:36:25.999Z</time></trkpt><trkpt lat="42.083375147452735" lon="11.972271968617955"><ele>161.16666666666669</ele><time>2026-03-29T07:36:26.999Z</time></trkpt><trkpt lat="42.083306168596955" lon="11.972232618736983"><ele>160.0</ele><time>2026-03-29T07:36:27.999Z</time></trkpt><trkpt lat="42.083248672450836" lon="11.972188934859236"><ele>160.0</ele><time>2026-03-29T07:36:28.999Z</time></trkpt><trkpt lat="42.0831643038886" lon="11.972151315438678"><ele>160.0</ele><time>2026-03-29T07:36:30.999Z</time></trkpt><trkpt lat="42.083086201593254" lon="11.972141425345454"><ele>160.0</ele><time>2026-03-29T07:36:32.999Z</time></trkpt><trkpt lat="42.08302523257415" lon="11.972095252951611"><ele>160.0</ele><time>2026-03-29T07:36:35.999Z</time></trkpt><trkpt lat="42.083019590871125" lon="11.97199705483185"><ele>160.0</ele><time>2026-03-29T07:36:47.999Z</time></trkpt><trkpt lat="42.08301248691256" lon="11.971868018181441"><ele>160.0</ele><time>2026-03-29T07:36:53.999Z</time></trkpt><trkpt lat="42.082910063624645" lon="11.971897275290074"><ele>160.0</ele><time>2026-03-29T07:36:57.999Z</time></trkpt><trkpt lat="42.08283716134135" lon="11.971835609586442"><ele>160.0</ele><time>2026-03-29T07:40:16Z</time></trkpt><trkpt lat="42.08277645423995" lon="11.97180150346588"><ele>160.0</ele><time>2026-03-29T07:40:18.999Z</time></trkpt><trkpt lat="42.082675838103924" lon="11.971781735249209"><ele>160.0</ele><time>2026-03-29T07:40:21.999Z</time></trkpt><trkpt lat="42.08261008595627" lon="11.971732097805669"><ele>160.0</ele><time>2026-03-29T07:40:23.999Z</time></trkpt><trkpt lat="42.08252978304499" lon="11.971665919492715"><ele>160.0</ele><time>2026-03-29T07:41:00.999Z</time></trkpt><trkpt lat="42.08247492204791" lon="11.97158701710974"><ele>157.5</ele><time>2026-03-29T07:41:12.999Z</time></trkpt><trkpt lat="42.08249681107459" lon="11.971493305717768"><ele>155.0</ele><time>2026-03-29T07:41:19.999Z</time></trkpt><trkpt lat="42.082450607418394" lon="11.971400482690413"><ele>152.5</ele><time>2026-03-29T07:41:23Z</time></trkpt><trkpt lat="42.08239023363823" lon="11.971354197255263"><ele>150.0</ele><time>2026-03-29T07:41:25Z</time></trkpt><trkpt lat="42.08231791463486" lon="11.971344433566085"><ele>147.5</ele><time>2026-03-29T07:41:28Z</time></trkpt><trkpt lat="42.08226674898385" lon="11.97127465455151"><ele>145.0</ele><time>2026-03-29T07:41:30Z</time></trkpt><trkpt lat="42.08216788483329" lon="11.97122738348481"><ele>144.6</ele><time>2026-03-29T07:41:32Z</time></trkpt><trkpt lat="42.082068951583736" lon="11.971223762462934"><ele>144.2</ele><time>2026-03-29T07:41:34Z</time></trkpt><trkpt lat="42.08199049268788" lon="11.971276492576505"><ele>143.8</ele><time>2026-03-29T07:41:37Z</time></trkpt><trkpt lat="42.08191095917101" lon="11.971281277313997"><ele>143.4</ele><time>2026-03-29T07:41:40Z</time></trkpt><trkpt lat="42.08181937642793" lon="11.97120582723598"><ele>143.0</ele><time>2026-03-29T07:41:42Z</time></trkpt><trkpt lat="42.081709621099705" lon="11.971220827936348"><ele>143.0</ele><time>2026-03-29T07:41:44Z</time></trkpt><trkpt lat="42.08162159836294" lon="11.971247132238567"><ele>143.0</ele><time>2026-03-29T07:41:46Z</time></trkpt><trkpt lat="42.08155047038836" lon="11.97126614946695"><ele>143.0</ele><time>2026-03-29T07:41:48Z</time></trkpt><trkpt lat="42.081480474203936" lon="11.97124670274385"><ele>143.0</ele><time>2026-03-29T07:41:50Z</time></trkpt><trkpt lat="42.081422098658194" lon="11.971190694385026"><ele>143.0</ele><time>2026-03-29T07:41:52Z</time></trkpt><trkpt lat="42.08133591135001" lon="11.971164093926518"><ele>143.0</ele><time>2026-03-29T07:41:56Z</time></trkpt><trkpt lat="42.08127948553456" lon="11.971073544941534"><ele>143.6</ele><time>2026-03-29T07:41:59Z</time></trkpt><trkpt lat="42.08126332609733" lon="11.970962002366798"><ele>144.20000000000002</ele><time>2026-03-29T07:42:02Z</time></trkpt><trkpt lat="42.081356361050624" lon="11.97086421363921"><ele>144.8</ele><time>2026-03-29T07:42:04Z</time></trkpt><trkpt lat="42.081314112404115" lon="11.970718778544972"><ele>145.4</ele><time>2026-03-29T07:42:06Z</time></trkpt><trkpt lat="42.081299432953436" lon="11.970583845463139"><ele>146.0</ele><time>2026-03-29T07:42:08Z</time></trkpt><trkpt lat="42.081308701597116" lon="11.97048703610191"><ele>146.0</ele><time>2026-03-29T07:42:10Z</time></trkpt><trkpt lat="42.081324058615174" lon="11.97038143950287"><ele>146.0</ele><time>2026-03-29T07:42:20Z</time></trkpt><trkpt lat="42.081316842661344" lon="11.970273014875577"><ele>146.0</ele><time>2026-03-29T07:42:22Z</time></trkpt><trkpt lat="42.08137741105215" lon="11.970203294742497"><ele>146.0</ele><time>2026-03-29T07:42:23Z</time></trkpt><trkpt lat="42.08139680174217" lon="11.970097317722262"><ele>146.0</ele><time>2026-03-29T07:42:24.999Z</time></trkpt><trkpt lat="42.08140864685372" lon="11.969942387351688"><ele>146.0</ele><time>2026-03-29T07:42:26.999Z</time></trkpt><trkpt lat="42.08148611742962" lon="11.969796350372173"><ele>145.16666666666666</ele><time>2026-03-29T07:42:28.999Z</time></trkpt><trkpt lat="42.081522278951134" lon="11.969718533422563"><ele>144.33333333333331</ele><time>2026-03-29T07:42:29.999Z</time></trkpt><trkpt lat="42.08154529186177" lon="11.969615882426625"><ele>143.5</ele><time>2026-03-29T07:42:30.999Z</time></trkpt><trkpt lat="42.08154155595293" lon="11.969523103478942"><ele>142.66666666666666</ele><time>2026-03-29T07:42:31.999Z</time></trkpt><trkpt lat="42.08154252552491" lon="11.969377810237784"><ele>141.83333333333334</ele><time>2026-03-29T07:42:33.999Z</time></trkpt><trkpt lat="42.081551886828144" lon="11.969259743690486"><ele>141.0</ele><time>2026-03-29T07:42:35.999Z</time></trkpt><trkpt lat="42.081568337715304" lon="11.96916904637866"><ele>140.16666666666666</ele><time>2026-03-29T07:42:37.999Z</time></trkpt><trkpt lat="42.08157585036143" lon="11.969039151478224"><ele>139.33333333333334</ele><time>2026-03-29T07:42:40.999Z</time></trkpt><trkpt lat="42.081630355522435" lon="11.968959050582777"><ele>138.5</ele><time>2026-03-29T07:42:42.999Z</time></trkpt><trkpt lat="42.081633195215694" lon="11.968863106857398"><ele>137.66666666666669</ele><time>2026-03-29T07:42:44.999Z</time></trkpt><trkpt lat="42.08159875555321" lon="11.968739055503814"><ele>136.83333333333334</ele><time>2026-03-29T07:42:46.999Z</time></trkpt><trkpt lat="42.08155926024998" lon="11.968630220872651"><ele>136.0</ele><time>2026-03-29T07:42:48.999Z</time></trkpt><trkpt lat="42.08153633379145" lon="11.968536183358239"><ele>136.0</ele><time>2026-03-29T07:42:50.999Z</time></trkpt><trkpt lat="42.081529946578904" lon="11.968392603220222"><ele>136.0</ele><time>2026-03-29T07:42:53.999Z</time></trkpt><trkpt lat="42.08149559456161" lon="11.968256482463138"><ele>136.0</ele><time>2026-03-29T07:42:55.999Z</time></trkpt><trkpt lat="42.08147699481953" lon="11.96810187896585"><ele>136.0</ele><time>2026-03-29T07:42:57.999Z</time></trkpt><trkpt lat="42.08146845358031" lon="11.96793720720157"><ele>134.66666666666669</ele><time>2026-03-29T07:42:59.999Z</time></trkpt><trkpt lat="42.08147452423571" lon="11.967847879465769"><ele>133.33333333333334</ele><time>2026-03-29T07:43:00.999Z</time></trkpt><trkpt lat="42.081483961573845" lon="11.967763061542673"><ele>132.0</ele><time>2026-03-29T07:43:01.999Z</time></trkpt><trkpt lat="42.0815068408828" lon="11.967618653843884"><ele>130.66666666666666</ele><time>2026-03-29T07:43:03.999Z</time></trkpt><trkpt lat="42.08149388692316" lon="11.96750904341133"><ele>129.33333333333331</ele><time>2026-03-29T07:43:05.999Z</time></trkpt><trkpt lat="42.08148085284443" lon="11.967396803385652"><ele>128.0</ele><time>2026-03-29T07:43:07.999Z</time></trkpt><trkpt lat="42.08141528340228" lon="11.967300599524203"><ele>126.80000000000001</ele><time>2026-03-29T07:43:09.999Z</time></trkpt><trkpt lat="42.08130410440075" lon="11.96723579410982"><ele>125.60000000000001</ele><time>2026-03-29T07:43:11.999Z</time></trkpt><trkpt lat="42.08125542772099" lon="11.967180901099004"><ele>124.39999999999999</ele><time>2026-03-29T07:43:12.999Z</time></trkpt><trkpt lat="42.081167625323566" lon="11.967077081503165"><ele>123.19999999999999</ele><time>2026-03-29T07:43:14.999Z</time></trkpt><trkpt lat="42.08111683630142" lon="11.966954824850907"><ele>122.0</ele><time>2026-03-29T07:43:16.999Z</time></trkpt><trkpt lat="42.0810332900212" lon="11.966840383047622"><ele>121.99999999999999</ele><time>2026-03-29T07:43:18.999Z</time></trkpt><trkpt lat="42.08094924776404" lon="11.966734504609953"><ele>122.0</ele><time>2026-03-29T07:43:20.999Z</time></trkpt><trkpt lat="42.080914436635425" lon="11.966656947993533"><ele>122.0</ele><time>2026-03-29T07:43:21.999Z</time></trkpt><trkpt lat="42.08083620877614" lon="11.96653206649664"><ele>122.0</ele><time>2026-03-29T07:43:23.999Z</time></trkpt><trkpt lat="42.080797393547044" lon="11.966462714711307"><ele>121.99999999999999</ele><time>2026-03-29T07:43:24.999Z</time></trkpt><trkpt lat="42.080737770189494" lon="11.966426626481832"><ele>122.0</ele><time>2026-03-29T07:43:25.999Z</time></trkpt><trkpt lat="42.08065094694721" lon="11.966431867201074"><ele>122.14285714285712</ele><time>2026-03-29T07:43:27.999Z</time></trkpt><trkpt lat="42.08057769397985" lon="11.966445559196137"><ele>122.28571428571428</ele><time>2026-03-29T07:43:30Z</time></trkpt><trkpt lat="42.08049753467656" lon="11.966407913917811"><ele>122.42857142857143</ele><time>2026-03-29T07:43:33Z</time></trkpt><trkpt lat="42.080434840114755" lon="11.96636597915125"><ele>122.57142857142857</ele><time>2026-03-29T07:43:37Z</time></trkpt><trkpt lat="42.08039978560189" lon="11.966293709556911"><ele>122.71428571428572</ele><time>2026-03-29T07:43:40Z</time></trkpt><trkpt lat="42.080366801070504" lon="11.966215461628568"><ele>122.85714285714288</ele><time>2026-03-29T07:43:49Z</time></trkpt><trkpt lat="42.08032029417091" lon="11.966131395907777"><ele>123.00000000000001</ele><time>2026-03-29T07:43:51Z</time></trkpt><trkpt lat="42.080291206505564" lon="11.966022378209304"><ele>123.0</ele><time>2026-03-29T07:43:53Z</time></trkpt><trkpt lat="42.08033825069669" lon="11.96595934564483"><ele>123.0</ele><time>2026-03-29T07:43:55Z</time></trkpt><trkpt lat="42.080399335025525" lon="11.965883009407408"><ele>123.0</ele><time>2026-03-29T07:44:02Z</time></trkpt><trkpt lat="42.08044823805257" lon="11.965825357481675"><ele>123.0</ele><time>2026-03-29T07:44:04Z</time></trkpt><trkpt lat="42.08049592529492" lon="11.965755009942342"><ele>123.0</ele><time>2026-03-29T07:44:08Z</time></trkpt><trkpt lat="42.080588549434545" lon="11.965750444326442"><ele>123.0</ele><time>2026-03-29T07:44:11Z</time></trkpt><trkpt lat="42.08066244138107" lon="11.965692281096924"><ele>122.66666666666667</ele><time>2026-03-29T07:44:14Z</time></trkpt><trkpt lat="42.08071485773158" lon="11.965640924304953"><ele>122.33333333333334</ele><time>2026-03-29T07:44:17Z</time></trkpt><trkpt lat="42.08073088781015" lon="11.965556923750123"><ele>122.0</ele><time>2026-03-29T07:44:20Z</time></trkpt><trkpt lat="42.08071179270314" lon="11.965460758282939"><ele>121.66666666666667</ele><time>2026-03-29T07:44:23Z</time></trkpt><trkpt lat="42.08072960304644" lon="11.965372389662575"><ele>121.33333333333334</ele><time>2026-03-29T07:44:25Z</time></trkpt><trkpt lat="42.08081286045538" lon="11.965363113919881"><ele>121.0</ele><time>2026-03-29T07:44:27Z</time></trkpt><trkpt lat="42.08092227573919" lon="11.965352870015602"><ele>121.0</ele><time>2026-03-29T07:44:29Z</time></trkpt><trkpt lat="42.08097346352894" lon="11.96529631332363"><ele>121.0</ele><time>2026-03-29T07:44:29.999Z</time></trkpt><trkpt lat="42.08106945775823" lon="11.965248578919901"><ele>121.0</ele><time>2026-03-29T07:44:31.999Z</time></trkpt><trkpt lat="42.08112660451359" lon="11.965168874197273"><ele>121.0</ele><time>2026-03-29T07:44:33.999Z</time></trkpt><trkpt lat="42.08116733677718" lon="11.965059273762348"><ele>121.0</ele><time>2026-03-29T07:44:35.999Z</time></trkpt><trkpt lat="42.08122254405697" lon="11.964904462426398"><ele>120.66666666666667</ele><time>2026-03-29T07:44:37.999Z</time></trkpt><trkpt lat="42.08123663203184" lon="11.96478922672958"><ele>120.33333333333334</ele><time>2026-03-29T07:44:39.999Z</time></trkpt><trkpt lat="42.08127436771431" lon="11.964681181443211"><ele>120.0</ele><time>2026-03-29T07:44:44.999Z</time></trkpt><trkpt lat="42.08132328041336" lon="11.964580399967327"><ele>119.66666666666666</ele><time>2026-03-29T07:44:46.999Z</time></trkpt><trkpt lat="42.081350467912394" lon="11.964503420182513"><ele>119.33333333333333</ele><time>2026-03-29T07:44:48.999Z</time></trkpt><trkpt lat="42.08138334830192" lon="11.964417167282987"><ele>119.0</ele><time>2026-03-29T07:44:51.999Z</time></trkpt><trkpt lat="42.081413648586505" lon="11.964341588413"><ele>119.0</ele><time>2026-03-29T07:44:53.999Z</time></trkpt><trkpt lat="42.08145952724013" lon="11.96426071820097"><ele>119.0</ele><time>2026-03-29T07:44:55.999Z</time></trkpt><trkpt lat="42.08150968486542" lon="11.964171463056728"><ele>119.0</ele><time>2026-03-29T07:44:57.999Z</time></trkpt><trkpt lat="42.08153551245642" lon="11.964066118216687"><ele>119.0</ele><time>2026-03-29T07:45:00.999Z</time></trkpt><trkpt lat="42.081530737997376" lon="11.96397782324338"><ele>119.0</ele><time>2026-03-29T07:45:02.999Z</time></trkpt><trkpt lat="42.081533237335385" lon="11.963888176897983"><ele>119.0</ele><time>2026-03-29T07:45:04.999Z</time></trkpt><trkpt lat="42.08155157811235" lon="11.96379912330517"><ele>119.0</ele><time>2026-03-29T07:45:06.999Z</time></trkpt><trkpt lat="42.081585250718284" lon="11.963716158238851"><ele>119.6</ele><time>2026-03-29T07:45:08.999Z</time></trkpt><trkpt lat="42.081663125185905" lon="11.963642429184725"><ele>120.2</ele><time>2026-03-29T07:45:11.999Z</time></trkpt><trkpt lat="42.081774961826234" lon="11.963580804698209"><ele>120.79999999999998</ele><time>2026-03-29T07:45:13.999Z</time></trkpt><trkpt lat="42.08184155957635" lon="11.963554605123106"><ele>121.39999999999999</ele><time>2026-03-29T07:45:14.999Z</time></trkpt><trkpt lat="42.08190191693153" lon="11.963527388429016"><ele>122.0</ele><time>2026-03-29T07:45:15.999Z</time></trkpt><trkpt lat="42.08203788327363" lon="11.96348704274753"><ele>121.99999999999999</ele><time>2026-03-29T07:45:17.999Z</time></trkpt><trkpt lat="42.0821153526424" lon="11.963474570605936"><ele>122.0</ele><time>2026-03-29T07:45:18.999Z</time></trkpt><trkpt lat="42.082191368287525" lon="11.963457539089143"><ele>122.0</ele><time>2026-03-29T07:45:19.999Z</time></trkpt><trkpt lat="42.08227047777652" lon="11.96342834720355"><ele>122.0</ele><time>2026-03-29T07:45:20.999Z</time></trkpt><trkpt lat="42.08235372051361" lon="11.963402218326173"><ele>121.99999999999999</ele><time>2026-03-29T07:45:21.999Z</time></trkpt><trkpt lat="42.082439520893836" lon="11.963397278360159"><ele>122.0</ele><time>2026-03-29T07:45:22.999Z</time></trkpt><trkpt lat="42.082526781652476" lon="11.963422974580585"><ele>123.8</ele><time>2026-03-29T07:45:23.999Z</time></trkpt><trkpt lat="42.08260776323868" lon="11.963464136760845"><ele>125.6</ele><time>2026-03-29T07:45:24.999Z</time></trkpt><trkpt lat="42.08268604356405" lon="11.963506419063258"><ele>127.39999999999999</ele><time>2026-03-29T07:45:25.999Z</time></trkpt><trkpt lat="42.082767961600304" lon="11.96355062844168"><ele>129.2</ele><time>2026-03-29T07:45:26.999Z</time></trkpt><trkpt lat="42.08285815417894" lon="11.963601317637488"><ele>131.0</ele><time>2026-03-29T07:45:27.999Z</time></trkpt><trkpt lat="42.082951992140245" lon="11.96363814901174"><ele>131.0</ele><time>2026-03-29T07:45:28.999Z</time></trkpt><trkpt lat="42.08304222585988" lon="11.963669679004067"><ele>131.0</ele><time>2026-03-29T07:45:29.999Z</time></trkpt><trkpt lat="42.083137143519934" lon="11.963680516282938"><ele>131.0</ele><time>2026-03-29T07:45:30.999Z</time></trkpt><trkpt lat="42.08324254994247" lon="11.963673330392458"><ele>131.0</ele><time>2026-03-29T07:45:31.999Z</time></trkpt><trkpt lat="42.0833429612349" lon="11.963670898136236"><ele>131.0</ele><time>2026-03-29T07:45:32.999Z</time></trkpt><trkpt lat="42.08343364894499" lon="11.963670086367564"><ele>130.66666666666666</ele><time>2026-03-29T07:45:33.999Z</time></trkpt><trkpt lat="42.083508891669" lon="11.963667095356959"><ele>130.33333333333331</ele><time>2026-03-29T07:45:35Z</time></trkpt><trkpt lat="42.08357795025495" lon="11.963637891777626"><ele>130.0</ele><time>2026-03-29T07:45:36Z</time></trkpt><trkpt lat="42.08364640371469" lon="11.963538687224162"><ele>129.66666666666666</ele><time>2026-03-29T07:45:38Z</time></trkpt><trkpt lat="42.083687330337305" lon="11.963427907269319"><ele>129.33333333333334</ele><time>2026-03-29T07:45:40Z</time></trkpt><trkpt lat="42.08371029694488" lon="11.963320144500916"><ele>129.0</ele><time>2026-03-29T07:45:42Z</time></trkpt><trkpt lat="42.08371694411624" lon="11.96322184643685"><ele>129.0</ele><time>2026-03-29T07:45:44Z</time></trkpt><trkpt lat="42.08371701948609" lon="11.963097617875468"><ele>129.0</ele><time>2026-03-29T07:45:46Z</time></trkpt><trkpt lat="42.08372961832456" lon="11.96299995937578"><ele>129.0</ele><time>2026-03-29T07:45:47Z</time></trkpt><trkpt lat="42.08377145687607" lon="11.962870553828242"><ele>129.0</ele><time>2026-03-29T07:45:49Z</time></trkpt><trkpt lat="42.083853359629366" lon="11.962758845251331"><ele>129.0</ele><time>2026-03-29T07:45:51Z</time></trkpt><trkpt lat="42.08393209071445" lon="11.96265203921395"><ele>129.0</ele><time>2026-03-29T07:45:53Z</time></trkpt><trkpt lat="42.08403361436029" lon="11.962572025128495"><ele>129.0</ele><time>2026-03-29T07:45:55Z</time></trkpt><trkpt lat="42.084084034222016" lon="11.96250888922002"><ele>129.0</ele><time>2026-03-29T07:45:56Z</time></trkpt><trkpt lat="42.08412733150322" lon="11.96244221138285"><ele>129.0</ele><time>2026-03-29T07:45:57Z</time></trkpt><trkpt lat="42.08416781211821" lon="11.962374414330675"><ele>129.0</ele><time>2026-03-29T07:45:58Z</time></trkpt><trkpt lat="42.084226102296675" lon="11.962331571672657"><ele>129.0</ele><time>2026-03-29T07:45:59Z</time></trkpt><trkpt lat="42.084280646630134" lon="11.962260169099102"><ele>131.0</ele><time>2026-03-29T07:46:00Z</time></trkpt><trkpt lat="42.08434877553739" lon="11.962133823382649"><ele>133.0</ele><time>2026-03-29T07:46:02Z</time></trkpt><trkpt lat="42.08442807670905" lon="11.961994718562936"><ele>135.0</ele><time>2026-03-29T07:46:04Z</time></trkpt><trkpt lat="42.0844942787507" lon="11.961867946498717"><ele>137.0</ele><time>2026-03-29T07:46:06Z</time></trkpt><trkpt lat="42.08455229869388" lon="11.961738933981053"><ele>139.0</ele><time>2026-03-29T07:46:08Z</time></trkpt><trkpt lat="42.08460298182071" lon="11.96165977947923"><ele>141.0</ele><time>2026-03-29T07:46:10Z</time></trkpt><trkpt lat="42.084677969161305" lon="11.961592059018885"><ele>143.0</ele><time>2026-03-29T07:46:12Z</time></trkpt><trkpt lat="42.0847539314165" lon="11.961494071884067"><ele>145.0</ele><time>2026-03-29T07:46:14Z</time></trkpt><trkpt lat="42.084790362102595" lon="11.9614102937791"><ele>147.0</ele><time>2026-03-29T07:46:15Z</time></trkpt><trkpt lat="42.084852695069394" lon="11.961344351577639"><ele>149.0</ele><time>2026-03-29T07:46:16Z</time></trkpt><trkpt lat="42.084898296066704" lon="11.961254078061936"><ele>148.66666666666666</ele><time>2026-03-29T07:46:17Z</time></trkpt><trkpt lat="42.08494969018642" lon="11.96117409594857"><ele>148.33333333333331</ele><time>2026-03-29T07:46:18Z</time></trkpt><trkpt lat="42.0850209617178" lon="11.961112999391425"><ele>148.0</ele><time>2026-03-29T07:46:19Z</time></trkpt><trkpt lat="42.08508720155474" lon="11.96104419315581"><ele>147.66666666666666</ele><time>2026-03-29T07:46:20Z</time></trkpt><trkpt lat="42.085121731200914" lon="11.960946900674127"><ele>147.33333333333334</ele><time>2026-03-29T07:46:21Z</time></trkpt><trkpt lat="42.08515877176316" lon="11.960866686452603"><ele>147.0</ele><time>2026-03-29T07:46:22Z</time></trkpt><trkpt lat="42.08519592933899" lon="11.960784985753254"><ele>147.0</ele><time>2026-03-29T07:46:23Z</time></trkpt><trkpt lat="42.08523029900324" lon="11.96070154711284"><ele>147.0</ele><time>2026-03-29T07:46:24Z</time></trkpt><trkpt lat="42.08529454451099" lon="11.96058191217104"><ele>147.0</ele><time>2026-03-29T07:46:26Z</time></trkpt><trkpt lat="42.08532985966149" lon="11.960510010333456"><ele>147.0</ele><time>2026-03-29T07:46:27Z</time></trkpt><trkpt lat="42.08539281333922" lon="11.960394136836246"><ele>147.0</ele><time>2026-03-29T07:46:29Z</time></trkpt><trkpt lat="42.085521278303744" lon="11.960319843397446"><ele>147.0</ele><time>2026-03-29T07:46:44.999Z</time></trkpt><trkpt lat="42.08552256654556" lon="11.960232336393204"><ele>147.0</ele><time>2026-03-29T07:46:54.999Z</time></trkpt><trkpt lat="42.085628242740455" lon="11.96026110326903"><ele>147.0</ele><time>2026-03-29T07:46:58.999Z</time></trkpt><trkpt lat="42.08569938343203" lon="11.960144960708515"><ele>147.0</ele><time>2026-03-29T07:47:10.999Z</time></trkpt><trkpt lat="42.08572278258068" lon="11.960066206571202"><ele>147.0</ele><time>2026-03-29T07:47:12.999Z</time></trkpt><trkpt lat="42.08575723093311" lon="11.959980132422821"><ele>147.0</ele><time>2026-03-29T07:47:16.999Z</time></trkpt><trkpt lat="42.08581502525619" lon="11.959907546941938"><ele>147.0</ele><time>2026-03-29T07:48:44.999Z</time></trkpt><trkpt lat="42.08587069849468" lon="11.959807321040275"><ele>147.0</ele><time>2026-03-29T07:48:48.999Z</time></trkpt><trkpt lat="42.085889368122984" lon="11.959692100956504"><ele>147.0</ele><time>2026-03-29T07:48:50.999Z</time></trkpt><trkpt lat="42.085911266024155" lon="11.959544714406135"><ele>147.0</ele><time>2026-03-29T07:48:52.999Z</time></trkpt><trkpt lat="42.085930969269064" lon="11.95945216241517"><ele>147.0</ele><time>2026-03-29T07:48:53.999Z</time></trkpt><trkpt lat="42.0859633459407" lon="11.959355079295898"><ele>147.0</ele><time>2026-03-29T07:48:54.999Z</time></trkpt><trkpt lat="42.08599988753648" lon="11.959243625645891"><ele>147.16666666666666</ele><time>2026-03-29T07:48:55.999Z</time></trkpt><trkpt lat="42.0860201457907" lon="11.959162901420827"><ele>147.33333333333334</ele><time>2026-03-29T07:48:56.999Z</time></trkpt><trkpt lat="42.08604457855486" lon="11.959081354925873"><ele>147.5</ele><time>2026-03-29T07:48:57.999Z</time></trkpt><trkpt lat="42.08613038154471" lon="11.958970271967532"><ele>147.66666666666669</ele><time>2026-03-29T07:48:59.999Z</time></trkpt><trkpt lat="42.08621752516957" lon="11.95887068714733"><ele>147.83333333333334</ele><time>2026-03-29T07:49:01.999Z</time></trkpt><trkpt lat="42.08628321739145" lon="11.958829247373396"><ele>148.0</ele><time>2026-03-29T07:49:02.999Z</time></trkpt><trkpt lat="42.08635364852871" lon="11.958800601600528"><ele>148.0</ele><time>2026-03-29T07:49:03.999Z</time></trkpt><trkpt lat="42.086428496758295" lon="11.958762965389422"><ele>148.0</ele><time>2026-03-29T07:49:04.999Z</time></trkpt><trkpt lat="42.08650994262304" lon="11.958729484790197"><ele>148.0</ele><time>2026-03-29T07:49:05.999Z</time></trkpt><trkpt lat="42.08658009396023" lon="11.958700639572509"><ele>148.0</ele><time>2026-03-29T07:49:06.999Z</time></trkpt><trkpt lat="42.08665448608008" lon="11.958684845926435"><ele>148.0</ele><time>2026-03-29T07:49:07.999Z</time></trkpt><trkpt lat="42.086724087109936" lon="11.958667947721171"><ele>148.0</ele><time>2026-03-29T07:49:08.999Z</time></trkpt><trkpt lat="42.086799669519685" lon="11.958669407684896"><ele>148.20000000000002</ele><time>2026-03-29T07:49:09.999Z</time></trkpt><trkpt lat="42.086890044140716" lon="11.958642769767408"><ele>148.4</ele><time>2026-03-29T07:49:10.999Z</time></trkpt><trkpt lat="42.08696207742062" lon="11.958595148415872"><ele>148.60000000000002</ele><time>2026-03-29T07:49:11.999Z</time></trkpt><trkpt lat="42.08707306441356" lon="11.958514761616698"><ele>148.8</ele><time>2026-03-29T07:49:13.999Z</time></trkpt><trkpt lat="42.08712228269581" lon="11.95844399526171"><ele>149.0</ele><time>2026-03-29T07:49:14.999Z</time></trkpt><trkpt lat="42.08721512883833" lon="11.958352659338935"><ele>149.0</ele><time>2026-03-29T07:49:16.999Z</time></trkpt><trkpt lat="42.08730521480422" lon="11.958274645518326"><ele>149.0</ele><time>2026-03-29T07:49:18.999Z</time></trkpt><trkpt lat="42.08737804478701" lon="11.958188750057605"><ele>149.0</ele><time>2026-03-29T07:49:20.999Z</time></trkpt><trkpt lat="42.08745454150535" lon="11.958078271719105"><ele>149.0</ele><time>2026-03-29T07:49:22.999Z</time></trkpt><trkpt lat="42.08749763843509" lon="11.957966647361198"><ele>149.0</ele><time>2026-03-29T07:49:23.999Z</time></trkpt><trkpt lat="42.087525311356096" lon="11.957880112943657"><ele>151.2</ele><time>2026-03-29T07:49:24.999Z</time></trkpt><trkpt lat="42.08754737995837" lon="11.957790769603156"><ele>153.4</ele><time>2026-03-29T07:49:25.999Z</time></trkpt><trkpt lat="42.08758294232926" lon="11.957662160683244"><ele>155.6</ele><time>2026-03-29T07:49:27.999Z</time></trkpt><trkpt lat="42.087601685911494" lon="11.957483943208892"><ele>157.8</ele><time>2026-03-29T07:49:29.999Z</time></trkpt><trkpt lat="42.08761733846053" lon="11.957396819121225"><ele>160.0</ele><time>2026-03-29T07:49:30.999Z</time></trkpt><trkpt lat="42.08766346734412" lon="11.957228304750574"><ele>160.0</ele><time>2026-03-29T07:49:32.999Z</time></trkpt><trkpt lat="42.08769078855988" lon="11.95713544379632"><ele>160.0</ele><time>2026-03-29T07:49:33.999Z</time></trkpt><trkpt lat="42.08771739166483" lon="11.957039889536736"><ele>160.0</ele><time>2026-03-29T07:49:34.999Z</time></trkpt><trkpt lat="42.08774972491079" lon="11.95696542071493"><ele>160.0</ele><time>2026-03-29T07:49:35.999Z</time></trkpt><trkpt lat="42.08783004592022" lon="11.956925013701024"><ele>160.0</ele><time>2026-03-29T07:49:36.999Z</time></trkpt><trkpt lat="42.087912623990135" lon="11.956903473689032"><ele>160.0</ele><time>2026-03-29T07:49:37.999Z</time></trkpt><trkpt lat="42.08799358897187" lon="11.956883335860107"><ele>160.0</ele><time>2026-03-29T07:49:38.999Z</time></trkpt><trkpt lat="42.08809386445496" lon="11.956876350872479"><ele>160.0</ele><time>2026-03-29T07:49:39.999Z</time></trkpt><trkpt lat="42.0881746833379" lon="11.956886952684762"><ele>160.0</ele><time>2026-03-29T07:49:40.999Z</time></trkpt><trkpt lat="42.0882665489575" lon="11.956928611955435"><ele>160.0</ele><time>2026-03-29T07:49:41.999Z</time></trkpt><trkpt lat="42.08836009158098" lon="11.9569668538805"><ele>160.0</ele><time>2026-03-29T07:49:42.999Z</time></trkpt><trkpt lat="42.08845355038274" lon="11.957008252437923"><ele>162.6</ele><time>2026-03-29T07:49:43.999Z</time></trkpt><trkpt lat="42.08855129958914" lon="11.957039430350731"><ele>165.2</ele><time>2026-03-29T07:49:44.999Z</time></trkpt><trkpt lat="42.08864439176639" lon="11.957078534005214"><ele>167.8</ele><time>2026-03-29T07:49:45.999Z</time></trkpt><trkpt lat="42.08873912152459" lon="11.957105878990095"><ele>170.4</ele><time>2026-03-29T07:49:47Z</time></trkpt><trkpt lat="42.08883404749445" lon="11.957120918059356"><ele>173.0</ele><time>2026-03-29T07:49:48Z</time></trkpt><trkpt lat="42.08891288490172" lon="11.957128090873432"><ele>173.0</ele><time>2026-03-29T07:49:49Z</time></trkpt><trkpt lat="42.08900212956277" lon="11.957125400078176"><ele>173.0</ele><time>2026-03-29T07:49:50Z</time></trkpt><trkpt lat="42.0891644249403" lon="11.957081137604199"><ele>173.0</ele><time>2026-03-29T07:49:52Z</time></trkpt><trkpt lat="42.08925936473769" lon="11.95702745549686"><ele>173.0</ele><time>2026-03-29T07:49:54Z</time></trkpt><trkpt lat="42.08930448583404" lon="11.956948002516333"><ele>173.0</ele><time>2026-03-29T07:49:56Z</time></trkpt><trkpt lat="42.08942677492838" lon="11.956979786046002"><ele>174.2</ele><time>2026-03-29T07:51:00.999Z</time></trkpt><trkpt lat="42.089459552685426" lon="11.95708898175025"><ele>175.4</ele><time>2026-03-29T07:51:03.999Z</time></trkpt><trkpt lat="42.08952527661084" lon="11.957218496713187"><ele>176.6</ele><time>2026-03-29T07:51:05.999Z</time></trkpt><trkpt lat="42.089556227264616" lon="11.957333332596205"><ele>177.79999999999998</ele><time>2026-03-29T07:51:06.999Z</time></trkpt><trkpt lat="42.08958609665929" lon="11.957422973187624"><ele>179.0</ele><time>2026-03-29T07:51:07.999Z</time></trkpt><trkpt lat="42.08964802107093" lon="11.95750623520276"><ele>180.6</ele><time>2026-03-29T07:51:08.999Z</time></trkpt><trkpt lat="42.08973274596983" lon="11.957642595348814"><ele>182.2</ele><time>2026-03-29T07:51:10.999Z</time></trkpt><trkpt lat="42.08981048410337" lon="11.957709430955292"><ele>183.79999999999998</ele><time>2026-03-29T07:51:11.999Z</time></trkpt><trkpt lat="42.089904854673556" lon="11.957735329033774"><ele>185.39999999999998</ele><time>2026-03-29T07:51:12.999Z</time></trkpt><trkpt lat="42.089974598584966" lon="11.957755178235487"><ele>187.0</ele><time>2026-03-29T07:51:13.999Z</time></trkpt><trkpt lat="42.090050198899974" lon="11.957769993154631"><ele>188.0</ele><time>2026-03-29T07:51:14.999Z</time></trkpt><trkpt lat="42.090131817910724" lon="11.957760919405498"><ele>189.0</ele><time>2026-03-29T07:51:15.999Z</time></trkpt><trkpt lat="42.09024486260482" lon="11.957741809172166"><ele>190.0</ele><time>2026-03-29T07:51:17.999Z</time></trkpt><trkpt lat="42.09037001255029" lon="11.957702211897272"><ele>191.0</ele><time>2026-03-29T07:51:19.999Z</time></trkpt><trkpt lat="42.0904335550408" lon="11.957685505813439"><ele>192.0</ele><time>2026-03-29T07:51:20.999Z</time></trkpt><trkpt lat="42.09049843454887" lon="11.95767537982446"><ele>192.0</ele><time>2026-03-29T07:51:21.999Z</time></trkpt><trkpt lat="42.09062074604676" lon="11.957675227799012"><ele>192.0</ele><time>2026-03-29T07:51:23.999Z</time></trkpt><trkpt lat="42.09072368674268" lon="11.957635345899904"><ele>192.0</ele><time>2026-03-29T07:51:25.999Z</time></trkpt><trkpt lat="42.0907946725545" lon="11.957595566308715"><ele>192.0</ele><time>2026-03-29T07:51:27.999Z</time></trkpt><trkpt lat="42.09088573185868" lon="11.957588514848988"><ele>192.0</ele><time>2026-03-29T07:51:29.999Z</time></trkpt><trkpt lat="42.090989874456646" lon="11.957619800877977"><ele>192.83333333333334</ele><time>2026-03-29T07:51:31.999Z</time></trkpt><trkpt lat="42.091056575905995" lon="11.957607679486879"><ele>193.66666666666669</ele><time>2026-03-29T07:51:32.999Z</time></trkpt><trkpt lat="42.091125577641954" lon="11.957570125967365"><ele>194.5</ele><time>2026-03-29T07:51:34.999Z</time></trkpt><trkpt lat="42.0911571602461" lon="11.957434530127777"><ele>195.33333333333334</ele><time>2026-03-29T07:51:37.999Z</time></trkpt><trkpt lat="42.09120352197313" lon="11.957333981979563"><ele>196.16666666666669</ele><time>2026-03-29T07:51:39.999Z</time></trkpt><trkpt lat="42.09126988730088" lon="11.957274567774355"><ele>197.0</ele><time>2026-03-29T07:51:41.999Z</time></trkpt><trkpt lat="42.09131895024337" lon="11.957211522201108"><ele>195.83333333333334</ele><time>2026-03-29T07:51:45.999Z</time></trkpt><trkpt lat="42.09136391536432" lon="11.95712794120889"><ele>194.66666666666669</ele><time>2026-03-29T07:51:47.999Z</time></trkpt><trkpt lat="42.091390390418155" lon="11.95704496326982"><ele>193.5</ele><time>2026-03-29T07:51:49.999Z</time></trkpt><trkpt lat="42.09140468751229" lon="11.956947487605925"><ele>192.33333333333334</ele><time>2026-03-29T07:51:51.999Z</time></trkpt><trkpt lat="42.091482150767916" lon="11.956874069273791"><ele>191.16666666666669</ele><time>2026-03-29T07:51:54Z</time></trkpt><trkpt lat="42.091569852362824" lon="11.956839844259102"><ele>190.0</ele><time>2026-03-29T07:51:56Z</time></trkpt><trkpt lat="42.09163933064954" lon="11.956811206003636"><ele>190.0</ele><time>2026-03-29T07:51:58Z</time></trkpt><trkpt lat="42.09174036189955" lon="11.956829379524716"><ele>190.0</ele><time>2026-03-29T07:52:33Z</time></trkpt><trkpt lat="42.0918228112571" lon="11.956915265429839"><ele>190.0</ele><time>2026-03-29T07:52:36Z</time></trkpt><trkpt lat="42.09190222020482" lon="11.956996093840926"><ele>190.0</ele><time>2026-03-29T07:52:38Z</time></trkpt><trkpt lat="42.09196898602369" lon="11.9570337365571"><ele>190.0</ele><time>2026-03-29T07:52:40Z</time></trkpt><trkpt lat="42.092037083157024" lon="11.957034647236242"><ele>190.0</ele><time>2026-03-29T07:52:52Z</time></trkpt><trkpt lat="42.0921263959451" lon="11.9570642271528"><ele>190.0</ele><time>2026-03-29T07:52:55.999Z</time></trkpt><trkpt lat="42.092193440173936" lon="11.957062376045172"><ele>190.0</ele><time>2026-03-29T07:53:01.999Z</time></trkpt><trkpt lat="42.09225458233192" lon="11.957013739049389"><ele>190.0</ele><time>2026-03-29T07:53:31.999Z</time></trkpt><trkpt lat="42.09233011301384" lon="11.956911406785855"><ele>190.0</ele><time>2026-03-29T07:53:33.999Z</time></trkpt><trkpt lat="42.09236928124397" lon="11.956837840771978"><ele>190.0</ele><time>2026-03-29T07:53:34.999Z</time></trkpt><trkpt lat="42.09243503160508" lon="11.956701469023141"><ele>190.0</ele><time>2026-03-29T07:53:36.999Z</time></trkpt><trkpt lat="42.092445136429056" lon="11.956591093088202"><ele>188.66666666666669</ele><time>2026-03-29T07:53:38.999Z</time></trkpt><trkpt lat="42.09249323146445" lon="11.95650468667399"><ele>187.33333333333334</ele><time>2026-03-29T07:55:30.999Z</time></trkpt><trkpt lat="42.09255615229486" lon="11.956481653441271"><ele>186.0</ele><time>2026-03-29T07:55:31.999Z</time></trkpt><trkpt lat="42.09263457819921" lon="11.956412737797848"><ele>184.66666666666666</ele><time>2026-03-29T07:55:33.999Z</time></trkpt><trkpt lat="42.09268669100866" lon="11.956323495816005"><ele>183.33333333333331</ele><time>2026-03-29T07:55:35.999Z</time></trkpt><trkpt lat="42.092696828756154" lon="11.956229995042424"><ele>182.0</ele><time>2026-03-29T07:55:37.999Z</time></trkpt><trkpt lat="42.09276446591514" lon="11.956159766045781"><ele>182.0</ele><time>2026-03-29T07:55:39.999Z</time></trkpt><trkpt lat="42.092876862077695" lon="11.956185236524721"><ele>182.0</ele><time>2026-03-29T07:55:41.999Z</time></trkpt><trkpt lat="42.09294391153174" lon="11.95617125994065"><ele>182.0</ele><time>2026-03-29T07:55:42.999Z</time></trkpt><trkpt lat="42.093030747748465" lon="11.956160565309448"><ele>182.0</ele><time>2026-03-29T07:55:43.999Z</time></trkpt><trkpt lat="42.09310805052211" lon="11.95614767803375"><ele>182.0</ele><time>2026-03-29T07:55:44.999Z</time></trkpt><trkpt lat="42.09317897511661" lon="11.956139557249143"><ele>182.0</ele><time>2026-03-29T07:55:45.999Z</time></trkpt><trkpt lat="42.09324206875387" lon="11.956183099949918"><ele>182.85714285714286</ele><time>2026-03-29T07:55:46.999Z</time></trkpt><trkpt lat="42.093311178556554" lon="11.956223457850744"><ele>183.71428571428572</ele><time>2026-03-29T07:55:47.999Z</time></trkpt><trkpt lat="42.093383412282286" lon="11.956261970832623"><ele>184.57142857142856</ele><time>2026-03-29T07:55:48.999Z</time></trkpt><trkpt lat="42.093445778864165" lon="11.956299054625113"><ele>185.42857142857144</ele><time>2026-03-29T07:55:49.999Z</time></trkpt><trkpt lat="42.09351866802364" lon="11.95629757203252"><ele>186.28571428571428</ele><time>2026-03-29T07:55:50.999Z</time></trkpt><trkpt lat="42.09358823250416" lon="11.95627872397696"><ele>187.14285714285714</ele><time>2026-03-29T07:55:51.999Z</time></trkpt><trkpt lat="42.093664311046794" lon="11.956269000943085"><ele>188.0</ele><time>2026-03-29T07:55:52.999Z</time></trkpt><trkpt lat="42.093736296559634" lon="11.956277656084037"><ele>188.0</ele><time>2026-03-29T07:55:53.999Z</time></trkpt><trkpt lat="42.093805840973694" lon="11.956312989841999"><ele>188.0</ele><time>2026-03-29T07:55:54.999Z</time></trkpt><trkpt lat="42.09387165432947" lon="11.956366897508486"><ele>188.0</ele><time>2026-03-29T07:55:55.999Z</time></trkpt><trkpt lat="42.09392961483331" lon="11.956423598579015"><ele>188.0</ele><time>2026-03-29T07:55:56.999Z</time></trkpt><trkpt lat="42.09398030818453" lon="11.956478358504931"><ele>188.0</ele><time>2026-03-29T07:55:57.999Z</time></trkpt><trkpt lat="42.094067686749526" lon="11.956568213391256"><ele>188.0</ele><time>2026-03-29T07:55:59.999Z</time></trkpt><trkpt lat="42.09414801918846" lon="11.956596533131458"><ele>187.60000000000002</ele><time>2026-03-29T07:56:01.999Z</time></trkpt><trkpt lat="42.094240855624854" lon="11.956661148670376"><ele>187.20000000000002</ele><time>2026-03-29T07:56:03.999Z</time></trkpt><trkpt lat="42.09435566165264" lon="11.956738966789974"><ele>186.8</ele><time>2026-03-29T07:56:06Z</time></trkpt><trkpt lat="42.09441511064518" lon="11.956776390546045"><ele>186.4</ele><time>2026-03-29T07:56:07Z</time></trkpt><trkpt lat="42.09452236687684" lon="11.956835724748101"><ele>186.0</ele><time>2026-03-29T07:56:09Z</time></trkpt><trkpt lat="42.094614709529516" lon="11.95690553658663"><ele>187.8</ele><time>2026-03-29T07:56:11Z</time></trkpt><trkpt lat="42.09471168762662" lon="11.956985827360167"><ele>189.60000000000002</ele><time>2026-03-29T07:56:13Z</time></trkpt><trkpt lat="42.09478825808933" lon="11.957032657616045"><ele>191.4</ele><time>2026-03-29T07:56:14Z</time></trkpt><trkpt lat="42.094854678794874" lon="11.957071240238912"><ele>193.2</ele><time>2026-03-29T07:56:15Z</time></trkpt><trkpt lat="42.09496041039315" lon="11.957111320824646"><ele>195.0</ele><time>2026-03-29T07:56:17Z</time></trkpt><trkpt lat="42.09502822381462" lon="11.957072710238954"><ele>195.0</ele><time>2026-03-29T07:56:19Z</time></trkpt><trkpt lat="42.09507559888912" lon="11.95695963995149"><ele>195.0</ele><time>2026-03-29T07:56:21Z</time></trkpt><trkpt lat="42.09510086522958" lon="11.956861377736864"><ele>195.0</ele><time>2026-03-29T07:56:22Z</time></trkpt><trkpt lat="42.09510580838212" lon="11.956763940172017"><ele>195.0</ele><time>2026-03-29T07:56:23Z</time></trkpt><trkpt lat="42.09516251153396" lon="11.956615277679232"><ele>195.0</ele><time>2026-03-29T07:56:25Z</time></trkpt><trkpt lat="42.09528169080408" lon="11.956529450164616"><ele>192.6</ele><time>2026-03-29T07:56:27Z</time></trkpt><trkpt lat="42.09534604220182" lon="11.956523176161916"><ele>190.2</ele><time>2026-03-29T07:56:28Z</time></trkpt><trkpt lat="42.095461518470614" lon="11.956545991791566"><ele>187.8</ele><time>2026-03-29T07:56:30Z</time></trkpt><trkpt lat="42.09552102448331" lon="11.956575041943186"><ele>185.4</ele><time>2026-03-29T07:56:31Z</time></trkpt><trkpt lat="42.09564770017136" lon="11.956593481805408"><ele>183.0</ele><time>2026-03-29T07:56:33Z</time></trkpt><trkpt lat="42.09573246655446" lon="11.95663055953175"><ele>184.0</ele><time>2026-03-29T07:56:34Z</time></trkpt><trkpt lat="42.09580511277026" lon="11.956653088059415"><ele>185.0</ele><time>2026-03-29T07:56:35Z</time></trkpt><trkpt lat="42.09591820363816" lon="11.956747438892798"><ele>186.0</ele><time>2026-03-29T07:56:37Z</time></trkpt><trkpt lat="42.09597037585472" lon="11.956831497787132"><ele>187.0</ele><time>2026-03-29T07:56:38Z</time></trkpt><trkpt lat="42.09601262396559" lon="11.956928280402067"><ele>188.0</ele><time>2026-03-29T07:56:39Z</time></trkpt><trkpt lat="42.09605096721118" lon="11.956999831791299"><ele>189.0</ele><time>2026-03-29T07:56:40Z</time></trkpt><trkpt lat="42.09609631569831" lon="11.957077094355146"><ele>191.0</ele><time>2026-03-29T07:56:41Z</time></trkpt><trkpt lat="42.096141010671076" lon="11.957165555218829"><ele>193.0</ele><time>2026-03-29T07:56:42Z</time></trkpt><trkpt lat="42.09618245427182" lon="11.957256083634489"><ele>195.0</ele><time>2026-03-29T07:56:43Z</time></trkpt><trkpt lat="42.09623181400591" lon="11.957347112449469"><ele>197.0</ele><time>2026-03-29T07:56:44Z</time></trkpt><trkpt lat="42.096320500299676" lon="11.957459011272531"><ele>199.0</ele><time>2026-03-29T07:56:46Z</time></trkpt><trkpt lat="42.096371336795016" lon="11.957510829328745"><ele>201.0</ele><time>2026-03-29T07:56:47Z</time></trkpt><trkpt lat="42.09643124131412" lon="11.957554288761035"><ele>203.4</ele><time>2026-03-29T07:56:48Z</time></trkpt><trkpt lat="42.09654323932813" lon="11.957651436852977"><ele>205.8</ele><time>2026-03-29T07:56:50Z</time></trkpt><trkpt lat="42.096606098607026" lon="11.957701507234283"><ele>208.20000000000002</ele><time>2026-03-29T07:56:51Z</time></trkpt><trkpt lat="42.09668665250624" lon="11.95774247085968"><ele>210.60000000000002</ele><time>2026-03-29T07:56:52Z</time></trkpt><trkpt lat="42.096763972663894" lon="11.95782889717451"><ele>213.0</ele><time>2026-03-29T07:56:53Z</time></trkpt><trkpt lat="42.09684099481373" lon="11.957925076744742"><ele>213.33333333333334</ele><time>2026-03-29T07:56:54Z</time></trkpt><trkpt lat="42.096912728718294" lon="11.958016343454549"><ele>213.66666666666669</ele><time>2026-03-29T07:56:55Z</time></trkpt><trkpt lat="42.09697597520969" lon="11.958077177017122"><ele>214.0</ele><time>2026-03-29T07:56:56Z</time></trkpt><trkpt lat="42.09705397525917" lon="11.958113090369421"><ele>214.33333333333334</ele><time>2026-03-29T07:56:57Z</time></trkpt><trkpt lat="42.0971431981126" lon="11.958123147761949"><ele>214.66666666666669</ele><time>2026-03-29T07:56:58Z</time></trkpt><trkpt lat="42.097229433223944" lon="11.958138081954734"><ele>215.0</ele><time>2026-03-29T07:56:59Z</time></trkpt><trkpt lat="42.097304146852395" lon="11.958162282974824"><ele>215.00000000000003</ele><time>2026-03-29T07:57:00Z</time></trkpt><trkpt lat="42.09736687149091" lon="11.958226780713021"><ele>215.0</ele><time>2026-03-29T07:57:01Z</time></trkpt><trkpt lat="42.09741561658904" lon="11.958293633402027"><ele>215.0</ele><time>2026-03-29T07:57:02Z</time></trkpt><trkpt lat="42.09747886750135" lon="11.958357870906854"><ele>215.0</ele><time>2026-03-29T07:57:03Z</time></trkpt><trkpt lat="42.097557710853735" lon="11.958421987692278"><ele>215.00000000000003</ele><time>2026-03-29T07:57:04Z</time></trkpt><trkpt lat="42.09764140030365" lon="11.958498190546592"><ele>215.0</ele><time>2026-03-29T07:57:05Z</time></trkpt><trkpt lat="42.09772606727564" lon="11.958576033886974"><ele>218.50000000000003</ele><time>2026-03-29T07:57:05.999Z</time></trkpt><trkpt lat="42.09780621902333" lon="11.958633248955644"><ele>222.0</ele><time>2026-03-29T07:57:06.999Z</time></trkpt><trkpt lat="42.09787068426148" lon="11.95867545521516"><ele>225.5</ele><time>2026-03-29T07:57:07.999Z</time></trkpt><trkpt lat="42.09791675100111" lon="11.958738073337454"><ele>229.0</ele><time>2026-03-29T07:57:08.999Z</time></trkpt><trkpt lat="42.09795464328939" lon="11.958808719735552"><ele>232.50000000000003</ele><time>2026-03-29T07:57:09.999Z</time></trkpt><trkpt lat="42.0979642835132" lon="11.958965063718955"><ele>236.0</ele><time>2026-03-29T07:57:11.999Z</time></trkpt><trkpt lat="42.09794783869965" lon="11.959047723498351"><ele>236.00000000000003</ele><time>2026-03-29T07:57:12.999Z</time></trkpt><trkpt lat="42.09789821978147" lon="11.959109933567948"><ele>236.0</ele><time>2026-03-29T07:57:13.999Z</time></trkpt><trkpt lat="42.09783480653352" lon="11.959158930962866"><ele>236.0</ele><time>2026-03-29T07:57:14.999Z</time></trkpt><trkpt lat="42.0977657690811" lon="11.959211771004611"><ele>236.0</ele><time>2026-03-29T07:57:15.999Z</time></trkpt><trkpt lat="42.0976998897953" lon="11.959280684236136"><ele>236.00000000000003</ele><time>2026-03-29T07:57:16.999Z</time></trkpt><trkpt lat="42.09763771009809" lon="11.959365738837358"><ele>236.0</ele><time>2026-03-29T07:57:17.999Z</time></trkpt><trkpt lat="42.09759188837578" lon="11.959471913468423"><ele>238.33333333333334</ele><time>2026-03-29T07:57:18.999Z</time></trkpt><trkpt lat="42.097568772745355" lon="11.959589434803553"><ele>240.66666666666669</ele><time>2026-03-29T07:57:19.999Z</time></trkpt><trkpt lat="42.097574493333056" lon="11.95969354372452"><ele>243.0</ele><time>2026-03-29T07:57:20.999Z</time></trkpt><trkpt lat="42.0975893806022" lon="11.95982055987225"><ele>245.33333333333331</ele><time>2026-03-29T07:57:21.999Z</time></trkpt><trkpt lat="42.09762453447228" lon="11.959944319392505"><ele>247.66666666666666</ele><time>2026-03-29T07:57:22.999Z</time></trkpt><trkpt lat="42.09764675221052" lon="11.960055237259775"><ele>250.0</ele><time>2026-03-29T07:57:23.999Z</time></trkpt><trkpt lat="42.09766169331269" lon="11.960152846758865"><ele>253.6</ele><time>2026-03-29T07:57:24.999Z</time></trkpt><trkpt lat="42.09768046018908" lon="11.960270448799733"><ele>257.2</ele><time>2026-03-29T07:57:25.999Z</time></trkpt><trkpt lat="42.097710327694294" lon="11.960371705366564"><ele>260.8</ele><time>2026-03-29T07:57:26.999Z</time></trkpt><trkpt lat="42.09773853834531" lon="11.960454365595075"><ele>264.4</ele><time>2026-03-29T07:57:27.999Z</time></trkpt><trkpt lat="42.09779694827035" lon="11.960627086675279"><ele>268.0</ele><time>2026-03-29T07:57:29.999Z</time></trkpt><trkpt lat="42.09782864547046" lon="11.960722736682122"><ele>268.0</ele><time>2026-03-29T07:57:30.999Z</time></trkpt><trkpt lat="42.09786963743647" lon="11.960805709383976"><ele>268.0</ele><time>2026-03-29T07:57:31.999Z</time></trkpt><trkpt lat="42.09789970826284" lon="11.960885689607181"><ele>268.0</ele><time>2026-03-29T07:57:32.999Z</time></trkpt><trkpt lat="42.09792454057376" lon="11.960973764188045"><ele>268.0</ele><time>2026-03-29T07:57:33.999Z</time></trkpt><trkpt lat="42.09793220563362" lon="11.961077405135923"><ele>268.0</ele><time>2026-03-29T07:57:34.999Z</time></trkpt><trkpt lat="42.097963814522195" lon="11.961182022821694"><ele>268.0</ele><time>2026-03-29T07:57:35.999Z</time></trkpt><trkpt lat="42.09799050926013" lon="11.961262780040032"><ele>268.0</ele><time>2026-03-29T07:57:36.999Z</time></trkpt><trkpt lat="42.09804270405909" lon="11.96136252673711"><ele>269.8333333333333</ele><time>2026-03-29T07:57:37.999Z</time></trkpt><trkpt lat="42.09809575511886" lon="11.961443802166777"><ele>271.66666666666663</ele><time>2026-03-29T07:57:38.999Z</time></trkpt><trkpt lat="42.09814734263828" lon="11.961529720836348"><ele>273.5</ele><time>2026-03-29T07:57:39.999Z</time></trkpt><trkpt lat="42.09818610988161" lon="11.961623740275668"><ele>275.3333333333333</ele><time>2026-03-29T07:57:40.999Z</time></trkpt><trkpt lat="42.09821613507167" lon="11.961721539625767"><ele>277.1666666666667</ele><time>2026-03-29T07:57:41.999Z</time></trkpt><trkpt lat="42.09824198355324" lon="11.96180957923207"><ele>279.0</ele><time>2026-03-29T07:57:42.999Z</time></trkpt><trkpt lat="42.09827046391517" lon="11.961895133810149"><ele>279.0</ele><time>2026-03-29T07:57:43.999Z</time></trkpt><trkpt lat="42.09828191900192" lon="11.961986112268262"><ele>279.0</ele><time>2026-03-29T07:57:44.999Z</time></trkpt><trkpt lat="42.09825817714686" lon="11.962070696749073"><ele>279.0</ele><time>2026-03-29T07:57:45.999Z</time></trkpt><trkpt lat="42.098162264733574" lon="11.962142447297735"><ele>279.0</ele><time>2026-03-29T07:57:47.999Z</time></trkpt><trkpt lat="42.09807781340941" lon="11.9621220647572"><ele>279.0</ele><time>2026-03-29T07:57:48.999Z</time></trkpt><trkpt lat="42.09800339981778" lon="11.962117248582745"><ele>279.0</ele><time>2026-03-29T07:57:49.999Z</time></trkpt><trkpt lat="42.097921787849195" lon="11.962120241180095"><ele>279.57142857142856</ele><time>2026-03-29T07:57:50.999Z</time></trkpt><trkpt lat="42.097846793882724" lon="11.962115601165257"><ele>280.1428571428571</ele><time>2026-03-29T07:57:51.999Z</time></trkpt><trkpt lat="42.097776070601434" lon="11.962112996159924"><ele>280.7142857142857</ele><time>2026-03-29T07:57:52.999Z</time></trkpt><trkpt lat="42.09770084492079" lon="11.962109451038527"><ele>281.2857142857143</ele><time>2026-03-29T07:57:53.999Z</time></trkpt><trkpt lat="42.097621317608734" lon="11.962101317859606"><ele>281.8571428571429</ele><time>2026-03-29T07:57:54.999Z</time></trkpt><trkpt lat="42.09755696724643" lon="11.962087872491313"><ele>282.42857142857144</ele><time>2026-03-29T07:57:55.999Z</time></trkpt><trkpt lat="42.09748589278519" lon="11.962089759687823"><ele>283.0</ele><time>2026-03-29T07:57:56.999Z</time></trkpt><trkpt lat="42.09742153583369" lon="11.96208908050252"><ele>283.0</ele><time>2026-03-29T07:57:57.999Z</time></trkpt><trkpt lat="42.097328025118856" lon="11.962102292084932"><ele>283.0</ele><time>2026-03-29T07:57:59.999Z</time></trkpt><trkpt lat="42.097348463374516" lon="11.962232911677424"><ele>283.0</ele><time>2026-03-29T07:58:02.999Z</time></trkpt><trkpt lat="42.0973972641326" lon="11.96238769982855"><ele>283.0</ele><time>2026-03-29T07:58:04.999Z</time></trkpt><trkpt lat="42.0974288465644" lon="11.962490421195485"><ele>283.0</ele><time>2026-03-29T07:58:05.999Z</time></trkpt><trkpt lat="42.09747891965412" lon="11.962618448959761"><ele>283.66666666666663</ele><time>2026-03-29T07:58:06.999Z</time></trkpt><trkpt lat="42.097501832401214" lon="11.96270231768648"><ele>284.3333333333333</ele><time>2026-03-29T07:58:07.999Z</time></trkpt><trkpt lat="42.09752012114655" lon="11.962795211024098"><ele>285.0</ele><time>2026-03-29T07:58:08.999Z</time></trkpt><trkpt lat="42.097503605231275" lon="11.962895424350267"><ele>285.6666666666667</ele><time>2026-03-29T07:58:09.999Z</time></trkpt><trkpt lat="42.09745487458371" lon="11.963000060543795"><ele>286.33333333333337</ele><time>2026-03-29T07:58:11Z</time></trkpt><trkpt lat="42.09740583937375" lon="11.963114932084608"><ele>287.0</ele><time>2026-03-29T07:58:12Z</time></trkpt><trkpt lat="42.09737702215338" lon="11.963237744393949"><ele>287.0</ele><time>2026-03-29T07:58:13Z</time></trkpt><trkpt lat="42.09734469949272" lon="11.96335122229096"><ele>287.0</ele><time>2026-03-29T07:58:14Z</time></trkpt><trkpt lat="42.09731197767347" lon="11.963462451977737"><ele>287.0</ele><time>2026-03-29T07:58:15Z</time></trkpt><trkpt lat="42.09728590712868" lon="11.963551600042726"><ele>287.0</ele><time>2026-03-29T07:58:16Z</time></trkpt><trkpt lat="42.0972835597831" lon="11.963732178987643"><ele>287.0</ele><time>2026-03-29T07:58:18Z</time></trkpt><trkpt lat="42.0972835134867" lon="11.963850867833877"><ele>289.5</ele><time>2026-03-29T07:58:19Z</time></trkpt><trkpt lat="42.09729242431867" lon="11.963980288000329"><ele>292.0</ele><time>2026-03-29T07:58:20Z</time></trkpt><trkpt lat="42.097317782519085" lon="11.964108817118772"><ele>294.5</ele><time>2026-03-29T07:58:21Z</time></trkpt><trkpt lat="42.097340241489" lon="11.964209788366421"><ele>297.0</ele><time>2026-03-29T07:58:22Z</time></trkpt><trkpt lat="42.097370800475495" lon="11.964286134621114"><ele>299.5</ele><time>2026-03-29T07:58:23Z</time></trkpt><trkpt lat="42.09745374340739" lon="11.964356078070862"><ele>302.0</ele><time>2026-03-29T07:58:25Z</time></trkpt><trkpt lat="42.097560314244355" lon="11.964420865118209"><ele>304.14285714285717</ele><time>2026-03-29T07:58:27Z</time></trkpt><trkpt lat="42.0976223473056" lon="11.964467355603992"><ele>306.2857142857143</ele><time>2026-03-29T07:58:28Z</time></trkpt><trkpt lat="42.097683120618385" lon="11.964516979397507"><ele>308.42857142857144</ele><time>2026-03-29T07:58:29Z</time></trkpt><trkpt lat="42.09773472646326" lon="11.964589239388765"><ele>310.57142857142856</ele><time>2026-03-29T07:58:30Z</time></trkpt><trkpt lat="42.09778310140227" lon="11.964671006116895"><ele>312.7142857142857</ele><time>2026-03-29T07:58:31Z</time></trkpt><trkpt lat="42.0978261281747" lon="11.964754073628365"><ele>314.8571428571429</ele><time>2026-03-29T07:58:32Z</time></trkpt><trkpt lat="42.09787005267403" lon="11.964819914251228"><ele>317.0</ele><time>2026-03-29T07:58:33Z</time></trkpt><trkpt lat="42.0978742453116" lon="11.964984779616973"><ele>319.2857142857143</ele><time>2026-03-29T07:58:35Z</time></trkpt><trkpt lat="42.097854662562746" lon="11.965075851242698"><ele>321.57142857142856</ele><time>2026-03-29T07:58:36Z</time></trkpt><trkpt lat="42.097799150316796" lon="11.965127780202415"><ele>323.8571428571429</ele><time>2026-03-29T07:58:37Z</time></trkpt><trkpt lat="42.09774899754403" lon="11.965186951243417"><ele>326.1428571428571</ele><time>2026-03-29T07:58:38Z</time></trkpt><trkpt lat="42.097725563918914" lon="11.965267313080226"><ele>328.4285714285714</ele><time>2026-03-29T07:58:39Z</time></trkpt><trkpt lat="42.09769719944588" lon="11.965347662841477"><ele>330.7142857142857</ele><time>2026-03-29T07:58:40Z</time></trkpt><trkpt lat="42.09768953996012" lon="11.965437923413292"><ele>333.0</ele><time>2026-03-29T07:58:41Z</time></trkpt><trkpt lat="42.097670558095686" lon="11.965553108354813"><ele>333.0</ele><time>2026-03-29T07:58:43Z</time></trkpt><trkpt lat="42.09768925173476" lon="11.965655027196945"><ele>333.0</ele><time>2026-03-29T07:58:45Z</time></trkpt><trkpt lat="42.097726156783004" lon="11.9657789563194"><ele>333.0</ele><time>2026-03-29T07:58:47Z</time></trkpt><trkpt lat="42.09772865147165" lon="11.965944432197075"><ele>333.0</ele><time>2026-03-29T07:58:49Z</time></trkpt><trkpt lat="42.09766427665362" lon="11.96606717638719"><ele>333.0</ele><time>2026-03-29T07:58:51Z</time></trkpt><trkpt lat="42.09758215483358" lon="11.966118333598986"><ele>335.8333333333333</ele><time>2026-03-29T07:58:52Z</time></trkpt><trkpt lat="42.09759463144422" lon="11.966028066502163"><ele>338.6666666666667</ele><time>2026-03-29T07:58:53Z</time></trkpt><trkpt lat="42.09753207964233" lon="11.965994572888778"><ele>341.5</ele><time>2026-03-29T07:58:54Z</time></trkpt><trkpt lat="42.09745777800191" lon="11.966052363193494"><ele>344.33333333333337</ele><time>2026-03-29T07:58:56Z</time></trkpt><trkpt lat="42.09735017238247" lon="11.966073981150618"><ele>347.1666666666667</ele><time>2026-03-29T07:58:58Z</time></trkpt><trkpt lat="42.097260589191315" lon="11.96608131104864"><ele>350.0</ele><time>2026-03-29T07:58:59Z</time></trkpt><trkpt lat="42.097103377869445" lon="11.966082502193549"><ele>351.0</ele><time>2026-03-29T07:59:00Z</time></trkpt><trkpt lat="42.096952004845114" lon="11.966118745333723"><ele>352.0</ele><time>2026-03-29T07:59:01Z</time></trkpt><trkpt lat="42.09683203916638" lon="11.966104027451282"><ele>353.0</ele><time>2026-03-29T07:59:02Z</time></trkpt><trkpt lat="42.09670235640232" lon="11.966106976352428"><ele>354.0</ele><time>2026-03-29T07:59:04Z</time></trkpt><trkpt lat="42.09660498928707" lon="11.966092630783246"><ele>355.5</ele><time>2026-03-29T07:59:06Z</time></trkpt><trkpt lat="42.096539879375804" lon="11.966090816822302"><ele>357.0</ele><time>2026-03-29T07:59:08Z</time></trkpt><trkpt lat="42.09646158488306" lon="11.966104861417458"><ele>358.5</ele><time>2026-03-29T07:59:59.999Z</time></trkpt><trkpt lat="42.09635471776276" lon="11.966061299228905"><ele>360.0</ele><time>2026-03-29T08:00:01.999Z</time></trkpt><trkpt lat="42.09626176881587" lon="11.966048844892285"><ele>361.5</ele><time>2026-03-29T08:00:03.999Z</time></trkpt><trkpt lat="42.09619345740235" lon="11.96609717078192"><ele>363.0</ele><time>2026-03-29T08:00:07.999Z</time></trkpt><trkpt lat="42.09617397906021" lon="11.966247389576107"><ele>363.0</ele><time>2026-03-29T08:00:09.999Z</time></trkpt><trkpt lat="42.09615987926255" lon="11.96637363254413"><ele>363.0</ele><time>2026-03-29T08:00:11.999Z</time></trkpt><trkpt lat="42.09613308350307" lon="11.966490401008501"><ele>363.0</ele><time>2026-03-29T08:00:13.999Z</time></trkpt><trkpt lat="42.09610731537302" lon="11.96662040858407"><ele>363.0</ele><time>2026-03-29T08:00:17Z</time></trkpt><trkpt lat="42.096092589390295" lon="11.966732954770508"><ele>363.0</ele><time>2026-03-29T08:00:19Z</time></trkpt><trkpt lat="42.09604366009405" lon="11.96687829454764"><ele>366.5</ele><time>2026-03-29T08:00:21Z</time></trkpt><trkpt lat="42.09600258143591" lon="11.966986772192072"><ele>370.0</ele><time>2026-03-29T08:00:23Z</time></trkpt><trkpt lat="42.09597813769097" lon="11.96712277655836"><ele>373.5</ele><time>2026-03-29T08:00:26Z</time></trkpt><trkpt lat="42.09595529393088" lon="11.967222925365911"><ele>377.0</ele><time>2026-03-29T08:00:28Z</time></trkpt><trkpt lat="42.09593443939909" lon="11.967349859242903"><ele>380.5</ele><time>2026-03-29T08:00:43Z</time></trkpt><trkpt lat="42.09589429594858" lon="11.967427786363762"><ele>384.0</ele><time>2026-03-29T08:00:45Z</time></trkpt><trkpt lat="42.095862813857" lon="11.967528029248143"><ele>386.6666666666667</ele><time>2026-03-29T08:00:47Z</time></trkpt><trkpt lat="42.095812635016195" lon="11.96765744811537"><ele>389.33333333333337</ele><time>2026-03-29T08:00:49Z</time></trkpt><trkpt lat="42.09577398124528" lon="11.967777737180223"><ele>392.0</ele><time>2026-03-29T08:00:51Z</time></trkpt><trkpt lat="42.09573890978177" lon="11.967918684447747"><ele>394.6666666666667</ele><time>2026-03-29T08:00:53Z</time></trkpt><trkpt lat="42.09571612504991" lon="11.968004653728455"><ele>397.33333333333337</ele><time>2026-03-29T08:00:54Z</time></trkpt><trkpt lat="42.09569476926847" lon="11.968087426737073"><ele>400.0</ele><time>2026-03-29T08:00:55Z</time></trkpt><trkpt lat="42.095662515013814" lon="11.968259752264894"><ele>402.6</ele><time>2026-03-29T08:00:57Z</time></trkpt><trkpt lat="42.09561811310386" lon="11.968400938477213"><ele>405.2</ele><time>2026-03-29T08:00:59Z</time></trkpt><trkpt lat="42.09558453879034" lon="11.968524896716785"><ele>407.79999999999995</ele><time>2026-03-29T08:01:01Z</time></trkpt><trkpt lat="42.095555193933194" lon="11.96866797210831"><ele>410.4</ele><time>2026-03-29T08:01:03Z</time></trkpt><trkpt lat="42.095539928581" lon="11.968797836979977"><ele>413.0</ele><time>2026-03-29T08:01:05Z</time></trkpt><trkpt lat="42.09549690171591" lon="11.968967644593736"><ele>413.0</ele><time>2026-03-29T08:01:07Z</time></trkpt><trkpt lat="42.09546412056127" lon="11.969093700596419"><ele>413.0</ele><time>2026-03-29T08:01:09Z</time></trkpt><trkpt lat="42.09562807548927" lon="11.969106301834177"><ele>413.0</ele><time>2026-03-29T08:02:03.999Z</time></trkpt><trkpt lat="42.095824545140765" lon="11.969292888433843"><ele>408.99999999999994</ele><time>2026-03-29T08:02:08.999Z</time></trkpt><trkpt lat="42.09588346616878" lon="11.96932670407263"><ele>405.0</ele><time>2026-03-29T08:02:09.999Z</time></trkpt><trkpt lat="42.09597600282251" lon="11.96939361898264"><ele>401.0</ele><time>2026-03-29T08:02:11.999Z</time></trkpt><trkpt lat="42.09604019376688" lon="11.96941751149342"><ele>397.0</ele><time>2026-03-29T08:02:12.999Z</time></trkpt><trkpt lat="42.096136229186875" lon="11.969472971964866"><ele>392.99999999999994</ele><time>2026-03-29T08:02:14.999Z</time></trkpt><trkpt lat="42.096223087018544" lon="11.969506651861954"><ele>389.0</ele><time>2026-03-29T08:02:16.999Z</time></trkpt><trkpt lat="42.09632345844146" lon="11.96959467707311"><ele>389.0</ele><time>2026-03-29T08:02:18.999Z</time></trkpt><trkpt lat="42.09643152037797" lon="11.96962828791439"><ele>389.0</ele><time>2026-03-29T08:02:20.999Z</time></trkpt><trkpt lat="42.096526911305695" lon="11.969694922569394"><ele>389.0</ele><time>2026-03-29T08:02:23Z</time></trkpt><trkpt lat="42.09661645532944" lon="11.969761695644856"><ele>389.0</ele><time>2026-03-29T08:02:25Z</time></trkpt><trkpt lat="42.096698578774806" lon="11.96981527317522"><ele>389.0</ele><time>2026-03-29T08:02:27Z</time></trkpt><trkpt lat="42.09678981042719" lon="11.969887330733082"><ele>388.0</ele><time>2026-03-29T08:02:29Z</time></trkpt><trkpt lat="42.09693093237123" lon="11.969915230044526"><ele>387.0</ele><time>2026-03-29T08:02:32Z</time></trkpt><trkpt lat="42.09700303846043" lon="11.97000959793313"><ele>386.0</ele><time>2026-03-29T08:02:34Z</time></trkpt><trkpt lat="42.09709295432085" lon="11.970100679142297"><ele>385.0</ele><time>2026-03-29T08:02:36Z</time></trkpt><trkpt lat="42.097177710637546" lon="11.97014120854659"><ele>384.0</ele><time>2026-03-29T08:02:38Z</time></trkpt><trkpt lat="42.097312556783336" lon="11.970089254412871"><ele>384.0</ele><time>2026-03-29T08:02:41Z</time></trkpt><trkpt lat="42.09741420313028" lon="11.970056334545385"><ele>384.0</ele><time>2026-03-29T08:02:43Z</time></trkpt><trkpt lat="42.0975070988681" lon="11.970051483249046"><ele>384.0</ele><time>2026-03-29T08:02:45Z</time></trkpt><trkpt lat="42.097587831035945" lon="11.970019707490298"><ele>384.0</ele><time>2026-03-29T08:02:47Z</time></trkpt><trkpt lat="42.09766442145192" lon="11.969961401423335"><ele>384.0</ele><time>2026-03-29T08:02:49Z</time></trkpt><trkpt lat="42.09774942484716" lon="11.969906832069947"><ele>387.8333333333333</ele><time>2026-03-29T08:02:51Z</time></trkpt><trkpt lat="42.097826076421015" lon="11.969830323590816"><ele>391.66666666666663</ele><time>2026-03-29T08:02:53Z</time></trkpt><trkpt lat="42.09788066094098" lon="11.969782280262931"><ele>395.5</ele><time>2026-03-29T08:02:54Z</time></trkpt><trkpt lat="42.09794216911503" lon="11.969735297778533"><ele>399.3333333333333</ele><time>2026-03-29T08:02:55Z</time></trkpt><trkpt lat="42.09800884683223" lon="11.969672780131344"><ele>403.16666666666663</ele><time>2026-03-29T08:02:56Z</time></trkpt><trkpt lat="42.09807434076071" lon="11.969617538333987"><ele>407.0</ele><time>2026-03-29T08:02:57Z</time></trkpt><trkpt lat="42.09813851368228" lon="11.969563032160538"><ele>407.0</ele><time>2026-03-29T08:02:58Z</time></trkpt><trkpt lat="42.098223138993745" lon="11.969470808133478"><ele>407.0</ele><time>2026-03-29T08:03:00Z</time></trkpt><trkpt lat="42.09831861089298" lon="11.969421872838963"><ele>407.0</ele><time>2026-03-29T08:03:02Z</time></trkpt><trkpt lat="42.098386831919555" lon="11.969356538195548"><ele>407.0</ele><time>2026-03-29T08:03:04Z</time></trkpt><trkpt lat="42.09848244970711" lon="11.969278311865779"><ele>407.0</ele><time>2026-03-29T08:03:06Z</time></trkpt><trkpt lat="42.09858036621899" lon="11.969220343570905"><ele>406.66666666666663</ele><time>2026-03-29T08:03:08Z</time></trkpt><trkpt lat="42.0986691628748" lon="11.969178749038633"><ele>406.3333333333333</ele><time>2026-03-29T08:03:10Z</time></trkpt><trkpt lat="42.09871082248572" lon="11.969091504771477"><ele>406.0</ele><time>2026-03-29T08:03:12Z</time></trkpt><trkpt lat="42.09876407157015" lon="11.969035318944545"><ele>405.66666666666663</ele><time>2026-03-29T08:03:14Z</time></trkpt><trkpt lat="42.098837209110705" lon="11.969004408194671"><ele>405.3333333333333</ele><time>2026-03-29T08:03:16Z</time></trkpt><trkpt lat="42.09890750411195" lon="11.968972370240758"><ele>405.0</ele><time>2026-03-29T08:03:18Z</time></trkpt><trkpt lat="42.098976835409175" lon="11.968906474484356"><ele>405.0</ele><time>2026-03-29T08:03:20Z</time></trkpt><trkpt lat="42.09905625980141" lon="11.968833313885945"><ele>405.0</ele><time>2026-03-29T08:03:22Z</time></trkpt><trkpt lat="42.09911795242613" lon="11.968740675363819"><ele>405.0</ele><time>2026-03-29T08:03:24Z</time></trkpt><trkpt lat="42.0991683666775" lon="11.968672210902731"><ele>405.0</ele><time>2026-03-29T08:03:25.999Z</time></trkpt><trkpt lat="42.099266008518335" lon="11.968672553214756"><ele>405.0</ele><time>2026-03-29T08:03:27.999Z</time></trkpt><trkpt lat="42.09935097681779" lon="11.968643903682928"><ele>405.0</ele><time>2026-03-29T08:03:29.999Z</time></trkpt><trkpt lat="42.09937003430499" lon="11.96872712659666"><ele>407.3333333333333</ele><time>2026-03-29T08:03:33.999Z</time></trkpt><trkpt lat="42.099442740927564" lon="11.968806529455588"><ele>409.66666666666663</ele><time>2026-03-29T08:03:36.999Z</time></trkpt><trkpt lat="42.09952014677805" lon="11.96886652668001"><ele>412.0</ele><time>2026-03-29T08:03:38.999Z</time></trkpt><trkpt lat="42.09959466677674" lon="11.968916820691726"><ele>414.3333333333333</ele><time>2026-03-29T08:03:39.999Z</time></trkpt><trkpt lat="42.09968061795361" lon="11.968939736395388"><ele>416.66666666666663</ele><time>2026-03-29T08:03:40.999Z</time></trkpt><trkpt lat="42.09977031680679" lon="11.96897623197805"><ele>419.0</ele><time>2026-03-29T08:03:41.999Z</time></trkpt><trkpt lat="42.09983326369048" lon="11.96902334983107"><ele>419.0</ele><time>2026-03-29T08:03:42.999Z</time></trkpt><trkpt lat="42.09988941462527" lon="11.969070217522699"><ele>419.0</ele><time>2026-03-29T08:03:43.999Z</time></trkpt><trkpt lat="42.09997897970517" lon="11.96917940439508"><ele>419.0</ele><time>2026-03-29T08:03:45.999Z</time></trkpt><trkpt lat="42.10006195398225" lon="11.969270510986798"><ele>419.0</ele><time>2026-03-29T08:03:47.999Z</time></trkpt><trkpt lat="42.10012349219387" lon="11.969327542616858"><ele>419.0</ele><time>2026-03-29T08:03:49.999Z</time></trkpt><trkpt lat="42.100183125084875" lon="11.96942703871128"><ele>415.4</ele><time>2026-03-29T08:03:51.999Z</time></trkpt><trkpt lat="42.10027149877635" lon="11.96950663999887"><ele>411.79999999999995</ele><time>2026-03-29T08:03:53.999Z</time></trkpt><trkpt lat="42.10033711897813" lon="11.969556580205744"><ele>408.20000000000005</ele><time>2026-03-29T08:03:55.999Z</time></trkpt><trkpt lat="42.10041228948958" lon="11.96960067141894"><ele>404.6</ele><time>2026-03-29T08:03:58.999Z</time></trkpt><trkpt lat="42.10049752263329" lon="11.969679036121468"><ele>401.0</ele><time>2026-03-29T08:04:00.999Z</time></trkpt><trkpt lat="42.10056027292277" lon="11.96976714152503"><ele>401.0</ele><time>2026-03-29T08:04:02.999Z</time></trkpt><trkpt lat="42.100644490842804" lon="11.969837160771295"><ele>401.0</ele><time>2026-03-29T08:04:04.999Z</time></trkpt><trkpt lat="42.10076829031312" lon="11.969903952272551"><ele>401.0</ele><time>2026-03-29T08:04:06.999Z</time></trkpt><trkpt lat="42.1008331990677" lon="11.969919862604458"><ele>401.0</ele><time>2026-03-29T08:04:07.999Z</time></trkpt><trkpt lat="42.10094116175508" lon="11.969952369424188"><ele>401.0</ele><time>2026-03-29T08:04:09.999Z</time></trkpt><trkpt lat="42.10102477548073" lon="11.969976726771314"><ele>402.4</ele><time>2026-03-29T08:04:11.999Z</time></trkpt><trkpt lat="42.101115067059716" lon="11.969986958227759"><ele>403.8</ele><time>2026-03-29T08:04:13.999Z</time></trkpt><trkpt lat="42.10123571051861" lon="11.97001490839236"><ele>405.2</ele><time>2026-03-29T08:04:15.999Z</time></trkpt><trkpt lat="42.10131624273923" lon="11.96999553272828"><ele>406.59999999999997</ele><time>2026-03-29T08:04:17.999Z</time></trkpt><trkpt lat="42.10139299956716" lon="11.97006043198863"><ele>408.0</ele><time>2026-03-29T08:04:19.999Z</time></trkpt><trkpt lat="42.10147384801083" lon="11.970105822629778"><ele>407.2</ele><time>2026-03-29T08:04:21.999Z</time></trkpt><trkpt lat="42.10158581668829" lon="11.970118360534196"><ele>406.4</ele><time>2026-03-29T08:04:23.999Z</time></trkpt><trkpt lat="42.101633955220564" lon="11.970186950561585"><ele>405.59999999999997</ele><time>2026-03-29T08:04:24.999Z</time></trkpt><trkpt lat="42.101735907545155" lon="11.970300145216301"><ele>404.79999999999995</ele><time>2026-03-29T08:04:26.999Z</time></trkpt><trkpt lat="42.10180263312797" lon="11.970444625270442"><ele>404.0</ele><time>2026-03-29T08:04:29Z</time></trkpt><trkpt lat="42.10187616774229" lon="11.970560197087597"><ele>404.0</ele><time>2026-03-29T08:04:31Z</time></trkpt><trkpt lat="42.10196616169457" lon="11.970654768521067"><ele>404.0</ele><time>2026-03-29T08:04:33Z</time></trkpt><trkpt lat="42.102084273291254" lon="11.970719735785583"><ele>404.0</ele><time>2026-03-29T08:04:35Z</time></trkpt><trkpt lat="42.102176779637986" lon="11.970750309635848"><ele>404.0</ele><time>2026-03-29T08:04:37Z</time></trkpt><trkpt lat="42.102250911013385" lon="11.970785263290267"><ele>404.0</ele><time>2026-03-29T08:04:38Z</time></trkpt><trkpt lat="42.10230990144246" lon="11.970837211502541"><ele>403.8333333333333</ele><time>2026-03-29T08:04:39Z</time></trkpt><trkpt lat="42.102377103337574" lon="11.970883547107192"><ele>403.66666666666663</ele><time>2026-03-29T08:04:40Z</time></trkpt><trkpt lat="42.10244059312795" lon="11.970915705143343"><ele>403.5</ele><time>2026-03-29T08:04:41Z</time></trkpt><trkpt lat="42.10251265124921" lon="11.970961823000835"><ele>403.33333333333337</ele><time>2026-03-29T08:04:42Z</time></trkpt><trkpt lat="42.102587659140944" lon="11.971005283558481"><ele>403.1666666666667</ele><time>2026-03-29T08:04:43Z</time></trkpt><trkpt lat="42.10266451202983" lon="11.97102292164531"><ele>403.0</ele><time>2026-03-29T08:04:44Z</time></trkpt><trkpt lat="42.102782976238814" lon="11.971045023832795"><ele>403.00000000000006</ele><time>2026-03-29T08:04:46Z</time></trkpt><trkpt lat="42.102845961703125" lon="11.971053037924975"><ele>403.0</ele><time>2026-03-29T08:04:47Z</time></trkpt><trkpt lat="42.1029676247049" lon="11.971033396386067"><ele>403.0</ele><time>2026-03-29T08:04:49Z</time></trkpt><trkpt lat="42.10305567523188" lon="11.971079277739221"><ele>403.0</ele><time>2026-03-29T08:04:51Z</time></trkpt><trkpt lat="42.10314065998496" lon="11.971132169159347"><ele>403.00000000000006</ele><time>2026-03-29T08:04:53Z</time></trkpt><trkpt lat="42.10320691050992" lon="11.971150523120507"><ele>403.0</ele><time>2026-03-29T08:04:54Z</time></trkpt><trkpt lat="42.10328864993708" lon="11.971149420858968"><ele>406.00000000000006</ele><time>2026-03-29T08:04:56Z</time></trkpt><trkpt lat="42.10336373897413" lon="11.971173460042385"><ele>409.0</ele><time>2026-03-29T08:04:58Z</time></trkpt><trkpt lat="42.10344179972991" lon="11.971216996284832"><ele>412.0</ele><time>2026-03-29T08:05:00Z</time></trkpt><trkpt lat="42.10350906801483" lon="11.971238843228397"><ele>415.0</ele><time>2026-03-29T08:05:02Z</time></trkpt><trkpt lat="42.10359934913889" lon="11.971245726494285"><ele>418.00000000000006</ele><time>2026-03-29T08:05:05Z</time></trkpt><trkpt lat="42.10369142302337" lon="11.971276698630348"><ele>421.0</ele><time>2026-03-29T08:05:07Z</time></trkpt><trkpt lat="42.10378263940475" lon="11.971296638916993"><ele>421.00000000000006</ele><time>2026-03-29T08:05:09Z</time></trkpt><trkpt lat="42.10388776403237" lon="11.971299277146153"><ele>421.0</ele><time>2026-03-29T08:05:11Z</time></trkpt><trkpt lat="42.103961627686964" lon="11.971297381614674"><ele>421.0</ele><time>2026-03-29T08:05:12Z</time></trkpt><trkpt lat="42.10403877771689" lon="11.97130330639854"><ele>421.0</ele><time>2026-03-29T08:05:14Z</time></trkpt><trkpt lat="42.104118471104734" lon="11.971298721368997"><ele>421.00000000000006</ele><time>2026-03-29T08:05:17Z</time></trkpt><trkpt lat="42.10418517407583" lon="11.971289224626073"><ele>421.0</ele><time>2026-03-29T08:05:19Z</time></trkpt><trkpt lat="42.10428313249357" lon="11.97132442608946"><ele>425.83333333333337</ele><time>2026-03-29T08:05:24Z</time></trkpt><trkpt lat="42.10437551962621" lon="11.971286757519595"><ele>430.6666666666667</ele><time>2026-03-29T08:05:28Z</time></trkpt><trkpt lat="42.10444361628093" lon="11.971294337129654"><ele>435.5</ele><time>2026-03-29T08:05:30.999Z</time></trkpt><trkpt lat="42.104508688598045" lon="11.971253694314374"><ele>440.33333333333337</ele><time>2026-03-29T08:05:57.999Z</time></trkpt><trkpt lat="42.104583237447684" lon="11.971254555053228"><ele>445.1666666666667</ele><time>2026-03-29T08:06:00.999Z</time></trkpt><trkpt lat="42.104660748516935" lon="11.971281550327866"><ele>450.0</ele><time>2026-03-29T08:06:02.999Z</time></trkpt><trkpt lat="42.1047314216501" lon="11.971361965386762"><ele>450.0</ele><time>2026-03-29T08:06:05.999Z</time></trkpt><trkpt lat="42.10484840688158" lon="11.97137640887671"><ele>450.0</ele><time>2026-03-29T08:06:07.999Z</time></trkpt><trkpt lat="42.10492054521489" lon="11.971371662220266"><ele>450.0</ele><time>2026-03-29T08:06:09.999Z</time></trkpt><trkpt lat="42.10499278557174" lon="11.971379128030554"><ele>450.0</ele><time>2026-03-29T08:08:23.999Z</time></trkpt><trkpt lat="42.10508993880415" lon="11.97138891658925"><ele>450.0</ele><time>2026-03-29T08:08:25.999Z</time></trkpt><trkpt lat="42.105168771103195" lon="11.971421222006484"><ele>450.0</ele><time>2026-03-29T08:08:27.999Z</time></trkpt><trkpt lat="42.10527826100212" lon="11.971478447754393"><ele>449.75</ele><time>2026-03-29T08:08:29.999Z</time></trkpt><trkpt lat="42.10537149382764" lon="11.971498346842193"><ele>449.5</ele><time>2026-03-29T08:08:30.999Z</time></trkpt><trkpt lat="42.105482660770996" lon="11.971527046883452"><ele>449.25</ele><time>2026-03-29T08:08:31.999Z</time></trkpt><trkpt lat="42.105584776931245" lon="11.9716249260525"><ele>449.0</ele><time>2026-03-29T08:08:33.999Z</time></trkpt><trkpt lat="42.105688042829044" lon="11.971722432779321"><ele>453.6</ele><time>2026-03-29T08:08:35.999Z</time></trkpt><trkpt lat="42.10575038688295" lon="11.971775739749923"><ele>458.2</ele><time>2026-03-29T08:08:36.999Z</time></trkpt><trkpt lat="42.10585188836244" lon="11.97186418013949"><ele>462.80000000000007</ele><time>2026-03-29T08:08:38.999Z</time></trkpt><trkpt lat="42.10590706587526" lon="11.97191737249178"><ele>467.40000000000003</ele><time>2026-03-29T08:08:39.999Z</time></trkpt><trkpt lat="42.10595666749652" lon="11.97203424488858"><ele>472.0</ele><time>2026-03-29T08:08:42Z</time></trkpt><trkpt lat="42.1060324613543" lon="11.97209750799142"><ele>472.0</ele><time>2026-03-29T08:08:44Z</time></trkpt><trkpt lat="42.106119737064894" lon="11.972204832610315"><ele>472.00000000000006</ele><time>2026-03-29T08:08:46Z</time></trkpt><trkpt lat="42.10617591270649" lon="11.972260086724196"><ele>472.00000000000006</ele><time>2026-03-29T08:08:47Z</time></trkpt><trkpt lat="42.106254014458905" lon="11.972365431879897"><ele>472.0</ele><time>2026-03-29T08:08:49Z</time></trkpt><trkpt lat="42.10634454257092" lon="11.972448094538173"><ele>472.0</ele><time>2026-03-29T08:08:51Z</time></trkpt><trkpt lat="42.10645757312294" lon="11.972538784376104"><ele>474.6</ele><time>2026-03-29T08:08:53Z</time></trkpt><trkpt lat="42.10656042431579" lon="11.972605803214979"><ele>477.20000000000005</ele><time>2026-03-29T08:08:55Z</time></trkpt><trkpt lat="42.10661280179797" lon="11.972664230131416"><ele>479.8</ele><time>2026-03-29T08:08:56Z</time></trkpt><trkpt lat="42.10668288748618" lon="11.972768542450043"><ele>482.4</ele><time>2026-03-29T08:08:58Z</time></trkpt><trkpt lat="42.10678737351298" lon="11.972899756496302"><ele>485.0</ele><time>2026-03-29T08:09:00Z</time></trkpt><trkpt lat="42.10682985788361" lon="11.972962383529078"><ele>485.0</ele><time>2026-03-29T08:09:01Z</time></trkpt><trkpt lat="42.106875723594094" lon="11.97303065463834"><ele>485.0</ele><time>2026-03-29T08:09:02Z</time></trkpt><trkpt lat="42.10694559584981" lon="11.973176545912974"><ele>485.0</ele><time>2026-03-29T08:09:04Z</time></trkpt><trkpt lat="42.10703169153589" lon="11.973293725874234"><ele>485.0</ele><time>2026-03-29T08:09:06Z</time></trkpt><trkpt lat="42.10712313063478" lon="11.973401282225689"><ele>485.0</ele><time>2026-03-29T08:09:08Z</time></trkpt><trkpt lat="42.10717337087744" lon="11.973459696319415"><ele>483.66666666666663</ele><time>2026-03-29T08:09:09Z</time></trkpt><trkpt lat="42.10724863049269" lon="11.9735028634795"><ele>482.3333333333333</ele><time>2026-03-29T08:09:10Z</time></trkpt><trkpt lat="42.107320743895265" lon="11.973556251501241"><ele>481.0</ele><time>2026-03-29T08:09:11Z</time></trkpt><trkpt lat="42.10743857823836" lon="11.973612457740495"><ele>479.66666666666663</ele><time>2026-03-29T08:09:13Z</time></trkpt><trkpt lat="42.10750843398887" lon="11.973618162342637"><ele>478.3333333333333</ele><time>2026-03-29T08:09:14Z</time></trkpt><trkpt lat="42.107592447822086" lon="11.973608820442905"><ele>477.0</ele><time>2026-03-29T08:09:15Z</time></trkpt><trkpt lat="42.10768459160977" lon="11.973624079036453"><ele>477.0</ele><time>2026-03-29T08:09:16Z</time></trkpt><trkpt lat="42.10778768455432" lon="11.973677041325564"><ele>477.0</ele><time>2026-03-29T08:09:18Z</time></trkpt><trkpt lat="42.107930184527746" lon="11.973703326905952"><ele>477.0</ele><time>2026-03-29T08:09:20Z</time></trkpt><trkpt lat="42.10803418730195" lon="11.973712285618372"><ele>477.0</ele><time>2026-03-29T08:09:22Z</time></trkpt><trkpt lat="42.108125881650615" lon="11.973719164017497"><ele>477.0</ele><time>2026-03-29T08:09:24Z</time></trkpt><trkpt lat="42.10819298424324" lon="11.973717801522543"><ele>477.0</ele><time>2026-03-29T08:09:25Z</time></trkpt><trkpt lat="42.108260512428366" lon="11.9737198511297"><ele>477.0</ele><time>2026-03-29T08:09:26Z</time></trkpt><trkpt lat="42.10833942893221" lon="11.973759526729886"><ele>477.0</ele><time>2026-03-29T08:09:28Z</time></trkpt><trkpt lat="42.108426061056946" lon="11.973768843712923"><ele>477.0</ele><time>2026-03-29T08:09:30Z</time></trkpt><trkpt lat="42.10850767602316" lon="11.973740932161496"><ele>477.0</ele><time>2026-03-29T08:09:31Z</time></trkpt><trkpt lat="42.10860698803483" lon="11.973764784226358"><ele>475.40000000000003</ele><time>2026-03-29T08:09:33Z</time></trkpt><trkpt lat="42.10872231073452" lon="11.973767448097075"><ele>473.80000000000007</ele><time>2026-03-29T08:09:35Z</time></trkpt><trkpt lat="42.1087903013923" lon="11.973773361915095"><ele>472.2</ele><time>2026-03-29T08:09:36Z</time></trkpt><trkpt lat="42.10887128473431" lon="11.973739188893017"><ele>470.6</ele><time>2026-03-29T08:09:37Z</time></trkpt><trkpt lat="42.1089895953046" lon="11.97371691885671"><ele>469.0</ele><time>2026-03-29T08:09:39Z</time></trkpt><trkpt lat="42.10905556554974" lon="11.973666495970534"><ele>465.6</ele><time>2026-03-29T08:09:41Z</time></trkpt><trkpt lat="42.10916896899943" lon="11.97356132793882"><ele>462.2</ele><time>2026-03-29T08:09:43Z</time></trkpt><trkpt lat="42.109231306178295" lon="11.973532907980278"><ele>458.80000000000007</ele><time>2026-03-29T08:09:43.999Z</time></trkpt><trkpt lat="42.10930310644952" lon="11.973471582501908"><ele>455.40000000000003</ele><time>2026-03-29T08:09:45.999Z</time></trkpt><trkpt lat="42.10934672917638" lon="11.973406966207849"><ele>452.0</ele><time>2026-03-29T08:09:46.999Z</time></trkpt><trkpt lat="42.10940474446865" lon="11.973301928840735"><ele>451.99999999999994</ele><time>2026-03-29T08:09:48.999Z</time></trkpt><trkpt lat="42.10945701329898" lon="11.973250820757412"><ele>452.0</ele><time>2026-03-29T08:09:50.999Z</time></trkpt><trkpt lat="42.10951758794856" lon="11.973198445673818"><ele>452.0</ele><time>2026-03-29T08:09:53.999Z</time></trkpt><trkpt lat="42.109578915214556" lon="11.973108762289781"><ele>452.0</ele><time>2026-03-29T08:09:55.999Z</time></trkpt><trkpt lat="42.10958384454521" lon="11.973022377762428"><ele>451.99999999999994</ele><time>2026-03-29T08:09:56.999Z</time></trkpt><trkpt lat="42.10964293300009" lon="11.972912662242493"><ele>452.0</ele><time>2026-03-29T08:09:58.999Z</time></trkpt><trkpt lat="42.1097238580968" lon="11.972817791515217"><ele>452.0</ele><time>2026-03-29T08:10:00.999Z</time></trkpt><trkpt lat="42.109791955008426" lon="11.972651475022499"><ele>452.00000000000006</ele><time>2026-03-29T08:10:02.999Z</time></trkpt><trkpt lat="42.10985520938526" lon="11.97253461230798"><ele>452.00000000000006</ele><time>2026-03-29T08:10:04.999Z</time></trkpt><trkpt lat="42.109916451904" lon="11.972470987158227"><ele>452.0</ele><time>2026-03-29T08:10:05.999Z</time></trkpt><trkpt lat="42.11001203793367" lon="11.97238056617294"><ele>452.0</ele><time>2026-03-29T08:10:07.999Z</time></trkpt><trkpt lat="42.110061649914726" lon="11.97230115725942"><ele>448.20000000000005</ele><time>2026-03-29T08:10:09.999Z</time></trkpt><trkpt lat="42.110079027242314" lon="11.972183644883822"><ele>444.40000000000003</ele><time>2026-03-29T08:10:10.999Z</time></trkpt><trkpt lat="42.110190806828825" lon="11.972176918571824"><ele>440.59999999999997</ele><time>2026-03-29T08:10:12.999Z</time></trkpt><trkpt lat="42.11033261013745" lon="11.972099375339814"><ele>436.79999999999995</ele><time>2026-03-29T08:10:14.999Z</time></trkpt><trkpt lat="42.110396146782314" lon="11.972053846967745"><ele>433.0</ele><time>2026-03-29T08:10:15.999Z</time></trkpt><trkpt lat="42.11045884261442" lon="11.971997685575616"><ele>433.0</ele><time>2026-03-29T08:10:16.999Z</time></trkpt><trkpt lat="42.11052005215922" lon="11.971949631488474"><ele>432.99999999999994</ele><time>2026-03-29T08:10:17.999Z</time></trkpt><trkpt lat="42.11062487608449" lon="11.971910417149287"><ele>432.99999999999994</ele><time>2026-03-29T08:10:19.999Z</time></trkpt><trkpt lat="42.11073362323229" lon="11.971871640820046"><ele>433.0</ele><time>2026-03-29T08:10:21.999Z</time></trkpt><trkpt lat="42.11079613215751" lon="11.971842966102141"><ele>433.0</ele><time>2026-03-29T08:10:22.999Z</time></trkpt><trkpt lat="42.11088727541797" lon="11.971801285016769"><ele>432.75</ele><time>2026-03-29T08:10:23.999Z</time></trkpt><trkpt lat="42.110973646088766" lon="11.971718817056606"><ele>432.5</ele><time>2026-03-29T08:10:25.999Z</time></trkpt><trkpt lat="42.11108251094571" lon="11.971672734199311"><ele>432.25</ele><time>2026-03-29T08:10:27.999Z</time></trkpt><trkpt lat="42.11119625167025" lon="11.971623946447423"><ele>432.0</ele><time>2026-03-29T08:10:29.999Z</time></trkpt><trkpt lat="42.11130976094175" lon="11.971681085894398"><ele>432.0</ele><time>2026-03-29T08:10:31.999Z</time></trkpt><trkpt lat="42.111366034525126" lon="11.971722703955097"><ele>432.0</ele><time>2026-03-29T08:10:32.999Z</time></trkpt><trkpt lat="42.11143247861413" lon="11.971745326358306"><ele>432.0</ele><time>2026-03-29T08:10:33.999Z</time></trkpt><trkpt lat="42.111503419603366" lon="11.97172767985537"><ele>432.0</ele><time>2026-03-29T08:10:35.999Z</time></trkpt><trkpt lat="42.11157018916777" lon="11.971629652283996"><ele>432.0</ele><time>2026-03-29T08:10:37.999Z</time></trkpt><trkpt lat="42.11168569713153" lon="11.971545938918284"><ele>432.0</ele><time>2026-03-29T08:10:39.999Z</time></trkpt><trkpt lat="42.11174678788881" lon="11.971510803133324"><ele>435.20000000000005</ele><time>2026-03-29T08:10:40.999Z</time></trkpt><trkpt lat="42.111812203608615" lon="11.97148206513771"><ele>438.40000000000003</ele><time>2026-03-29T08:10:41.999Z</time></trkpt><trkpt lat="42.111936763043396" lon="11.971463975503596"><ele>441.59999999999997</ele><time>2026-03-29T08:10:43.999Z</time></trkpt><trkpt lat="42.112059727488905" lon="11.971374825443103"><ele>444.79999999999995</ele><time>2026-03-29T08:10:45.999Z</time></trkpt><trkpt lat="42.112124786675246" lon="11.97133940637104"><ele>448.0</ele><time>2026-03-29T08:10:47Z</time></trkpt><trkpt lat="42.11219926800739" lon="11.971297326531356"><ele>448.0</ele><time>2026-03-29T08:10:48Z</time></trkpt><trkpt lat="42.11226985629095" lon="11.971265058834001"><ele>448.0</ele><time>2026-03-29T08:10:49Z</time></trkpt><trkpt lat="42.112333242524535" lon="11.971220199467428"><ele>448.0</ele><time>2026-03-29T08:10:50Z</time></trkpt><trkpt lat="42.1123944017508" lon="11.971177341352808"><ele>448.0</ele><time>2026-03-29T08:10:51Z</time></trkpt><trkpt lat="42.112447188514835" lon="11.971130794291868"><ele>448.0</ele><time>2026-03-29T08:10:52Z</time></trkpt><trkpt lat="42.11249752614889" lon="11.971067930396167"><ele>448.0</ele><time>2026-03-29T08:10:53Z</time></trkpt><trkpt lat="42.11256111308051" lon="11.971023835453327"><ele>448.0</ele><time>2026-03-29T08:10:54Z</time></trkpt><trkpt lat="42.112644125870425" lon="11.970925928594827"><ele>450.79999999999995</ele><time>2026-03-29T08:10:56Z</time></trkpt><trkpt lat="42.11272949053427" lon="11.970834759691991"><ele>453.59999999999997</ele><time>2026-03-29T08:10:58Z</time></trkpt><trkpt lat="42.112783582215634" lon="11.970783616995478"><ele>456.40000000000003</ele><time>2026-03-29T08:10:59Z</time></trkpt><trkpt lat="42.11283640418058" lon="11.970703014278175"><ele>459.20000000000005</ele><time>2026-03-29T08:11:00Z</time></trkpt><trkpt lat="42.112941501680936" lon="11.97059830260817"><ele>462.0</ele><time>2026-03-29T08:11:02Z</time></trkpt><trkpt lat="42.1130360483105" lon="11.97051959357087"><ele>462.0</ele><time>2026-03-29T08:11:04Z</time></trkpt><trkpt lat="42.11312515079377" lon="11.970404716611974"><ele>462.00000000000006</ele><time>2026-03-29T08:11:06Z</time></trkpt><trkpt lat="42.113228955315556" lon="11.970353470554274"><ele>462.00000000000006</ele><time>2026-03-29T08:11:08Z</time></trkpt><trkpt lat="42.113300532229346" lon="11.970322818863945"><ele>462.0</ele><time>2026-03-29T08:11:09Z</time></trkpt><trkpt lat="42.113371443305496" lon="11.970293107533484"><ele>462.0</ele><time>2026-03-29T08:11:10Z</time></trkpt><trkpt lat="42.11344370883224" lon="11.97026333244688"><ele>463.0</ele><time>2026-03-29T08:11:11Z</time></trkpt><trkpt lat="42.11351274970122" lon="11.970223813841105"><ele>464.0</ele><time>2026-03-29T08:11:12Z</time></trkpt><trkpt lat="42.11362407004002" lon="11.970146864209264"><ele>465.0</ele><time>2026-03-29T08:11:14Z</time></trkpt><trkpt lat="42.113686777884624" lon="11.970107904200338"><ele>466.0</ele><time>2026-03-29T08:11:15Z</time></trkpt><trkpt lat="42.113743118031735" lon="11.970049694775003"><ele>467.0</ele><time>2026-03-29T08:11:16Z</time></trkpt><trkpt lat="42.11381385919386" lon="11.970043066102376"><ele>468.0</ele><time>2026-03-29T08:11:17Z</time></trkpt><trkpt lat="42.11389372612661" lon="11.970008119726131"><ele>468.0</ele><time>2026-03-29T08:11:18Z</time></trkpt><trkpt lat="42.11397398632559" lon="11.969913236644924"><ele>467.99999999999994</ele><time>2026-03-29T08:11:20Z</time></trkpt><trkpt lat="42.11407307881775" lon="11.96975146496687"><ele>467.99999999999994</ele><time>2026-03-29T08:11:22Z</time></trkpt><trkpt lat="42.114135539454175" lon="11.969679432585908"><ele>468.0</ele><time>2026-03-29T08:11:23Z</time></trkpt><trkpt lat="42.11420188843341" lon="11.969620274221219"><ele>468.0</ele><time>2026-03-29T08:11:24Z</time></trkpt><trkpt lat="42.11426709563099" lon="11.96957104143837"><ele>469.0</ele><time>2026-03-29T08:11:25Z</time></trkpt><trkpt lat="42.1143220592899" lon="11.969524080366298"><ele>470.0</ele><time>2026-03-29T08:11:26Z</time></trkpt><trkpt lat="42.11438453991399" lon="11.969495105872484"><ele>471.0</ele><time>2026-03-29T08:11:27Z</time></trkpt><trkpt lat="42.114490923177826" lon="11.969435254527406"><ele>472.0</ele><time>2026-03-29T08:11:29Z</time></trkpt><trkpt lat="42.1145840055301" lon="11.969394768946179"><ele>473.0</ele><time>2026-03-29T08:11:31Z</time></trkpt><trkpt lat="42.11467401339081" lon="11.969325245804335"><ele>474.0</ele><time>2026-03-29T08:11:33Z</time></trkpt><trkpt lat="42.11473639220548" lon="11.969282428896681"><ele>474.0</ele><time>2026-03-29T08:11:34Z</time></trkpt><trkpt lat="42.114858191994195" lon="11.96920631196473"><ele>474.0</ele><time>2026-03-29T08:11:36Z</time></trkpt><trkpt lat="42.11491379273008" lon="11.96916104119345"><ele>474.0</ele><time>2026-03-29T08:11:37Z</time></trkpt><trkpt lat="42.114993966966395" lon="11.969076784521064"><ele>474.0</ele><time>2026-03-29T08:11:39Z</time></trkpt><trkpt lat="42.115087476280586" lon="11.968989842114043"><ele>474.0</ele><time>2026-03-29T08:11:41Z</time></trkpt><trkpt lat="42.11517451633138" lon="11.968918052410597"><ele>473.5</ele><time>2026-03-29T08:11:43Z</time></trkpt><trkpt lat="42.11523711277954" lon="11.968865593114305"><ele>473.0</ele><time>2026-03-29T08:11:45Z</time></trkpt><trkpt lat="42.11528047568749" lon="11.968797325527389"><ele>472.5</ele><time>2026-03-29T08:11:47Z</time></trkpt><trkpt lat="42.115354371737446" lon="11.96869185039376"><ele>472.0</ele><time>2026-03-29T08:11:48.999Z</time></trkpt><trkpt lat="42.115425389128646" lon="11.96862597815907"><ele>471.5</ele><time>2026-03-29T08:11:50.999Z</time></trkpt><trkpt lat="42.11550087340002" lon="11.96854950750051"><ele>471.0</ele><time>2026-03-29T08:11:52.999Z</time></trkpt><trkpt lat="42.11557896427843" lon="11.968470144214372"><ele>471.0</ele><time>2026-03-29T08:11:54.999Z</time></trkpt><trkpt lat="42.11562355764003" lon="11.968391428399956"><ele>471.0</ele><time>2026-03-29T08:11:55.999Z</time></trkpt><trkpt lat="42.11571515340073" lon="11.968334519430606"><ele>471.0</ele><time>2026-03-29T08:11:57.999Z</time></trkpt><trkpt lat="42.11580034342894" lon="11.968260804336003"><ele>471.0</ele><time>2026-03-29T08:11:59.999Z</time></trkpt><trkpt lat="42.11589310792482" lon="11.968161332874503"><ele>471.0</ele><time>2026-03-29T08:12:01.999Z</time></trkpt><trkpt lat="42.115999699790294" lon="11.968096071517504"><ele>468.5</ele><time>2026-03-29T08:12:03.999Z</time></trkpt><trkpt lat="42.116080299277726" lon="11.968013320795418"><ele>466.0</ele><time>2026-03-29T08:12:05.999Z</time></trkpt><trkpt lat="42.11617045398115" lon="11.96793265282963"><ele>463.5</ele><time>2026-03-29T08:12:07.999Z</time></trkpt><trkpt lat="42.11622077917821" lon="11.96787625768815"><ele>461.0</ele><time>2026-03-29T08:12:08.999Z</time></trkpt><trkpt lat="42.11629826700361" lon="11.967817658048215"><ele>458.5</ele><time>2026-03-29T08:12:10.999Z</time></trkpt><trkpt lat="42.11635154059763" lon="11.967759480893553"><ele>456.0</ele><time>2026-03-29T08:12:11.999Z</time></trkpt><trkpt lat="42.1164507860795" lon="11.967690457719446"><ele>456.0</ele><time>2026-03-29T08:12:13.999Z</time></trkpt><trkpt lat="42.11656381030132" lon="11.967612984468865"><ele>456.0</ele><time>2026-03-29T08:12:15.999Z</time></trkpt><trkpt lat="42.1166280037208" lon="11.96755784186627"><ele>456.0</ele><time>2026-03-29T08:12:16.999Z</time></trkpt><trkpt lat="42.11671934804728" lon="11.967496639642635"><ele>456.0</ele><time>2026-03-29T08:12:18.999Z</time></trkpt><trkpt lat="42.11675412652908" lon="11.967421617571832"><ele>456.0</ele><time>2026-03-29T08:12:19.999Z</time></trkpt><trkpt lat="42.1168100756012" lon="11.967368193940418"><ele>456.0</ele><time>2026-03-29T08:12:20.999Z</time></trkpt><trkpt lat="42.116921560201966" lon="11.967266796505244"><ele>453.3333333333333</ele><time>2026-03-29T08:12:22.999Z</time></trkpt><trkpt lat="42.11698319759887" lon="11.967219490032413"><ele>450.66666666666663</ele><time>2026-03-29T08:12:23.999Z</time></trkpt><trkpt lat="42.11704379346274" lon="11.967174979228504"><ele>448.0</ele><time>2026-03-29T08:12:24.999Z</time></trkpt><trkpt lat="42.11711880165089" lon="11.967105130425988"><ele>445.3333333333333</ele><time>2026-03-29T08:12:26.999Z</time></trkpt><trkpt lat="42.11713567924845" lon="11.966989050078643"><ele>442.66666666666663</ele><time>2026-03-29T08:12:29.999Z</time></trkpt><trkpt lat="42.117144496855424" lon="11.966880114774927"><ele>440.0</ele><time>2026-03-29T08:12:30.999Z</time></trkpt><trkpt lat="42.117137356680104" lon="11.966788264500808"><ele>437.8</ele><time>2026-03-29T08:12:31.999Z</time></trkpt><trkpt lat="42.117154168769765" lon="11.966669104221474"><ele>435.6</ele><time>2026-03-29T08:12:33.999Z</time></trkpt><trkpt lat="42.117166850671595" lon="11.966563626733407"><ele>433.4</ele><time>2026-03-29T08:12:35.999Z</time></trkpt><trkpt lat="42.11715154978184" lon="11.966452316499318"><ele>431.2</ele><time>2026-03-29T08:12:37.999Z</time></trkpt><trkpt lat="42.11710137334776" lon="11.966338819719947"><ele>429.0</ele><time>2026-03-29T08:12:39.999Z</time></trkpt><trkpt lat="42.11716299930717" lon="11.966234488056347"><ele>429.0</ele><time>2026-03-29T08:12:41.999Z</time></trkpt><trkpt lat="42.117207020214884" lon="11.966132446263419"><ele>429.0</ele><time>2026-03-29T08:12:43.999Z</time></trkpt><trkpt lat="42.11721419307407" lon="11.966031833409211"><ele>429.0</ele><time>2026-03-29T08:12:45.999Z</time></trkpt><trkpt lat="42.117215753304514" lon="11.965913636277005"><ele>429.0</ele><time>2026-03-29T08:12:47.999Z</time></trkpt><trkpt lat="42.11721490358465" lon="11.965783040540385"><ele>429.0</ele><time>2026-03-29T08:12:49.999Z</time></trkpt><trkpt lat="42.11722803053025" lon="11.965689458194209"><ele>429.0</ele><time>2026-03-29T08:12:51.999Z</time></trkpt><trkpt lat="42.117233154591325" lon="11.965571274730433"><ele>426.6666666666667</ele><time>2026-03-29T08:12:54Z</time></trkpt><trkpt lat="42.11725956180346" lon="11.965446003514135"><ele>424.33333333333337</ele><time>2026-03-29T08:12:56Z</time></trkpt><trkpt lat="42.11730724927017" lon="11.965328015281507"><ele>422.0</ele><time>2026-03-29T08:12:58Z</time></trkpt><trkpt lat="42.11733156137315" lon="11.965206496231541"><ele>419.6666666666667</ele><time>2026-03-29T08:13:01Z</time></trkpt><trkpt lat="42.11733541734759" lon="11.965099682800236"><ele>417.33333333333337</ele><time>2026-03-29T08:13:04Z</time></trkpt><trkpt lat="42.11734654556555" lon="11.96500204145799"><ele>415.0</ele><time>2026-03-29T08:13:07Z</time></trkpt><trkpt lat="42.117347255614106" lon="11.964853321918364"><ele>412.83333333333337</ele><time>2026-03-29T08:13:09Z</time></trkpt><trkpt lat="42.1173690216577" lon="11.96471711064389"><ele>410.6666666666667</ele><time>2026-03-29T08:13:11Z</time></trkpt><trkpt lat="42.11738057970197" lon="11.964592804895599"><ele>408.5</ele><time>2026-03-29T08:13:13Z</time></trkpt><trkpt lat="42.117390605753315" lon="11.964491071984916"><ele>406.33333333333337</ele><time>2026-03-29T08:13:52.999Z</time></trkpt><trkpt lat="42.117405238651656" lon="11.964389922288536"><ele>404.1666666666667</ele><time>2026-03-29T08:13:55.999Z</time></trkpt><trkpt lat="42.11743372772246" lon="11.964298702517993"><ele>402.0</ele><time>2026-03-29T08:13:57.999Z</time></trkpt><trkpt lat="42.11744509127179" lon="11.964211157698378"><ele>399.57142857142856</ele><time>2026-03-29T08:13:59.999Z</time></trkpt><trkpt lat="42.117447502595546" lon="11.964120928685658"><ele>397.14285714285717</ele><time>2026-03-29T08:14:01.999Z</time></trkpt><trkpt lat="42.11745216053634" lon="11.964035214249954"><ele>394.7142857142857</ele><time>2026-03-29T08:14:03.999Z</time></trkpt><trkpt lat="42.117478380555404" lon="11.963954345519763"><ele>392.2857142857143</ele><time>2026-03-29T08:14:05.999Z</time></trkpt><trkpt lat="42.11747172332651" lon="11.963851542715396"><ele>389.8571428571429</ele><time>2026-03-29T08:14:07.999Z</time></trkpt><trkpt lat="42.11743139274663" lon="11.963785860213523"><ele>387.42857142857144</ele><time>2026-03-29T08:14:09.999Z</time></trkpt><trkpt lat="42.117409164454116" lon="11.963698806558536"><ele>385.0</ele><time>2026-03-29T08:14:11.999Z</time></trkpt><trkpt lat="42.117480269916875" lon="11.963664385565448"><ele>385.0</ele><time>2026-03-29T08:14:14.999Z</time></trkpt><trkpt lat="42.117508908314214" lon="11.963521875654692"><ele>385.0</ele><time>2026-03-29T08:14:18.999Z</time></trkpt><trkpt lat="42.11750514418181" lon="11.96335814505625"><ele>385.0</ele><time>2026-03-29T08:14:20.999Z</time></trkpt><trkpt lat="42.11749976193613" lon="11.96326320211183"><ele>385.0</ele><time>2026-03-29T08:14:22.999Z</time></trkpt><trkpt lat="42.11741465752948" lon="11.963153914052935"><ele>385.0</ele><time>2026-03-29T08:14:24.999Z</time></trkpt><trkpt lat="42.11737431849749" lon="11.963087080714448"><ele>380.50000000000006</ele><time>2026-03-29T08:14:26.999Z</time></trkpt><trkpt lat="42.117312072532485" lon="11.96302598155567"><ele>376.0</ele><time>2026-03-29T08:14:28.999Z</time></trkpt><trkpt lat="42.117202760442524" lon="11.962959992002975"><ele>371.5</ele><time>2026-03-29T08:14:30.999Z</time></trkpt><trkpt lat="42.11718333617134" lon="11.962864648275971"><ele>367.0</ele><time>2026-03-29T08:15:02Z</time></trkpt><trkpt lat="42.11718189746296" lon="11.962950557437047"><ele>362.5</ele><time>2026-03-29T08:17:59Z</time></trkpt><trkpt lat="42.11720275966268" lon="11.962869133294733"><ele>358.0</ele><time>2026-03-29T08:18:30.999Z</time></trkpt><trkpt lat="42.11722251449255" lon="11.962746841669173"><ele>355.2</ele><time>2026-03-29T08:20:02Z</time></trkpt><trkpt lat="42.11724348534184" lon="11.962512381932074"><ele>352.4</ele><time>2026-03-29T08:20:04Z</time></trkpt><trkpt lat="42.11723839926831" lon="11.962392139679022"><ele>349.59999999999997</ele><time>2026-03-29T08:20:05Z</time></trkpt><trkpt lat="42.11724250503462" lon="11.962291134246016"><ele>346.79999999999995</ele><time>2026-03-29T08:20:06Z</time></trkpt><trkpt lat="42.11725893752765" lon="11.962187138529417"><ele>344.0</ele><time>2026-03-29T08:20:07Z</time></trkpt><trkpt lat="42.1172787402283" lon="11.962073832541021"><ele>344.0</ele><time>2026-03-29T08:20:07.999Z</time></trkpt><trkpt lat="42.117304526859236" lon="11.961941584141176"><ele>344.0</ele><time>2026-03-29T08:20:08.999Z</time></trkpt><trkpt lat="42.117308374375426" lon="11.961822042286558"><ele>344.0</ele><time>2026-03-29T08:20:09.999Z</time></trkpt><trkpt lat="42.11730196126608" lon="11.961715500953874"><ele>344.0</ele><time>2026-03-29T08:20:10.999Z</time></trkpt><trkpt lat="42.11729323539553" lon="11.961616330160444"><ele>344.0</ele><time>2026-03-29T08:20:11.999Z</time></trkpt><trkpt lat="42.11725591058291" lon="11.961494453660052"><ele>344.0</ele><time>2026-03-29T08:20:12.999Z</time></trkpt><trkpt lat="42.11724098554613" lon="11.961387542554348"><ele>344.0</ele><time>2026-03-29T08:20:13.999Z</time></trkpt><trkpt lat="42.11722474984029" lon="11.961282868208565"><ele>344.0</ele><time>2026-03-29T08:20:14.999Z</time></trkpt><trkpt lat="42.117222438696984" lon="11.961184237702833"><ele>344.0</ele><time>2026-03-29T08:20:15.999Z</time></trkpt><trkpt lat="42.117243183472986" lon="11.961076986932712"><ele>344.0</ele><time>2026-03-29T08:20:16.999Z</time></trkpt><trkpt lat="42.11725146184561" lon="11.960965580688814"><ele>344.0</ele><time>2026-03-29T08:20:17.999Z</time></trkpt><trkpt lat="42.11724365716283" lon="11.96086416373532"><ele>344.0</ele><time>2026-03-29T08:20:18.999Z</time></trkpt><trkpt lat="42.117227788067765" lon="11.96077020854818"><ele>345.79999999999995</ele><time>2026-03-29T08:20:19.999Z</time></trkpt><trkpt lat="42.117182880419236" lon="11.960657091229493"><ele>347.59999999999997</ele><time>2026-03-29T08:20:20.999Z</time></trkpt><trkpt lat="42.117141443954246" lon="11.960574335963628"><ele>349.4</ele><time>2026-03-29T08:20:21.999Z</time></trkpt><trkpt lat="42.117094016929414" lon="11.960454760052244"><ele>351.2</ele><time>2026-03-29T08:20:22.999Z</time></trkpt><trkpt lat="42.11704927228916" lon="11.960333295738593"><ele>353.0</ele><time>2026-03-29T08:20:23.999Z</time></trkpt><trkpt lat="42.11700410025016" lon="11.960218227726822"><ele>353.0</ele><time>2026-03-29T08:20:24.999Z</time></trkpt><trkpt lat="42.116940891983084" lon="11.96013599609586"><ele>353.0</ele><time>2026-03-29T08:20:25.999Z</time></trkpt><trkpt lat="42.11687716141919" lon="11.960050063297816"><ele>353.0</ele><time>2026-03-29T08:20:26.999Z</time></trkpt><trkpt lat="42.116799621907546" lon="11.95999787140728"><ele>353.0</ele><time>2026-03-29T08:20:27.999Z</time></trkpt><trkpt lat="42.11667961758581" lon="11.959993452525577"><ele>353.0</ele><time>2026-03-29T08:20:29.999Z</time></trkpt><trkpt lat="42.11657152390994" lon="11.960004639255008"><ele>352.83333333333337</ele><time>2026-03-29T08:20:31.999Z</time></trkpt><trkpt lat="42.1164884948343" lon="11.96000264191233"><ele>352.6666666666667</ele><time>2026-03-29T08:20:33.999Z</time></trkpt><trkpt lat="42.116417304046664" lon="11.959982235127132"><ele>352.5</ele><time>2026-03-29T08:20:35.999Z</time></trkpt><trkpt lat="42.1163556520056" lon="11.959923826389652"><ele>352.3333333333333</ele><time>2026-03-29T08:20:37.999Z</time></trkpt><trkpt lat="42.11633183405056" lon="11.959831618745332"><ele>352.16666666666663</ele><time>2026-03-29T08:20:39.999Z</time></trkpt><trkpt lat="42.11634578572185" lon="11.959704289482888"><ele>352.0</ele><time>2026-03-29T08:20:41.999Z</time></trkpt><trkpt lat="42.11637192224909" lon="11.959545089124012"><ele>352.0</ele><time>2026-03-29T08:20:43.999Z</time></trkpt><trkpt lat="42.116445635803224" lon="11.959408518226596"><ele>352.0</ele><time>2026-03-29T08:20:45.999Z</time></trkpt><trkpt lat="42.11648856073019" lon="11.959329178345659"><ele>352.0</ele><time>2026-03-29T08:20:46.999Z</time></trkpt><trkpt lat="42.116542783285745" lon="11.95924770259789"><ele>352.0</ele><time>2026-03-29T08:20:47.999Z</time></trkpt><trkpt lat="42.116611887321504" lon="11.959165633197475"><ele>352.0</ele><time>2026-03-29T08:20:48.999Z</time></trkpt><trkpt lat="42.11667115525091" lon="11.959087713637366"><ele>354.20000000000005</ele><time>2026-03-29T08:20:49.999Z</time></trkpt><trkpt lat="42.116730066303035" lon="11.959020967726191"><ele>356.4</ele><time>2026-03-29T08:20:50.999Z</time></trkpt><trkpt lat="42.11677336409725" lon="11.958897423769175"><ele>358.6</ele><time>2026-03-29T08:20:51.999Z</time></trkpt><trkpt lat="42.116808140738584" lon="11.958802427843578"><ele>360.79999999999995</ele><time>2026-03-29T08:20:52.999Z</time></trkpt><trkpt lat="42.11689152895022" lon="11.958657288902144"><ele>363.0</ele><time>2026-03-29T08:20:54.999Z</time></trkpt><trkpt lat="42.11693060356247" lon="11.95857888643857"><ele>362.99999999999994</ele><time>2026-03-29T08:20:55.999Z</time></trkpt><trkpt lat="42.11695378708638" lon="11.95848737853157"><ele>363.0</ele><time>2026-03-29T08:20:56.999Z</time></trkpt><trkpt lat="42.11697764149431" lon="11.95840840733473"><ele>363.0</ele><time>2026-03-29T08:20:57.999Z</time></trkpt><trkpt lat="42.11701709712546" lon="11.958322202418744"><ele>363.0</ele><time>2026-03-29T08:20:58.999Z</time></trkpt><trkpt lat="42.117070132821965" lon="11.958259653412938"><ele>363.0</ele><time>2026-03-29T08:20:59.999Z</time></trkpt><trkpt lat="42.117115198760274" lon="11.95818182948601"><ele>362.99999999999994</ele><time>2026-03-29T08:21:00.999Z</time></trkpt><trkpt lat="42.117166168900134" lon="11.958115708725764"><ele>363.0</ele><time>2026-03-29T08:21:01.999Z</time></trkpt><trkpt lat="42.11721791038996" lon="11.958032192616862"><ele>361.8333333333333</ele><time>2026-03-29T08:21:02.999Z</time></trkpt><trkpt lat="42.11725073311904" lon="11.957922774989095"><ele>360.6666666666667</ele><time>2026-03-29T08:21:03.999Z</time></trkpt><trkpt lat="42.11727817006497" lon="11.957826143615248"><ele>359.5</ele><time>2026-03-29T08:21:04.999Z</time></trkpt><trkpt lat="42.11728257854326" lon="11.957710252865558"><ele>358.33333333333337</ele><time>2026-03-29T08:21:05.999Z</time></trkpt><trkpt lat="42.117304040459636" lon="11.95760005756512"><ele>357.1666666666667</ele><time>2026-03-29T08:21:06.999Z</time></trkpt><trkpt lat="42.117327915364186" lon="11.957476264381937"><ele>356.0</ele><time>2026-03-29T08:21:07.999Z</time></trkpt><trkpt lat="42.117345119341316" lon="11.957343454180128"><ele>355.83333333333337</ele><time>2026-03-29T08:21:08.999Z</time></trkpt><trkpt lat="42.11736270453421" lon="11.957226645431927"><ele>355.6666666666667</ele><time>2026-03-29T08:21:09.999Z</time></trkpt><trkpt lat="42.1173766862519" lon="11.957105885835563"><ele>355.5</ele><time>2026-03-29T08:21:10.999Z</time></trkpt><trkpt lat="42.11738654619805" lon="11.956992487000516"><ele>355.3333333333333</ele><time>2026-03-29T08:21:11.999Z</time></trkpt><trkpt lat="42.11739551668418" lon="11.956880355294064"><ele>355.16666666666663</ele><time>2026-03-29T08:21:12.999Z</time></trkpt><trkpt lat="42.11741514594208" lon="11.956760673704915"><ele>355.0</ele><time>2026-03-29T08:21:13.999Z</time></trkpt><trkpt lat="42.11744408517248" lon="11.956638167747816"><ele>356.2</ele><time>2026-03-29T08:21:14.999Z</time></trkpt><trkpt lat="42.117480168289376" lon="11.956513034910271"><ele>357.4</ele><time>2026-03-29T08:21:15.999Z</time></trkpt><trkpt lat="42.11752076026226" lon="11.956410128155413"><ele>358.6</ele><time>2026-03-29T08:21:17Z</time></trkpt><trkpt lat="42.11755358062312" lon="11.956284626846859"><ele>359.8</ele><time>2026-03-29T08:21:18Z</time></trkpt><trkpt lat="42.117599448687265" lon="11.956165830338648"><ele>361.0</ele><time>2026-03-29T08:21:19Z</time></trkpt><trkpt lat="42.1176471544621" lon="11.956040246044767"><ele>361.0</ele><time>2026-03-29T08:21:20Z</time></trkpt><trkpt lat="42.11768764682878" lon="11.95591700272897"><ele>361.0</ele><time>2026-03-29T08:21:21Z</time></trkpt><trkpt lat="42.117722485079824" lon="11.955802150084816"><ele>361.0</ele><time>2026-03-29T08:21:22Z</time></trkpt><trkpt lat="42.11775824920749" lon="11.955683100501961"><ele>361.0</ele><time>2026-03-29T08:21:23Z</time></trkpt><trkpt lat="42.117797815751416" lon="11.955563389640496"><ele>361.0</ele><time>2026-03-29T08:21:24Z</time></trkpt><trkpt lat="42.11784096887582" lon="11.95546119205323"><ele>361.16666666666663</ele><time>2026-03-29T08:21:25Z</time></trkpt><trkpt lat="42.11789232862577" lon="11.955388203779117"><ele>361.3333333333333</ele><time>2026-03-29T08:21:26Z</time></trkpt><trkpt lat="42.1179396910295" lon="11.955288519752111"><ele>361.5</ele><time>2026-03-29T08:21:27Z</time></trkpt><trkpt lat="42.11798118463539" lon="11.955216282126006"><ele>361.6666666666667</ele><time>2026-03-29T08:21:28Z</time></trkpt><trkpt lat="42.11806853577556" lon="11.955174217849622"><ele>361.83333333333337</ele><time>2026-03-29T08:21:30Z</time></trkpt><trkpt lat="42.11813529742033" lon="11.955150618029208"><ele>362.0</ele><time>2026-03-29T08:21:38Z</time></trkpt><trkpt lat="42.118199727258826" lon="11.955157022606365"><ele>361.6</ele><time>2026-03-29T08:21:53Z</time></trkpt><trkpt lat="42.1182465912313" lon="11.955073506703343"><ele>361.20000000000005</ele><time>2026-03-29T08:22:12Z</time></trkpt><trkpt lat="42.118244537917406" lon="11.954916857885644"><ele>360.8</ele><time>2026-03-29T08:22:16Z</time></trkpt><trkpt lat="42.11821744875144" lon="11.954836410578814"><ele>360.4</ele><time>2026-03-29T08:22:17Z</time></trkpt><trkpt lat="42.118164709002166" lon="11.954691992936434"><ele>360.0</ele><time>2026-03-29T08:22:18.999Z</time></trkpt><trkpt lat="42.11814372097183" lon="11.954578486514496"><ele>360.5</ele><time>2026-03-29T08:22:19.999Z</time></trkpt><trkpt lat="42.11814773474412" lon="11.954488393062631"><ele>361.0</ele><time>2026-03-29T08:22:20.999Z</time></trkpt><trkpt lat="42.11813201382311" lon="11.95437096650876"><ele>361.5</ele><time>2026-03-29T08:22:21.999Z</time></trkpt><trkpt lat="42.11814110809058" lon="11.954257207566865"><ele>362.0</ele><time>2026-03-29T08:22:22.999Z</time></trkpt><trkpt lat="42.11812773615787" lon="11.954139688637817"><ele>362.5</ele><time>2026-03-29T08:22:23.999Z</time></trkpt><trkpt lat="42.11811685732403" lon="11.954025333359153"><ele>363.0</ele><time>2026-03-29T08:22:24.999Z</time></trkpt><trkpt lat="42.11811838919529" lon="11.95390250402922"><ele>363.0</ele><time>2026-03-29T08:22:25.999Z</time></trkpt><trkpt lat="42.11815112719318" lon="11.953786617781752"><ele>363.0</ele><time>2026-03-29T08:22:26.999Z</time></trkpt><trkpt lat="42.11815346932066" lon="11.953678243693707"><ele>363.0</ele><time>2026-03-29T08:22:27.999Z</time></trkpt><trkpt lat="42.11814907251422" lon="11.953578693605873"><ele>363.0</ele><time>2026-03-29T08:22:28.999Z</time></trkpt><trkpt lat="42.118172298233745" lon="11.9534949254366"><ele>363.0</ele><time>2026-03-29T08:22:29.999Z</time></trkpt><trkpt lat="42.11821380220045" lon="11.9534131598779"><ele>363.0</ele><time>2026-03-29T08:22:30.999Z</time></trkpt><trkpt lat="42.11828084442402" lon="11.9533373798599"><ele>362.4</ele><time>2026-03-29T08:22:31.999Z</time></trkpt><trkpt lat="42.118356041766994" lon="11.953287468332292"><ele>361.79999999999995</ele><time>2026-03-29T08:22:32.999Z</time></trkpt><trkpt lat="42.118412657991826" lon="11.953221140351639"><ele>361.2</ele><time>2026-03-29T08:22:33.999Z</time></trkpt><trkpt lat="42.11850516715228" lon="11.95317063920846"><ele>360.6</ele><time>2026-03-29T08:22:34.999Z</time></trkpt><trkpt lat="42.11860197674977" lon="11.95317568516724"><ele>360.0</ele><time>2026-03-29T08:22:35.999Z</time></trkpt><trkpt lat="42.11871478576268" lon="11.953204044653424"><ele>360.0</ele><time>2026-03-29T08:22:36.999Z</time></trkpt><trkpt lat="42.118786780163596" lon="11.953190490285385"><ele>360.0</ele><time>2026-03-29T08:22:37.999Z</time></trkpt><trkpt lat="42.11886912984544" lon="11.953163873832022"><ele>360.0</ele><time>2026-03-29T08:22:38.999Z</time></trkpt><trkpt lat="42.11894877815423" lon="11.953151062554719"><ele>360.0</ele><time>2026-03-29T08:22:39.999Z</time></trkpt><trkpt lat="42.11903521623479" lon="11.953105372056172"><ele>360.0</ele><time>2026-03-29T08:22:40.999Z</time></trkpt><trkpt lat="42.11909885920381" lon="11.953067670728554"><ele>360.0</ele><time>2026-03-29T08:22:41.999Z</time></trkpt><trkpt lat="42.119155650068485" lon="11.953001230628551"><ele>360.0</ele><time>2026-03-29T08:22:42.999Z</time></trkpt><trkpt lat="42.11917213162991" lon="11.952812443760028"><ele>360.0</ele><time>2026-03-29T08:22:44.999Z</time></trkpt><trkpt lat="42.11911026252607" lon="11.952660272778214"><ele>360.0</ele><time>2026-03-29T08:22:45.999Z</time></trkpt><trkpt lat="42.119069142999265" lon="11.952576707217958"><ele>360.0</ele><time>2026-03-29T08:22:46.999Z</time></trkpt><trkpt lat="42.118985156932254" lon="11.952447813582518"><ele>360.0</ele><time>2026-03-29T08:22:47.999Z</time></trkpt><trkpt lat="42.11892156902524" lon="11.952343157618767"><ele>360.0</ele><time>2026-03-29T08:22:48.999Z</time></trkpt><trkpt lat="42.1188741614167" lon="11.952258167940998"><ele>360.0</ele><time>2026-03-29T08:22:49.999Z</time></trkpt><trkpt lat="42.118819481624094" lon="11.952158003971732"><ele>360.0</ele><time>2026-03-29T08:22:50.999Z</time></trkpt><trkpt lat="42.11875085995606" lon="11.95205647929479"><ele>360.0</ele><time>2026-03-29T08:22:51.999Z</time></trkpt><trkpt lat="42.118689248384854" lon="11.95198550107337"><ele>360.0</ele><time>2026-03-29T08:22:52.999Z</time></trkpt><trkpt lat="42.11861915056884" lon="11.951922841821636"><ele>360.0</ele><time>2026-03-29T08:22:53.999Z</time></trkpt><trkpt lat="42.118552760576044" lon="11.951855477200397"><ele>360.0</ele><time>2026-03-29T08:22:54.999Z</time></trkpt><trkpt lat="42.11847568746198" lon="11.951808053861221"><ele>360.0</ele><time>2026-03-29T08:22:55.999Z</time></trkpt><trkpt lat="42.1183987966095" lon="11.951754879976441"><ele>360.0</ele><time>2026-03-29T08:22:56.999Z</time></trkpt><trkpt lat="42.11830548531472" lon="11.951751453576374"><ele>360.0</ele><time>2026-03-29T08:22:57.999Z</time></trkpt><trkpt lat="42.11822506583057" lon="11.951711875270684"><ele>359.8</ele><time>2026-03-29T08:22:58.999Z</time></trkpt><trkpt lat="42.11816227681834" lon="11.95169997002272"><ele>359.6</ele><time>2026-03-29T08:22:59.999Z</time></trkpt><trkpt lat="42.118088117792944" lon="11.951671481612944"><ele>359.4</ele><time>2026-03-29T08:23:00.999Z</time></trkpt><trkpt lat="42.11798573516068" lon="11.951654904197225"><ele>359.2</ele><time>2026-03-29T08:23:01.999Z</time></trkpt><trkpt lat="42.11785986104571" lon="11.951660899341348"><ele>359.0</ele><time>2026-03-29T08:23:02.999Z</time></trkpt><trkpt lat="42.117760084381956" lon="11.95162566325134"><ele>359.0</ele><time>2026-03-29T08:23:03.999Z</time></trkpt><trkpt lat="42.11767314060966" lon="11.951587795323494"><ele>359.0</ele><time>2026-03-29T08:23:04.999Z</time></trkpt><trkpt lat="42.11758580676407" lon="11.951550312970015"><ele>359.0</ele><time>2026-03-29T08:23:05.999Z</time></trkpt><trkpt lat="42.11748608818932" lon="11.951421667084404"><ele>359.0</ele><time>2026-03-29T08:23:07.999Z</time></trkpt><trkpt lat="42.11749114157134" lon="11.951309388414169"><ele>359.0</ele><time>2026-03-29T08:23:08.999Z</time></trkpt><trkpt lat="42.11749574549691" lon="11.951186321046428"><ele>359.0</ele><time>2026-03-29T08:23:09.999Z</time></trkpt><trkpt lat="42.117508078270646" lon="11.951073184356398"><ele>359.0</ele><time>2026-03-29T08:23:10.999Z</time></trkpt><trkpt lat="42.11752196703376" lon="11.950956781951207"><ele>359.0</ele><time>2026-03-29T08:23:11.999Z</time></trkpt><trkpt lat="42.11753008522118" lon="11.950836026559712"><ele>359.0</ele><time>2026-03-29T08:23:12.999Z</time></trkpt><trkpt lat="42.117523342001185" lon="11.950703861335118"><ele>359.0</ele><time>2026-03-29T08:23:14.999Z</time></trkpt><trkpt lat="42.11743453751" lon="11.95063193223247"><ele>359.2</ele><time>2026-03-29T08:23:16.999Z</time></trkpt><trkpt lat="42.11734917437059" lon="11.95057608794394"><ele>359.4</ele><time>2026-03-29T08:23:18.999Z</time></trkpt><trkpt lat="42.11724430365837" lon="11.950558108575311"><ele>359.6</ele><time>2026-03-29T08:23:20.999Z</time></trkpt><trkpt lat="42.11707242094558" lon="11.95059076286243"><ele>359.8</ele><time>2026-03-29T08:23:21.999Z</time></trkpt><trkpt lat="42.11700577011355" lon="11.950582794253828"><ele>360.0</ele><time>2026-03-29T08:23:23Z</time></trkpt><trkpt lat="42.1169151250504" lon="11.95056325836986"><ele>360.0</ele><time>2026-03-29T08:23:24Z</time></trkpt><trkpt lat="42.1168236326519" lon="11.950548618114182"><ele>360.0</ele><time>2026-03-29T08:23:25Z</time></trkpt><trkpt lat="42.11673069208604" lon="11.950522361023628"><ele>360.0</ele><time>2026-03-29T08:23:26Z</time></trkpt><trkpt lat="42.116631792531656" lon="11.950495923912449"><ele>360.0</ele><time>2026-03-29T08:23:27Z</time></trkpt><trkpt lat="42.116525660230984" lon="11.950478159260717"><ele>360.0</ele><time>2026-03-29T08:23:28Z</time></trkpt><trkpt lat="42.11643096045115" lon="11.950475862884911"><ele>359.8333333333333</ele><time>2026-03-29T08:23:29Z</time></trkpt><trkpt lat="42.11633389081052" lon="11.950472980362466"><ele>359.6666666666667</ele><time>2026-03-29T08:23:30Z</time></trkpt><trkpt lat="42.11625311272927" lon="11.950464038251695"><ele>359.5</ele><time>2026-03-29T08:23:31Z</time></trkpt><trkpt lat="42.116169220542254" lon="11.950462833102574"><ele>359.33333333333337</ele><time>2026-03-29T08:23:32Z</time></trkpt><trkpt lat="42.11609718539649" lon="11.950478768259579"><ele>359.1666666666667</ele><time>2026-03-29T08:23:33Z</time></trkpt><trkpt lat="42.11601606214894" lon="11.950478310138058"><ele>359.0</ele><time>2026-03-29T08:23:34Z</time></trkpt><trkpt lat="42.11594843943739" lon="11.950442041066173"><ele>359.0</ele><time>2026-03-29T08:23:35Z</time></trkpt><trkpt lat="42.11587350177508" lon="11.950408047919252"><ele>359.0</ele><time>2026-03-29T08:23:36Z</time></trkpt><trkpt lat="42.11578390119157" lon="11.95038028164522"><ele>359.0</ele><time>2026-03-29T08:23:37Z</time></trkpt><trkpt lat="42.11570381087761" lon="11.950356989693423"><ele>359.0</ele><time>2026-03-29T08:23:38Z</time></trkpt><trkpt lat="42.11561921856506" lon="11.950313896802665"><ele>359.0</ele><time>2026-03-29T08:23:39Z</time></trkpt><trkpt lat="42.11553300273869" lon="11.950279999832745"><ele>359.0</ele><time>2026-03-29T08:23:40Z</time></trkpt><trkpt lat="42.1154608131066" lon="11.950221103148154"><ele>358.0</ele><time>2026-03-29T08:23:41Z</time></trkpt><trkpt lat="42.11541973052809" lon="11.950084215700493"><ele>357.0</ele><time>2026-03-29T08:23:43Z</time></trkpt><trkpt lat="42.11544332224221" lon="11.949991271483482"><ele>356.0</ele><time>2026-03-29T08:23:44Z</time></trkpt><trkpt lat="42.11547384854524" lon="11.94990270156192"><ele>355.0</ele><time>2026-03-29T08:23:45Z</time></trkpt><trkpt lat="42.11550342586222" lon="11.949790017284537"><ele>354.0</ele><time>2026-03-29T08:23:46Z</time></trkpt><trkpt lat="42.11553724743501" lon="11.949634387828958"><ele>354.0</ele><time>2026-03-29T08:23:47Z</time></trkpt><trkpt lat="42.11557699690179" lon="11.949490736163765"><ele>354.0</ele><time>2026-03-29T08:23:48Z</time></trkpt><trkpt lat="42.115609602404646" lon="11.949348535284045"><ele>354.0</ele><time>2026-03-29T08:23:49Z</time></trkpt><trkpt lat="42.11562804515156" lon="11.949200907496454"><ele>354.0</ele><time>2026-03-29T08:23:50Z</time></trkpt><trkpt lat="42.11563191567679" lon="11.949082724658743"><ele>354.0</ele><time>2026-03-29T08:23:51Z</time></trkpt><trkpt lat="42.11563427443352" lon="11.948913140490893"><ele>355.6666666666667</ele><time>2026-03-29T08:23:53Z</time></trkpt><trkpt lat="42.115616193084456" lon="11.9488132675858"><ele>357.3333333333333</ele><time>2026-03-29T08:23:54Z</time></trkpt><trkpt lat="42.11557227107063" lon="11.948666330976762"><ele>359.0</ele><time>2026-03-29T08:23:56Z</time></trkpt><trkpt lat="42.11553673641889" lon="11.94857628848284"><ele>360.66666666666663</ele><time>2026-03-29T08:23:57Z</time></trkpt><trkpt lat="42.11549974096129" lon="11.948475037550757"><ele>362.3333333333333</ele><time>2026-03-29T08:23:58Z</time></trkpt><trkpt lat="42.11546628599617" lon="11.948375806103405"><ele>364.0</ele><time>2026-03-29T08:23:59Z</time></trkpt><trkpt lat="42.11538217614992" lon="11.948238032009318"><ele>365.0</ele><time>2026-03-29T08:24:01Z</time></trkpt><trkpt lat="42.11534058719563" lon="11.948145886900745"><ele>366.0</ele><time>2026-03-29T08:24:02Z</time></trkpt><trkpt lat="42.11529519474836" lon="11.948041355727842"><ele>367.0</ele><time>2026-03-29T08:24:03Z</time></trkpt><trkpt lat="42.115257285196826" lon="11.947917593334713"><ele>368.0</ele><time>2026-03-29T08:24:04Z</time></trkpt><trkpt lat="42.115223512504606" lon="11.947789314483325"><ele>369.0</ele><time>2026-03-29T08:24:05Z</time></trkpt><trkpt lat="42.1151961233287" lon="11.947667718064015"><ele>369.0</ele><time>2026-03-29T08:24:06Z</time></trkpt><trkpt lat="42.11515477906428" lon="11.947554565000656"><ele>369.0</ele><time>2026-03-29T08:24:07Z</time></trkpt><trkpt lat="42.11510769738389" lon="11.947472452630633"><ele>369.0</ele><time>2026-03-29T08:24:08Z</time></trkpt><trkpt lat="42.115056923779214" lon="11.947402018262279"><ele>369.0</ele><time>2026-03-29T08:24:09Z</time></trkpt><trkpt lat="42.11500437107761" lon="11.947343148902537"><ele>369.0</ele><time>2026-03-29T08:24:10Z</time></trkpt><trkpt lat="42.11497989960191" lon="11.947246231000985"><ele>369.0</ele><time>2026-03-29T08:24:11Z</time></trkpt><trkpt lat="42.11494321193205" lon="11.947154044411779"><ele>369.3333333333333</ele><time>2026-03-29T08:24:12Z</time></trkpt><trkpt lat="42.11492448420814" lon="11.947058567650169"><ele>369.6666666666667</ele><time>2026-03-29T08:24:13Z</time></trkpt><trkpt lat="42.11490887856268" lon="11.946949831282748"><ele>370.0</ele><time>2026-03-29T08:24:14Z</time></trkpt><trkpt lat="42.114866654314305" lon="11.946845797498508"><ele>370.33333333333337</ele><time>2026-03-29T08:24:15Z</time></trkpt><trkpt lat="42.11480960489342" lon="11.94678357447869"><ele>370.6666666666667</ele><time>2026-03-29T08:24:16Z</time></trkpt><trkpt lat="42.11475329690499" lon="11.946664016342645"><ele>371.0</ele><time>2026-03-29T08:24:17Z</time></trkpt><trkpt lat="42.11472174669772" lon="11.946582864193722"><ele>369.14285714285717</ele><time>2026-03-29T08:24:18Z</time></trkpt><trkpt lat="42.114700928382724" lon="11.946491565679015"><ele>367.2857142857143</ele><time>2026-03-29T08:24:19Z</time></trkpt><trkpt lat="42.114671728221865" lon="11.946408213289624"><ele>365.42857142857144</ele><time>2026-03-29T08:24:20Z</time></trkpt><trkpt lat="42.114628644451514" lon="11.946324715489345"><ele>363.57142857142856</ele><time>2026-03-29T08:24:21Z</time></trkpt><trkpt lat="42.11460764494064" lon="11.9462371106829"><ele>361.7142857142857</ele><time>2026-03-29T08:24:21.999Z</time></trkpt><trkpt lat="42.11458409297848" lon="11.946145995687248"><ele>359.8571428571429</ele><time>2026-03-29T08:24:22.999Z</time></trkpt><trkpt lat="42.11457767527146" lon="11.946037473760086"><ele>358.0</ele><time>2026-03-29T08:24:23.999Z</time></trkpt><trkpt lat="42.11460250927094" lon="11.945938568435825"><ele>358.8333333333333</ele><time>2026-03-29T08:24:24.999Z</time></trkpt><trkpt lat="42.114637095410686" lon="11.945836295294283"><ele>359.66666666666663</ele><time>2026-03-29T08:24:25.999Z</time></trkpt><trkpt lat="42.114649243914705" lon="11.945711606004657"><ele>360.5</ele><time>2026-03-29T08:24:26.999Z</time></trkpt><trkpt lat="42.11465511164614" lon="11.945605503499563"><ele>361.3333333333333</ele><time>2026-03-29T08:24:27.999Z</time></trkpt><trkpt lat="42.11466725303568" lon="11.94550146483435"><ele>362.1666666666667</ele><time>2026-03-29T08:24:28.999Z</time></trkpt><trkpt lat="42.11467438437676" lon="11.94540073094176"><ele>363.0</ele><time>2026-03-29T08:24:29.999Z</time></trkpt><trkpt lat="42.11467944844043" lon="11.945308635323222"><ele>363.0</ele><time>2026-03-29T08:24:30.999Z</time></trkpt><trkpt lat="42.114693301901106" lon="11.945130929126229"><ele>363.0</ele><time>2026-03-29T08:24:32.999Z</time></trkpt><trkpt lat="42.114720193348305" lon="11.945036244761456"><ele>363.0</ele><time>2026-03-29T08:24:33.999Z</time></trkpt><trkpt lat="42.114748512933105" lon="11.944934942987675"><ele>363.0</ele><time>2026-03-29T08:24:34.999Z</time></trkpt><trkpt lat="42.11472534836065" lon="11.944835259672956"><ele>363.0</ele><time>2026-03-29T08:24:36.999Z</time></trkpt><trkpt lat="42.114657856155446" lon="11.944822058136927"><ele>363.0</ele><time>2026-03-29T08:24:38.999Z</time></trkpt><trkpt lat="42.114585493125446" lon="11.944889409021615"><ele>365.2</ele><time>2026-03-29T08:24:39.999Z</time></trkpt><trkpt lat="42.114484539921555" lon="11.94491992029698"><ele>367.4</ele><time>2026-03-29T08:24:41.999Z</time></trkpt><trkpt lat="42.114474507427815" lon="11.944788530159725"><ele>369.59999999999997</ele><time>2026-03-29T08:24:43.999Z</time></trkpt><trkpt lat="42.11450677614789" lon="11.944605709128837"><ele>371.79999999999995</ele><time>2026-03-29T08:24:45.999Z</time></trkpt><trkpt lat="42.11451638500064" lon="11.94450360027982"><ele>374.0</ele><time>2026-03-29T08:24:46.999Z</time></trkpt><trkpt lat="42.11451709353291" lon="11.944399157792393"><ele>374.0</ele><time>2026-03-29T08:24:47.999Z</time></trkpt><trkpt lat="42.11451445432225" lon="11.944269717895919"><ele>374.0</ele><time>2026-03-29T08:24:48.999Z</time></trkpt><trkpt lat="42.11452621896265" lon="11.944171590608649"><ele>374.0</ele><time>2026-03-29T08:24:49.999Z</time></trkpt><trkpt lat="42.1145292803343" lon="11.944080819393475"><ele>374.0</ele><time>2026-03-29T08:24:50.999Z</time></trkpt><trkpt lat="42.11451155675521" lon="11.94390687085472"><ele>374.0</ele><time>2026-03-29T08:24:52.999Z</time></trkpt><trkpt lat="42.11452283616284" lon="11.943801423161698"><ele>374.0</ele><time>2026-03-29T08:24:53.999Z</time></trkpt><trkpt lat="42.11454879928554" lon="11.943643173498229"><ele>376.1666666666667</ele><time>2026-03-29T08:24:55.999Z</time></trkpt><trkpt lat="42.114545114149095" lon="11.943517614420726"><ele>378.33333333333337</ele><time>2026-03-29T08:24:57.999Z</time></trkpt><trkpt lat="42.114534098925766" lon="11.94339683970752"><ele>380.5</ele><time>2026-03-29T08:24:59.999Z</time></trkpt><trkpt lat="42.11454603147907" lon="11.943284512404107"><ele>382.6666666666667</ele><time>2026-03-29T08:25:01.999Z</time></trkpt><trkpt lat="42.11454054505581" lon="11.943185041916378"><ele>384.8333333333333</ele><time>2026-03-29T08:25:03.999Z</time></trkpt><trkpt lat="42.114483224397596" lon="11.943107861054424"><ele>387.0</ele><time>2026-03-29T08:25:05.999Z</time></trkpt><trkpt lat="42.11441647612646" lon="11.943028890938526"><ele>389.40000000000003</ele><time>2026-03-29T08:25:07.999Z</time></trkpt><trkpt lat="42.11439948099523" lon="11.942893385935667"><ele>391.8</ele><time>2026-03-29T08:25:09.999Z</time></trkpt><trkpt lat="42.1144400170033" lon="11.942757098071832"><ele>394.2</ele><time>2026-03-29T08:25:11.999Z</time></trkpt><trkpt lat="42.114470168865694" lon="11.942670524626804"><ele>396.6</ele><time>2026-03-29T08:25:12.999Z</time></trkpt><trkpt lat="42.114442048767316" lon="11.942547848914591"><ele>399.0</ele><time>2026-03-29T08:25:14.999Z</time></trkpt><trkpt lat="42.11434772776454" lon="11.942443539763"><ele>400.1666666666667</ele><time>2026-03-29T08:25:16.999Z</time></trkpt><trkpt lat="42.11429924107273" lon="11.94238241503215"><ele>401.33333333333337</ele><time>2026-03-29T08:25:17.999Z</time></trkpt><trkpt lat="42.114239254442566" lon="11.942277977384899"><ele>402.5</ele><time>2026-03-29T08:25:19.999Z</time></trkpt><trkpt lat="42.11420767191914" lon="11.94215103330015"><ele>403.6666666666667</ele><time>2026-03-29T08:25:21.999Z</time></trkpt><trkpt lat="42.11424716451199" lon="11.942072411033463"><ele>404.83333333333337</ele><time>2026-03-29T08:25:22.999Z</time></trkpt><trkpt lat="42.1142955005008" lon="11.941985544954083"><ele>406.0</ele><time>2026-03-29T08:25:23.999Z</time></trkpt><trkpt lat="42.11433422282271" lon="11.941876593697344"><ele>406.00000000000006</ele><time>2026-03-29T08:25:24.999Z</time></trkpt><trkpt lat="42.11436350645322" lon="11.94176990629365"><ele>406.0</ele><time>2026-03-29T08:25:25.999Z</time></trkpt><trkpt lat="42.11438362898268" lon="11.94166718787542"><ele>406.0</ele><time>2026-03-29T08:25:26.999Z</time></trkpt><trkpt lat="42.11439055790093" lon="11.941548543480927"><ele>406.0</ele><time>2026-03-29T08:25:27.999Z</time></trkpt><trkpt lat="42.114392330467595" lon="11.941425011241098"><ele>406.00000000000006</ele><time>2026-03-29T08:25:29Z</time></trkpt><trkpt lat="42.11437768050622" lon="11.9412917674928"><ele>406.0</ele><time>2026-03-29T08:25:30Z</time></trkpt><trkpt lat="42.114361554648106" lon="11.94116158813982"><ele>405.8</ele><time>2026-03-29T08:25:31Z</time></trkpt><trkpt lat="42.114339074782166" lon="11.94102091882921"><ele>405.6</ele><time>2026-03-29T08:25:32Z</time></trkpt><trkpt lat="42.114317614090744" lon="11.940888115032168"><ele>405.4</ele><time>2026-03-29T08:25:33Z</time></trkpt><trkpt lat="42.11428970421686" lon="11.940775908630595"><ele>405.2</ele><time>2026-03-29T08:25:34Z</time></trkpt><trkpt lat="42.11425022727728" lon="11.9406733391564"><ele>405.0</ele><time>2026-03-29T08:25:35Z</time></trkpt><trkpt lat="42.11420385476914" lon="11.940588737288257"><ele>405.0</ele><time>2026-03-29T08:25:36Z</time></trkpt><trkpt lat="42.11417531494274" lon="11.940480789794396"><ele>405.0</ele><time>2026-03-29T08:25:37Z</time></trkpt><trkpt lat="42.11413806012103" lon="11.940385315839004"><ele>405.0</ele><time>2026-03-29T08:25:38Z</time></trkpt><trkpt lat="42.11408492800202" lon="11.940304675403276"><ele>405.0</ele><time>2026-03-29T08:25:39Z</time></trkpt><trkpt lat="42.114039764433464" lon="11.940221256221012"><ele>405.0</ele><time>2026-03-29T08:25:40Z</time></trkpt><trkpt lat="42.114020202972405" lon="11.940117305646769"><ele>405.0</ele><time>2026-03-29T08:25:41Z</time></trkpt><trkpt lat="42.114006116057" lon="11.940011993238011"><ele>403.71428571428567</ele><time>2026-03-29T08:25:42Z</time></trkpt><trkpt lat="42.11399145576596" lon="11.939922433325073"><ele>402.42857142857144</ele><time>2026-03-29T08:25:43Z</time></trkpt><trkpt lat="42.11395771773838" lon="11.939845096450437"><ele>401.1428571428571</ele><time>2026-03-29T08:25:44Z</time></trkpt><trkpt lat="42.11392584913157" lon="11.93975789027431"><ele>399.85714285714283</ele><time>2026-03-29T08:25:45Z</time></trkpt><trkpt lat="42.11389947949362" lon="11.939661808669932"><ele>398.57142857142856</ele><time>2026-03-29T08:25:46Z</time></trkpt><trkpt lat="42.11388351826435" lon="11.939565000646102"><ele>397.2857142857143</ele><time>2026-03-29T08:25:47Z</time></trkpt><trkpt lat="42.11385720413594" lon="11.939477484678473"><ele>396.0</ele><time>2026-03-29T08:25:48Z</time></trkpt><trkpt lat="42.1137599341268" lon="11.939427104532621"><ele>396.0</ele><time>2026-03-29T08:25:50Z</time></trkpt><trkpt lat="42.113673838591765" lon="11.939424881013798"><ele>396.0</ele><time>2026-03-29T08:25:51Z</time></trkpt><trkpt lat="42.113568787510246" lon="11.939442683995058"><ele>396.0</ele><time>2026-03-29T08:25:52Z</time></trkpt><trkpt lat="42.113479933062344" lon="11.939423648241394"><ele>396.0</ele><time>2026-03-29T08:25:53Z</time></trkpt><trkpt lat="42.11338562802417" lon="11.939381798277111"><ele>396.0</ele><time>2026-03-29T08:25:54Z</time></trkpt><trkpt lat="42.113290224020005" lon="11.939322531769157"><ele>396.8</ele><time>2026-03-29T08:25:55Z</time></trkpt><trkpt lat="42.113204308216744" lon="11.939241543167828"><ele>397.6</ele><time>2026-03-29T08:25:56Z</time></trkpt><trkpt lat="42.1131158569607" lon="11.939167309857144"><ele>398.4</ele><time>2026-03-29T08:25:57Z</time></trkpt><trkpt lat="42.11302548628846" lon="11.939100636455064"><ele>399.2</ele><time>2026-03-29T08:25:58Z</time></trkpt><trkpt lat="42.11293082391828" lon="11.939031614028913"><ele>400.0</ele><time>2026-03-29T08:25:59Z</time></trkpt><trkpt lat="42.11282364546547" lon="11.938964274213168"><ele>400.0</ele><time>2026-03-29T08:26:00Z</time></trkpt><trkpt lat="42.11271005890622" lon="11.938900018631433"><ele>400.0</ele><time>2026-03-29T08:26:01Z</time></trkpt><trkpt lat="42.112616258908886" lon="11.938837854630039"><ele>400.0</ele><time>2026-03-29T08:26:02Z</time></trkpt><trkpt lat="42.11253754137472" lon="11.93876866926488"><ele>400.0</ele><time>2026-03-29T08:26:03Z</time></trkpt><trkpt lat="42.112453184919666" lon="11.938708177313536"><ele>400.0</ele><time>2026-03-29T08:26:04Z</time></trkpt><trkpt lat="42.112390634549534" lon="11.938639213680442"><ele>399.4</ele><time>2026-03-29T08:26:05Z</time></trkpt><trkpt lat="42.11233231925086" lon="11.938561205667026"><ele>398.8</ele><time>2026-03-29T08:26:06Z</time></trkpt><trkpt lat="42.11228337639273" lon="11.938454013680163"><ele>398.20000000000005</ele><time>2026-03-29T08:26:07Z</time></trkpt><trkpt lat="42.11225348402796" lon="11.938336530084262"><ele>397.6</ele><time>2026-03-29T08:26:08Z</time></trkpt><trkpt lat="42.1122296877669" lon="11.938208002413852"><ele>397.0</ele><time>2026-03-29T08:26:09Z</time></trkpt><trkpt lat="42.11226170492107" lon="11.938058180631934"><ele>397.0</ele><time>2026-03-29T08:26:10Z</time></trkpt><trkpt lat="42.112243737253024" lon="11.937914724500168"><ele>397.0</ele><time>2026-03-29T08:26:11Z</time></trkpt><trkpt lat="42.11222631815969" lon="11.93777564821241"><ele>397.0</ele><time>2026-03-29T08:26:12Z</time></trkpt><trkpt lat="42.11220451614035" lon="11.937615635588696"><ele>397.0</ele><time>2026-03-29T08:26:13Z</time></trkpt><trkpt lat="42.11218576157718" lon="11.937482819985583"><ele>397.0</ele><time>2026-03-29T08:26:14Z</time></trkpt><trkpt lat="42.11217109549197" lon="11.937360786927808"><ele>397.40000000000003</ele><time>2026-03-29T08:26:15Z</time></trkpt><trkpt lat="42.1121651435884" lon="11.937233401413614"><ele>397.8</ele><time>2026-03-29T08:26:16Z</time></trkpt><trkpt lat="42.11217928359502" lon="11.937100600536759"><ele>398.2</ele><time>2026-03-29T08:26:17Z</time></trkpt><trkpt lat="42.11220690935082" lon="11.936966880944237"><ele>398.6</ele><time>2026-03-29T08:26:18Z</time></trkpt><trkpt lat="42.112231684176905" lon="11.936815956757872"><ele>399.0</ele><time>2026-03-29T08:26:19Z</time></trkpt><trkpt lat="42.112255821799145" lon="11.936663276348591"><ele>399.2</ele><time>2026-03-29T08:26:20Z</time></trkpt><trkpt lat="42.11227540084204" lon="11.936538870303835"><ele>399.4</ele><time>2026-03-29T08:26:21Z</time></trkpt><trkpt lat="42.11227816246054" lon="11.936410603058405"><ele>399.6</ele><time>2026-03-29T08:26:22Z</time></trkpt><trkpt lat="42.11229886349245" lon="11.936294909496297"><ele>399.8</ele><time>2026-03-29T08:26:23Z</time></trkpt><trkpt lat="42.11233095936999" lon="11.93619233142318"><ele>400.0</ele><time>2026-03-29T08:26:24Z</time></trkpt><trkpt lat="42.112353638403135" lon="11.936054450373842"><ele>400.0</ele><time>2026-03-29T08:26:25Z</time></trkpt><trkpt lat="42.112371816106034" lon="11.935909146673472"><ele>400.0</ele><time>2026-03-29T08:26:26Z</time></trkpt><trkpt lat="42.112399424457415" lon="11.935763187704197"><ele>400.0</ele><time>2026-03-29T08:26:26.999Z</time></trkpt><trkpt lat="42.11242079564614" lon="11.93561407122086"><ele>400.0</ele><time>2026-03-29T08:26:27.999Z</time></trkpt><trkpt lat="42.11243824002148" lon="11.935460954884832"><ele>400.0</ele><time>2026-03-29T08:26:28.999Z</time></trkpt><trkpt lat="42.11246154920238" lon="11.935312475913403"><ele>402.8</ele><time>2026-03-29T08:26:29.999Z</time></trkpt><trkpt lat="42.112496443913315" lon="11.93518005104257"><ele>405.6</ele><time>2026-03-29T08:26:30.999Z</time></trkpt><trkpt lat="42.11251449237113" lon="11.935033563363511"><ele>408.4</ele><time>2026-03-29T08:26:31.999Z</time></trkpt><trkpt lat="42.11253728178922" lon="11.934874786461377"><ele>411.2</ele><time>2026-03-29T08:26:32.999Z</time></trkpt><trkpt lat="42.11256091152188" lon="11.934741241431983"><ele>414.0</ele><time>2026-03-29T08:26:33.999Z</time></trkpt><trkpt lat="42.112587968473264" lon="11.93460854689765"><ele>415.0</ele><time>2026-03-29T08:26:34.999Z</time></trkpt><trkpt lat="42.11261963984236" lon="11.93446255171821"><ele>416.0</ele><time>2026-03-29T08:26:35.999Z</time></trkpt><trkpt lat="42.11265478683525" lon="11.934334344067238"><ele>417.0</ele><time>2026-03-29T08:26:36.999Z</time></trkpt><trkpt lat="42.112681337290766" lon="11.934210986021812"><ele>418.0</ele><time>2026-03-29T08:26:37.999Z</time></trkpt><trkpt lat="42.11269334811801" lon="11.934079412026673"><ele>419.0</ele><time>2026-03-29T08:26:38.999Z</time></trkpt><trkpt lat="42.11272966847882" lon="11.933940023526892"><ele>419.79999999999995</ele><time>2026-03-29T08:26:39.999Z</time></trkpt><trkpt lat="42.11276030099775" lon="11.933785384025871"><ele>420.59999999999997</ele><time>2026-03-29T08:26:40.999Z</time></trkpt><trkpt lat="42.11278736118974" lon="11.933644682029735"><ele>421.4</ele><time>2026-03-29T08:26:41.999Z</time></trkpt><trkpt lat="42.112810910119734" lon="11.933522237169454"><ele>422.2</ele><time>2026-03-29T08:26:42.999Z</time></trkpt><trkpt lat="42.112839839125705" lon="11.933371818107709"><ele>423.0</ele><time>2026-03-29T08:26:43.999Z</time></trkpt><trkpt lat="42.1128721367289" lon="11.9332115068238"><ele>423.0</ele><time>2026-03-29T08:26:44.999Z</time></trkpt><trkpt lat="42.112899622654915" lon="11.93303617306079"><ele>423.0</ele><time>2026-03-29T08:26:45.999Z</time></trkpt><trkpt lat="42.112924419016494" lon="11.932868349405275"><ele>423.0</ele><time>2026-03-29T08:26:46.999Z</time></trkpt><trkpt lat="42.11295662084009" lon="11.932717809716937"><ele>423.0</ele><time>2026-03-29T08:26:47.999Z</time></trkpt><trkpt lat="42.1129981380658" lon="11.932589172916243"><ele>423.79999999999995</ele><time>2026-03-29T08:26:48.999Z</time></trkpt><trkpt lat="42.1130114328643" lon="11.932463071859857"><ele>424.6</ele><time>2026-03-29T08:26:49.999Z</time></trkpt><trkpt lat="42.113018837870804" lon="11.932336247327818"><ele>425.40000000000003</ele><time>2026-03-29T08:26:50.999Z</time></trkpt><trkpt lat="42.11310822562335" lon="11.932217811862202"><ele>426.20000000000005</ele><time>2026-03-29T08:26:51.999Z</time></trkpt><trkpt lat="42.11309046688427" lon="11.932050868003577"><ele>427.0</ele><time>2026-03-29T08:26:52.999Z</time></trkpt><trkpt lat="42.113090587515636" lon="11.931895427584372"><ele>427.00000000000006</ele><time>2026-03-29T08:26:53.999Z</time></trkpt><trkpt lat="42.11309829373847" lon="11.931753942800304"><ele>427.0</ele><time>2026-03-29T08:26:54.999Z</time></trkpt><trkpt lat="42.113103601123484" lon="11.93163406945514"><ele>427.0</ele><time>2026-03-29T08:26:55.999Z</time></trkpt><trkpt lat="42.11314384104254" lon="11.93154762366932"><ele>427.0</ele><time>2026-03-29T08:26:56.999Z</time></trkpt><trkpt lat="42.11320880546472" lon="11.93149386601113"><ele>427.00000000000006</ele><time>2026-03-29T08:26:57.999Z</time></trkpt><trkpt lat="42.11329325519997" lon="11.931521800157325"><ele>427.0</ele><time>2026-03-29T08:26:58.999Z</time></trkpt><trkpt lat="42.113381376034155" lon="11.931562117833018"><ele>431.0</ele><time>2026-03-29T08:26:59.999Z</time></trkpt><trkpt lat="42.113484023047654" lon="11.931595196628487"><ele>435.00000000000006</ele><time>2026-03-29T08:27:00.999Z</time></trkpt><trkpt lat="42.11358385134999" lon="11.931609735885965"><ele>439.00000000000006</ele><time>2026-03-29T08:27:01.999Z</time></trkpt><trkpt lat="42.11367798598036" lon="11.931602968048061"><ele>443.0</ele><time>2026-03-29T08:27:02.999Z</time></trkpt><trkpt lat="42.11375399183611" lon="11.931563268104089"><ele>447.0</ele><time>2026-03-29T08:27:03.999Z</time></trkpt><trkpt lat="42.113825818054636" lon="11.931498932023455"><ele>447.0</ele><time>2026-03-29T08:27:04.999Z</time></trkpt><trkpt lat="42.113881284938074" lon="11.931380341139748"><ele>447.0</ele><time>2026-03-29T08:27:05.999Z</time></trkpt><trkpt lat="42.11394218741273" lon="11.93125623282528"><ele>447.0</ele><time>2026-03-29T08:27:06.999Z</time></trkpt><trkpt lat="42.11400783814957" lon="11.931127195107443"><ele>447.0</ele><time>2026-03-29T08:27:07.999Z</time></trkpt><trkpt lat="42.11407861425357" lon="11.93099480300847"><ele>449.5</ele><time>2026-03-29T08:27:08.999Z</time></trkpt><trkpt lat="42.11415599550942" lon="11.930855050128985"><ele>452.0</ele><time>2026-03-29T08:27:09.999Z</time></trkpt><trkpt lat="42.11423081355369" lon="11.930723835627772"><ele>454.5</ele><time>2026-03-29T08:27:10.999Z</time></trkpt><trkpt lat="42.11430362326907" lon="11.930598163945822"><ele>457.0</ele><time>2026-03-29T08:27:11.999Z</time></trkpt><trkpt lat="42.11437767251751" lon="11.930474897589736"><ele>457.0</ele><time>2026-03-29T08:27:12.999Z</time></trkpt><trkpt lat="42.11446718915797" lon="11.930347650680185"><ele>457.0</ele><time>2026-03-29T08:27:13.999Z</time></trkpt><trkpt lat="42.11454816637807" lon="11.930223063616305"><ele>457.0</ele><time>2026-03-29T08:27:14.999Z</time></trkpt><trkpt lat="42.11462817873408" lon="11.930083915806279"><ele>457.0</ele><time>2026-03-29T08:27:15.999Z</time></trkpt><trkpt lat="42.11470639554908" lon="11.929938874078871"><ele>455.5</ele><time>2026-03-29T08:27:16.999Z</time></trkpt><trkpt lat="42.114786822075374" lon="11.929791544152621"><ele>454.0</ele><time>2026-03-29T08:27:17.999Z</time></trkpt><trkpt lat="42.11487761107069" lon="11.9296613503374"><ele>452.5</ele><time>2026-03-29T08:27:18.999Z</time></trkpt><trkpt lat="42.114934350001626" lon="11.929503939516657"><ele>451.0</ele><time>2026-03-29T08:27:19.999Z</time></trkpt><trkpt lat="42.11499866596863" lon="11.929365513299558"><ele>451.4</ele><time>2026-03-29T08:27:20.999Z</time></trkpt><trkpt lat="42.11505392139094" lon="11.92923460095801"><ele>451.8</ele><time>2026-03-29T08:27:21.999Z</time></trkpt><trkpt lat="42.1151053729541" lon="11.929121997114786"><ele>452.19999999999993</ele><time>2026-03-29T08:27:22.999Z</time></trkpt><trkpt lat="42.115186143056846" lon="11.929024121161207"><ele>452.59999999999997</ele><time>2026-03-29T08:27:23.999Z</time></trkpt><trkpt lat="42.115289586349114" lon="11.928925836484684"><ele>453.0</ele><time>2026-03-29T08:27:24.999Z</time></trkpt><trkpt lat="42.115407997635465" lon="11.928832424142835"><ele>453.0</ele><time>2026-03-29T08:27:25.999Z</time></trkpt><trkpt lat="42.1155277422903" lon="11.928740734854749"><ele>453.0</ele><time>2026-03-29T08:27:26.999Z</time></trkpt><trkpt lat="42.11562900217382" lon="11.92862483714894"><ele>453.0</ele><time>2026-03-29T08:27:27.999Z</time></trkpt><trkpt lat="42.115736767918904" lon="11.928528988536042"><ele>453.0</ele><time>2026-03-29T08:27:28.999Z</time></trkpt><trkpt lat="42.115830364554654" lon="11.928426134103802"><ele>453.0</ele><time>2026-03-29T08:27:29.999Z</time></trkpt><trkpt lat="42.115926279770626" lon="11.9282935767095"><ele>453.0</ele><time>2026-03-29T08:27:30.999Z</time></trkpt><trkpt lat="42.116036375028465" lon="11.92820112824986"><ele>453.0</ele><time>2026-03-29T08:27:31.999Z</time></trkpt><trkpt lat="42.11614345792223" lon="11.928082377396802"><ele>453.0</ele><time>2026-03-29T08:27:32.999Z</time></trkpt><trkpt lat="42.116243576567584" lon="11.927952107518177"><ele>453.0</ele><time>2026-03-29T08:27:33.999Z</time></trkpt><trkpt lat="42.11636466173473" lon="11.92786102789808"><ele>453.0</ele><time>2026-03-29T08:27:35Z</time></trkpt><trkpt lat="42.11648039848705" lon="11.927751491559672"><ele>453.0</ele><time>2026-03-29T08:27:36Z</time></trkpt><trkpt lat="42.11659159136003" lon="11.92765268311979"><ele>453.0</ele><time>2026-03-29T08:27:37Z</time></trkpt><trkpt lat="42.1166936842336" lon="11.927568892662654"><ele>452.25</ele><time>2026-03-29T08:27:38Z</time></trkpt><trkpt lat="42.11679425236128" lon="11.927477622389915"><ele>451.5</ele><time>2026-03-29T08:27:39Z</time></trkpt><trkpt lat="42.116903431545076" lon="11.927411781680862"><ele>450.75</ele><time>2026-03-29T08:27:40Z</time></trkpt><trkpt lat="42.11701596820887" lon="11.92735428924392"><ele>450.0</ele><time>2026-03-29T08:27:41Z</time></trkpt><trkpt lat="42.117119853880546" lon="11.92731017483177"><ele>450.0</ele><time>2026-03-29T08:27:42Z</time></trkpt><trkpt lat="42.11722569445631" lon="11.927273722379635"><ele>450.0</ele><time>2026-03-29T08:27:43Z</time></trkpt><trkpt lat="42.11733501709625" lon="11.927250453869528"><ele>450.0</ele><time>2026-03-29T08:27:44Z</time></trkpt><trkpt lat="42.11744875812237" lon="11.927240484434945"><ele>450.0</ele><time>2026-03-29T08:27:45Z</time></trkpt><trkpt lat="42.11757054742446" lon="11.927237077072867"><ele>450.0</ele><time>2026-03-29T08:27:46Z</time></trkpt><trkpt lat="42.1176893926029" lon="11.927253626098622"><ele>450.0</ele><time>2026-03-29T08:27:47Z</time></trkpt><trkpt lat="42.11780918284722" lon="11.92725628453214"><ele>450.0</ele><time>2026-03-29T08:27:48Z</time></trkpt><trkpt lat="42.117934423261886" lon="11.927241414732304"><ele>450.0</ele><time>2026-03-29T08:27:49Z</time></trkpt><trkpt lat="42.118051114256694" lon="11.92725475845941"><ele>450.0</ele><time>2026-03-29T08:27:50Z</time></trkpt><trkpt lat="42.118173919732875" lon="11.92724874357434"><ele>450.0</ele><time>2026-03-29T08:27:51Z</time></trkpt><trkpt lat="42.11828893211152" lon="11.927245195397441"><ele>450.0</ele><time>2026-03-29T08:27:52Z</time></trkpt><trkpt lat="42.11838238895412" lon="11.927233933226104"><ele>450.0</ele><time>2026-03-29T08:27:53Z</time></trkpt><trkpt lat="42.1184548601151" lon="11.927212466094582"><ele>450.0</ele><time>2026-03-29T08:27:54Z</time></trkpt><trkpt lat="42.11854231068272" lon="11.927192674107136"><ele>450.0</ele><time>2026-03-29T08:27:56Z</time></trkpt><trkpt lat="42.11845927050726" lon="11.926974999127651"><ele>450.0</ele><time>2026-03-29T08:27:58Z</time></trkpt><trkpt lat="42.11839387748979" lon="11.926902414683926"><ele>450.0</ele><time>2026-03-29T08:28:01Z</time></trkpt><trkpt lat="42.11832736987773" lon="11.926867382522817"><ele>450.0</ele><time>2026-03-29T08:28:03Z</time></trkpt><trkpt lat="42.11826697982704" lon="11.926819985619272"><ele>450.0</ele><time>2026-03-29T08:28:04Z</time></trkpt><trkpt lat="42.118207029311776" lon="11.926749688391784"><ele>448.2</ele><time>2026-03-29T08:28:05Z</time></trkpt><trkpt lat="42.11813911442341" lon="11.926671021241987"><ele>446.4</ele><time>2026-03-29T08:28:06Z</time></trkpt><trkpt lat="42.11807704928323" lon="11.92657765715788"><ele>444.6</ele><time>2026-03-29T08:28:07Z</time></trkpt><trkpt lat="42.118016324055304" lon="11.926480944516953"><ele>442.8</ele><time>2026-03-29T08:28:08Z</time></trkpt><trkpt lat="42.117960317867876" lon="11.926382711148506"><ele>441.0</ele><time>2026-03-29T08:28:09Z</time></trkpt><trkpt lat="42.11791270647377" lon="11.926278472761293"><ele>441.0</ele><time>2026-03-29T08:28:10Z</time></trkpt><trkpt lat="42.11787386443282" lon="11.926183041201352"><ele>441.0</ele><time>2026-03-29T08:28:11Z</time></trkpt><trkpt lat="42.117860041388624" lon="11.926070522125064"><ele>441.0</ele><time>2026-03-29T08:28:12Z</time></trkpt><trkpt lat="42.11784018438324" lon="11.925964922026477"><ele>441.0</ele><time>2026-03-29T08:28:13Z</time></trkpt><trkpt lat="42.11782682581798" lon="11.92586625321512"><ele>441.0</ele><time>2026-03-29T08:28:14Z</time></trkpt><trkpt lat="42.117818398870135" lon="11.925775204504143"><ele>441.0</ele><time>2026-03-29T08:28:15Z</time></trkpt><trkpt lat="42.117811197558154" lon="11.925681163883601"><ele>439.6666666666667</ele><time>2026-03-29T08:28:16Z</time></trkpt><trkpt lat="42.11779916424003" lon="11.925597031819155"><ele>438.33333333333337</ele><time>2026-03-29T08:28:17Z</time></trkpt><trkpt lat="42.11777223067302" lon="11.925482401928122"><ele>437.0</ele><time>2026-03-29T08:28:18Z</time></trkpt><trkpt lat="42.11773154652827" lon="11.925378040058305"><ele>435.6666666666667</ele><time>2026-03-29T08:28:19Z</time></trkpt><trkpt lat="42.11768916143701" lon="11.92529138617972"><ele>434.33333333333337</ele><time>2026-03-29T08:28:20Z</time></trkpt><trkpt lat="42.11763203889776" lon="11.925213565471864"><ele>433.0</ele><time>2026-03-29T08:28:21Z</time></trkpt><trkpt lat="42.11756094952995" lon="11.925161150688465"><ele>432.99999999999994</ele><time>2026-03-29T08:28:22Z</time></trkpt><trkpt lat="42.11750839383446" lon="11.925100259996876"><ele>433.0</ele><time>2026-03-29T08:28:23Z</time></trkpt><trkpt lat="42.11742509299532" lon="11.925042037500175"><ele>433.0</ele><time>2026-03-29T08:28:24Z</time></trkpt><trkpt lat="42.11734458460003" lon="11.925023727348295"><ele>433.0</ele><time>2026-03-29T08:28:25Z</time></trkpt><trkpt lat="42.117284114187804" lon="11.925067462284547"><ele>433.0</ele><time>2026-03-29T08:28:26Z</time></trkpt><trkpt lat="42.11721626516588" lon="11.925068194111502"><ele>432.99999999999994</ele><time>2026-03-29T08:28:27Z</time></trkpt><trkpt lat="42.117154795766695" lon="11.925092446029721"><ele>433.0</ele><time>2026-03-29T08:28:28Z</time></trkpt><trkpt lat="42.11707687878526" lon="11.925128334880599"><ele>432.83333333333337</ele><time>2026-03-29T08:28:29Z</time></trkpt><trkpt lat="42.11701000864469" lon="11.925102607177658"><ele>432.6666666666667</ele><time>2026-03-29T08:28:30Z</time></trkpt><trkpt lat="42.11695827553899" lon="11.925051169431859"><ele>432.5</ele><time>2026-03-29T08:28:31Z</time></trkpt><trkpt lat="42.11689564022141" lon="11.924980937380278"><ele>432.33333333333337</ele><time>2026-03-29T08:28:32Z</time></trkpt><trkpt lat="42.11682375438989" lon="11.92489261640089"><ele>432.1666666666667</ele><time>2026-03-29T08:28:32.999Z</time></trkpt><trkpt lat="42.116748585935355" lon="11.924796008855132"><ele>432.0</ele><time>2026-03-29T08:28:33.999Z</time></trkpt><trkpt lat="42.11667348683334" lon="11.924693482878531"><ele>430.0</ele><time>2026-03-29T08:28:34.999Z</time></trkpt><trkpt lat="42.116603566919274" lon="11.924597029101449"><ele>428.00000000000006</ele><time>2026-03-29T08:28:35.999Z</time></trkpt><trkpt lat="42.11651969187611" lon="11.924519706585992"><ele>426.0</ele><time>2026-03-29T08:28:36.999Z</time></trkpt><trkpt lat="42.11646242087452" lon="11.92442731875633"><ele>424.0</ele><time>2026-03-29T08:28:37.999Z</time></trkpt><trkpt lat="42.11643710798644" lon="11.924304550950964"><ele>422.0</ele><time>2026-03-29T08:28:38.999Z</time></trkpt><trkpt lat="42.11641001621802" lon="11.924175414093154"><ele>421.0</ele><time>2026-03-29T08:28:39.999Z</time></trkpt><trkpt lat="42.11637838765776" lon="11.924037153556615"><ele>420.0</ele><time>2026-03-29T08:28:40.999Z</time></trkpt><trkpt lat="42.11636101340899" lon="11.92390814349281"><ele>419.0</ele><time>2026-03-29T08:28:41.999Z</time></trkpt><trkpt lat="42.11636784829989" lon="11.9237920580909"><ele>418.0</ele><time>2026-03-29T08:28:42.999Z</time></trkpt><trkpt lat="42.11639030366802" lon="11.923676223388718"><ele>417.0</ele><time>2026-03-29T08:28:43.999Z</time></trkpt><trkpt lat="42.11643470808199" lon="11.923562005661598"><ele>417.0</ele><time>2026-03-29T08:28:44.999Z</time></trkpt><trkpt lat="42.11647956831679" lon="11.92343944790411"><ele>417.0</ele><time>2026-03-29T08:28:45.999Z</time></trkpt><trkpt lat="42.11650240769666" lon="11.923338546226029"><ele>417.0</ele><time>2026-03-29T08:28:46.999Z</time></trkpt><trkpt lat="42.11655858427039" lon="11.923208216969423"><ele>417.0</ele><time>2026-03-29T08:28:47.999Z</time></trkpt><trkpt lat="42.116613717576044" lon="11.923075050934589"><ele>417.0</ele><time>2026-03-29T08:28:48.999Z</time></trkpt><trkpt lat="42.116681171192724" lon="11.922947690909297"><ele>418.25</ele><time>2026-03-29T08:28:49.999Z</time></trkpt><trkpt lat="42.11673878554842" lon="11.922810005380867"><ele>419.5</ele><time>2026-03-29T08:28:50.999Z</time></trkpt><trkpt lat="42.11677611201117" lon="11.922666369298828"><ele>420.75</ele><time>2026-03-29T08:28:51.999Z</time></trkpt><trkpt lat="42.11682330114525" lon="11.922520967617645"><ele>422.0</ele><time>2026-03-29T08:28:52.999Z</time></trkpt><trkpt lat="42.116866986514864" lon="11.922380706570971"><ele>423.99999999999994</ele><time>2026-03-29T08:28:53.999Z</time></trkpt><trkpt lat="42.116884651564675" lon="11.922242096275136"><ele>426.0</ele><time>2026-03-29T08:28:54.999Z</time></trkpt><trkpt lat="42.11690559046395" lon="11.922133708991815"><ele>428.0</ele><time>2026-03-29T08:28:55.999Z</time></trkpt><trkpt lat="42.11691636699078" lon="11.922040069638932"><ele>430.0</ele><time>2026-03-29T08:28:56.999Z</time></trkpt><trkpt lat="42.116916621158325" lon="11.921935622835242"><ele>431.99999999999994</ele><time>2026-03-29T08:28:57.999Z</time></trkpt><trkpt lat="42.116854454439704" lon="11.921830377948531"><ele>434.0</ele><time>2026-03-29T08:28:58.999Z</time></trkpt><trkpt lat="42.116753721232335" lon="11.921667109956347"><ele>434.25</ele><time>2026-03-29T08:28:59.999Z</time></trkpt><trkpt lat="42.11668203397888" lon="11.921521324220004"><ele>434.5</ele><time>2026-03-29T08:29:00.999Z</time></trkpt><trkpt lat="42.11661003109546" lon="11.92136569449323"><ele>434.75</ele><time>2026-03-29T08:29:01.999Z</time></trkpt><trkpt lat="42.11658063753097" lon="11.921200508555726"><ele>435.0</ele><time>2026-03-29T08:29:02.999Z</time></trkpt><trkpt lat="42.11654965029319" lon="11.921071450731581"><ele>435.0</ele><time>2026-03-29T08:29:03.999Z</time></trkpt><trkpt lat="42.11653901190405" lon="11.92094088201125"><ele>435.0</ele><time>2026-03-29T08:29:04.999Z</time></trkpt><trkpt lat="42.11655724460885" lon="11.920795677936443"><ele>435.0</ele><time>2026-03-29T08:29:05.999Z</time></trkpt><trkpt lat="42.116569916940406" lon="11.920630015179377"><ele>435.0</ele><time>2026-03-29T08:29:06.999Z</time></trkpt><trkpt lat="42.11656717817712" lon="11.920484064249003"><ele>435.0</ele><time>2026-03-29T08:29:07.999Z</time></trkpt><trkpt lat="42.11657753011113" lon="11.920315720648471"><ele>435.0</ele><time>2026-03-29T08:29:08.999Z</time></trkpt><trkpt lat="42.11658761710836" lon="11.92013677233125"><ele>435.0</ele><time>2026-03-29T08:29:09.999Z</time></trkpt><trkpt lat="42.11660267059236" lon="11.919969228249537"><ele>435.0</ele><time>2026-03-29T08:29:10.999Z</time></trkpt><trkpt lat="42.116607260051104" lon="11.919798658875358"><ele>435.0</ele><time>2026-03-29T08:29:11.999Z</time></trkpt><trkpt lat="42.116616127901196" lon="11.919618276534045"><ele>434.2</ele><time>2026-03-29T08:29:12.999Z</time></trkpt><trkpt lat="42.11663714263306" lon="11.919489414635994"><ele>433.4</ele><time>2026-03-29T08:29:13.999Z</time></trkpt><trkpt lat="42.116657344572026" lon="11.919358271747667"><ele>432.6</ele><time>2026-03-29T08:29:14.999Z</time></trkpt><trkpt lat="42.116660002787505" lon="11.919231525442923"><ele>431.8</ele><time>2026-03-29T08:29:15.999Z</time></trkpt><trkpt lat="42.116640318617854" lon="11.919089881496607"><ele>431.0</ele><time>2026-03-29T08:29:16.999Z</time></trkpt><trkpt lat="42.11660839868902" lon="11.918985535099058"><ele>429.6</ele><time>2026-03-29T08:29:17.999Z</time></trkpt><trkpt lat="42.11655925050234" lon="11.91890006105759"><ele>428.20000000000005</ele><time>2026-03-29T08:29:18.999Z</time></trkpt><trkpt lat="42.116481350626756" lon="11.918788242382773"><ele>426.79999999999995</ele><time>2026-03-29T08:29:19.999Z</time></trkpt><trkpt lat="42.116409196489414" lon="11.918701575222645"><ele>425.4</ele><time>2026-03-29T08:29:20.999Z</time></trkpt><trkpt lat="42.11634432232113" lon="11.918623769807024"><ele>424.0</ele><time>2026-03-29T08:29:21.999Z</time></trkpt><trkpt lat="42.116273548285754" lon="11.91854329883395"><ele>424.0</ele><time>2026-03-29T08:29:22.999Z</time></trkpt><trkpt lat="42.116215406709955" lon="11.918444193607675"><ele>424.0</ele><time>2026-03-29T08:29:23.999Z</time></trkpt><trkpt lat="42.116154717774236" lon="11.918344546178147"><ele>424.0</ele><time>2026-03-29T08:29:24.999Z</time></trkpt><trkpt lat="42.1160889767522" lon="11.918255510907922"><ele>424.0</ele><time>2026-03-29T08:29:25.999Z</time></trkpt><trkpt lat="42.116022514974716" lon="11.918176935537737"><ele>424.0</ele><time>2026-03-29T08:29:26.999Z</time></trkpt><trkpt lat="42.11596052252212" lon="11.91808607829168"><ele>423.50000000000006</ele><time>2026-03-29T08:29:27.999Z</time></trkpt><trkpt lat="42.11589987347256" lon="11.91799531563175"><ele>423.0</ele><time>2026-03-29T08:29:28.999Z</time></trkpt><trkpt lat="42.11585293190695" lon="11.917904704876394"><ele>422.5</ele><time>2026-03-29T08:29:29.999Z</time></trkpt><trkpt lat="42.11579953820296" lon="11.91781821005178"><ele>422.0</ele><time>2026-03-29T08:29:30.999Z</time></trkpt><trkpt lat="42.11575566289706" lon="11.91773876427963"><ele>421.50000000000006</ele><time>2026-03-29T08:29:31.999Z</time></trkpt><trkpt lat="42.11570604849018" lon="11.917653398517126"><ele>421.0</ele><time>2026-03-29T08:29:32.999Z</time></trkpt><trkpt lat="42.11564985807197" lon="11.917567648985475"><ele>418.33333333333337</ele><time>2026-03-29T08:29:33.999Z</time></trkpt><trkpt lat="42.115588229044846" lon="11.91748794452972"><ele>415.6666666666667</ele><time>2026-03-29T08:29:34.999Z</time></trkpt><trkpt lat="42.11552830993956" lon="11.917409682146864"><ele>413.0</ele><time>2026-03-29T08:29:35.999Z</time></trkpt><trkpt lat="42.11546743746492" lon="11.917322915429533"><ele>410.33333333333337</ele><time>2026-03-29T08:29:36.999Z</time></trkpt><trkpt lat="42.11540141013487" lon="11.917229971908066"><ele>407.6666666666667</ele><time>2026-03-29T08:29:37.999Z</time></trkpt><trkpt lat="42.11533189947909" lon="11.917142235298055"><ele>405.0</ele><time>2026-03-29T08:29:38.999Z</time></trkpt><trkpt lat="42.1152716732295" lon="11.917057298465387"><ele>405.0</ele><time>2026-03-29T08:29:39.999Z</time></trkpt><trkpt lat="42.11521064885001" lon="11.916965218104922"><ele>405.0</ele><time>2026-03-29T08:29:41Z</time></trkpt><trkpt lat="42.11513894541202" lon="11.916872464181486"><ele>405.0</ele><time>2026-03-29T08:29:42Z</time></trkpt><trkpt lat="42.11506977687976" lon="11.916773187355613"><ele>405.0</ele><time>2026-03-29T08:29:43Z</time></trkpt><trkpt lat="42.11501601341577" lon="11.916653450542709"><ele>405.0</ele><time>2026-03-29T08:29:44Z</time></trkpt><trkpt lat="42.11497538735757" lon="11.91652857520701"><ele>404.6</ele><time>2026-03-29T08:29:45Z</time></trkpt><trkpt lat="42.11493275346023" lon="11.916409596377601"><ele>404.2</ele><time>2026-03-29T08:29:46Z</time></trkpt><trkpt lat="42.11488262915248" lon="11.91627932136214"><ele>403.79999999999995</ele><time>2026-03-29T08:29:47Z</time></trkpt><trkpt lat="42.11482344175451" lon="11.916156362336645"><ele>403.4</ele><time>2026-03-29T08:29:48Z</time></trkpt><trkpt lat="42.11477038924535" lon="11.916037486852506"><ele>403.0</ele><time>2026-03-29T08:29:49Z</time></trkpt><trkpt lat="42.114721150277035" lon="11.915909147414023"><ele>402.4</ele><time>2026-03-29T08:29:50Z</time></trkpt><trkpt lat="42.114677291459834" lon="11.915782048496368"><ele>401.79999999999995</ele><time>2026-03-29T08:29:51Z</time></trkpt><trkpt lat="42.11462774754144" lon="11.915636452676855"><ele>401.2</ele><time>2026-03-29T08:29:52Z</time></trkpt><trkpt lat="42.11458716398297" lon="11.915519802777718"><ele>400.6</ele><time>2026-03-29T08:29:53Z</time></trkpt><trkpt lat="42.11454461224744" lon="11.915394921266758"><ele>400.0</ele><time>2026-03-29T08:29:54Z</time></trkpt><trkpt lat="42.1145450470937" lon="11.915259347516661"><ele>400.00000000000006</ele><time>2026-03-29T08:29:55Z</time></trkpt><trkpt lat="42.11453426726676" lon="11.915153715021457"><ele>400.0</ele><time>2026-03-29T08:29:56Z</time></trkpt><trkpt lat="42.114527918104756" lon="11.915065916333942"><ele>400.0</ele><time>2026-03-29T08:29:57Z</time></trkpt><trkpt lat="42.11452453897206" lon="11.914981048948206"><ele>400.0</ele><time>2026-03-29T08:29:58Z</time></trkpt><trkpt lat="42.1145200721583" lon="11.91482683673036"><ele>400.00000000000006</ele><time>2026-03-29T08:30:00Z</time></trkpt><trkpt lat="42.11454498073118" lon="11.914667873595311"><ele>400.0</ele><time>2026-03-29T08:30:02Z</time></trkpt><trkpt lat="42.11454065431989" lon="11.914553359849867"><ele>399.2</ele><time>2026-03-29T08:30:03Z</time></trkpt><trkpt lat="42.114540654324884" lon="11.914449520768951"><ele>398.4</ele><time>2026-03-29T08:30:04Z</time></trkpt><trkpt lat="42.1145197418504" lon="11.914357846736163"><ele>397.6</ele><time>2026-03-29T08:30:05Z</time></trkpt><trkpt lat="42.11449115790865" lon="11.91427465886925"><ele>396.8</ele><time>2026-03-29T08:30:06Z</time></trkpt><trkpt lat="42.11463175549661" lon="11.914130414412808"><ele>396.0</ele><time>2026-03-29T08:30:07Z</time></trkpt><trkpt lat="42.11464553673616" lon="11.914027337601729"><ele>393.1666666666667</ele><time>2026-03-29T08:30:08Z</time></trkpt><trkpt lat="42.11466614157924" lon="11.91391828791641"><ele>390.3333333333333</ele><time>2026-03-29T08:30:09Z</time></trkpt><trkpt lat="42.11467082624995" lon="11.913820548985328"><ele>387.5</ele><time>2026-03-29T08:30:10Z</time></trkpt><trkpt lat="42.11468065108335" lon="11.9137322826126"><ele>384.66666666666663</ele><time>2026-03-29T08:30:11Z</time></trkpt><trkpt lat="42.114694804378516" lon="11.91364833037397"><ele>381.8333333333333</ele><time>2026-03-29T08:30:12Z</time></trkpt><trkpt lat="42.11469220744503" lon="11.913487277498865"><ele>379.0</ele><time>2026-03-29T08:30:14Z</time></trkpt><trkpt lat="42.11471134790228" lon="11.913334868594973"><ele>376.8333333333333</ele><time>2026-03-29T08:30:16Z</time></trkpt><trkpt lat="42.11472403189119" lon="11.913251099957165"><ele>374.66666666666663</ele><time>2026-03-29T08:30:17Z</time></trkpt><trkpt lat="42.11473300923587" lon="11.913142834747548"><ele>372.5</ele><time>2026-03-29T08:30:18Z</time></trkpt><trkpt lat="42.114714666392786" lon="11.913020785009325"><ele>370.3333333333333</ele><time>2026-03-29T08:30:19Z</time></trkpt><trkpt lat="42.114734346103845" lon="11.91288764801747"><ele>368.1666666666667</ele><time>2026-03-29T08:30:20Z</time></trkpt><trkpt lat="42.11472240323546" lon="11.912778399738942"><ele>366.0</ele><time>2026-03-29T08:30:21Z</time></trkpt><trkpt lat="42.114666953583836" lon="11.91264382908512"><ele>364.8333333333333</ele><time>2026-03-29T08:30:23Z</time></trkpt><trkpt lat="42.114646462825746" lon="11.912549071864396"><ele>363.6666666666667</ele><time>2026-03-29T08:30:24Z</time></trkpt><trkpt lat="42.11462689785572" lon="11.912454376484813"><ele>362.5</ele><time>2026-03-29T08:30:25Z</time></trkpt><trkpt lat="42.11459430080246" lon="11.9123473437836"><ele>361.33333333333337</ele><time>2026-03-29T08:30:26Z</time></trkpt><trkpt lat="42.114568991556645" lon="11.91225483456311"><ele>360.1666666666667</ele><time>2026-03-29T08:30:27Z</time></trkpt><trkpt lat="42.114549288511924" lon="11.912141756146589"><ele>359.0</ele><time>2026-03-29T08:30:28Z</time></trkpt><trkpt lat="42.11452971551428" lon="11.912030599412038"><ele>359.0</ele><time>2026-03-29T08:30:29Z</time></trkpt><trkpt lat="42.11454579088114" lon="11.911943018559432"><ele>359.0</ele><time>2026-03-29T08:30:30Z</time></trkpt><trkpt lat="42.11456366197445" lon="11.911856024341546"><ele>359.0</ele><time>2026-03-29T08:30:31Z</time></trkpt><trkpt lat="42.11455465045189" lon="11.911769975097382"><ele>359.0</ele><time>2026-03-29T08:30:32Z</time></trkpt><trkpt lat="42.11451917145297" lon="11.911688558682274"><ele>359.0</ele><time>2026-03-29T08:30:33Z</time></trkpt><trkpt lat="42.11442958395721" lon="11.911551835372968"><ele>359.0</ele><time>2026-03-29T08:30:35Z</time></trkpt><trkpt lat="42.11433702460575" lon="11.911469388079501"><ele>357.5</ele><time>2026-03-29T08:30:37Z</time></trkpt><trkpt lat="42.114216814925754" lon="11.911527128226588"><ele>356.0</ele><time>2026-03-29T08:30:39Z</time></trkpt><trkpt lat="42.11413461283752" lon="11.911567192147473"><ele>354.5</ele><time>2026-03-29T08:30:39.999Z</time></trkpt><trkpt lat="42.11405956628989" lon="11.911597521572773"><ele>353.0</ele><time>2026-03-29T08:30:40.999Z</time></trkpt><trkpt lat="42.113983262987325" lon="11.91161813172622"><ele>351.5</ele><time>2026-03-29T08:30:41.999Z</time></trkpt><trkpt lat="42.1139194891622" lon="11.911615161262201"><ele>350.0</ele><time>2026-03-29T08:30:42.999Z</time></trkpt><trkpt lat="42.113836716054244" lon="11.911585801032457"><ele>349.8</ele><time>2026-03-29T08:30:44.999Z</time></trkpt><trkpt lat="42.11372513364008" lon="11.91161614573973"><ele>349.6</ele><time>2026-03-29T08:30:48.999Z</time></trkpt><trkpt lat="42.11362495913346" lon="11.911653690291566"><ele>349.4</ele><time>2026-03-29T08:30:49.999Z</time></trkpt><trkpt lat="42.11350617699019" lon="11.911693263018657"><ele>349.2</ele><time>2026-03-29T08:30:50.999Z</time></trkpt><trkpt lat="42.11339981014366" lon="11.911717686341841"><ele>349.0</ele><time>2026-03-29T08:30:51.999Z</time></trkpt><trkpt lat="42.11330574741716" lon="11.911730528580472"><ele>350.2</ele><time>2026-03-29T08:30:52.999Z</time></trkpt><trkpt lat="42.1131979105658" lon="11.91168614723152"><ele>351.4</ele><time>2026-03-29T08:30:53.999Z</time></trkpt><trkpt lat="42.1131003132697" lon="11.911655542857243"><ele>352.6</ele><time>2026-03-29T08:30:54.999Z</time></trkpt><trkpt lat="42.11300413779504" lon="11.911623112321843"><ele>353.8</ele><time>2026-03-29T08:30:55.999Z</time></trkpt><trkpt lat="42.11291277117486" lon="11.911578266926277"><ele>355.0</ele><time>2026-03-29T08:30:56.999Z</time></trkpt><trkpt lat="42.11283036669783" lon="11.911534592750863"><ele>355.0</ele><time>2026-03-29T08:30:57.999Z</time></trkpt><trkpt lat="42.11276365304788" lon="11.911479707334625"><ele>355.0</ele><time>2026-03-29T08:30:58.999Z</time></trkpt><trkpt lat="42.112700845704225" lon="11.911407507741728"><ele>355.0</ele><time>2026-03-29T08:30:59.999Z</time></trkpt><trkpt lat="42.11266685456244" lon="11.91131297498646"><ele>355.0</ele><time>2026-03-29T08:31:00.999Z</time></trkpt><trkpt lat="42.112669818841155" lon="11.91117423344887"><ele>355.0</ele><time>2026-03-29T08:31:01.999Z</time></trkpt><trkpt lat="42.11265308887297" lon="11.911052557141806"><ele>355.0</ele><time>2026-03-29T08:31:02.999Z</time></trkpt><trkpt lat="42.11262371742297" lon="11.910967125943301"><ele>353.0</ele><time>2026-03-29T08:31:03.999Z</time></trkpt><trkpt lat="42.11253623910673" lon="11.910849108167854"><ele>351.0</ele><time>2026-03-29T08:31:05.999Z</time></trkpt><trkpt lat="42.11247098547645" lon="11.910811091561644"><ele>349.0</ele><time>2026-03-29T08:31:06.999Z</time></trkpt><trkpt lat="42.112392402415594" lon="11.910790754827032"><ele>347.0</ele><time>2026-03-29T08:31:07.999Z</time></trkpt><trkpt lat="42.11229865783165" lon="11.910782234952391"><ele>345.0</ele><time>2026-03-29T08:31:08.999Z</time></trkpt><trkpt lat="42.11220350237366" lon="11.910769533007493"><ele>344.2</ele><time>2026-03-29T08:31:09.999Z</time></trkpt><trkpt lat="42.112085010038626" lon="11.910750114375425"><ele>343.4</ele><time>2026-03-29T08:31:10.999Z</time></trkpt><trkpt lat="42.111980733975116" lon="11.910729834088032"><ele>342.6</ele><time>2026-03-29T08:31:11.999Z</time></trkpt><trkpt lat="42.11188300476235" lon="11.910706674381666"><ele>341.8</ele><time>2026-03-29T08:31:12.999Z</time></trkpt><trkpt lat="42.11179296186117" lon="11.910686453804407"><ele>341.0</ele><time>2026-03-29T08:31:13.999Z</time></trkpt><trkpt lat="42.1117152626769" lon="11.910695224129917"><ele>341.0</ele><time>2026-03-29T08:31:14.999Z</time></trkpt><trkpt lat="42.11164949689609" lon="11.910731632752483"><ele>341.0</ele><time>2026-03-29T08:31:15.999Z</time></trkpt><trkpt lat="42.111568748566754" lon="11.910796147358694"><ele>341.0</ele><time>2026-03-29T08:31:16.999Z</time></trkpt><trkpt lat="42.11148952149408" lon="11.910875597153185"><ele>341.0</ele><time>2026-03-29T08:31:17.999Z</time></trkpt><trkpt lat="42.111414510693926" lon="11.910925667449398"><ele>341.0</ele><time>2026-03-29T08:31:18.999Z</time></trkpt><trkpt lat="42.11134235940214" lon="11.910977237626446"><ele>341.0</ele><time>2026-03-29T08:31:19.999Z</time></trkpt><trkpt lat="42.11127320946269" lon="11.910996423837643"><ele>341.8</ele><time>2026-03-29T08:31:20.999Z</time></trkpt><trkpt lat="42.11119879820398" lon="11.91103420877913"><ele>342.6</ele><time>2026-03-29T08:31:21.999Z</time></trkpt><trkpt lat="42.11111115814644" lon="11.911074937835538"><ele>343.4</ele><time>2026-03-29T08:31:22.999Z</time></trkpt><trkpt lat="42.11101866640211" lon="11.911126786763068"><ele>344.2</ele><time>2026-03-29T08:31:23.999Z</time></trkpt><trkpt lat="42.11093021849333" lon="11.911181291207892"><ele>345.0</ele><time>2026-03-29T08:31:24.999Z</time></trkpt><trkpt lat="42.11084377451695" lon="11.911246735597105"><ele>345.0</ele><time>2026-03-29T08:31:25.999Z</time></trkpt><trkpt lat="42.110762044972645" lon="11.911266429608371"><ele>345.0</ele><time>2026-03-29T08:31:26.999Z</time></trkpt><trkpt lat="42.11066820635618" lon="11.911238139756431"><ele>345.0</ele><time>2026-03-29T08:31:28.999Z</time></trkpt><trkpt lat="42.11059992895656" lon="11.911167773523145"><ele>345.0</ele><time>2026-03-29T08:31:30.999Z</time></trkpt><trkpt lat="42.11057580315516" lon="11.91107555629081"><ele>345.0</ele><time>2026-03-29T08:31:35.999Z</time></trkpt><trkpt lat="42.110509040350884" lon="11.910989555179736"><ele>345.0</ele><time>2026-03-29T08:32:09Z</time></trkpt><trkpt lat="42.110436466792464" lon="11.910892043340546"><ele>341.2</ele><time>2026-03-29T08:32:11Z</time></trkpt><trkpt lat="42.1103665738533" lon="11.910757724411063"><ele>337.4</ele><time>2026-03-29T08:32:13Z</time></trkpt><trkpt lat="42.110338348576846" lon="11.910666264362886"><ele>333.6</ele><time>2026-03-29T08:32:14Z</time></trkpt><trkpt lat="42.11029040608833" lon="11.910535367215921"><ele>329.8</ele><time>2026-03-29T08:32:16Z</time></trkpt><trkpt lat="42.11022480113387" lon="11.910439673114192"><ele>326.0</ele><time>2026-03-29T08:32:18Z</time></trkpt><trkpt lat="42.11016518108879" lon="11.910360734751052"><ele>326.0</ele><time>2026-03-29T08:32:20Z</time></trkpt><trkpt lat="42.110114270149275" lon="11.910266772975643"><ele>326.0</ele><time>2026-03-29T08:32:22Z</time></trkpt><trkpt lat="42.110069521664485" lon="11.9102030610699"><ele>326.0</ele><time>2026-03-29T08:32:23Z</time></trkpt><trkpt lat="42.11003336193027" lon="11.91010787145651"><ele>326.0</ele><time>2026-03-29T08:32:24Z</time></trkpt><trkpt lat="42.109997253381614" lon="11.910032585957074"><ele>326.0</ele><time>2026-03-29T08:32:25Z</time></trkpt><trkpt lat="42.109948598898754" lon="11.909959773288229"><ele>326.0</ele><time>2026-03-29T08:32:26Z</time></trkpt><trkpt lat="42.109908269177026" lon="11.909863838690267"><ele>323.33333333333337</ele><time>2026-03-29T08:32:27Z</time></trkpt><trkpt lat="42.10986306232179" lon="11.909770350401999"><ele>320.6666666666667</ele><time>2026-03-29T08:32:28Z</time></trkpt><trkpt lat="42.10982242419302" lon="11.909690500246468"><ele>318.0</ele><time>2026-03-29T08:32:29Z</time></trkpt><trkpt lat="42.10977542968148" lon="11.90959051096388"><ele>315.3333333333333</ele><time>2026-03-29T08:32:30Z</time></trkpt><trkpt lat="42.109740955297646" lon="11.909508932429256"><ele>312.66666666666663</ele><time>2026-03-29T08:32:31Z</time></trkpt><trkpt lat="42.109700402184636" lon="11.909428049430158"><ele>310.0</ele><time>2026-03-29T08:32:32Z</time></trkpt><trkpt lat="42.10965992116682" lon="11.909349427307422"><ele>310.0</ele><time>2026-03-29T08:32:33Z</time></trkpt><trkpt lat="42.109621474960335" lon="11.909267015705053"><ele>310.0</ele><time>2026-03-29T08:32:34Z</time></trkpt><trkpt lat="42.10960153467753" lon="11.90918141497543"><ele>310.0</ele><time>2026-03-29T08:32:35Z</time></trkpt><trkpt lat="42.10956660562479" lon="11.909038110377876"><ele>310.0</ele><time>2026-03-29T08:32:37Z</time></trkpt><trkpt lat="42.10951727204196" lon="11.908906927841091"><ele>310.0</ele><time>2026-03-29T08:32:39Z</time></trkpt><trkpt lat="42.10943155312949" lon="11.90883340739181"><ele>309.0</ele><time>2026-03-29T08:32:41Z</time></trkpt><trkpt lat="42.109341028546325" lon="11.908732938697447"><ele>308.0</ele><time>2026-03-29T08:32:43Z</time></trkpt><trkpt lat="42.109287679447206" lon="11.908680565279468"><ele>307.0</ele><time>2026-03-29T08:32:44Z</time></trkpt><trkpt lat="42.10918559680291" lon="11.908599296886319"><ele>306.0</ele><time>2026-03-29T08:32:45.999Z</time></trkpt><trkpt lat="42.10911168616986" lon="11.908539081622243"><ele>305.0</ele><time>2026-03-29T08:32:47.999Z</time></trkpt><trkpt lat="42.10903829363573" lon="11.908481031018418"><ele>303.0</ele><time>2026-03-29T08:32:49.999Z</time></trkpt><trkpt lat="42.108987915005706" lon="11.90842938677125"><ele>301.0</ele><time>2026-03-29T08:32:50.999Z</time></trkpt><trkpt lat="42.108935221571336" lon="11.908378944528206"><ele>299.0</ele><time>2026-03-29T08:32:51.999Z</time></trkpt><trkpt lat="42.108834678623865" lon="11.908289511021705"><ele>297.0</ele><time>2026-03-29T08:32:53.999Z</time></trkpt><trkpt lat="42.10877607500646" lon="11.908249523019022"><ele>295.0</ele><time>2026-03-29T08:32:55.999Z</time></trkpt><trkpt lat="42.10869817455807" lon="11.908161752723348"><ele>293.0</ele><time>2026-03-29T08:32:57.999Z</time></trkpt><trkpt lat="42.108596325284886" lon="11.908086637633655"><ele>293.0</ele><time>2026-03-29T08:32:59.999Z</time></trkpt><trkpt lat="42.108493842066025" lon="11.908005173157067"><ele>293.0</ele><time>2026-03-29T08:33:01.999Z</time></trkpt><trkpt lat="42.10843735575464" lon="11.90795777330691"><ele>293.0</ele><time>2026-03-29T08:33:02.999Z</time></trkpt><trkpt lat="42.1083414428661" lon="11.907876180577121"><ele>293.0</ele><time>2026-03-29T08:33:04.999Z</time></trkpt><trkpt lat="42.108322816602936" lon="11.907763323970597"><ele>293.0</ele><time>2026-03-29T08:33:06.999Z</time></trkpt><trkpt lat="42.1083018752846" lon="11.907664754406062"><ele>290.5</ele><time>2026-03-29T08:33:08.999Z</time></trkpt><trkpt lat="42.10825998265492" lon="11.907530028028592"><ele>288.0</ele><time>2026-03-29T08:33:10.999Z</time></trkpt><trkpt lat="42.108204862246204" lon="11.907403197974322"><ele>285.5</ele><time>2026-03-29T08:33:12.999Z</time></trkpt><trkpt lat="42.10816729584885" lon="11.907262270844393"><ele>283.0</ele><time>2026-03-29T08:33:14.999Z</time></trkpt><trkpt lat="42.10813671903848" lon="11.907089750806968"><ele>282.8333333333333</ele><time>2026-03-29T08:33:16.999Z</time></trkpt><trkpt lat="42.10811869953146" lon="11.907003466567447"><ele>282.66666666666663</ele><time>2026-03-29T08:33:17.999Z</time></trkpt><trkpt lat="42.10809983465119" lon="11.90690176570169"><ele>282.5</ele><time>2026-03-29T08:33:18.999Z</time></trkpt><trkpt lat="42.108082898374256" lon="11.906801165145927"><ele>282.3333333333333</ele><time>2026-03-29T08:33:19.999Z</time></trkpt><trkpt lat="42.10805168400297" lon="11.90666158605283"><ele>282.1666666666667</ele><time>2026-03-29T08:33:21.999Z</time></trkpt><trkpt lat="42.10800848658493" lon="11.906585729407107"><ele>282.0</ele><time>2026-03-29T08:33:23.999Z</time></trkpt><trkpt lat="42.10793441371957" lon="11.906562512310083"><ele>281.3333333333333</ele><time>2026-03-29T08:33:25.999Z</time></trkpt><trkpt lat="42.10784096961113" lon="11.906479583642547"><ele>280.6666666666667</ele><time>2026-03-29T08:33:27.999Z</time></trkpt><trkpt lat="42.10777381293206" lon="11.906425590973294"><ele>280.0</ele><time>2026-03-29T08:33:28.999Z</time></trkpt><trkpt lat="42.10771914687591" lon="11.90637181020478"><ele>279.33333333333337</ele><time>2026-03-29T08:33:29.999Z</time></trkpt><trkpt lat="42.10767155441177" lon="11.906302408637757"><ele>278.6666666666667</ele><time>2026-03-29T08:33:30.999Z</time></trkpt><trkpt lat="42.107612321475614" lon="11.906248177362295"><ele>278.0</ele><time>2026-03-29T08:33:31.999Z</time></trkpt><trkpt lat="42.10755969786435" lon="11.90619690557065"><ele>278.0</ele><time>2026-03-29T08:33:32.999Z</time></trkpt><trkpt lat="42.10747267816175" lon="11.906091592645893"><ele>278.0</ele><time>2026-03-29T08:33:34.999Z</time></trkpt><trkpt lat="42.1073894265366" lon="11.906058260601677"><ele>278.0</ele><time>2026-03-29T08:33:36.999Z</time></trkpt><trkpt lat="42.10730529467435" lon="11.906072375518459"><ele>278.0</ele><time>2026-03-29T08:33:38.999Z</time></trkpt><trkpt lat="42.10717902211097" lon="11.906088233743708"><ele>278.0</ele><time>2026-03-29T08:33:40.999Z</time></trkpt><trkpt lat="42.10706915992241" lon="11.906072013596072"><ele>276.0</ele><time>2026-03-29T08:33:42.999Z</time></trkpt><trkpt lat="42.106961647589664" lon="11.90606909270914"><ele>274.0</ele><time>2026-03-29T08:33:44.999Z</time></trkpt><trkpt lat="42.106854375055484" lon="11.906011889976007"><ele>272.0</ele><time>2026-03-29T08:33:46.999Z</time></trkpt><trkpt lat="42.10684059887053" lon="11.905898910507203"><ele>270.0</ele><time>2026-03-29T08:33:48.999Z</time></trkpt><trkpt lat="42.10675699207188" lon="11.905838080539507"><ele>268.0</ele><time>2026-03-29T08:33:50.999Z</time></trkpt><trkpt lat="42.10668232455272" lon="11.90578438252323"><ele>266.8571428571429</ele><time>2026-03-29T08:33:53Z</time></trkpt><trkpt lat="42.106617707960524" lon="11.905759278001124"><ele>265.7142857142857</ele><time>2026-03-29T08:34:01Z</time></trkpt><trkpt lat="42.106532926640455" lon="11.905761254947512"><ele>264.57142857142856</ele><time>2026-03-29T08:34:03Z</time></trkpt><trkpt lat="42.10646631378746" lon="11.905768998473802"><ele>263.42857142857144</ele><time>2026-03-29T08:34:05Z</time></trkpt><trkpt lat="42.10640607918381" lon="11.905795856316898"><ele>262.2857142857143</ele><time>2026-03-29T08:34:07Z</time></trkpt><trkpt lat="42.10634458478996" lon="11.905857277186488"><ele>261.14285714285717</ele><time>2026-03-29T08:34:10Z</time></trkpt><trkpt lat="42.106287000275685" lon="11.905902434009796"><ele>260.0</ele><time>2026-03-29T08:34:12Z</time></trkpt><trkpt lat="42.106228429398676" lon="11.905984942271388"><ele>256.33333333333337</ele><time>2026-03-29T08:34:15Z</time></trkpt><trkpt lat="42.106159079868" lon="11.906046479559532"><ele>252.66666666666669</ele><time>2026-03-29T08:34:17Z</time></trkpt><trkpt lat="42.10609430656284" lon="11.906150147693616"><ele>249.0</ele><time>2026-03-29T08:34:20Z</time></trkpt><trkpt lat="42.10603630460281" lon="11.906217456484146"><ele>245.33333333333331</ele><time>2026-03-29T08:34:23Z</time></trkpt><trkpt lat="42.10599951017716" lon="11.906288352841562"><ele>241.66666666666666</ele><time>2026-03-29T08:34:26Z</time></trkpt><trkpt lat="42.10599425379138" lon="11.906409867936022"><ele>238.0</ele><time>2026-03-29T08:34:30Z</time></trkpt><trkpt lat="42.10598218136598" lon="11.906495468191544"><ele>238.0</ele><time>2026-03-29T08:34:32Z</time></trkpt><trkpt lat="42.10595975083436" lon="11.906649730377804"><ele>238.0</ele><time>2026-03-29T08:34:34Z</time></trkpt><trkpt lat="42.10595541831144" lon="11.90677812715172"><ele>238.0</ele><time>2026-03-29T08:34:36Z</time></trkpt><trkpt lat="42.10597010707781" lon="11.906897859033784"><ele>238.0</ele><time>2026-03-29T08:34:38Z</time></trkpt><trkpt lat="42.105968210579334" lon="11.90704697739437"><ele>238.0</ele><time>2026-03-29T08:34:40Z</time></trkpt><trkpt lat="42.10598185819494" lon="11.907158347781655"><ele>236.99999999999997</ele><time>2026-03-29T08:34:42Z</time></trkpt><trkpt lat="42.10599114368229" lon="11.907303639908047"><ele>236.0</ele><time>2026-03-29T08:34:44Z</time></trkpt><trkpt lat="42.10600604355853" lon="11.907434356806595"><ele>235.0</ele><time>2026-03-29T08:34:46Z</time></trkpt><trkpt lat="42.10602962184016" lon="11.907515786049716"><ele>234.0</ele><time>2026-03-29T08:34:48Z</time></trkpt><trkpt lat="42.106015324972894" lon="11.907606575228444"><ele>232.99999999999997</ele><time>2026-03-29T08:34:49.999Z</time></trkpt><trkpt lat="42.106046652097085" lon="11.907698861837924"><ele>232.0</ele><time>2026-03-29T08:34:51.999Z</time></trkpt><trkpt lat="42.106049083665276" lon="11.907796411810871"><ele>231.6</ele><time>2026-03-29T08:34:53.999Z</time></trkpt><trkpt lat="42.10606545637399" lon="11.907917581941883"><ele>231.2</ele><time>2026-03-29T08:34:55.999Z</time></trkpt><trkpt lat="42.10607770476195" lon="11.908030589769957"><ele>230.8</ele><time>2026-03-29T08:34:57.999Z</time></trkpt><trkpt lat="42.10606225852025" lon="11.908153530220547"><ele>230.4</ele><time>2026-03-29T08:34:59.999Z</time></trkpt><trkpt lat="42.10601911542073" lon="11.908253191284908"><ele>230.0</ele><time>2026-03-29T08:35:01.999Z</time></trkpt><trkpt lat="42.105971093666064" lon="11.90839233639605"><ele>231.33333333333334</ele><time>2026-03-29T08:35:03.999Z</time></trkpt><trkpt lat="42.10594542490614" lon="11.908473829877044"><ele>232.66666666666669</ele><time>2026-03-29T08:35:04.999Z</time></trkpt><trkpt lat="42.10592833506063" lon="11.908593428535216"><ele>234.0</ele><time>2026-03-29T08:35:06.999Z</time></trkpt><trkpt lat="42.105901318285504" lon="11.908716289893883"><ele>235.33333333333331</ele><time>2026-03-29T08:35:08.999Z</time></trkpt><trkpt lat="42.105823441157554" lon="11.908775886303356"><ele>236.66666666666666</ele><time>2026-03-29T08:35:11.999Z</time></trkpt><trkpt lat="42.105754167829666" lon="11.908859092404052"><ele>238.0</ele><time>2026-03-29T08:35:13.999Z</time></trkpt><trkpt lat="42.10568861371026" lon="11.908945205615234"><ele>236.60000000000002</ele><time>2026-03-29T08:35:15.999Z</time></trkpt><trkpt lat="42.10563260200436" lon="11.909026613593669"><ele>235.20000000000002</ele><time>2026-03-29T08:35:17.999Z</time></trkpt><trkpt lat="42.105595189870826" lon="11.909095837070533"><ele>233.8</ele><time>2026-03-29T08:35:19.999Z</time></trkpt><trkpt lat="42.105543470557386" lon="11.909189443598859"><ele>232.4</ele><time>2026-03-29T08:35:21.999Z</time></trkpt><trkpt lat="42.10549653694224" lon="11.909277145693613"><ele>231.0</ele><time>2026-03-29T08:35:23.999Z</time></trkpt><trkpt lat="42.10543957239978" lon="11.909446310301504"><ele>231.0</ele><time>2026-03-29T08:35:25.999Z</time></trkpt><trkpt lat="42.105411903269776" lon="11.909528132529724"><ele>231.0</ele><time>2026-03-29T08:35:26.999Z</time></trkpt><trkpt lat="42.105388114568136" lon="11.909607075540421"><ele>231.0</ele><time>2026-03-29T08:35:27.999Z</time></trkpt><trkpt lat="42.105349469989704" lon="11.90968434448713"><ele>231.0</ele><time>2026-03-29T08:35:28.999Z</time></trkpt><trkpt lat="42.10532390167626" lon="11.909773230321132"><ele>231.0</ele><time>2026-03-29T08:35:29.999Z</time></trkpt><trkpt lat="42.10528935438166" lon="11.909865429615174"><ele>231.0</ele><time>2026-03-29T08:35:31.999Z</time></trkpt><trkpt lat="42.10526732189148" lon="11.909959145692879"><ele>231.0</ele><time>2026-03-29T08:35:34.999Z</time></trkpt><trkpt lat="42.10520252485208" lon="11.910034433550784"><ele>233.0</ele><time>2026-03-29T08:35:39.999Z</time></trkpt><trkpt lat="42.10514671827202" lon="11.91011242927491"><ele>235.0</ele><time>2026-03-29T08:35:41.999Z</time></trkpt><trkpt lat="42.105092192979306" lon="11.910196298212826"><ele>237.0</ele><time>2026-03-29T08:35:43.999Z</time></trkpt><trkpt lat="42.105045359035124" lon="11.91013947370452"><ele>239.0</ele><time>2026-03-29T08:36:28Z</time></trkpt><trkpt lat="42.10511478810816" lon="11.910175183072338"><ele>241.0</ele><time>2026-03-29T08:36:44Z</time></trkpt><trkpt lat="42.1050000585161" lon="11.910214842536721"><ele>243.0</ele><time>2026-03-29T08:39:14.999Z</time></trkpt><trkpt lat="42.10492705357892" lon="11.910241325472173"><ele>241.33333333333334</ele><time>2026-03-29T08:39:16.999Z</time></trkpt><trkpt lat="42.10486116126659" lon="11.910253268000723"><ele>239.66666666666669</ele><time>2026-03-29T08:39:18.999Z</time></trkpt><trkpt lat="42.104787257205885" lon="11.910269858126663"><ele>238.0</ele><time>2026-03-29T08:39:20.999Z</time></trkpt><trkpt lat="42.10472167091087" lon="11.91032145932708"><ele>236.33333333333334</ele><time>2026-03-29T08:39:22.999Z</time></trkpt><trkpt lat="42.104658972080664" lon="11.910386205116072"><ele>234.66666666666669</ele><time>2026-03-29T08:39:24.999Z</time></trkpt><trkpt lat="42.1045913616945" lon="11.910433501268624"><ele>233.0</ele><time>2026-03-29T08:39:26.999Z</time></trkpt><trkpt lat="42.10449664318956" lon="11.910516623022"><ele>233.0</ele><time>2026-03-29T08:39:28.999Z</time></trkpt><trkpt lat="42.1044251506236" lon="11.910576926115626"><ele>233.0</ele><time>2026-03-29T08:39:31.999Z</time></trkpt><trkpt lat="42.10437337652653" lon="11.910683353406755"><ele>233.0</ele><time>2026-03-29T08:39:33.999Z</time></trkpt><trkpt lat="42.104328062165585" lon="11.910839458716515"><ele>233.0</ele><time>2026-03-29T08:39:35.999Z</time></trkpt><trkpt lat="42.10432826251497" lon="11.910953734061895"><ele>233.0</ele><time>2026-03-29T08:39:38.999Z</time></trkpt><trkpt lat="42.10436273166513" lon="11.911035530466838"><ele>233.33333333333334</ele><time>2026-03-29T08:39:40.999Z</time></trkpt><trkpt lat="42.10440758555121" lon="11.911100545963864"><ele>233.66666666666669</ele><time>2026-03-29T08:39:41.999Z</time></trkpt><trkpt lat="42.1044941748746" lon="11.911188500135125"><ele>234.0</ele><time>2026-03-29T08:39:43.999Z</time></trkpt><trkpt lat="42.10454869507896" lon="11.911258761826828"><ele>234.33333333333331</ele><time>2026-03-29T08:39:45.999Z</time></trkpt><trkpt lat="42.10462656882062" lon="11.911364256304198"><ele>234.66666666666666</ele><time>2026-03-29T08:39:48.999Z</time></trkpt><trkpt lat="42.10468061577264" lon="11.911420132066716"><ele>235.0</ele><time>2026-03-29T08:39:50.999Z</time></trkpt><trkpt lat="42.10473839633306" lon="11.911471125117146"><ele>234.99999999999997</ele><time>2026-03-29T08:39:52.999Z</time></trkpt><trkpt lat="42.10479727017242" lon="11.91152844988375"><ele>235.0</ele><time>2026-03-29T08:39:54.999Z</time></trkpt><trkpt lat="42.10487425553055" lon="11.911613068588588"><ele>235.0</ele><time>2026-03-29T08:39:56.999Z</time></trkpt><trkpt lat="42.104919354745796" lon="11.911701641298551"><ele>235.0</ele><time>2026-03-29T08:39:58.999Z</time></trkpt><trkpt lat="42.104980762482036" lon="11.911789642909673"><ele>234.99999999999997</ele><time>2026-03-29T08:40:00.999Z</time></trkpt><trkpt lat="42.10501983706099" lon="11.911863338538595"><ele>235.0</ele><time>2026-03-29T08:40:02.999Z</time></trkpt><trkpt lat="42.10503311912864" lon="11.911967797213261"><ele>236.83333333333331</ele><time>2026-03-29T08:40:05.999Z</time></trkpt><trkpt lat="42.10513066360814" lon="11.911954728546599"><ele>238.66666666666666</ele><time>2026-03-29T08:40:11Z</time></trkpt><trkpt lat="42.10518290249295" lon="11.912002972227903"><ele>240.5</ele><time>2026-03-29T08:40:13Z</time></trkpt><trkpt lat="42.10518651662508" lon="11.912103719833219"><ele>242.33333333333331</ele><time>2026-03-29T08:40:15Z</time></trkpt><trkpt lat="42.10527935094648" lon="11.912130073239199"><ele>244.16666666666666</ele><time>2026-03-29T08:40:17Z</time></trkpt><trkpt lat="42.1053304551833" lon="11.912264915419096"><ele>246.0</ele><time>2026-03-29T08:40:19Z</time></trkpt><trkpt lat="42.105388235270844" lon="11.912370896879144"><ele>246.0</ele><time>2026-03-29T08:40:21Z</time></trkpt><trkpt lat="42.10547821884906" lon="11.912437911279113"><ele>246.00000000000003</ele><time>2026-03-29T08:40:22Z</time></trkpt><trkpt lat="42.10554410748834" lon="11.912572155808315"><ele>246.00000000000003</ele><time>2026-03-29T08:40:24Z</time></trkpt><trkpt lat="42.105610899717355" lon="11.912640829302537"><ele>246.0</ele><time>2026-03-29T08:40:25Z</time></trkpt><trkpt lat="42.10566789227868" lon="11.912678525691424"><ele>246.0</ele><time>2026-03-29T08:40:27Z</time></trkpt><trkpt lat="42.10572422275153" lon="11.912757896786143"><ele>247.8</ele><time>2026-03-29T08:40:29Z</time></trkpt><trkpt lat="42.105777757722706" lon="11.912859635029205"><ele>249.60000000000002</ele><time>2026-03-29T08:40:31Z</time></trkpt><trkpt lat="42.10584980771707" lon="11.912863571483571"><ele>251.4</ele><time>2026-03-29T08:40:33Z</time></trkpt><trkpt lat="42.1059106482927" lon="11.912948265398462"><ele>253.2</ele><time>2026-03-29T08:40:37Z</time></trkpt><trkpt lat="42.10600806611949" lon="11.913046077033375"><ele>255.0</ele><time>2026-03-29T08:40:38Z</time></trkpt><trkpt lat="42.10606420357101" lon="11.913144010266254"><ele>255.0</ele><time>2026-03-29T08:40:39Z</time></trkpt><trkpt lat="42.106126079613894" lon="11.913217827779274"><ele>255.0</ele><time>2026-03-29T08:40:40Z</time></trkpt><trkpt lat="42.10621501278851" lon="11.913327254839114"><ele>255.0</ele><time>2026-03-29T08:40:42Z</time></trkpt><trkpt lat="42.10626628954777" lon="11.913381153343218"><ele>255.0</ele><time>2026-03-29T08:40:43Z</time></trkpt><trkpt lat="42.10632552182436" lon="11.913486493763656"><ele>255.0</ele><time>2026-03-29T08:40:45Z</time></trkpt><trkpt lat="42.10636197620033" lon="11.91360432610033"><ele>255.6</ele><time>2026-03-29T08:40:46Z</time></trkpt><trkpt lat="42.106390989261534" lon="11.913720142907694"><ele>256.2</ele><time>2026-03-29T08:40:48Z</time></trkpt><trkpt lat="42.10642833254156" lon="11.913846843679957"><ele>256.8</ele><time>2026-03-29T08:40:50Z</time></trkpt><trkpt lat="42.10646649081777" lon="11.913988177961437"><ele>257.4</ele><time>2026-03-29T08:40:52Z</time></trkpt><trkpt lat="42.106490219010674" lon="11.91411144823319"><ele>258.0</ele><time>2026-03-29T08:40:54Z</time></trkpt><trkpt lat="42.106511852717" lon="11.91421135795376"><ele>259.8</ele><time>2026-03-29T08:40:56Z</time></trkpt><trkpt lat="42.1065906693087" lon="11.914340813884593"><ele>261.6</ele><time>2026-03-29T08:40:58Z</time></trkpt><trkpt lat="42.10661237987704" lon="11.91445205342817"><ele>263.4</ele><time>2026-03-29T08:40:59Z</time></trkpt><trkpt lat="42.106632644960165" lon="11.914608106961222"><ele>265.2</ele><time>2026-03-29T08:41:01Z</time></trkpt><trkpt lat="42.10664547468124" lon="11.91469451324374"><ele>267.0</ele><time>2026-03-29T08:41:03Z</time></trkpt><trkpt lat="42.106581661643865" lon="11.91476131509669"><ele>266.4</ele><time>2026-03-29T08:41:05Z</time></trkpt><trkpt lat="42.10656222086442" lon="11.914875114948678"><ele>265.79999999999995</ele><time>2026-03-29T08:41:07Z</time></trkpt><trkpt lat="42.10652055003675" lon="11.915012375375305"><ele>265.2</ele><time>2026-03-29T08:41:08.999Z</time></trkpt><trkpt lat="42.10644495200562" lon="11.915069142220373"><ele>264.59999999999997</ele><time>2026-03-29T08:41:10.999Z</time></trkpt><trkpt lat="42.10638866298727" lon="11.915147208399473"><ele>264.0</ele><time>2026-03-29T08:41:12.999Z</time></trkpt><trkpt lat="42.10633859514039" lon="11.915244118822558"><ele>265.6666666666667</ele><time>2026-03-29T08:41:14.999Z</time></trkpt><trkpt lat="42.106281678783354" lon="11.915349778121973"><ele>267.3333333333333</ele><time>2026-03-29T08:41:16.999Z</time></trkpt><trkpt lat="42.106232329869336" lon="11.915436222150921"><ele>269.0</ele><time>2026-03-29T08:41:18.999Z</time></trkpt><trkpt lat="42.10618308336905" lon="11.915491862000998"><ele>270.66666666666663</ele><time>2026-03-29T08:41:19.999Z</time></trkpt><trkpt lat="42.10609742293169" lon="11.91548760571882"><ele>272.3333333333333</ele><time>2026-03-29T08:41:21.999Z</time></trkpt><trkpt lat="42.10606569120793" lon="11.915392136523481"><ele>274.0</ele><time>2026-03-29T08:41:23.999Z</time></trkpt><trkpt lat="42.10601611007897" lon="11.91529556955719"><ele>274.0</ele><time>2026-03-29T08:41:25.999Z</time></trkpt><trkpt lat="42.105984859616704" lon="11.915219218957489"><ele>274.0</ele><time>2026-03-29T08:41:26.999Z</time></trkpt><trkpt lat="42.105947501720074" lon="11.915110601226619"><ele>274.0</ele><time>2026-03-29T08:41:27.999Z</time></trkpt><trkpt lat="42.105899849703164" lon="11.914954290469103"><ele>274.0</ele><time>2026-03-29T08:41:29.999Z</time></trkpt><trkpt lat="42.105863334084646" lon="11.91487722282923"><ele>274.0</ele><time>2026-03-29T08:41:30.999Z</time></trkpt><trkpt lat="42.10581779358629" lon="11.914813609543723"><ele>274.0</ele><time>2026-03-29T08:41:31.999Z</time></trkpt><trkpt lat="42.10577745274659" lon="11.914747770560531"><ele>275.5</ele><time>2026-03-29T08:41:32.999Z</time></trkpt><trkpt lat="42.10572308679022" lon="11.914685821353435"><ele>277.0</ele><time>2026-03-29T08:41:33.999Z</time></trkpt><trkpt lat="42.105649745170844" lon="11.914646788595961"><ele>278.5</ele><time>2026-03-29T08:41:34.999Z</time></trkpt><trkpt lat="42.10554928970362" lon="11.914567343055221"><ele>280.0</ele><time>2026-03-29T08:41:36.999Z</time></trkpt><trkpt lat="42.105479077634385" lon="11.914520193232516"><ele>281.5</ele><time>2026-03-29T08:41:38.999Z</time></trkpt><trkpt lat="42.105401625059635" lon="11.914556834563875"><ele>283.0</ele><time>2026-03-29T08:41:40.999Z</time></trkpt><trkpt lat="42.10539130157726" lon="11.914661215903218"><ele>283.0</ele><time>2026-03-29T08:41:43.999Z</time></trkpt><trkpt lat="42.105394620879494" lon="11.914879480564517"><ele>283.0</ele><time>2026-03-29T08:41:45.999Z</time></trkpt><trkpt lat="42.10541015979855" lon="11.915013645303612"><ele>283.0</ele><time>2026-03-29T08:41:47.999Z</time></trkpt><trkpt lat="42.10545282449244" lon="11.915161809755311"><ele>283.0</ele><time>2026-03-29T08:41:49.999Z</time></trkpt><trkpt lat="42.105498717457245" lon="11.915294607627217"><ele>284.5</ele><time>2026-03-29T08:41:51.999Z</time></trkpt><trkpt lat="42.105463155158006" lon="11.915394944010414"><ele>286.0</ele><time>2026-03-29T08:41:53.999Z</time></trkpt><trkpt lat="42.10548852809568" lon="11.915520877336256"><ele>287.5</ele><time>2026-03-29T08:41:55.999Z</time></trkpt><trkpt lat="42.10553622170901" lon="11.915591173977443"><ele>289.0</ele><time>2026-03-29T08:41:57.999Z</time></trkpt><trkpt lat="42.10558022708539" lon="11.915680680968512"><ele>290.5</ele><time>2026-03-29T08:41:59.999Z</time></trkpt><trkpt lat="42.10557291160027" lon="11.915795583302549"><ele>292.0</ele><time>2026-03-29T08:42:01.999Z</time></trkpt><trkpt lat="42.1055296595808" lon="11.915862152307312"><ele>293.66666666666663</ele><time>2026-03-29T08:42:02.999Z</time></trkpt><trkpt lat="42.105496909962405" lon="11.915975791788991"><ele>295.3333333333333</ele><time>2026-03-29T08:42:04.999Z</time></trkpt><trkpt lat="42.10546405264802" lon="11.916069370240594"><ele>297.0</ele><time>2026-03-29T08:42:06.999Z</time></trkpt><trkpt lat="42.10544764986898" lon="11.916165971631456"><ele>298.6666666666667</ele><time>2026-03-29T08:42:08.999Z</time></trkpt><trkpt lat="42.10544044521803" lon="11.916290695976597"><ele>300.33333333333337</ele><time>2026-03-29T08:42:11.999Z</time></trkpt><trkpt lat="42.105430730539254" lon="11.916381738715975"><ele>302.0</ele><time>2026-03-29T08:42:13.999Z</time></trkpt><trkpt lat="42.10543239571019" lon="11.916477843503214"><ele>302.0</ele><time>2026-03-29T08:42:18Z</time></trkpt><trkpt lat="42.10545125410415" lon="11.916588963549813"><ele>302.0</ele><time>2026-03-29T08:42:21Z</time></trkpt><trkpt lat="42.10544344156382" lon="11.916703935684119"><ele>302.0</ele><time>2026-03-29T08:42:27Z</time></trkpt><trkpt lat="42.10541697143783" lon="11.916818280439147"><ele>302.0</ele><time>2026-03-29T08:42:29Z</time></trkpt><trkpt lat="42.10535094087545" lon="11.916892999210415"><ele>302.0</ele><time>2026-03-29T08:42:30Z</time></trkpt><trkpt lat="42.10531310368563" lon="11.917060215166387"><ele>304.6</ele><time>2026-03-29T08:42:32Z</time></trkpt><trkpt lat="42.10528778247927" lon="11.917275491163753"><ele>307.2</ele><time>2026-03-29T08:42:34Z</time></trkpt><trkpt lat="42.105321879992616" lon="11.917352596160788"><ele>309.8</ele><time>2026-03-29T08:42:37Z</time></trkpt><trkpt lat="42.105330151936414" lon="11.917441749420604"><ele>312.4</ele><time>2026-03-29T08:42:40Z</time></trkpt><trkpt lat="42.105398523116364" lon="11.917520540818595"><ele>315.0</ele><time>2026-03-29T08:42:41Z</time></trkpt><trkpt lat="42.10541032496304" lon="11.917630016358835"><ele>317.5</ele><time>2026-03-29T08:42:42Z</time></trkpt><trkpt lat="42.105482524207204" lon="11.917728477403372"><ele>320.0</ele><time>2026-03-29T08:42:43Z</time></trkpt><trkpt lat="42.10552342354125" lon="11.91788543237008"><ele>322.5</ele><time>2026-03-29T08:42:45Z</time></trkpt><trkpt lat="42.10552865456714" lon="11.917979033530186"><ele>325.0</ele><time>2026-03-29T08:42:46Z</time></trkpt><trkpt lat="42.10551036292263" lon="11.918194851039855"><ele>325.0</ele><time>2026-03-29T08:42:47Z</time></trkpt><trkpt lat="42.10550995763311" lon="11.91833753947087"><ele>325.0</ele><time>2026-03-29T08:42:48Z</time></trkpt><trkpt lat="42.1055152344989" lon="11.918433605569037"><ele>325.0</ele><time>2026-03-29T08:42:49Z</time></trkpt><trkpt lat="42.10548184081787" lon="11.918517365482188"><ele>325.0</ele><time>2026-03-29T08:42:50Z</time></trkpt><trkpt lat="42.105426083792075" lon="11.918587104606218"><ele>325.0</ele><time>2026-03-29T08:42:51Z</time></trkpt><trkpt lat="42.10535441921332" lon="11.91860949446143"><ele>325.0</ele><time>2026-03-29T08:42:52Z</time></trkpt><trkpt lat="42.105265710165156" lon="11.918624952451207"><ele>326.8</ele><time>2026-03-29T08:42:53Z</time></trkpt><trkpt lat="42.10517562769765" lon="11.918652996424766"><ele>328.6</ele><time>2026-03-29T08:42:54Z</time></trkpt><trkpt lat="42.10510951261049" lon="11.918701082032374"><ele>330.4</ele><time>2026-03-29T08:42:55Z</time></trkpt><trkpt lat="42.10502758000908" lon="11.918753585362559"><ele>332.2</ele><time>2026-03-29T08:42:57Z</time></trkpt><trkpt lat="42.10501857159059" lon="11.91889102298675"><ele>334.0</ele><time>2026-03-29T08:42:59Z</time></trkpt><trkpt lat="42.10505341141637" lon="11.919066863317713"><ele>334.0</ele><time>2026-03-29T08:43:01Z</time></trkpt><trkpt lat="42.10506572197497" lon="11.919215562153163"><ele>334.0</ele><time>2026-03-29T08:43:02Z</time></trkpt><trkpt lat="42.10506585821156" lon="11.919308327648267"><ele>334.0</ele><time>2026-03-29T08:43:03Z</time></trkpt><trkpt lat="42.10503176048587" lon="11.919395522828285"><ele>334.0</ele><time>2026-03-29T08:43:04Z</time></trkpt><trkpt lat="42.10495071808591" lon="11.919453888957108"><ele>334.0</ele><time>2026-03-29T08:43:05Z</time></trkpt><trkpt lat="42.10484910155382" lon="11.919471671749566"><ele>334.0</ele><time>2026-03-29T08:43:06Z</time></trkpt><trkpt lat="42.10476298602409" lon="11.91947480877013"><ele>335.3333333333333</ele><time>2026-03-29T08:43:07Z</time></trkpt><trkpt lat="42.104675768459856" lon="11.919501233110008"><ele>336.66666666666663</ele><time>2026-03-29T08:43:08Z</time></trkpt><trkpt lat="42.104593582350795" lon="11.919500264410518"><ele>338.0</ele><time>2026-03-29T08:43:09Z</time></trkpt><trkpt lat="42.1045111789337" lon="11.91952683480847"><ele>339.3333333333333</ele><time>2026-03-29T08:43:10Z</time></trkpt><trkpt lat="42.104443676060015" lon="11.91958244014454"><ele>340.6666666666667</ele><time>2026-03-29T08:43:11Z</time></trkpt><trkpt lat="42.104391017649014" lon="11.919629165937854"><ele>342.0</ele><time>2026-03-29T08:43:12Z</time></trkpt><trkpt lat="42.10429895115226" lon="11.919710806194622"><ele>342.0</ele><time>2026-03-29T08:46:00.999Z</time></trkpt><trkpt lat="42.10417980400718" lon="11.919773539977069"><ele>342.0</ele><time>2026-03-29T08:46:02.999Z</time></trkpt><trkpt lat="42.10411075832304" lon="11.919787846966441"><ele>342.0</ele><time>2026-03-29T08:46:03.999Z</time></trkpt><trkpt lat="42.104028459879885" lon="11.919832938007904"><ele>342.0</ele><time>2026-03-29T08:46:04.999Z</time></trkpt><trkpt lat="42.10395386260808" lon="11.91988175866156"><ele>342.0</ele><time>2026-03-29T08:46:05.999Z</time></trkpt><trkpt lat="42.10389494215037" lon="11.91993035989701"><ele>342.0</ele><time>2026-03-29T08:46:06.999Z</time></trkpt><trkpt lat="42.10382415848171" lon="11.919998238434244"><ele>341.20000000000005</ele><time>2026-03-29T08:46:07.999Z</time></trkpt><trkpt lat="42.10377658893792" lon="11.920144982950443"><ele>340.4</ele><time>2026-03-29T08:46:09.999Z</time></trkpt><trkpt lat="42.103768955813614" lon="11.920233616835466"><ele>339.6</ele><time>2026-03-29T08:46:10.999Z</time></trkpt><trkpt lat="42.103792447188354" lon="11.920368945791342"><ele>338.79999999999995</ele><time>2026-03-29T08:46:12.999Z</time></trkpt><trkpt lat="42.10378322583761" lon="11.920531805450846"><ele>338.0</ele><time>2026-03-29T08:46:14.999Z</time></trkpt><trkpt lat="42.103775966298336" lon="11.920635523448002"><ele>338.0</ele><time>2026-03-29T08:46:15.999Z</time></trkpt><trkpt lat="42.10379084960146" lon="11.920794977563443"><ele>338.0</ele><time>2026-03-29T08:46:17.999Z</time></trkpt><trkpt lat="42.103815236907764" lon="11.92096845547353"><ele>338.0</ele><time>2026-03-29T08:46:19.999Z</time></trkpt><trkpt lat="42.10382606927379" lon="11.92106197050875"><ele>338.0</ele><time>2026-03-29T08:46:20.999Z</time></trkpt><trkpt lat="42.10382750952681" lon="11.921165560044782"><ele>338.0</ele><time>2026-03-29T08:46:21.999Z</time></trkpt><trkpt lat="42.10382123342727" lon="11.921261866993044"><ele>338.42857142857144</ele><time>2026-03-29T08:46:22.999Z</time></trkpt><trkpt lat="42.10380785428251" lon="11.921350901382294"><ele>338.85714285714283</ele><time>2026-03-29T08:46:23.999Z</time></trkpt><trkpt lat="42.103792330293636" lon="11.921439707406314"><ele>339.2857142857143</ele><time>2026-03-29T08:46:24.999Z</time></trkpt><trkpt lat="42.10377516404223" lon="11.921523809306843"><ele>339.7142857142857</ele><time>2026-03-29T08:46:25.999Z</time></trkpt><trkpt lat="42.103766063723924" lon="11.92161645330356"><ele>340.14285714285717</ele><time>2026-03-29T08:46:26.999Z</time></trkpt><trkpt lat="42.103759400765554" lon="11.921708714826652"><ele>340.57142857142856</ele><time>2026-03-29T08:46:27.999Z</time></trkpt><trkpt lat="42.10376265712057" lon="11.921801339694301"><ele>341.0</ele><time>2026-03-29T08:46:29Z</time></trkpt><trkpt lat="42.1037559317874" lon="11.92189315751496"><ele>341.42857142857144</ele><time>2026-03-29T08:46:30Z</time></trkpt><trkpt lat="42.10376149922711" lon="11.921982030112948"><ele>341.8571428571429</ele><time>2026-03-29T08:46:31Z</time></trkpt><trkpt lat="42.10377578381848" lon="11.922065701256791"><ele>342.28571428571433</ele><time>2026-03-29T08:46:32Z</time></trkpt><trkpt lat="42.10380259308914" lon="11.922152426240821"><ele>342.7142857142857</ele><time>2026-03-29T08:46:33Z</time></trkpt><trkpt lat="42.103808714712976" lon="11.922251008161721"><ele>343.14285714285717</ele><time>2026-03-29T08:46:34Z</time></trkpt><trkpt lat="42.103822391626714" lon="11.922370226771278"><ele>343.5714285714286</ele><time>2026-03-29T08:46:35Z</time></trkpt><trkpt lat="42.1038397277457" lon="11.922479373345295"><ele>344.0</ele><time>2026-03-29T08:46:36Z</time></trkpt><trkpt lat="42.10385481945636" lon="11.922582608160912"><ele>344.0</ele><time>2026-03-29T08:46:37Z</time></trkpt><trkpt lat="42.10386141578865" lon="11.922694655282701"><ele>344.0</ele><time>2026-03-29T08:46:38Z</time></trkpt><trkpt lat="42.10386465171326" lon="11.9228113466195"><ele>344.0</ele><time>2026-03-29T08:46:39Z</time></trkpt><trkpt lat="42.10388239737765" lon="11.92293610161316"><ele>344.0</ele><time>2026-03-29T08:46:40Z</time></trkpt><trkpt lat="42.103894522862454" lon="11.923057520796101"><ele>344.0</ele><time>2026-03-29T08:46:41Z</time></trkpt><trkpt lat="42.10390844489737" lon="11.923181443262186"><ele>344.0</ele><time>2026-03-29T08:46:42Z</time></trkpt><trkpt lat="42.10392914981058" lon="11.923299573449942"><ele>344.2</ele><time>2026-03-29T08:46:43Z</time></trkpt><trkpt lat="42.10394901627823" lon="11.923430128016996"><ele>344.4</ele><time>2026-03-29T08:46:44Z</time></trkpt><trkpt lat="42.103960440019975" lon="11.923571215116086"><ele>344.6</ele><time>2026-03-29T08:46:45Z</time></trkpt><trkpt lat="42.10397410240773" lon="11.923703578454552"><ele>344.8</ele><time>2026-03-29T08:46:46Z</time></trkpt><trkpt lat="42.10399245807478" lon="11.92384420827196"><ele>345.0</ele><time>2026-03-29T08:46:47Z</time></trkpt><trkpt lat="42.10400054127557" lon="11.923969813124605"><ele>345.0</ele><time>2026-03-29T08:46:48Z</time></trkpt><trkpt lat="42.10400664159326" lon="11.924101636899271"><ele>345.0</ele><time>2026-03-29T08:46:49Z</time></trkpt><trkpt lat="42.10398413191715" lon="11.924238294484763"><ele>345.0</ele><time>2026-03-29T08:46:50Z</time></trkpt><trkpt lat="42.10397557334403" lon="11.924384421888147"><ele>345.0</ele><time>2026-03-29T08:46:51Z</time></trkpt><trkpt lat="42.103982501643024" lon="11.924515542153708"><ele>345.0</ele><time>2026-03-29T08:46:52Z</time></trkpt><trkpt lat="42.103990095765376" lon="11.924691570612243"><ele>345.5</ele><time>2026-03-29T08:46:53Z</time></trkpt><trkpt lat="42.10400499641337" lon="11.924854447645597"><ele>346.0</ele><time>2026-03-29T08:46:54Z</time></trkpt><trkpt lat="42.10402059442011" lon="11.925011037719818"><ele>346.5</ele><time>2026-03-29T08:46:55Z</time></trkpt><trkpt lat="42.10402364342955" lon="11.92517246969543"><ele>347.0</ele><time>2026-03-29T08:46:56Z</time></trkpt><trkpt lat="42.10405195887847" lon="11.925356668935517"><ele>347.25</ele><time>2026-03-29T08:46:57Z</time></trkpt><trkpt lat="42.10406361109251" lon="11.925532189299151"><ele>347.5</ele><time>2026-03-29T08:46:58Z</time></trkpt><trkpt lat="42.10406047786753" lon="11.925691985236037"><ele>347.75</ele><time>2026-03-29T08:46:59Z</time></trkpt><trkpt lat="42.10406571886058" lon="11.925858252096477"><ele>348.0</ele><time>2026-03-29T08:47:00Z</time></trkpt><trkpt lat="42.104071427035024" lon="11.926036547294386"><ele>348.0</ele><time>2026-03-29T08:47:01Z</time></trkpt><trkpt lat="42.10407985100642" lon="11.926227043878384"><ele>348.0</ele><time>2026-03-29T08:47:02Z</time></trkpt><trkpt lat="42.10408093012834" lon="11.926407317251071"><ele>348.0</ele><time>2026-03-29T08:47:03Z</time></trkpt><trkpt lat="42.10408750763814" lon="11.92656160504418"><ele>348.0</ele><time>2026-03-29T08:47:04Z</time></trkpt><trkpt lat="42.10409898033119" lon="11.926702860622823"><ele>350.59999999999997</ele><time>2026-03-29T08:47:05Z</time></trkpt><trkpt lat="42.10411411590371" lon="11.926822079356423"><ele>353.2</ele><time>2026-03-29T08:47:06Z</time></trkpt><trkpt lat="42.10413209966503" lon="11.926938858977763"><ele>355.8</ele><time>2026-03-29T08:47:07Z</time></trkpt><trkpt lat="42.10414163263234" lon="11.92707796082965"><ele>358.4</ele><time>2026-03-29T08:47:08Z</time></trkpt><trkpt lat="42.10415540152923" lon="11.927224112193763"><ele>361.0</ele><time>2026-03-29T08:47:09Z</time></trkpt><trkpt lat="42.10418405795453" lon="11.927376928827972"><ele>361.0</ele><time>2026-03-29T08:47:10Z</time></trkpt><trkpt lat="42.104214629928386" lon="11.92751615609513"><ele>361.0</ele><time>2026-03-29T08:47:11Z</time></trkpt><trkpt lat="42.10426408186908" lon="11.927679111251763"><ele>361.0</ele><time>2026-03-29T08:47:12Z</time></trkpt><trkpt lat="42.10429807214316" lon="11.927823136132176"><ele>361.0</ele><time>2026-03-29T08:47:13Z</time></trkpt><trkpt lat="42.10435034962297" lon="11.927950417193331"><ele>361.25</ele><time>2026-03-29T08:47:14Z</time></trkpt><trkpt lat="42.104381334524575" lon="11.928095882647249"><ele>361.5</ele><time>2026-03-29T08:47:15Z</time></trkpt><trkpt lat="42.104429442416816" lon="11.928239494505236"><ele>361.75</ele><time>2026-03-29T08:47:16Z</time></trkpt><trkpt lat="42.10448276327116" lon="11.928383485847784"><ele>362.0</ele><time>2026-03-29T08:47:17Z</time></trkpt><trkpt lat="42.10451757119596" lon="11.928520189452444"><ele>362.0</ele><time>2026-03-29T08:47:18Z</time></trkpt><trkpt lat="42.104549949620306" lon="11.928655179713026"><ele>362.0</ele><time>2026-03-29T08:47:19Z</time></trkpt><trkpt lat="42.10458288136962" lon="11.92876982619774"><ele>362.0</ele><time>2026-03-29T08:47:20Z</time></trkpt><trkpt lat="42.10462892654321" lon="11.928883526637149"><ele>362.0</ele><time>2026-03-29T08:47:21Z</time></trkpt><trkpt lat="42.104660335444954" lon="11.92900181033692"><ele>362.0</ele><time>2026-03-29T08:47:22Z</time></trkpt><trkpt lat="42.10468804744276" lon="11.929120999311882"><ele>363.8</ele><time>2026-03-29T08:47:23Z</time></trkpt><trkpt lat="42.104693691713635" lon="11.929256450446351"><ele>365.6</ele><time>2026-03-29T08:47:24Z</time></trkpt><trkpt lat="42.104658525949745" lon="11.92938522324045"><ele>367.40000000000003</ele><time>2026-03-29T08:47:25Z</time></trkpt><trkpt lat="42.104638689169576" lon="11.92951799861118"><ele>369.20000000000005</ele><time>2026-03-29T08:47:26Z</time></trkpt><trkpt lat="42.10459532888786" lon="11.929668505959853"><ele>371.0</ele><time>2026-03-29T08:47:27Z</time></trkpt><trkpt lat="42.10453622717135" lon="11.929810625965704"><ele>371.0</ele><time>2026-03-29T08:47:27.999Z</time></trkpt><trkpt lat="42.10445975691237" lon="11.929937321672025"><ele>371.0</ele><time>2026-03-29T08:47:28.999Z</time></trkpt><trkpt lat="42.10437174713272" lon="11.930063907352654"><ele>371.0</ele><time>2026-03-29T08:47:29.999Z</time></trkpt><trkpt lat="42.10428047887327" lon="11.930189597325054"><ele>371.0</ele><time>2026-03-29T08:47:30.999Z</time></trkpt><trkpt lat="42.10418779370366" lon="11.930315788171768"><ele>370.4</ele><time>2026-03-29T08:47:31.999Z</time></trkpt><trkpt lat="42.10411079849838" lon="11.930420687782817"><ele>369.8</ele><time>2026-03-29T08:47:32.999Z</time></trkpt><trkpt lat="42.10407517310979" lon="11.93053441762478"><ele>369.2</ele><time>2026-03-29T08:47:33.999Z</time></trkpt><trkpt lat="42.10406492745856" lon="11.930648608547136"><ele>368.59999999999997</ele><time>2026-03-29T08:47:34.999Z</time></trkpt><trkpt lat="42.10407851577622" lon="11.930771053232148"><ele>368.0</ele><time>2026-03-29T08:47:35.999Z</time></trkpt><trkpt lat="42.104093806295005" lon="11.930893823899211"><ele>368.0</ele><time>2026-03-29T08:47:36.999Z</time></trkpt><trkpt lat="42.104162343795174" lon="11.931009557223225"><ele>368.0</ele><time>2026-03-29T08:47:37.999Z</time></trkpt><trkpt lat="42.10423404623321" lon="11.931118943510732"><ele>368.0</ele><time>2026-03-29T08:47:38.999Z</time></trkpt><trkpt lat="42.104301511035835" lon="11.931221772095153"><ele>368.0</ele><time>2026-03-29T08:47:39.999Z</time></trkpt><trkpt lat="42.10437929189825" lon="11.931318428602285"><ele>368.0</ele><time>2026-03-29T08:47:40.999Z</time></trkpt><trkpt lat="42.10445397709262" lon="11.931407796534705"><ele>368.0</ele><time>2026-03-29T08:47:41.999Z</time></trkpt><trkpt lat="42.10451481270465" lon="11.931491835121788"><ele>368.0</ele><time>2026-03-29T08:47:42.999Z</time></trkpt><trkpt lat="42.10459470032602" lon="11.931585824694418"><ele>368.0</ele><time>2026-03-29T08:47:43.999Z</time></trkpt><trkpt lat="42.10464487022517" lon="11.93167688213252"><ele>368.0</ele><time>2026-03-29T08:47:44.999Z</time></trkpt><trkpt lat="42.10471618261314" lon="11.931740948431031"><ele>368.0</ele><time>2026-03-29T08:47:45.999Z</time></trkpt><trkpt lat="42.104781090763716" lon="11.93181704221672"><ele>368.0</ele><time>2026-03-29T08:47:46.999Z</time></trkpt><trkpt lat="42.10486045245441" lon="11.931893029938673"><ele>366.79999999999995</ele><time>2026-03-29T08:47:47.999Z</time></trkpt><trkpt lat="42.10495109105043" lon="11.931965435322615"><ele>365.6</ele><time>2026-03-29T08:47:48.999Z</time></trkpt><trkpt lat="42.1050354890012" lon="11.93201456364068"><ele>364.4</ele><time>2026-03-29T08:47:49.999Z</time></trkpt><trkpt lat="42.105113734888974" lon="11.932077846790238"><ele>363.20000000000005</ele><time>2026-03-29T08:47:50.999Z</time></trkpt><trkpt lat="42.10522913583503" lon="11.93211007468217"><ele>362.0</ele><time>2026-03-29T08:47:51.999Z</time></trkpt><trkpt lat="42.10531253411951" lon="11.932111024332652"><ele>362.0</ele><time>2026-03-29T08:47:52.999Z</time></trkpt><trkpt lat="42.1053985186526" lon="11.932116099520039"><ele>362.0</ele><time>2026-03-29T08:47:53.999Z</time></trkpt><trkpt lat="42.105480541529715" lon="11.932119900507105"><ele>362.0</ele><time>2026-03-29T08:47:54.999Z</time></trkpt><trkpt lat="42.1055753615882" lon="11.932122964593614"><ele>362.0</ele><time>2026-03-29T08:47:55.999Z</time></trkpt><trkpt lat="42.105689477987745" lon="11.93210126735438"><ele>362.0</ele><time>2026-03-29T08:47:56.999Z</time></trkpt><trkpt lat="42.10579953858708" lon="11.9321273932888"><ele>360.83333333333337</ele><time>2026-03-29T08:47:57.999Z</time></trkpt><trkpt lat="42.10588658404244" lon="11.932124302463373"><ele>359.6666666666667</ele><time>2026-03-29T08:47:58.999Z</time></trkpt><trkpt lat="42.10596817731704" lon="11.932115187820633"><ele>358.5</ele><time>2026-03-29T08:47:59.999Z</time></trkpt><trkpt lat="42.106048878558774" lon="11.932116807527109"><ele>357.3333333333333</ele><time>2026-03-29T08:48:00.999Z</time></trkpt><trkpt lat="42.10612805899405" lon="11.932091979178637"><ele>356.16666666666663</ele><time>2026-03-29T08:48:02.999Z</time></trkpt><trkpt lat="42.1061748002719" lon="11.932150042981299"><ele>355.0</ele><time>2026-03-29T08:48:17.999Z</time></trkpt><trkpt lat="42.10617786869573" lon="11.93224957933147"><ele>355.0</ele><time>2026-03-29T08:48:55Z</time></trkpt><trkpt lat="42.10618624596933" lon="11.932394572717865"><ele>355.0</ele><time>2026-03-29T08:49:07Z</time></trkpt><trkpt lat="42.10615651726564" lon="11.932562787873406"><ele>355.0</ele><time>2026-03-29T08:49:09Z</time></trkpt><trkpt lat="42.10612539355945" lon="11.93265535394747"><ele>355.0</ele><time>2026-03-29T08:49:10Z</time></trkpt><trkpt lat="42.106098842893815" lon="11.932767389645328"><ele>355.0</ele><time>2026-03-29T08:49:11Z</time></trkpt><trkpt lat="42.10605617972903" lon="11.932876306803859"><ele>353.8</ele><time>2026-03-29T08:49:12Z</time></trkpt><trkpt lat="42.10601810010509" lon="11.93298044944412"><ele>352.6</ele><time>2026-03-29T08:49:13Z</time></trkpt><trkpt lat="42.105976154433314" lon="11.93307832354174"><ele>351.4</ele><time>2026-03-29T08:49:14Z</time></trkpt><trkpt lat="42.105922600057895" lon="11.933245899150059"><ele>350.2</ele><time>2026-03-29T08:49:16Z</time></trkpt><trkpt lat="42.10587208454313" lon="11.933329872131464"><ele>349.0</ele><time>2026-03-29T08:49:17Z</time></trkpt><trkpt lat="42.10581406338471" lon="11.933398984949694"><ele>348.0</ele><time>2026-03-29T08:49:18Z</time></trkpt><trkpt lat="42.10575259376233" lon="11.933461506124"><ele>347.0</ele><time>2026-03-29T08:49:19Z</time></trkpt><trkpt lat="42.105674591273484" lon="11.933472854611068"><ele>346.0</ele><time>2026-03-29T08:49:20Z</time></trkpt><trkpt lat="42.10559452394854" lon="11.933497505125597"><ele>345.0</ele><time>2026-03-29T08:49:21Z</time></trkpt><trkpt lat="42.10549083455808" lon="11.933521831128626"><ele>344.0</ele><time>2026-03-29T08:49:22Z</time></trkpt><trkpt lat="42.105413893666864" lon="11.933567380132132"><ele>343.0</ele><time>2026-03-29T08:49:23Z</time></trkpt><trkpt lat="42.10534883579214" lon="11.933627004658742"><ele>342.66666666666663</ele><time>2026-03-29T08:49:24Z</time></trkpt><trkpt lat="42.10529760576618" lon="11.933698050072758"><ele>342.3333333333333</ele><time>2026-03-29T08:49:25Z</time></trkpt><trkpt lat="42.105224213544155" lon="11.93375735664471"><ele>342.0</ele><time>2026-03-29T08:49:26Z</time></trkpt><trkpt lat="42.10515136795606" lon="11.933797489893628"><ele>341.6666666666667</ele><time>2026-03-29T08:49:27Z</time></trkpt><trkpt lat="42.10507196137364" lon="11.933838667297445"><ele>341.33333333333337</ele><time>2026-03-29T08:49:28Z</time></trkpt><trkpt lat="42.105000289680994" lon="11.933878946903706"><ele>341.0</ele><time>2026-03-29T08:49:29Z</time></trkpt><trkpt lat="42.104915209625325" lon="11.933981291335538"><ele>340.4</ele><time>2026-03-29T08:49:31Z</time></trkpt><trkpt lat="42.10488761450562" lon="11.9341354266471"><ele>339.8</ele><time>2026-03-29T08:49:33Z</time></trkpt><trkpt lat="42.104893322099336" lon="11.93433755880946"><ele>339.2</ele><time>2026-03-29T08:49:34.999Z</time></trkpt><trkpt lat="42.104861777960295" lon="11.934458179644956"><ele>338.59999999999997</ele><time>2026-03-29T08:49:35.999Z</time></trkpt><trkpt lat="42.10482292339089" lon="11.934554340350626"><ele>338.0</ele><time>2026-03-29T08:49:36.999Z</time></trkpt><trkpt lat="42.10477533901745" lon="11.934653356425507"><ele>336.5</ele><time>2026-03-29T08:49:37.999Z</time></trkpt><trkpt lat="42.104732478473345" lon="11.934740504197912"><ele>335.0</ele><time>2026-03-29T08:49:38.999Z</time></trkpt><trkpt lat="42.104692132444164" lon="11.934855582436281"><ele>333.5</ele><time>2026-03-29T08:49:39.999Z</time></trkpt><trkpt lat="42.10464320101904" lon="11.934940055266523"><ele>332.0</ele><time>2026-03-29T08:49:40.999Z</time></trkpt><trkpt lat="42.10459774769414" lon="11.935016664828591"><ele>330.5</ele><time>2026-03-29T08:49:41.999Z</time></trkpt><trkpt lat="42.10455833450923" lon="11.935097950928835"><ele>329.0</ele><time>2026-03-29T08:49:42.999Z</time></trkpt><trkpt lat="42.104515935905056" lon="11.935202639617975"><ele>327.83333333333337</ele><time>2026-03-29T08:49:43.999Z</time></trkpt><trkpt lat="42.10446813065385" lon="11.935289008473994"><ele>326.6666666666667</ele><time>2026-03-29T08:49:44.999Z</time></trkpt><trkpt lat="42.104418800237475" lon="11.935394324939404"><ele>325.5</ele><time>2026-03-29T08:49:45.999Z</time></trkpt><trkpt lat="42.10435522579219" lon="11.935480006523276"><ele>324.3333333333333</ele><time>2026-03-29T08:49:46.999Z</time></trkpt><trkpt lat="42.10428812381655" lon="11.93553608917831"><ele>323.16666666666663</ele><time>2026-03-29T08:49:47.999Z</time></trkpt><trkpt lat="42.104200400170924" lon="11.935573599131775"><ele>322.0</ele><time>2026-03-29T08:49:48.999Z</time></trkpt><trkpt lat="42.10411070717259" lon="11.93557339498354"><ele>321.16666666666663</ele><time>2026-03-29T08:49:49.999Z</time></trkpt><trkpt lat="42.10400907474467" lon="11.935562655465635"><ele>320.3333333333333</ele><time>2026-03-29T08:49:50.999Z</time></trkpt><trkpt lat="42.103912458146795" lon="11.935602477026457"><ele>319.5</ele><time>2026-03-29T08:49:51.999Z</time></trkpt><trkpt lat="42.10382990521392" lon="11.935636179166833"><ele>318.6666666666667</ele><time>2026-03-29T08:49:52.999Z</time></trkpt><trkpt lat="42.10374997432071" lon="11.935639081253433"><ele>317.83333333333337</ele><time>2026-03-29T08:49:53.999Z</time></trkpt><trkpt lat="42.10368907345764" lon="11.935596141280747"><ele>317.0</ele><time>2026-03-29T08:49:54.999Z</time></trkpt><trkpt lat="42.10356284857664" lon="11.935512549349337"><ele>317.0</ele><time>2026-03-29T08:49:56.999Z</time></trkpt><trkpt lat="42.10349329243817" lon="11.935409610196336"><ele>317.0</ele><time>2026-03-29T08:49:57.999Z</time></trkpt><trkpt lat="42.103438369897916" lon="11.935305716263368"><ele>317.0</ele><time>2026-03-29T08:49:58.999Z</time></trkpt><trkpt lat="42.1033780383477" lon="11.935243224237546"><ele>317.0</ele><time>2026-03-29T08:49:59.999Z</time></trkpt><trkpt lat="42.10328683636793" lon="11.93518233210216"><ele>317.0</ele><time>2026-03-29T08:50:01.999Z</time></trkpt><trkpt lat="42.10321140550617" lon="11.935145652706982"><ele>316.33333333333337</ele><time>2026-03-29T08:50:02.999Z</time></trkpt><trkpt lat="42.103133838226654" lon="11.935112295943945"><ele>315.6666666666667</ele><time>2026-03-29T08:50:03.999Z</time></trkpt><trkpt lat="42.103048909938266" lon="11.93508708747783"><ele>315.0</ele><time>2026-03-29T08:50:04.999Z</time></trkpt><trkpt lat="42.102981533816624" lon="11.935044748569913"><ele>314.3333333333333</ele><time>2026-03-29T08:50:05.999Z</time></trkpt><trkpt lat="42.10290831409513" lon="11.935026057187935"><ele>313.66666666666663</ele><time>2026-03-29T08:50:06.999Z</time></trkpt><trkpt lat="42.10284009783581" lon="11.93504231787461"><ele>313.0</ele><time>2026-03-29T08:50:07.999Z</time></trkpt><trkpt lat="42.10277385631724" lon="11.93506116370939"><ele>313.0</ele><time>2026-03-29T08:50:08.999Z</time></trkpt><trkpt lat="42.102701290048074" lon="11.93509800162846"><ele>313.0</ele><time>2026-03-29T08:50:09.999Z</time></trkpt><trkpt lat="42.10260669389143" lon="11.935195401443933"><ele>313.0</ele><time>2026-03-29T08:50:10.999Z</time></trkpt><trkpt lat="42.10251575986325" lon="11.935252400644279"><ele>313.0</ele><time>2026-03-29T08:50:11.999Z</time></trkpt><trkpt lat="42.1024455077522" lon="11.935277367813033"><ele>313.0</ele><time>2026-03-29T08:50:12.999Z</time></trkpt><trkpt lat="42.102383271068476" lon="11.935382261816128"><ele>313.6</ele><time>2026-03-29T08:50:13.999Z</time></trkpt><trkpt lat="42.10234653950785" lon="11.935457731322872"><ele>314.20000000000005</ele><time>2026-03-29T08:50:14.999Z</time></trkpt><trkpt lat="42.102290879311106" lon="11.935546909273246"><ele>314.8</ele><time>2026-03-29T08:50:15.999Z</time></trkpt><trkpt lat="42.102232243802774" lon="11.93564444631145"><ele>315.40000000000003</ele><time>2026-03-29T08:50:16.999Z</time></trkpt><trkpt lat="42.10219502025801" lon="11.935779331107636"><ele>316.0</ele><time>2026-03-29T08:50:17.999Z</time></trkpt><trkpt lat="42.10213537576515" lon="11.935907191000412"><ele>314.5</ele><time>2026-03-29T08:50:18.999Z</time></trkpt><trkpt lat="42.10208475969179" lon="11.936008665275715"><ele>313.0</ele><time>2026-03-29T08:50:19.999Z</time></trkpt><trkpt lat="42.10203491510653" lon="11.93613193327034"><ele>311.5</ele><time>2026-03-29T08:50:20.999Z</time></trkpt><trkpt lat="42.10198153636604" lon="11.93622506478307"><ele>310.0</ele><time>2026-03-29T08:50:21.999Z</time></trkpt><trkpt lat="42.10193815960138" lon="11.93628762664915"><ele>308.5</ele><time>2026-03-29T08:50:22.999Z</time></trkpt><trkpt lat="42.10188594512121" lon="11.936362912742133"><ele>307.0</ele><time>2026-03-29T08:50:23.999Z</time></trkpt><trkpt lat="42.10184729920344" lon="11.936441849627839"><ele>307.0</ele><time>2026-03-29T08:50:24.999Z</time></trkpt><trkpt lat="42.10178560527991" lon="11.936538266812791"><ele>307.0</ele><time>2026-03-29T08:50:25.999Z</time></trkpt><trkpt lat="42.101715958505075" lon="11.936628137291455"><ele>307.0</ele><time>2026-03-29T08:50:26.999Z</time></trkpt><trkpt lat="42.101634879705074" lon="11.936695859451312"><ele>307.0</ele><time>2026-03-29T08:50:27.999Z</time></trkpt><trkpt lat="42.10155510056949" lon="11.936776169397024"><ele>307.0</ele><time>2026-03-29T08:50:28.999Z</time></trkpt><trkpt lat="42.10149984564306" lon="11.936877365559074"><ele>302.8</ele><time>2026-03-29T08:50:29.999Z</time></trkpt><trkpt lat="42.101386475897776" lon="11.936870696453932"><ele>298.6</ele><time>2026-03-29T08:50:31.999Z</time></trkpt><trkpt lat="42.10129708103002" lon="11.936838731500698"><ele>294.40000000000003</ele><time>2026-03-29T08:50:32.999Z</time></trkpt><trkpt lat="42.10120672589717" lon="11.936843327054854"><ele>290.2</ele><time>2026-03-29T08:50:33.999Z</time></trkpt><trkpt lat="42.101104995796845" lon="11.936839966103896"><ele>286.0</ele><time>2026-03-29T08:50:34.999Z</time></trkpt><trkpt lat="42.100996333702156" lon="11.936816704766835"><ele>286.0</ele><time>2026-03-29T08:50:35.999Z</time></trkpt><trkpt lat="42.10091198031905" lon="11.936794081049136"><ele>286.0</ele><time>2026-03-29T08:50:36.999Z</time></trkpt><trkpt lat="42.100844267711615" lon="11.936766248006332"><ele>286.0</ele><time>2026-03-29T08:50:37.999Z</time></trkpt><trkpt lat="42.10072859950369" lon="11.936782189425276"><ele>286.0</ele><time>2026-03-29T08:50:39.999Z</time></trkpt><trkpt lat="42.10063137728914" lon="11.936864813765665"><ele>286.0</ele><time>2026-03-29T08:50:42Z</time></trkpt><trkpt lat="42.100544050201215" lon="11.936877815539699"><ele>285.0</ele><time>2026-03-29T08:50:44Z</time></trkpt><trkpt lat="42.100472871151254" lon="11.936898995784418"><ele>284.0</ele><time>2026-03-29T08:55:28Z</time></trkpt><trkpt lat="42.100384525834436" lon="11.936957802392753"><ele>283.0</ele><time>2026-03-29T08:55:30Z</time></trkpt><trkpt lat="42.10027778300253" lon="11.936977226723943"><ele>282.0</ele><time>2026-03-29T08:55:32Z</time></trkpt><trkpt lat="42.10020847393182" lon="11.936923967792739"><ele>281.0</ele><time>2026-03-29T08:55:33Z</time></trkpt><trkpt lat="42.10012978668725" lon="11.936892933488206"><ele>280.0</ele><time>2026-03-29T08:55:34Z</time></trkpt><trkpt lat="42.10006432580158" lon="11.936846265536436"><ele>280.0</ele><time>2026-03-29T08:55:35Z</time></trkpt><trkpt lat="42.09998816621614" lon="11.936826174223865"><ele>280.0</ele><time>2026-03-29T08:55:36Z</time></trkpt><trkpt lat="42.09990046139295" lon="11.936816091311519"><ele>280.0</ele><time>2026-03-29T08:55:37Z</time></trkpt><trkpt lat="42.099831767640794" lon="11.936815441897624"><ele>280.0</ele><time>2026-03-29T08:55:38Z</time></trkpt><trkpt lat="42.09975947200272" lon="11.936835902309475"><ele>280.0</ele><time>2026-03-29T08:55:39Z</time></trkpt><trkpt lat="42.099655724435316" lon="11.93684130483016"><ele>280.0</ele><time>2026-03-29T08:55:40Z</time></trkpt><trkpt lat="42.099571809253895" lon="11.936831196367136"><ele>279.66666666666663</ele><time>2026-03-29T08:55:41Z</time></trkpt><trkpt lat="42.09949830078969" lon="11.936845261467461"><ele>279.3333333333333</ele><time>2026-03-29T08:55:42Z</time></trkpt><trkpt lat="42.0994242588197" lon="11.936859918106144"><ele>279.0</ele><time>2026-03-29T08:55:43Z</time></trkpt><trkpt lat="42.09934113868516" lon="11.936855073437043"><ele>278.6666666666667</ele><time>2026-03-29T08:55:44Z</time></trkpt><trkpt lat="42.099250298827634" lon="11.936824317804597"><ele>278.33333333333337</ele><time>2026-03-29T08:55:45Z</time></trkpt><trkpt lat="42.09915394951066" lon="11.9367841716604"><ele>278.0</ele><time>2026-03-29T08:55:46Z</time></trkpt><trkpt lat="42.09908398227113" lon="11.936763985236185"><ele>279.33333333333337</ele><time>2026-03-29T08:55:47Z</time></trkpt><trkpt lat="42.098998719451316" lon="11.93674658304163"><ele>280.6666666666667</ele><time>2026-03-29T08:55:48Z</time></trkpt><trkpt lat="42.09891289437806" lon="11.936745459619573"><ele>282.0</ele><time>2026-03-29T08:55:49Z</time></trkpt><trkpt lat="42.098822441265874" lon="11.936758048072043"><ele>283.3333333333333</ele><time>2026-03-29T08:55:50Z</time></trkpt><trkpt lat="42.09873584148546" lon="11.936750975833196"><ele>284.66666666666663</ele><time>2026-03-29T08:55:50.999Z</time></trkpt><trkpt lat="42.09866431079524" lon="11.936741880468842"><ele>286.0</ele><time>2026-03-29T08:55:51.999Z</time></trkpt><trkpt lat="42.098595848585994" lon="11.936756151371544"><ele>286.0</ele><time>2026-03-29T08:55:52.999Z</time></trkpt><trkpt lat="42.09851649331217" lon="11.93678651255016"><ele>286.0</ele><time>2026-03-29T08:55:53.999Z</time></trkpt><trkpt lat="42.09843588131577" lon="11.936828617033306"><ele>286.0</ele><time>2026-03-29T08:55:54.999Z</time></trkpt><trkpt lat="42.09836840742156" lon="11.936882278322154"><ele>286.0</ele><time>2026-03-29T08:55:55.999Z</time></trkpt><trkpt lat="42.09828736344221" lon="11.936944948559406"><ele>286.0</ele><time>2026-03-29T08:55:56.999Z</time></trkpt><trkpt lat="42.09818190377307" lon="11.936974581290729"><ele>286.0</ele><time>2026-03-29T08:55:57.999Z</time></trkpt><trkpt lat="42.09809573158163" lon="11.936995616503362"><ele>286.0</ele><time>2026-03-29T08:55:58.999Z</time></trkpt><trkpt lat="42.098001532919234" lon="11.937019000536853"><ele>286.0</ele><time>2026-03-29T08:55:59.999Z</time></trkpt><trkpt lat="42.09791567370185" lon="11.937036747584614"><ele>286.0</ele><time>2026-03-29T08:56:00.999Z</time></trkpt><trkpt lat="42.09784399232845" lon="11.937057064183694"><ele>286.0</ele><time>2026-03-29T08:56:01.999Z</time></trkpt><trkpt lat="42.097709440128064" lon="11.937143229722924"><ele>286.0</ele><time>2026-03-29T08:56:04.999Z</time></trkpt><trkpt lat="42.097630269090544" lon="11.937183590704898"><ele>286.0</ele><time>2026-03-29T08:56:05.999Z</time></trkpt><trkpt lat="42.09756129771134" lon="11.93723586198963"><ele>286.0</ele><time>2026-03-29T08:56:06.999Z</time></trkpt><trkpt lat="42.097491130471845" lon="11.93738612311976"><ele>286.0</ele><time>2026-03-29T08:56:08.999Z</time></trkpt><trkpt lat="42.09747742862513" lon="11.937522127510242"><ele>286.0</ele><time>2026-03-29T08:56:09.999Z</time></trkpt><trkpt lat="42.09744050846088" lon="11.93762221906136"><ele>286.0</ele><time>2026-03-29T08:56:10.999Z</time></trkpt><trkpt lat="42.0974022271252" lon="11.937720073158111"><ele>286.5</ele><time>2026-03-29T08:56:11.999Z</time></trkpt><trkpt lat="42.09734649790352" lon="11.937812040930742"><ele>287.0</ele><time>2026-03-29T08:56:12.999Z</time></trkpt><trkpt lat="42.09727200557409" lon="11.937869208943807"><ele>287.5</ele><time>2026-03-29T08:56:13.999Z</time></trkpt><trkpt lat="42.09720232222254" lon="11.937878942114029"><ele>288.0</ele><time>2026-03-29T08:56:14.999Z</time></trkpt><trkpt lat="42.097115814621574" lon="11.937898791551653"><ele>288.5</ele><time>2026-03-29T08:56:16.999Z</time></trkpt><trkpt lat="42.097061564893885" lon="11.937948565897143"><ele>289.0</ele><time>2026-03-29T08:57:11Z</time></trkpt><trkpt lat="42.096985494128155" lon="11.937988054696724"><ele>289.0</ele><time>2026-03-29T08:57:20Z</time></trkpt><trkpt lat="42.09691767295534" lon="11.938017772244313"><ele>289.0</ele><time>2026-03-29T08:57:22Z</time></trkpt><trkpt lat="42.09681183007438" lon="11.938054979317814"><ele>289.0</ele><time>2026-03-29T08:57:24Z</time></trkpt><trkpt lat="42.09673283052882" lon="11.938123837442078"><ele>289.0</ele><time>2026-03-29T08:57:25Z</time></trkpt><trkpt lat="42.09664775698589" lon="11.938173434208563"><ele>289.0</ele><time>2026-03-29T08:57:26Z</time></trkpt><trkpt lat="42.0965590975109" lon="11.938221534863258"><ele>289.0</ele><time>2026-03-29T08:57:27Z</time></trkpt><trkpt lat="42.09645241616276" lon="11.938257962396632"><ele>289.0</ele><time>2026-03-29T08:57:28Z</time></trkpt><trkpt lat="42.09638407072101" lon="11.938310091915852"><ele>289.0</ele><time>2026-03-29T08:57:29Z</time></trkpt><trkpt lat="42.09631603737169" lon="11.938366356309341"><ele>289.0</ele><time>2026-03-29T08:57:30Z</time></trkpt><trkpt lat="42.096249544005275" lon="11.938414567230438"><ele>289.0</ele><time>2026-03-29T08:57:31Z</time></trkpt><trkpt lat="42.09617901248876" lon="11.938454895309889"><ele>289.0</ele><time>2026-03-29T08:57:32Z</time></trkpt><trkpt lat="42.09610992557176" lon="11.938480347813378"><ele>287.5</ele><time>2026-03-29T08:57:33Z</time></trkpt><trkpt lat="42.09603976032731" lon="11.938472104522234"><ele>286.0</ele><time>2026-03-29T08:57:34Z</time></trkpt><trkpt lat="42.09596403300174" lon="11.938463054913385"><ele>284.5</ele><time>2026-03-29T08:57:35Z</time></trkpt><trkpt lat="42.095875799171715" lon="11.938463594108724"><ele>283.0</ele><time>2026-03-29T08:57:36Z</time></trkpt><trkpt lat="42.09578746985167" lon="11.938460627548913"><ele>281.5</ele><time>2026-03-29T08:57:37Z</time></trkpt><trkpt lat="42.09569551018615" lon="11.938473318895687"><ele>280.0</ele><time>2026-03-29T08:57:38Z</time></trkpt><trkpt lat="42.095628786711835" lon="11.938491817412164"><ele>279.6</ele><time>2026-03-29T08:57:39Z</time></trkpt><trkpt lat="42.09551909188754" lon="11.938581009108818"><ele>279.2</ele><time>2026-03-29T08:57:41Z</time></trkpt><trkpt lat="42.095443766906925" lon="11.93865581263525"><ele>278.8</ele><time>2026-03-29T08:57:42Z</time></trkpt><trkpt lat="42.09536108632629" lon="11.938726432632668"><ele>278.4</ele><time>2026-03-29T08:57:43Z</time></trkpt><trkpt lat="42.09528413617509" lon="11.938798655951958"><ele>278.0</ele><time>2026-03-29T08:57:44Z</time></trkpt><trkpt lat="42.09521003436781" lon="11.938865460850868"><ele>278.0</ele><time>2026-03-29T08:57:45Z</time></trkpt><trkpt lat="42.09514566573131" lon="11.93893676617241"><ele>278.0</ele><time>2026-03-29T08:57:46Z</time></trkpt><trkpt lat="42.095078336597275" lon="11.939027457589082"><ele>278.0</ele><time>2026-03-29T08:57:47Z</time></trkpt><trkpt lat="42.09501078402772" lon="11.939092550727768"><ele>278.0</ele><time>2026-03-29T08:57:48Z</time></trkpt><trkpt lat="42.094935456303546" lon="11.93914219117057"><ele>278.0</ele><time>2026-03-29T08:57:49Z</time></trkpt><trkpt lat="42.09484970712136" lon="11.939156032158808"><ele>278.0</ele><time>2026-03-29T08:57:50Z</time></trkpt><trkpt lat="42.094759419557654" lon="11.939172257620118"><ele>276.2</ele><time>2026-03-29T08:57:51Z</time></trkpt><trkpt lat="42.09467801479248" lon="11.93918462942317"><ele>274.4</ele><time>2026-03-29T08:57:52Z</time></trkpt><trkpt lat="42.094584874569314" lon="11.939260705738775"><ele>272.59999999999997</ele><time>2026-03-29T08:57:54Z</time></trkpt><trkpt lat="42.09455101026648" lon="11.939397069688564"><ele>270.8</ele><time>2026-03-29T08:57:56Z</time></trkpt><trkpt lat="42.09452203237473" lon="11.939491890901921"><ele>269.0</ele><time>2026-03-29T08:57:57Z</time></trkpt><trkpt lat="42.09450527389674" lon="11.939595562857917"><ele>269.0</ele><time>2026-03-29T08:57:57.999Z</time></trkpt><trkpt lat="42.09449258677113" lon="11.939690544886474"><ele>269.0</ele><time>2026-03-29T08:57:58.999Z</time></trkpt><trkpt lat="42.094482275494556" lon="11.939782818881175"><ele>269.0</ele><time>2026-03-29T08:57:59.999Z</time></trkpt><trkpt lat="42.09447586953992" lon="11.939873921950774"><ele>269.0</ele><time>2026-03-29T08:58:00.999Z</time></trkpt><trkpt lat="42.09443241518807" lon="11.940023602796948"><ele>269.0</ele><time>2026-03-29T08:58:02.999Z</time></trkpt><trkpt lat="42.0943623464993" lon="11.94008782338396"><ele>269.0</ele><time>2026-03-29T08:58:03.999Z</time></trkpt><trkpt lat="42.09428060123557" lon="11.940181958611003"><ele>268.8</ele><time>2026-03-29T08:58:04.999Z</time></trkpt><trkpt lat="42.09420226749235" lon="11.940287161662983"><ele>268.59999999999997</ele><time>2026-03-29T08:58:05.999Z</time></trkpt><trkpt lat="42.09412867934798" lon="11.940393754922114"><ele>268.4</ele><time>2026-03-29T08:58:06.999Z</time></trkpt><trkpt lat="42.094053722145524" lon="11.940502478608742"><ele>268.2</ele><time>2026-03-29T08:58:07.999Z</time></trkpt><trkpt lat="42.09398447216254" lon="11.940597601823951"><ele>268.0</ele><time>2026-03-29T08:58:08.999Z</time></trkpt><trkpt lat="42.093905590329726" lon="11.94067304957517"><ele>268.0</ele><time>2026-03-29T08:58:09.999Z</time></trkpt><trkpt lat="42.09383292628021" lon="11.94073882182854"><ele>268.0</ele><time>2026-03-29T08:58:10.999Z</time></trkpt><trkpt lat="42.093774904293035" lon="11.940791879829176"><ele>268.0</ele><time>2026-03-29T08:58:11.999Z</time></trkpt><trkpt lat="42.0937132856507" lon="11.940840954691465"><ele>268.0</ele><time>2026-03-29T08:58:12.999Z</time></trkpt><trkpt lat="42.09364159241818" lon="11.940883666415967"><ele>268.0</ele><time>2026-03-29T08:58:13.999Z</time></trkpt><trkpt lat="42.09357944074633" lon="11.940938429467288"><ele>268.0</ele><time>2026-03-29T08:58:14.999Z</time></trkpt><trkpt lat="42.093521099871744" lon="11.941049040033521"><ele>268.4</ele><time>2026-03-29T08:58:15.999Z</time></trkpt><trkpt lat="42.09344706975933" lon="11.941179325662988"><ele>268.8</ele><time>2026-03-29T08:58:16.999Z</time></trkpt><trkpt lat="42.09338347052848" lon="11.941298166984915"><ele>269.2</ele><time>2026-03-29T08:58:17.999Z</time></trkpt><trkpt lat="42.09331793115989" lon="11.941407427981522"><ele>269.6</ele><time>2026-03-29T08:58:18.999Z</time></trkpt><trkpt lat="42.0932497479988" lon="11.941523493696275"><ele>270.0</ele><time>2026-03-29T08:58:19.999Z</time></trkpt><trkpt lat="42.09317831708968" lon="11.941610061643965"><ele>272.0</ele><time>2026-03-29T08:58:20.999Z</time></trkpt><trkpt lat="42.09310740728498" lon="11.941662413874985"><ele>274.0</ele><time>2026-03-29T08:58:21.999Z</time></trkpt><trkpt lat="42.093034371961544" lon="11.941720882505527"><ele>276.0</ele><time>2026-03-29T08:58:22.999Z</time></trkpt><trkpt lat="42.09296483917883" lon="11.94177210323723"><ele>278.0</ele><time>2026-03-29T08:58:23.999Z</time></trkpt><trkpt lat="42.09289440108127" lon="11.941818085016237"><ele>280.0</ele><time>2026-03-29T08:58:24.999Z</time></trkpt><trkpt lat="42.09282196085311" lon="11.941859838121255"><ele>282.0</ele><time>2026-03-29T08:58:25.999Z</time></trkpt><trkpt lat="42.09275242032598" lon="11.941886088395442"><ele>282.2</ele><time>2026-03-29T08:58:26.999Z</time></trkpt><trkpt lat="42.092690513286655" lon="11.94191016563625"><ele>282.4</ele><time>2026-03-29T08:58:27.999Z</time></trkpt><trkpt lat="42.09258176311896" lon="11.941986240780356"><ele>282.6</ele><time>2026-03-29T08:58:29.999Z</time></trkpt><trkpt lat="42.09249398059958" lon="11.942117463202653"><ele>282.8</ele><time>2026-03-29T08:58:31.999Z</time></trkpt><trkpt lat="42.09244204974306" lon="11.942197847939873"><ele>283.0</ele><time>2026-03-29T08:58:32.999Z</time></trkpt><trkpt lat="42.09238765924225" lon="11.942307725541703"><ele>282.57142857142856</ele><time>2026-03-29T08:58:33.999Z</time></trkpt><trkpt lat="42.09234300727732" lon="11.942384955545512"><ele>282.14285714285717</ele><time>2026-03-29T08:58:34.999Z</time></trkpt><trkpt lat="42.09231312409832" lon="11.9424772269769"><ele>281.7142857142857</ele><time>2026-03-29T08:58:35.999Z</time></trkpt><trkpt lat="42.09228825849137" lon="11.942569787981666"><ele>281.2857142857143</ele><time>2026-03-29T08:58:36.999Z</time></trkpt><trkpt lat="42.09227662391382" lon="11.942674593970557"><ele>280.8571428571429</ele><time>2026-03-29T08:58:37.999Z</time></trkpt><trkpt lat="42.09225806398336" lon="11.942775975082267"><ele>280.42857142857144</ele><time>2026-03-29T08:58:38.999Z</time></trkpt><trkpt lat="42.09222873495252" lon="11.942854040940068"><ele>280.0</ele><time>2026-03-29T08:58:39.999Z</time></trkpt><trkpt lat="42.09216981572895" lon="11.942906865547481"><ele>280.0</ele><time>2026-03-29T08:58:40.999Z</time></trkpt><trkpt lat="42.09209299341663" lon="11.94289672911394"><ele>280.0</ele><time>2026-03-29T08:58:41.999Z</time></trkpt><trkpt lat="42.09202989880422" lon="11.942963705640636"><ele>280.0</ele><time>2026-03-29T08:58:42.999Z</time></trkpt><trkpt lat="42.091968602797095" lon="11.943046692593606"><ele>280.0</ele><time>2026-03-29T08:58:43.999Z</time></trkpt><trkpt lat="42.09189922852826" lon="11.943126678564731"><ele>280.0</ele><time>2026-03-29T08:58:44.999Z</time></trkpt><trkpt lat="42.09181656285656" lon="11.943204737680793"><ele>280.0</ele><time>2026-03-29T08:58:45.999Z</time></trkpt><trkpt lat="42.09173099655552" lon="11.943298472194682"><ele>278.6</ele><time>2026-03-29T08:58:46.999Z</time></trkpt><trkpt lat="42.09164652537739" lon="11.943380636479182"><ele>277.2</ele><time>2026-03-29T08:58:47.999Z</time></trkpt><trkpt lat="42.091558503562055" lon="11.943453902149793"><ele>275.8</ele><time>2026-03-29T08:58:48.999Z</time></trkpt><trkpt lat="42.09148091388774" lon="11.943521627701443"><ele>274.4</ele><time>2026-03-29T08:58:49.999Z</time></trkpt><trkpt lat="42.09140340813752" lon="11.943607983485016"><ele>273.0</ele><time>2026-03-29T08:58:50.999Z</time></trkpt><trkpt lat="42.09132468900759" lon="11.943702870519035"><ele>273.0</ele><time>2026-03-29T08:58:51.999Z</time></trkpt><trkpt lat="42.0912658096815" lon="11.943814403557354"><ele>273.0</ele><time>2026-03-29T08:58:52.999Z</time></trkpt><trkpt lat="42.09119921852874" lon="11.943890643815267"><ele>273.0</ele><time>2026-03-29T08:58:53.999Z</time></trkpt><trkpt lat="42.091104818095005" lon="11.943941941834426"><ele>273.0</ele><time>2026-03-29T08:58:54.999Z</time></trkpt><trkpt lat="42.09102224208078" lon="11.943966439629884"><ele>273.0</ele><time>2026-03-29T08:58:55.999Z</time></trkpt><trkpt lat="42.09094507921685" lon="11.944015358709738"><ele>273.0</ele><time>2026-03-29T08:58:56.999Z</time></trkpt><trkpt lat="42.09086496673301" lon="11.94403503313167"><ele>273.0</ele><time>2026-03-29T08:58:57.999Z</time></trkpt><trkpt lat="42.09077785018477" lon="11.944055810796653"><ele>273.0</ele><time>2026-03-29T08:58:58.999Z</time></trkpt><trkpt lat="42.09070183711227" lon="11.944073738988127"><ele>273.0</ele><time>2026-03-29T08:58:59.999Z</time></trkpt><trkpt lat="42.090626195017016" lon="11.944098891399369"><ele>273.0</ele><time>2026-03-29T08:59:00.999Z</time></trkpt><trkpt lat="42.09054710503004" lon="11.94410809526117"><ele>273.0</ele><time>2026-03-29T08:59:01.999Z</time></trkpt><trkpt lat="42.090477900136754" lon="11.9441393934289"><ele>272.6</ele><time>2026-03-29T08:59:02.999Z</time></trkpt><trkpt lat="42.090396129322144" lon="11.944203442512935"><ele>272.20000000000005</ele><time>2026-03-29T08:59:03.999Z</time></trkpt><trkpt lat="42.09033646583719" lon="11.944246553222689"><ele>271.8</ele><time>2026-03-29T08:59:05Z</time></trkpt><trkpt lat="42.09025303526328" lon="11.944263884512162"><ele>271.40000000000003</ele><time>2026-03-29T08:59:06Z</time></trkpt><trkpt lat="42.090142447550456" lon="11.944274841382981"><ele>271.0</ele><time>2026-03-29T08:59:07Z</time></trkpt><trkpt lat="42.09003180399228" lon="11.944266687663605"><ele>270.2</ele><time>2026-03-29T08:59:08Z</time></trkpt><trkpt lat="42.089936999987124" lon="11.944282327823212"><ele>269.40000000000003</ele><time>2026-03-29T08:59:09Z</time></trkpt><trkpt lat="42.08983474745758" lon="11.944329904803128"><ele>268.6</ele><time>2026-03-29T08:59:10Z</time></trkpt><trkpt lat="42.08972805851106" lon="11.944387016438197"><ele>267.8</ele><time>2026-03-29T08:59:11Z</time></trkpt><trkpt lat="42.08963287821589" lon="11.944443567164218"><ele>267.0</ele><time>2026-03-29T08:59:12Z</time></trkpt><trkpt lat="42.08955094196389" lon="11.944511692344362"><ele>268.6</ele><time>2026-03-29T08:59:13Z</time></trkpt><trkpt lat="42.08945796254153" lon="11.94457953995045"><ele>270.2</ele><time>2026-03-29T08:59:14Z</time></trkpt><trkpt lat="42.08936534859317" lon="11.944648354659297"><ele>271.8</ele><time>2026-03-29T08:59:15Z</time></trkpt><trkpt lat="42.08927978203536" lon="11.944697546861349"><ele>273.4</ele><time>2026-03-29T08:59:16Z</time></trkpt><trkpt lat="42.08919087856034" lon="11.944728806504724"><ele>275.0</ele><time>2026-03-29T08:59:17Z</time></trkpt><trkpt lat="42.08908646801148" lon="11.944739865438141"><ele>275.0</ele><time>2026-03-29T08:59:18Z</time></trkpt><trkpt lat="42.08898155051375" lon="11.944765603125186"><ele>275.0</ele><time>2026-03-29T08:59:19Z</time></trkpt><trkpt lat="42.08887531046527" lon="11.94480569397368"><ele>275.0</ele><time>2026-03-29T08:59:20Z</time></trkpt><trkpt lat="42.088776684226445" lon="11.944811813892931"><ele>275.0</ele><time>2026-03-29T08:59:21Z</time></trkpt><trkpt lat="42.088669018225715" lon="11.944831573858771"><ele>275.0</ele><time>2026-03-29T08:59:22Z</time></trkpt><trkpt lat="42.088560530036744" lon="11.944852112654749"><ele>275.0</ele><time>2026-03-29T08:59:23Z</time></trkpt><trkpt lat="42.08846320189468" lon="11.944861144400877"><ele>275.0</ele><time>2026-03-29T08:59:24Z</time></trkpt><trkpt lat="42.08836308854174" lon="11.944905618183228"><ele>275.0</ele><time>2026-03-29T08:59:25Z</time></trkpt><trkpt lat="42.08825191464301" lon="11.944974680399795"><ele>275.0</ele><time>2026-03-29T08:59:26Z</time></trkpt><trkpt lat="42.08814180469288" lon="11.945016164500311"><ele>275.0</ele><time>2026-03-29T08:59:27Z</time></trkpt><trkpt lat="42.08803548165934" lon="11.94505630328217"><ele>273.8</ele><time>2026-03-29T08:59:28Z</time></trkpt><trkpt lat="42.08793639339411" lon="11.945104180838683"><ele>272.6</ele><time>2026-03-29T08:59:29Z</time></trkpt><trkpt lat="42.08785221054664" lon="11.945161693271604"><ele>271.4</ele><time>2026-03-29T08:59:30Z</time></trkpt><trkpt lat="42.0877209756707" lon="11.945256869209524"><ele>270.2</ele><time>2026-03-29T08:59:32Z</time></trkpt><trkpt lat="42.087630312807285" lon="11.945279959659752"><ele>269.0</ele><time>2026-03-29T08:59:33Z</time></trkpt><trkpt lat="42.0875263141391" lon="11.945294369462461"><ele>269.0</ele><time>2026-03-29T08:59:34Z</time></trkpt><trkpt lat="42.08742903311769" lon="11.945323078486048"><ele>269.0</ele><time>2026-03-29T08:59:35Z</time></trkpt><trkpt lat="42.08733121708244" lon="11.945340146620046"><ele>269.0</ele><time>2026-03-29T08:59:36Z</time></trkpt><trkpt lat="42.08723697753648" lon="11.945355942190128"><ele>269.0</ele><time>2026-03-29T08:59:37Z</time></trkpt><trkpt lat="42.08714828520361" lon="11.945367958179697"><ele>269.0</ele><time>2026-03-29T08:59:38Z</time></trkpt><trkpt lat="42.08705784031893" lon="11.945384183832118"><ele>269.1666666666667</ele><time>2026-03-29T08:59:39Z</time></trkpt><trkpt lat="42.086968571396305" lon="11.945392904497893"><ele>269.33333333333337</ele><time>2026-03-29T08:59:40Z</time></trkpt><trkpt lat="42.08689159713993" lon="11.94540331054398"><ele>269.5</ele><time>2026-03-29T08:59:41Z</time></trkpt><trkpt lat="42.08682065804268" lon="11.945400306710182"><ele>269.6666666666667</ele><time>2026-03-29T08:59:42Z</time></trkpt><trkpt lat="42.086736579447084" lon="11.94541606717245"><ele>269.8333333333333</ele><time>2026-03-29T08:59:44Z</time></trkpt><trkpt lat="42.08667556825326" lon="11.945440700831973"><ele>270.0</ele><time>2026-03-29T08:59:48Z</time></trkpt><trkpt lat="42.08663971942314" lon="11.945532110436615"><ele>270.0</ele><time>2026-03-29T09:00:48.999Z</time></trkpt><trkpt lat="42.08666406857732" lon="11.945617495371406"><ele>270.0</ele><time>2026-03-29T09:00:50.999Z</time></trkpt><trkpt lat="42.08666556061485" lon="11.945708970394227"><ele>270.0</ele><time>2026-03-29T09:00:51.999Z</time></trkpt><trkpt lat="42.086609925435745" lon="11.945853262452767"><ele>270.0</ele><time>2026-03-29T09:00:52.999Z</time></trkpt><trkpt lat="42.08657674259039" lon="11.945935754900779"><ele>270.0</ele><time>2026-03-29T09:00:53.999Z</time></trkpt><trkpt lat="42.08652205616992" lon="11.945995485752242"><ele>270.0</ele><time>2026-03-29T09:00:57.999Z</time></trkpt><trkpt lat="42.08642915081365" lon="11.945933333605224"><ele>270.3333333333333</ele><time>2026-03-29T09:01:12Z</time></trkpt><trkpt lat="42.08633953934188" lon="11.945886766321836"><ele>270.6666666666667</ele><time>2026-03-29T09:01:14Z</time></trkpt><trkpt lat="42.08627339506667" lon="11.945883875605771"><ele>271.0</ele><time>2026-03-29T09:01:15Z</time></trkpt><trkpt lat="42.08614719290099" lon="11.945843513852314"><ele>271.33333333333337</ele><time>2026-03-29T09:01:17Z</time></trkpt><trkpt lat="42.086080617680075" lon="11.945842308684929"><ele>271.6666666666667</ele><time>2026-03-29T09:01:18Z</time></trkpt><trkpt lat="42.08601094747446" lon="11.945827305939055"><ele>272.0</ele><time>2026-03-29T09:01:19Z</time></trkpt><trkpt lat="42.085941215111625" lon="11.945812903571229"><ele>272.0</ele><time>2026-03-29T09:01:20Z</time></trkpt><trkpt lat="42.08587613773927" lon="11.945785248929663"><ele>272.0</ele><time>2026-03-29T09:01:21Z</time></trkpt><trkpt lat="42.085801081202874" lon="11.94574360604924"><ele>272.0</ele><time>2026-03-29T09:01:22Z</time></trkpt><trkpt lat="42.085717215731556" lon="11.945730606693779"><ele>272.0</ele><time>2026-03-29T09:01:23Z</time></trkpt><trkpt lat="42.08565056617732" lon="11.94571025230182"><ele>272.0</ele><time>2026-03-29T09:01:24Z</time></trkpt><trkpt lat="42.08557104579658" lon="11.94570575135166"><ele>272.0</ele><time>2026-03-29T09:01:25Z</time></trkpt><trkpt lat="42.08549589170153" lon="11.945694552926605"><ele>271.71428571428567</ele><time>2026-03-29T09:01:26Z</time></trkpt><trkpt lat="42.08541454067736" lon="11.945680560628325"><ele>271.42857142857144</ele><time>2026-03-29T09:01:27Z</time></trkpt><trkpt lat="42.08534519974507" lon="11.945667090269714"><ele>271.1428571428571</ele><time>2026-03-29T09:01:28Z</time></trkpt><trkpt lat="42.08528029605056" lon="11.945651574203412"><ele>270.85714285714283</ele><time>2026-03-29T09:01:29Z</time></trkpt><trkpt lat="42.08521684004794" lon="11.94562130435072"><ele>270.57142857142856</ele><time>2026-03-29T09:01:30Z</time></trkpt><trkpt lat="42.0851550296081" lon="11.945585651059236"><ele>270.2857142857143</ele><time>2026-03-29T09:01:31Z</time></trkpt><trkpt lat="42.085091541606644" lon="11.94557377974246"><ele>270.0</ele><time>2026-03-29T09:01:32Z</time></trkpt><trkpt lat="42.08502528356236" lon="11.945558579087674"><ele>270.0</ele><time>2026-03-29T09:01:33Z</time></trkpt><trkpt lat="42.08495700465209" lon="11.945551581339931"><ele>270.0</ele><time>2026-03-29T09:01:34Z</time></trkpt><trkpt lat="42.084894340796964" lon="11.945567290230883"><ele>270.0</ele><time>2026-03-29T09:01:35Z</time></trkpt><trkpt lat="42.0847671721865" lon="11.945595168088033"><ele>270.0</ele><time>2026-03-29T09:01:37Z</time></trkpt><trkpt lat="42.08466998141443" lon="11.945598450621677"><ele>270.0</ele><time>2026-03-29T09:01:38Z</time></trkpt><trkpt lat="42.08459451567716" lon="11.945605561184259"><ele>270.0</ele><time>2026-03-29T09:01:39Z</time></trkpt><trkpt lat="42.08451695756448" lon="11.945591847142797"><ele>267.8333333333333</ele><time>2026-03-29T09:01:40Z</time></trkpt><trkpt lat="42.084429122316834" lon="11.945607113239012"><ele>265.6666666666667</ele><time>2026-03-29T09:01:41Z</time></trkpt><trkpt lat="42.084329349684765" lon="11.945636581170382"><ele>263.5</ele><time>2026-03-29T09:01:42Z</time></trkpt><trkpt lat="42.08426239933182" lon="11.945639328921668"><ele>261.33333333333337</ele><time>2026-03-29T09:01:43Z</time></trkpt><trkpt lat="42.0841966858009" lon="11.945656461164406"><ele>259.1666666666667</ele><time>2026-03-29T09:01:44Z</time></trkpt><trkpt lat="42.08411654208695" lon="11.94573838040168"><ele>257.0</ele><time>2026-03-29T09:01:46Z</time></trkpt><trkpt lat="42.08405883627515" lon="11.945782208099391"><ele>255.0</ele><time>2026-03-29T09:01:47Z</time></trkpt><trkpt lat="42.08395328459675" lon="11.94581535764367"><ele>253.0</ele><time>2026-03-29T09:01:49Z</time></trkpt><trkpt lat="42.083837664722886" lon="11.945842612450946"><ele>251.0</ele><time>2026-03-29T09:01:51Z</time></trkpt><trkpt lat="42.083741336004735" lon="11.945855589001988"><ele>249.0</ele><time>2026-03-29T09:01:53Z</time></trkpt><trkpt lat="42.08368450045916" lon="11.9459096042903"><ele>247.0</ele><time>2026-03-29T09:01:54Z</time></trkpt><trkpt lat="42.0836177554216" lon="11.945948509724081"><ele>246.99999999999997</ele><time>2026-03-29T09:01:55Z</time></trkpt><trkpt lat="42.08355819378375" lon="11.94601009443483"><ele>247.0</ele><time>2026-03-29T09:01:56Z</time></trkpt><trkpt lat="42.08348533119287" lon="11.946092806944653"><ele>247.0</ele><time>2026-03-29T09:01:57Z</time></trkpt><trkpt lat="42.08342865315368" lon="11.946137932057157"><ele>247.0</ele><time>2026-03-29T09:01:58Z</time></trkpt><trkpt lat="42.083344089049156" lon="11.946204278598309"><ele>246.99999999999997</ele><time>2026-03-29T09:02:00Z</time></trkpt><trkpt lat="42.08324593060728" lon="11.946168621822755"><ele>247.0</ele><time>2026-03-29T09:02:02Z</time></trkpt><trkpt lat="42.08315076159827" lon="11.946182111380766"><ele>246.6</ele><time>2026-03-29T09:02:03Z</time></trkpt><trkpt lat="42.083057904496826" lon="11.94622794073886"><ele>246.2</ele><time>2026-03-29T09:02:04Z</time></trkpt><trkpt lat="42.082982224087885" lon="11.946235902881439"><ele>245.8</ele><time>2026-03-29T09:02:05Z</time></trkpt><trkpt lat="42.0828330274814" lon="11.946254337847744"><ele>245.4</ele><time>2026-03-29T09:02:07Z</time></trkpt><trkpt lat="42.08274643858956" lon="11.946249983928714"><ele>245.0</ele><time>2026-03-29T09:02:08Z</time></trkpt><trkpt lat="42.0826584669262" lon="11.946238463526887"><ele>245.0</ele><time>2026-03-29T09:02:08.999Z</time></trkpt><trkpt lat="42.0825526764603" lon="11.946201934727076"><ele>245.0</ele><time>2026-03-29T09:02:10.999Z</time></trkpt><trkpt lat="42.08249003278811" lon="11.946192426411208"><ele>245.0</ele><time>2026-03-29T09:02:11.999Z</time></trkpt><trkpt lat="42.08242776293128" lon="11.946149539280858"><ele>245.0</ele><time>2026-03-29T09:02:12.999Z</time></trkpt><trkpt lat="42.08235983798238" lon="11.946113549262124"><ele>245.0</ele><time>2026-03-29T09:02:13.999Z</time></trkpt><trkpt lat="42.08229499045472" lon="11.946086881609599"><ele>245.0</ele><time>2026-03-29T09:02:14.999Z</time></trkpt><trkpt lat="42.08223480655046" lon="11.946049913879854"><ele>245.0</ele><time>2026-03-29T09:02:15.999Z</time></trkpt><trkpt lat="42.0821697737872" lon="11.946007502343491"><ele>244.16666666666669</ele><time>2026-03-29T09:02:16.999Z</time></trkpt><trkpt lat="42.08211470329416" lon="11.945961867281346"><ele>243.33333333333334</ele><time>2026-03-29T09:02:17.999Z</time></trkpt><trkpt lat="42.08203606017943" lon="11.945882680294204"><ele>242.5</ele><time>2026-03-29T09:02:19.999Z</time></trkpt><trkpt lat="42.08193148035257" lon="11.945860070168559"><ele>241.66666666666669</ele><time>2026-03-29T09:02:21.999Z</time></trkpt><trkpt lat="42.081859438325" lon="11.945839771285604"><ele>240.83333333333334</ele><time>2026-03-29T09:02:22.999Z</time></trkpt><trkpt lat="42.08180323614638" lon="11.94578626143435"><ele>240.0</ele><time>2026-03-29T09:02:23.999Z</time></trkpt><trkpt lat="42.08169901933015" lon="11.945699565598572"><ele>237.0</ele><time>2026-03-29T09:02:25.999Z</time></trkpt><trkpt lat="42.081568920166184" lon="11.945735526957069"><ele>234.0</ele><time>2026-03-29T09:02:27.999Z</time></trkpt><trkpt lat="42.08151037780196" lon="11.94578153255879"><ele>231.0</ele><time>2026-03-29T09:02:28.999Z</time></trkpt><trkpt lat="42.08143532974742" lon="11.945833825765801"><ele>228.0</ele><time>2026-03-29T09:02:29.999Z</time></trkpt><trkpt lat="42.08135049588021" lon="11.945856153163023"><ele>225.0</ele><time>2026-03-29T09:02:30.999Z</time></trkpt><trkpt lat="42.0812673508016" lon="11.945859580592966"><ele>225.0</ele><time>2026-03-29T09:02:31.999Z</time></trkpt><trkpt lat="42.081167063336295" lon="11.945839543458737"><ele>225.0</ele><time>2026-03-29T09:02:32.999Z</time></trkpt><trkpt lat="42.08108544153989" lon="11.945808175705944"><ele>225.0</ele><time>2026-03-29T09:02:33.999Z</time></trkpt><trkpt lat="42.08100425344738" lon="11.945790110738715"><ele>225.0</ele><time>2026-03-29T09:02:34.999Z</time></trkpt><trkpt lat="42.08093083065888" lon="11.945773107662257"><ele>225.0</ele><time>2026-03-29T09:02:35.999Z</time></trkpt><trkpt lat="42.080861253468996" lon="11.945751416047111"><ele>225.0</ele><time>2026-03-29T09:02:36.999Z</time></trkpt><trkpt lat="42.08078377642483" lon="11.945740433136494"><ele>224.5</ele><time>2026-03-29T09:02:37.999Z</time></trkpt><trkpt lat="42.08072867476588" lon="11.945693004535986"><ele>224.0</ele><time>2026-03-29T09:02:38.999Z</time></trkpt><trkpt lat="42.080638112651435" lon="11.945686536720807"><ele>223.5</ele><time>2026-03-29T09:02:39.999Z</time></trkpt><trkpt lat="42.08056391894184" lon="11.945654374238927"><ele>223.0</ele><time>2026-03-29T09:02:40.999Z</time></trkpt><trkpt lat="42.080485403768186" lon="11.945647488145127"><ele>222.5</ele><time>2026-03-29T09:02:41.999Z</time></trkpt><trkpt lat="42.08039624621883" lon="11.945658853683263"><ele>222.0</ele><time>2026-03-29T09:02:42.999Z</time></trkpt><trkpt lat="42.08029851528844" lon="11.945696403125265"><ele>222.0</ele><time>2026-03-29T09:02:43.999Z</time></trkpt><trkpt lat="42.0802083294512" lon="11.945716011111127"><ele>222.0</ele><time>2026-03-29T09:02:44.999Z</time></trkpt><trkpt lat="42.080121918165084" lon="11.945727876233489"><ele>222.0</ele><time>2026-03-29T09:02:45.999Z</time></trkpt><trkpt lat="42.08003792460366" lon="11.945741118920086"><ele>222.0</ele><time>2026-03-29T09:02:46.999Z</time></trkpt><trkpt lat="42.07995459825435" lon="11.945806814502129"><ele>222.0</ele><time>2026-03-29T09:02:47.999Z</time></trkpt><trkpt lat="42.07988183787238" lon="11.945865360189078"><ele>222.0</ele><time>2026-03-29T09:02:48.999Z</time></trkpt><trkpt lat="42.07981110575894" lon="11.945947693699864"><ele>222.2</ele><time>2026-03-29T09:02:49.999Z</time></trkpt><trkpt lat="42.07973335377067" lon="11.94600981993216"><ele>222.39999999999998</ele><time>2026-03-29T09:02:50.999Z</time></trkpt><trkpt lat="42.079648915711196" lon="11.946086031687207"><ele>222.60000000000002</ele><time>2026-03-29T09:02:51.999Z</time></trkpt><trkpt lat="42.07955945273131" lon="11.946149008287211"><ele>222.8</ele><time>2026-03-29T09:02:52.999Z</time></trkpt><trkpt lat="42.07946886697254" lon="11.94619314415125"><ele>223.0</ele><time>2026-03-29T09:02:53.999Z</time></trkpt><trkpt lat="42.0793870639181" lon="11.946241528209613"><ele>222.99999999999997</ele><time>2026-03-29T09:02:54.999Z</time></trkpt><trkpt lat="42.07931385244827" lon="11.946299962890631"><ele>223.0</ele><time>2026-03-29T09:02:55.999Z</time></trkpt><trkpt lat="42.07926652139771" lon="11.946370267377564"><ele>223.0</ele><time>2026-03-29T09:02:56.999Z</time></trkpt><trkpt lat="42.07922876537466" lon="11.946450596807468"><ele>223.0</ele><time>2026-03-29T09:02:57.999Z</time></trkpt><trkpt lat="42.07916121408377" lon="11.946507273989052"><ele>222.99999999999997</ele><time>2026-03-29T09:02:58.999Z</time></trkpt><trkpt lat="42.07909441934288" lon="11.946575124851291"><ele>223.0</ele><time>2026-03-29T09:02:59.999Z</time></trkpt><trkpt lat="42.079031965219" lon="11.946634040375592"><ele>222.49999999999997</ele><time>2026-03-29T09:03:00.999Z</time></trkpt><trkpt lat="42.07897111328274" lon="11.946681999893647"><ele>222.0</ele><time>2026-03-29T09:03:01.999Z</time></trkpt><trkpt lat="42.07889845859787" lon="11.946656902092846"><ele>221.5</ele><time>2026-03-29T09:03:03.999Z</time></trkpt><trkpt lat="42.078855222923615" lon="11.946741577299598"><ele>221.0</ele><time>2026-03-29T09:03:05.999Z</time></trkpt><trkpt lat="42.07874264098796" lon="11.946771150370505"><ele>220.49999999999997</ele><time>2026-03-29T09:03:08.999Z</time></trkpt><trkpt lat="42.078666212059254" lon="11.946816675442646"><ele>220.0</ele><time>2026-03-29T09:03:09.999Z</time></trkpt><trkpt lat="42.07860282169826" lon="11.946832186665846"><ele>219.99999999999997</ele><time>2026-03-29T09:03:10.999Z</time></trkpt><trkpt lat="42.0785353982677" lon="11.946841969644883"><ele>220.0</ele><time>2026-03-29T09:03:11.999Z</time></trkpt><trkpt lat="42.07841665764265" lon="11.946839856542748"><ele>220.0</ele><time>2026-03-29T09:03:13.999Z</time></trkpt><trkpt lat="42.07835135201775" lon="11.946842599281748"><ele>220.0</ele><time>2026-03-29T09:03:14.999Z</time></trkpt><trkpt lat="42.07828869329419" lon="11.946872594104441"><ele>219.99999999999997</ele><time>2026-03-29T09:03:15.999Z</time></trkpt><trkpt lat="42.0782186119214" lon="11.9469320854984"><ele>220.0</ele><time>2026-03-29T09:03:17Z</time></trkpt><trkpt lat="42.07816779632542" lon="11.946990047044823"><ele>217.14285714285714</ele><time>2026-03-29T09:03:18Z</time></trkpt><trkpt lat="42.07810452764968" lon="11.947030308087003"><ele>214.28571428571428</ele><time>2026-03-29T09:03:19Z</time></trkpt><trkpt lat="42.07803945421429" lon="11.94706273410265"><ele>211.42857142857144</ele><time>2026-03-29T09:03:20Z</time></trkpt><trkpt lat="42.07798334010749" lon="11.947119969513945"><ele>208.57142857142856</ele><time>2026-03-29T09:03:21Z</time></trkpt><trkpt lat="42.077932373684696" lon="11.947183692812471"><ele>205.71428571428572</ele><time>2026-03-29T09:03:22Z</time></trkpt><trkpt lat="42.077873430237524" lon="11.947262382233585"><ele>202.85714285714286</ele><time>2026-03-29T09:03:24Z</time></trkpt><trkpt lat="42.07781926146733" lon="11.947343510112654"><ele>200.0</ele><time>2026-03-29T09:03:25Z</time></trkpt><trkpt lat="42.07778290359104" lon="11.947413401657956"><ele>200.00000000000003</ele><time>2026-03-29T09:03:26Z</time></trkpt><trkpt lat="42.07774010649806" lon="11.947477690989624"><ele>200.0</ele><time>2026-03-29T09:03:27Z</time></trkpt><trkpt lat="42.077682014023736" lon="11.947564351081718"><ele>200.0</ele><time>2026-03-29T09:03:29Z</time></trkpt><trkpt lat="42.077641333404245" lon="11.947673423258538"><ele>200.0</ele><time>2026-03-29T09:03:31Z</time></trkpt><trkpt lat="42.07762592484473" lon="11.94778204560297"><ele>200.00000000000003</ele><time>2026-03-29T09:03:33Z</time></trkpt><trkpt lat="42.07762163264592" lon="11.947888604884918"><ele>200.0</ele><time>2026-03-29T09:03:35Z</time></trkpt><trkpt lat="42.077526964949506" lon="11.948061467772712"><ele>199.66666666666669</ele><time>2026-03-29T09:03:39Z</time></trkpt><trkpt lat="42.07752695782268" lon="11.948165782487191"><ele>199.33333333333334</ele><time>2026-03-29T09:03:41Z</time></trkpt><trkpt lat="42.077484765614116" lon="11.948244602070899"><ele>199.0</ele><time>2026-03-29T09:03:42Z</time></trkpt><trkpt lat="42.077424210331834" lon="11.948295742395578"><ele>198.66666666666669</ele><time>2026-03-29T09:03:43Z</time></trkpt><trkpt lat="42.07733688889287" lon="11.948285942975286"><ele>198.33333333333334</ele><time>2026-03-29T09:03:44Z</time></trkpt><trkpt lat="42.077255468917286" lon="11.948264575275811"><ele>198.0</ele><time>2026-03-29T09:03:45Z</time></trkpt><trkpt lat="42.07715701685088" lon="11.94826795117993"><ele>198.0</ele><time>2026-03-29T09:03:46Z</time></trkpt><trkpt lat="42.0770691852338" lon="11.948277939465774"><ele>198.0</ele><time>2026-03-29T09:03:47Z</time></trkpt><trkpt lat="42.0769872444196" lon="11.948278298431184"><ele>198.0</ele><time>2026-03-29T09:03:48Z</time></trkpt><trkpt lat="42.076905937204" lon="11.948278430168163"><ele>198.0</ele><time>2026-03-29T09:03:49Z</time></trkpt><trkpt lat="42.07681847235615" lon="11.948322477752777"><ele>198.0</ele><time>2026-03-29T09:03:50Z</time></trkpt><trkpt lat="42.07672461064891" lon="11.948348298112426"><ele>198.0</ele><time>2026-03-29T09:03:51Z</time></trkpt><trkpt lat="42.076617394163264" lon="11.948346589285595"><ele>198.16666666666666</ele><time>2026-03-29T09:03:52Z</time></trkpt><trkpt lat="42.0765230253274" lon="11.948325432730266"><ele>198.33333333333331</ele><time>2026-03-29T09:03:53Z</time></trkpt><trkpt lat="42.07643115794214" lon="11.948346860308343"><ele>198.5</ele><time>2026-03-29T09:03:54Z</time></trkpt><trkpt lat="42.076359546702015" lon="11.948342574776156"><ele>198.66666666666666</ele><time>2026-03-29T09:03:55Z</time></trkpt><trkpt lat="42.076280596151705" lon="11.948361490898114"><ele>198.83333333333331</ele><time>2026-03-29T09:03:56Z</time></trkpt><trkpt lat="42.07620709756051" lon="11.94841622861006"><ele>199.0</ele><time>2026-03-29T09:03:57Z</time></trkpt><trkpt lat="42.07613299003161" lon="11.948454639259115"><ele>201.39999999999998</ele><time>2026-03-29T09:03:58Z</time></trkpt><trkpt lat="42.07601909731978" lon="11.948489196719956"><ele>203.8</ele><time>2026-03-29T09:03:59Z</time></trkpt><trkpt lat="42.075921953653825" lon="11.948505089071912"><ele>206.2</ele><time>2026-03-29T09:04:00Z</time></trkpt><trkpt lat="42.075833918963916" lon="11.948516399657244"><ele>208.60000000000002</ele><time>2026-03-29T09:04:01Z</time></trkpt><trkpt lat="42.075727229182284" lon="11.948546303839548"><ele>211.0</ele><time>2026-03-29T09:04:02Z</time></trkpt><trkpt lat="42.0756383300009" lon="11.94857475186864"><ele>211.33333333333331</ele><time>2026-03-29T09:04:03Z</time></trkpt><trkpt lat="42.07555980992902" lon="11.948615085819325"><ele>211.66666666666666</ele><time>2026-03-29T09:04:04Z</time></trkpt><trkpt lat="42.075484289150324" lon="11.948689910039192"><ele>212.0</ele><time>2026-03-29T09:04:05Z</time></trkpt><trkpt lat="42.07541625611605" lon="11.948751793812358"><ele>212.33333333333331</ele><time>2026-03-29T09:04:06Z</time></trkpt><trkpt lat="42.0753381568769" lon="11.948825055932295"><ele>212.66666666666666</ele><time>2026-03-29T09:04:07Z</time></trkpt><trkpt lat="42.075258458348664" lon="11.948888278121292"><ele>213.0</ele><time>2026-03-29T09:04:08Z</time></trkpt><trkpt lat="42.07517091770812" lon="11.948917561277893"><ele>213.0</ele><time>2026-03-29T09:04:09Z</time></trkpt><trkpt lat="42.07505934185671" lon="11.948894175116328"><ele>213.0</ele><time>2026-03-29T09:04:10Z</time></trkpt><trkpt lat="42.074965816213215" lon="11.948859926775045"><ele>213.0</ele><time>2026-03-29T09:04:11Z</time></trkpt><trkpt lat="42.074862913623825" lon="11.948812009803342"><ele>213.0</ele><time>2026-03-29T09:04:12Z</time></trkpt><trkpt lat="42.07477036975873" lon="11.94878471434874"><ele>213.0</ele><time>2026-03-29T09:04:13Z</time></trkpt><trkpt lat="42.074677653673334" lon="11.948758907247992"><ele>214.60000000000002</ele><time>2026-03-29T09:04:14Z</time></trkpt><trkpt lat="42.074580600660106" lon="11.948745983471419"><ele>216.20000000000002</ele><time>2026-03-29T09:04:15Z</time></trkpt><trkpt lat="42.07450544796034" lon="11.948673679784529"><ele>217.8</ele><time>2026-03-29T09:04:15.999Z</time></trkpt><trkpt lat="42.074449210005916" lon="11.948587283449738"><ele>219.4</ele><time>2026-03-29T09:04:16.999Z</time></trkpt><trkpt lat="42.07437722454329" lon="11.948477328885868"><ele>221.0</ele><time>2026-03-29T09:04:17.999Z</time></trkpt><trkpt lat="42.07432782582213" lon="11.94837886323406"><ele>221.50000000000003</ele><time>2026-03-29T09:04:18.999Z</time></trkpt><trkpt lat="42.07431110036722" lon="11.948210882326254"><ele>222.0</ele><time>2026-03-29T09:04:19.999Z</time></trkpt><trkpt lat="42.07428079035967" lon="11.948124151439414"><ele>222.5</ele><time>2026-03-29T09:04:20.999Z</time></trkpt><trkpt lat="42.074267436006934" lon="11.948024422283297"><ele>223.0</ele><time>2026-03-29T09:04:21.999Z</time></trkpt><trkpt lat="42.074232285099136" lon="11.9479445799978"><ele>223.50000000000003</ele><time>2026-03-29T09:04:22.999Z</time></trkpt><trkpt lat="42.074190720177256" lon="11.947879680512676"><ele>224.0</ele><time>2026-03-29T09:04:23.999Z</time></trkpt><trkpt lat="42.07407151614055" lon="11.947797513501763"><ele>224.00000000000003</ele><time>2026-03-29T09:04:25.999Z</time></trkpt><trkpt lat="42.073990037674285" lon="11.947775474229669"><ele>224.0</ele><time>2026-03-29T09:04:26.999Z</time></trkpt><trkpt lat="42.07389619156622" lon="11.947764939344903"><ele>224.0</ele><time>2026-03-29T09:04:27.999Z</time></trkpt><trkpt lat="42.07380148248171" lon="11.947702780035884"><ele>224.0</ele><time>2026-03-29T09:04:28.999Z</time></trkpt><trkpt lat="42.0737246510123" lon="11.947655544656945"><ele>224.00000000000003</ele><time>2026-03-29T09:04:29.999Z</time></trkpt><trkpt lat="42.07365978064548" lon="11.947602292934977"><ele>224.0</ele><time>2026-03-29T09:04:30.999Z</time></trkpt><trkpt lat="42.07364414767526" lon="11.947460623278939"><ele>222.39999999999998</ele><time>2026-03-29T09:04:31.999Z</time></trkpt><trkpt lat="42.07359674547063" lon="11.947326392166778"><ele>220.79999999999998</ele><time>2026-03-29T09:04:32.999Z</time></trkpt><trkpt lat="42.07356768974005" lon="11.947196447028997"><ele>219.20000000000002</ele><time>2026-03-29T09:04:33.999Z</time></trkpt><trkpt lat="42.073557382479976" lon="11.947066478229496"><ele>217.60000000000002</ele><time>2026-03-29T09:04:34.999Z</time></trkpt><trkpt lat="42.07353853481953" lon="11.946946839422557"><ele>216.0</ele><time>2026-03-29T09:04:35.999Z</time></trkpt><trkpt lat="42.073511119711924" lon="11.94683066314394"><ele>217.4</ele><time>2026-03-29T09:04:36.999Z</time></trkpt><trkpt lat="42.07347230070994" lon="11.946691289436286"><ele>218.8</ele><time>2026-03-29T09:04:37.999Z</time></trkpt><trkpt lat="42.07344695599104" lon="11.946570201923578"><ele>220.20000000000002</ele><time>2026-03-29T09:04:38.999Z</time></trkpt><trkpt lat="42.07339532868867" lon="11.946461695615318"><ele>221.60000000000002</ele><time>2026-03-29T09:04:39.999Z</time></trkpt><trkpt lat="42.073296112393464" lon="11.946352849301435"><ele>223.0</ele><time>2026-03-29T09:04:40.999Z</time></trkpt><trkpt lat="42.073233536535824" lon="11.946253908473073"><ele>223.0</ele><time>2026-03-29T09:04:41.999Z</time></trkpt><trkpt lat="42.07316685520867" lon="11.946153019099576"><ele>223.0</ele><time>2026-03-29T09:04:42.999Z</time></trkpt><trkpt lat="42.0731169641737" lon="11.946050693977822"><ele>223.0</ele><time>2026-03-29T09:04:43.999Z</time></trkpt><trkpt lat="42.073095441136104" lon="11.945905538846862"><ele>223.0</ele><time>2026-03-29T09:04:44.999Z</time></trkpt><trkpt lat="42.073052969364454" lon="11.945767746183016"><ele>223.0</ele><time>2026-03-29T09:04:45.999Z</time></trkpt><trkpt lat="42.07301385681574" lon="11.945657137661396"><ele>219.60000000000002</ele><time>2026-03-29T09:04:46.999Z</time></trkpt><trkpt lat="42.072968035081956" lon="11.945573077214755"><ele>216.20000000000002</ele><time>2026-03-29T09:04:47.999Z</time></trkpt><trkpt lat="42.07291542150584" lon="11.945474124069603"><ele>212.8</ele><time>2026-03-29T09:04:48.999Z</time></trkpt><trkpt lat="42.07286154626535" lon="11.945366968074772"><ele>209.4</ele><time>2026-03-29T09:04:49.999Z</time></trkpt><trkpt lat="42.07278707905309" lon="11.945285926641597"><ele>206.0</ele><time>2026-03-29T09:04:50.999Z</time></trkpt><trkpt lat="42.072685644348915" lon="11.945215678832719"><ele>206.0</ele><time>2026-03-29T09:04:51.999Z</time></trkpt><trkpt lat="42.07262590561295" lon="11.9450959586193"><ele>206.0</ele><time>2026-03-29T09:04:52.999Z</time></trkpt><trkpt lat="42.07256812088078" lon="11.944971083791241"><ele>206.0</ele><time>2026-03-29T09:04:53.999Z</time></trkpt><trkpt lat="42.07250933443064" lon="11.944856674265942"><ele>206.0</ele><time>2026-03-29T09:04:54.999Z</time></trkpt><trkpt lat="42.072455237086814" lon="11.944755193565422"><ele>206.0</ele><time>2026-03-29T09:04:55.999Z</time></trkpt><trkpt lat="42.072356655940254" lon="11.944654136263429"><ele>202.20000000000002</ele><time>2026-03-29T09:04:57.999Z</time></trkpt><trkpt lat="42.07222661110918" lon="11.944567483148287"><ele>198.4</ele><time>2026-03-29T09:04:59.999Z</time></trkpt><trkpt lat="42.07215167911959" lon="11.944541946507059"><ele>194.6</ele><time>2026-03-29T09:05:00.999Z</time></trkpt><trkpt lat="42.072071584370846" lon="11.944530224594546"><ele>190.8</ele><time>2026-03-29T09:05:01.999Z</time></trkpt><trkpt lat="42.0719888240346" lon="11.94456159743916"><ele>187.0</ele><time>2026-03-29T09:05:02.999Z</time></trkpt><trkpt lat="42.0718657656722" lon="11.944540427600518"><ele>187.0</ele><time>2026-03-29T09:05:03.999Z</time></trkpt><trkpt lat="42.07177544626929" lon="11.944511844355992"><ele>187.0</ele><time>2026-03-29T09:05:04.999Z</time></trkpt><trkpt lat="42.071695367350074" lon="11.944468208081396"><ele>187.0</ele><time>2026-03-29T09:05:05.999Z</time></trkpt><trkpt lat="42.07161242804707" lon="11.944441461225505"><ele>187.0</ele><time>2026-03-29T09:05:06.999Z</time></trkpt><trkpt lat="42.07151409507348" lon="11.944443104202414"><ele>187.0</ele><time>2026-03-29T09:05:07.999Z</time></trkpt><trkpt lat="42.071442038657466" lon="11.94445848475811"><ele>187.0</ele><time>2026-03-29T09:05:08.999Z</time></trkpt><trkpt lat="42.07136448997652" lon="11.944498689460843"><ele>184.0</ele><time>2026-03-29T09:05:09.999Z</time></trkpt><trkpt lat="42.07129513086009" lon="11.944537175294037"><ele>181.0</ele><time>2026-03-29T09:05:10.999Z</time></trkpt><trkpt lat="42.07119540735378" lon="11.944599894695859"><ele>178.0</ele><time>2026-03-29T09:05:11.999Z</time></trkpt><trkpt lat="42.07111302852681" lon="11.944623159370712"><ele>175.0</ele><time>2026-03-29T09:05:12.999Z</time></trkpt><trkpt lat="42.07103430570858" lon="11.944634320957627"><ele>172.0</ele><time>2026-03-29T09:05:13.999Z</time></trkpt><trkpt lat="42.070966167144135" lon="11.944651892227443"><ele>169.0</ele><time>2026-03-29T09:05:14.999Z</time></trkpt><trkpt lat="42.07088622516971" lon="11.944689676230222"><ele>169.0</ele><time>2026-03-29T09:05:15.999Z</time></trkpt><trkpt lat="42.07081167409551" lon="11.944759265106716"><ele>169.0</ele><time>2026-03-29T09:05:16.999Z</time></trkpt><trkpt lat="42.070722622291974" lon="11.94483805379296"><ele>169.0</ele><time>2026-03-29T09:05:17.999Z</time></trkpt><trkpt lat="42.0706374767368" lon="11.944892091290344"><ele>169.0</ele><time>2026-03-29T09:05:18.999Z</time></trkpt><trkpt lat="42.070558866229476" lon="11.944952133439717"><ele>169.0</ele><time>2026-03-29T09:05:19.999Z</time></trkpt><trkpt lat="42.07048628845594" lon="11.945022467856186"><ele>170.5</ele><time>2026-03-29T09:05:20.999Z</time></trkpt><trkpt lat="42.07040462452382" lon="11.945088567911407"><ele>172.0</ele><time>2026-03-29T09:05:21.999Z</time></trkpt><trkpt lat="42.07030405845092" lon="11.945161720431814"><ele>173.5</ele><time>2026-03-29T09:05:23Z</time></trkpt><trkpt lat="42.07017431982568" lon="11.945220735839486"><ele>175.0</ele><time>2026-03-29T09:05:24Z</time></trkpt><trkpt lat="42.07007172413414" lon="11.945249922380365"><ele>175.0</ele><time>2026-03-29T09:05:25Z</time></trkpt><trkpt lat="42.069968869079304" lon="11.945243303040652"><ele>175.0</ele><time>2026-03-29T09:05:26Z</time></trkpt><trkpt lat="42.06987848704982" lon="11.945250352895542"><ele>175.0</ele><time>2026-03-29T09:05:27Z</time></trkpt><trkpt lat="42.06976868842985" lon="11.945241195446254"><ele>175.0</ele><time>2026-03-29T09:05:28Z</time></trkpt><trkpt lat="42.06971376156593" lon="11.945083830316118"><ele>175.0</ele><time>2026-03-29T09:05:29Z</time></trkpt><trkpt lat="42.06963655748572" lon="11.944973131180696"><ele>173.8</ele><time>2026-03-29T09:05:30Z</time></trkpt><trkpt lat="42.06956241840897" lon="11.944856884527564"><ele>172.6</ele><time>2026-03-29T09:05:31Z</time></trkpt><trkpt lat="42.069487508686706" lon="11.94477298160689"><ele>171.39999999999998</ele><time>2026-03-29T09:05:32Z</time></trkpt><trkpt lat="42.06939495513004" lon="11.944689283542347"><ele>170.2</ele><time>2026-03-29T09:05:33Z</time></trkpt><trkpt lat="42.06930052400683" lon="11.944613137886172"><ele>169.0</ele><time>2026-03-29T09:05:34Z</time></trkpt><trkpt lat="42.06921075787491" lon="11.944551757727323"><ele>169.0</ele><time>2026-03-29T09:05:35Z</time></trkpt><trkpt lat="42.06911716367056" lon="11.944501008994042"><ele>169.0</ele><time>2026-03-29T09:05:36Z</time></trkpt><trkpt lat="42.068996271850374" lon="11.944468849786967"><ele>169.0</ele><time>2026-03-29T09:05:37Z</time></trkpt><trkpt lat="42.06887107932747" lon="11.944435564030037"><ele>169.0</ele><time>2026-03-29T09:05:38Z</time></trkpt><trkpt lat="42.06874776393586" lon="11.944390218861349"><ele>169.6</ele><time>2026-03-29T09:05:39Z</time></trkpt><trkpt lat="42.06863830971193" lon="11.944328693194219"><ele>170.2</ele><time>2026-03-29T09:05:40Z</time></trkpt><trkpt lat="42.06852043608794" lon="11.944276006420072"><ele>170.79999999999998</ele><time>2026-03-29T09:05:41Z</time></trkpt><trkpt lat="42.06842557077851" lon="11.944232755054697"><ele>171.39999999999998</ele><time>2026-03-29T09:05:42Z</time></trkpt><trkpt lat="42.06834863266825" lon="11.944197543106302"><ele>172.0</ele><time>2026-03-29T09:05:43Z</time></trkpt><trkpt lat="42.06828459008423" lon="11.944162083519275"><ele>170.0</ele><time>2026-03-29T09:05:46Z</time></trkpt><trkpt lat="42.06823920820004" lon="11.944232085259896"><ele>168.0</ele><time>2026-03-29T09:07:18.999Z</time></trkpt><trkpt lat="42.06817285971554" lon="11.944270634261889"><ele>166.0</ele><time>2026-03-29T09:07:20.999Z</time></trkpt><trkpt lat="42.06808994573251" lon="11.944307591750611"><ele>164.0</ele><time>2026-03-29T09:07:22.999Z</time></trkpt><trkpt lat="42.06801274321591" lon="11.94436944401806"><ele>162.0</ele><time>2026-03-29T09:07:25.999Z</time></trkpt><trkpt lat="42.06794229578756" lon="11.944422905959234"><ele>160.0</ele><time>2026-03-29T09:07:29Z</time></trkpt><trkpt lat="42.06788128698991" lon="11.944498160033557"><ele>160.0</ele><time>2026-03-29T09:07:32Z</time></trkpt><trkpt lat="42.06780245145158" lon="11.944559759787936"><ele>160.0</ele><time>2026-03-29T09:07:35Z</time></trkpt><trkpt lat="42.06774919023883" lon="11.944623171266803"><ele>160.0</ele><time>2026-03-29T09:07:37Z</time></trkpt><trkpt lat="42.06769478746001" lon="11.9446903350808"><ele>160.0</ele><time>2026-03-29T09:07:38Z</time></trkpt><trkpt lat="42.06764666477423" lon="11.94478590182324"><ele>160.0</ele><time>2026-03-29T09:07:40Z</time></trkpt><trkpt lat="42.06756292889401" lon="11.944847517820861"><ele>160.0</ele><time>2026-03-29T09:07:42Z</time></trkpt><trkpt lat="42.06749570845211" lon="11.94489241735807"><ele>158.4</ele><time>2026-03-29T09:07:44Z</time></trkpt><trkpt lat="42.06742779919671" lon="11.94491730872523"><ele>156.8</ele><time>2026-03-29T09:07:46Z</time></trkpt><trkpt lat="42.067341690226975" lon="11.944981279101968"><ele>155.2</ele><time>2026-03-29T09:07:48Z</time></trkpt><trkpt lat="42.06724706452601" lon="11.945041130904114"><ele>153.6</ele><time>2026-03-29T09:07:50Z</time></trkpt><trkpt lat="42.06717541585966" lon="11.945080775465401"><ele>152.0</ele><time>2026-03-29T09:07:51Z</time></trkpt><trkpt lat="42.067065088686846" lon="11.945131341476996"><ele>154.66666666666666</ele><time>2026-03-29T09:07:53Z</time></trkpt><trkpt lat="42.066999679192136" lon="11.945185629465572"><ele>157.33333333333331</ele><time>2026-03-29T09:07:55Z</time></trkpt><trkpt lat="42.06694843333509" lon="11.945235150485424"><ele>160.0</ele><time>2026-03-29T09:07:57Z</time></trkpt><trkpt lat="42.066889810360045" lon="11.945170867244082"><ele>162.66666666666666</ele><time>2026-03-29T09:08:11Z</time></trkpt><trkpt lat="42.066785459345674" lon="11.945188520750925"><ele>165.33333333333334</ele><time>2026-03-29T09:08:16Z</time></trkpt><trkpt lat="42.066720817698474" lon="11.945180738038129"><ele>168.0</ele><time>2026-03-29T09:08:17Z</time></trkpt><trkpt lat="42.06663111484405" lon="11.945200826113458"><ele>166.8</ele><time>2026-03-29T09:08:19Z</time></trkpt><trkpt lat="42.066564423384094" lon="11.94522248421623"><ele>165.60000000000002</ele><time>2026-03-29T09:08:20Z</time></trkpt><trkpt lat="42.06647894351477" lon="11.945271057845662"><ele>164.39999999999998</ele><time>2026-03-29T09:08:21Z</time></trkpt><trkpt lat="42.0663681538363" lon="11.945344903048607"><ele>163.2</ele><time>2026-03-29T09:08:23Z</time></trkpt><trkpt lat="42.06629122634682" lon="11.945415140984492"><ele>162.0</ele><time>2026-03-29T09:08:23.999Z</time></trkpt><trkpt lat="42.06617763775727" lon="11.945496414498711"><ele>162.0</ele><time>2026-03-29T09:08:25.999Z</time></trkpt><trkpt lat="42.066096758361645" lon="11.945580115271952"><ele>162.0</ele><time>2026-03-29T09:08:27.999Z</time></trkpt><trkpt lat="42.066038918440306" lon="11.945655980674829"><ele>162.0</ele><time>2026-03-29T09:08:29.999Z</time></trkpt><trkpt lat="42.06596258827947" lon="11.94569294518504"><ele>162.0</ele><time>2026-03-29T09:08:31.999Z</time></trkpt><trkpt lat="42.06583405388609" lon="11.945747683051918"><ele>162.0</ele><time>2026-03-29T09:08:33.999Z</time></trkpt><trkpt lat="42.065762054384656" lon="11.945792849037277"><ele>162.0</ele><time>2026-03-29T09:08:34.999Z</time></trkpt><trkpt lat="42.06568805699332" lon="11.94584366422949"><ele>162.0</ele><time>2026-03-29T09:08:35.999Z</time></trkpt><trkpt lat="42.06562140120522" lon="11.945907396766664"><ele>162.0</ele><time>2026-03-29T09:08:36.999Z</time></trkpt><trkpt lat="42.065517503807506" lon="11.945966201755946"><ele>162.0</ele><time>2026-03-29T09:08:38.999Z</time></trkpt><trkpt lat="42.06541801432274" lon="11.946019536448683"><ele>162.0</ele><time>2026-03-29T09:08:40.999Z</time></trkpt><trkpt lat="42.06536050655358" lon="11.946062771515859"><ele>162.0</ele><time>2026-03-29T09:08:41.999Z</time></trkpt><trkpt lat="42.06530328568174" lon="11.946104417606422"><ele>162.0</ele><time>2026-03-29T09:08:42.999Z</time></trkpt><trkpt lat="42.065216913306756" lon="11.94613590802521"><ele>162.0</ele><time>2026-03-29T09:08:44.999Z</time></trkpt><trkpt lat="42.06518757387369" lon="11.946237607364132"><ele>162.0</ele><time>2026-03-29T09:08:47.999Z</time></trkpt><trkpt lat="42.065207925871796" lon="11.946381722919188"><ele>162.0</ele><time>2026-03-29T09:08:49.999Z</time></trkpt><trkpt lat="42.065215238178496" lon="11.946466660583038"><ele>162.0</ele><time>2026-03-29T09:08:50.999Z</time></trkpt><trkpt lat="42.06523478413539" lon="11.94659859118471"><ele>162.0</ele><time>2026-03-29T09:08:51.999Z</time></trkpt><trkpt lat="42.06524483056087" lon="11.946695552684497"><ele>162.0</ele><time>2026-03-29T09:08:52.999Z</time></trkpt><trkpt lat="42.06525623970368" lon="11.946781504246806"><ele>162.0</ele><time>2026-03-29T09:08:53.999Z</time></trkpt><trkpt lat="42.06526820017399" lon="11.94693737188553"><ele>162.0</ele><time>2026-03-29T09:08:55.999Z</time></trkpt><trkpt lat="42.065266754372715" lon="11.947071582000827"><ele>162.0</ele><time>2026-03-29T09:08:57.999Z</time></trkpt><trkpt lat="42.06520036369559" lon="11.947140955101741"><ele>162.0</ele><time>2026-03-29T09:08:59.999Z</time></trkpt><trkpt lat="42.065156275667555" lon="11.947256402679423"><ele>161.4</ele><time>2026-03-29T09:09:01.999Z</time></trkpt><trkpt lat="42.06514095202976" lon="11.947399573604141"><ele>160.79999999999998</ele><time>2026-03-29T09:09:03.999Z</time></trkpt><trkpt lat="42.06508721265153" lon="11.947535270726783"><ele>160.2</ele><time>2026-03-29T09:09:05.999Z</time></trkpt><trkpt lat="42.065014768099694" lon="11.947655011963528"><ele>159.6</ele><time>2026-03-29T09:09:07.999Z</time></trkpt><trkpt lat="42.064982377842455" lon="11.947746641338037"><ele>159.0</ele><time>2026-03-29T09:09:09.999Z</time></trkpt><trkpt lat="42.065023368397206" lon="11.947854269336634"><ele>159.0</ele><time>2026-03-29T09:09:11.999Z</time></trkpt><trkpt lat="42.06508977109011" lon="11.947908474477467"><ele>159.0</ele><time>2026-03-29T09:09:13.999Z</time></trkpt><trkpt lat="42.06513981344744" lon="11.94796006208915"><ele>159.0</ele><time>2026-03-29T09:09:15.999Z</time></trkpt><trkpt lat="42.06522482855694" lon="11.947984510540278"><ele>159.0</ele><time>2026-03-29T09:09:17.999Z</time></trkpt><trkpt lat="42.06526460981868" lon="11.948057536139059"><ele>159.0</ele><time>2026-03-29T09:09:18.999Z</time></trkpt><trkpt lat="42.06530967036525" lon="11.948126134534853"><ele>159.0</ele><time>2026-03-29T09:09:19.999Z</time></trkpt><trkpt lat="42.065383063110254" lon="11.948251140961561"><ele>159.0</ele><time>2026-03-29T09:09:21.999Z</time></trkpt><trkpt lat="42.065426917703306" lon="11.94836689932092"><ele>159.0</ele><time>2026-03-29T09:09:23.999Z</time></trkpt><trkpt lat="42.06546508432129" lon="11.94845586980485"><ele>159.0</ele><time>2026-03-29T09:09:25.999Z</time></trkpt><trkpt lat="42.065562750141865" lon="11.948549350275938"><ele>159.0</ele><time>2026-03-29T09:09:27.999Z</time></trkpt><trkpt lat="42.065666665639164" lon="11.94863679757506"><ele>159.0</ele><time>2026-03-29T09:09:29.999Z</time></trkpt><trkpt lat="42.06576550567814" lon="11.948678268215703"><ele>157.6</ele><time>2026-03-29T09:09:31.999Z</time></trkpt><trkpt lat="42.065894293223295" lon="11.948668778334024"><ele>156.2</ele><time>2026-03-29T09:09:33.999Z</time></trkpt><trkpt lat="42.06598744142151" lon="11.94869485916197"><ele>154.79999999999998</ele><time>2026-03-29T09:09:36Z</time></trkpt><trkpt lat="42.06608127628101" lon="11.94864271309891"><ele>153.4</ele><time>2026-03-29T09:09:38Z</time></trkpt><trkpt lat="42.06613910678716" lon="11.948599946470283"><ele>152.0</ele><time>2026-03-29T09:09:39Z</time></trkpt><trkpt lat="42.066238837534804" lon="11.948508539954528"><ele>152.0</ele><time>2026-03-29T09:09:41Z</time></trkpt><trkpt lat="42.06630417532096" lon="11.948381708337411"><ele>152.0</ele><time>2026-03-29T09:09:43Z</time></trkpt><trkpt lat="42.066415677288795" lon="11.948352694426319"><ele>152.0</ele><time>2026-03-29T09:09:45Z</time></trkpt><trkpt lat="42.06648485192482" lon="11.948377894621247"><ele>152.0</ele><time>2026-03-29T09:09:46Z</time></trkpt><trkpt lat="42.066523075807524" lon="11.948462000619479"><ele>152.0</ele><time>2026-03-29T09:09:49Z</time></trkpt><trkpt lat="42.06649471624483" lon="11.948568515160288"><ele>152.0</ele><time>2026-03-29T09:09:52Z</time></trkpt><trkpt lat="42.066469534550414" lon="11.948706530136864"><ele>152.0</ele><time>2026-03-29T09:09:54Z</time></trkpt><trkpt lat="42.066510878088884" lon="11.948774716685422"><ele>152.0</ele><time>2026-03-29T09:09:56Z</time></trkpt><trkpt lat="42.06657753500615" lon="11.948832159859638"><ele>152.0</ele><time>2026-03-29T09:09:58Z</time></trkpt><trkpt lat="42.06668362150074" lon="11.949185044020131"><ele>149.79999999999998</ele><time>2026-03-29T09:10:05Z</time></trkpt><trkpt lat="42.06670980851115" lon="11.949327414683411"><ele>147.6</ele><time>2026-03-29T09:10:07Z</time></trkpt><trkpt lat="42.06675176757863" lon="11.949441539371515"><ele>145.39999999999998</ele><time>2026-03-29T09:10:09Z</time></trkpt><trkpt lat="42.06678953147828" lon="11.949559526752257"><ele>143.2</ele><time>2026-03-29T09:10:11Z</time></trkpt><trkpt lat="42.06683227351307" lon="11.949653916761946"><ele>141.0</ele><time>2026-03-29T09:10:13Z</time></trkpt><trkpt lat="42.06697088527883" lon="11.949647018549227"><ele>141.0</ele><time>2026-03-29T09:10:16Z</time></trkpt><trkpt lat="42.06703643029916" lon="11.949595147363592"><ele>141.0</ele><time>2026-03-29T09:10:18Z</time></trkpt><trkpt lat="42.06715705707972" lon="11.949519991955865"><ele>141.0</ele><time>2026-03-29T09:10:20Z</time></trkpt><trkpt lat="42.06724456144261" lon="11.9495503762512"><ele>141.0</ele><time>2026-03-29T09:10:22Z</time></trkpt><trkpt lat="42.067280524075386" lon="11.949646392775067"><ele>141.0</ele><time>2026-03-29T09:10:26Z</time></trkpt><trkpt lat="42.067323296638975" lon="11.949710327553792"><ele>141.0</ele><time>2026-03-29T09:10:29Z</time></trkpt><trkpt lat="42.067287401820835" lon="11.949792599139364"><ele>141.0</ele><time>2026-03-29T09:10:33.999Z</time></trkpt><trkpt lat="42.0672345233756" lon="11.949859117597384"><ele>141.0</ele><time>2026-03-29T09:10:35.999Z</time></trkpt><trkpt lat="42.06721691379487" lon="11.949963252382785"><ele>141.0</ele><time>2026-03-29T09:10:38.999Z</time></trkpt><trkpt lat="42.06719208133446" lon="11.95004910238146"><ele>141.0</ele><time>2026-03-29T09:10:39.999Z</time></trkpt><trkpt lat="42.06719568606859" lon="11.95015420522748"><ele>141.0</ele><time>2026-03-29T09:10:40.999Z</time></trkpt><trkpt lat="42.067173143986956" lon="11.950259606036004"><ele>141.0</ele><time>2026-03-29T09:10:42.999Z</time></trkpt><trkpt lat="42.06715591107023" lon="11.950377562236312"><ele>137.4</ele><time>2026-03-29T09:10:44.999Z</time></trkpt><trkpt lat="42.06716010290026" lon="11.950496624660627"><ele>133.8</ele><time>2026-03-29T09:10:48.999Z</time></trkpt><trkpt lat="42.06710807163102" lon="11.950554513404777"><ele>130.20000000000002</ele><time>2026-03-29T09:10:52.999Z</time></trkpt><trkpt lat="42.06706262854936" lon="11.95065643919849"><ele>126.60000000000001</ele><time>2026-03-29T09:10:53.999Z</time></trkpt><trkpt lat="42.06700646586412" lon="11.950784064242846"><ele>123.0</ele><time>2026-03-29T09:10:55.999Z</time></trkpt><trkpt lat="42.066973461179465" lon="11.950905146016295"><ele>119.66666666666667</ele><time>2026-03-29T09:10:57.999Z</time></trkpt><trkpt lat="42.06688099967109" lon="11.950918073950241"><ele>116.33333333333334</ele><time>2026-03-29T09:10:59.999Z</time></trkpt><trkpt lat="42.06680346531102" lon="11.950948139640174"><ele>113.0</ele><time>2026-03-29T09:11:01.999Z</time></trkpt><trkpt lat="42.06673470216113" lon="11.950946864046598"><ele>109.66666666666667</ele><time>2026-03-29T09:11:02.999Z</time></trkpt><trkpt lat="42.06667231943899" lon="11.950881825881302"><ele>106.33333333333334</ele><time>2026-03-29T09:11:03.999Z</time></trkpt><trkpt lat="42.06657970774618" lon="11.95078752691708"><ele>103.0</ele><time>2026-03-29T09:11:05.999Z</time></trkpt><trkpt lat="42.06652944948812" lon="11.950714624849745"><ele>103.00000000000001</ele><time>2026-03-29T09:11:07.999Z</time></trkpt><trkpt lat="42.06644101007152" lon="11.950667828002018"><ele>103.0</ele><time>2026-03-29T09:11:09.999Z</time></trkpt><trkpt lat="42.06639320927658" lon="11.950605060770888"><ele>103.0</ele><time>2026-03-29T09:11:11.999Z</time></trkpt><trkpt lat="42.06629828416479" lon="11.950627456165181"><ele>103.0</ele><time>2026-03-29T09:11:14.999Z</time></trkpt><trkpt lat="42.066245665536044" lon="11.950562359610197"><ele>103.00000000000001</ele><time>2026-03-29T09:11:16.999Z</time></trkpt><trkpt lat="42.06622504777889" lon="11.950446243321869"><ele>103.0</ele><time>2026-03-29T09:11:18.999Z</time></trkpt><trkpt lat="42.06618458964983" lon="11.950345167222062"><ele>103.00000000000001</ele><time>2026-03-29T09:11:20.999Z</time></trkpt><trkpt lat="42.06614440992493" lon="11.950274306179718"><ele>103.0</ele><time>2026-03-29T09:11:22.999Z</time></trkpt><trkpt lat="42.06607362894472" lon="11.950249438981645"><ele>103.0</ele><time>2026-03-29T09:11:30.999Z</time></trkpt><trkpt lat="42.06599976458707" lon="11.950223416230314"><ele>103.0</ele><time>2026-03-29T09:11:46Z</time></trkpt><trkpt lat="42.065929865985254" lon="11.950235789090494"><ele>103.00000000000001</ele><time>2026-03-29T09:11:49Z</time></trkpt><trkpt lat="42.06585154232886" lon="11.950245834431989"><ele>103.0</ele><time>2026-03-29T09:11:51Z</time></trkpt><trkpt lat="42.06576336985588" lon="11.950273322662692"><ele>100.50000000000001</ele><time>2026-03-29T09:11:53Z</time></trkpt><trkpt lat="42.06569537741606" lon="11.950283867723344"><ele>98.0</ele><time>2026-03-29T09:11:55Z</time></trkpt><trkpt lat="42.06561281917705" lon="11.950260395612698"><ele>95.5</ele><time>2026-03-29T09:11:57Z</time></trkpt><trkpt lat="42.065538840584765" lon="11.950250862052245"><ele>93.0</ele><time>2026-03-29T09:11:59Z</time></trkpt><trkpt lat="42.06547380761966" lon="11.95020172368229"><ele>90.5</ele><time>2026-03-29T09:12:02Z</time></trkpt><trkpt lat="42.065379271317795" lon="11.95025383560082"><ele>88.0</ele><time>2026-03-29T09:12:05Z</time></trkpt><trkpt lat="42.06527973782253" lon="11.950252271134298"><ele>88.0</ele><time>2026-03-29T09:12:07Z</time></trkpt><trkpt lat="42.065187055187835" lon="11.950241897334982"><ele>88.0</ele><time>2026-03-29T09:12:12Z</time></trkpt><trkpt lat="42.06512466827797" lon="11.950226656629038"><ele>88.0</ele><time>2026-03-29T09:12:14Z</time></trkpt><trkpt lat="42.06505005336439" lon="11.950239744638422"><ele>88.0</ele><time>2026-03-29T09:12:17Z</time></trkpt><trkpt lat="42.06498302006696" lon="11.95022694482606"><ele>88.0</ele><time>2026-03-29T09:12:19Z</time></trkpt><trkpt lat="42.06490181385239" lon="11.950240448102628"><ele>88.0</ele><time>2026-03-29T09:12:21Z</time></trkpt><trkpt lat="42.0648089955712" lon="11.950239178339132"><ele>87.0</ele><time>2026-03-29T09:12:24Z</time></trkpt><trkpt lat="42.06473618120691" lon="11.95020823005755"><ele>86.0</ele><time>2026-03-29T09:12:26Z</time></trkpt><trkpt lat="42.06466870940514" lon="11.950188478619324"><ele>85.0</ele><time>2026-03-29T09:12:28Z</time></trkpt><trkpt lat="42.06459818053545" lon="11.95015973310574"><ele>84.0</ele><time>2026-03-29T09:12:35Z</time></trkpt><trkpt lat="42.06455243668034" lon="11.950095036697089"><ele>83.0</ele><time>2026-03-29T09:12:40.999Z</time></trkpt><trkpt lat="42.06455027056773" lon="11.950004524736064"><ele>82.0</ele><time>2026-03-29T09:12:44.999Z</time></trkpt><trkpt lat="42.064487016218465" lon="11.949966673749667"><ele>81.0</ele><time>2026-03-29T09:12:50.999Z</time></trkpt><trkpt lat="42.06436447398652" lon="11.94997168075383"><ele>84.16666666666667</ele><time>2026-03-29T09:12:53.999Z</time></trkpt><trkpt lat="42.064299097944065" lon="11.949975212462244"><ele>87.33333333333334</ele><time>2026-03-29T09:12:54.999Z</time></trkpt><trkpt lat="42.06423443976718" lon="11.94998724245735"><ele>90.5</ele><time>2026-03-29T09:12:55.999Z</time></trkpt><trkpt lat="42.064131841937545" lon="11.950037369216592"><ele>93.66666666666667</ele><time>2026-03-29T09:12:57.999Z</time></trkpt><trkpt lat="42.064047609704545" lon="11.949992910333538"><ele>96.83333333333334</ele><time>2026-03-29T09:12:59.999Z</time></trkpt><trkpt lat="42.06402545959425" lon="11.94991056480981"><ele>100.0</ele><time>2026-03-29T09:13:01.999Z</time></trkpt><trkpt lat="42.063946556080566" lon="11.949852456785877"><ele>100.00000000000001</ele><time>2026-03-29T09:13:04.999Z</time></trkpt><trkpt lat="42.06387169638785" lon="11.949763716785245"><ele>100.0</ele><time>2026-03-29T09:13:08.999Z</time></trkpt><trkpt lat="42.063825383072384" lon="11.949858239293217"><ele>100.0</ele><time>2026-03-29T09:13:11.999Z</time></trkpt><trkpt lat="42.063770098561214" lon="11.949921305429784"><ele>100.0</ele><time>2026-03-29T09:13:13.999Z</time></trkpt><trkpt lat="42.06370877587215" lon="11.949948892884828"><ele>100.00000000000001</ele><time>2026-03-29T09:13:25.999Z</time></trkpt><trkpt lat="42.063661668828665" lon="11.950030854798891"><ele>100.0</ele><time>2026-03-29T09:13:31.999Z</time></trkpt><trkpt lat="42.06361526348538" lon="11.95013314295875"><ele>96.33333333333334</ele><time>2026-03-29T09:13:34.999Z</time></trkpt><trkpt lat="42.06354032603635" lon="11.950167355466254"><ele>92.66666666666667</ele><time>2026-03-29T09:13:36.999Z</time></trkpt><trkpt lat="42.063466481025955" lon="11.950162086177942"><ele>89.0</ele><time>2026-03-29T09:13:40.999Z</time></trkpt><trkpt lat="42.06338855098576" lon="11.950170828479637"><ele>85.33333333333334</ele><time>2026-03-29T09:13:44.999Z</time></trkpt><trkpt lat="42.06331522118568" lon="11.950138400620276"><ele>81.66666666666667</ele><time>2026-03-29T09:13:48Z</time></trkpt><trkpt lat="42.06322323670039" lon="11.950173867200425"><ele>78.0</ele><time>2026-03-29T09:13:51Z</time></trkpt><trkpt lat="42.063167066994254" lon="11.950117694000554"><ele>78.0</ele><time>2026-03-29T09:13:54Z</time></trkpt><trkpt lat="42.0630810086923" lon="11.950217706320782"><ele>78.0</ele><time>2026-03-29T09:13:55Z</time></trkpt><trkpt lat="42.0629975475551" lon="11.950266199934156"><ele>78.0</ele><time>2026-03-29T09:13:56Z</time></trkpt><trkpt lat="42.06291708458235" lon="11.950360395959464"><ele>78.0</ele><time>2026-03-29T09:13:58Z</time></trkpt><trkpt lat="42.0628214537471" lon="11.950449036377622"><ele>78.0</ele><time>2026-03-29T09:14:00Z</time></trkpt><trkpt lat="42.06272626614073" lon="11.950439302433788"><ele>78.0</ele><time>2026-03-29T09:14:02Z</time></trkpt><trkpt lat="42.062638457890124" lon="11.950462592833793"><ele>78.0</ele><time>2026-03-29T09:14:04Z</time></trkpt><trkpt lat="42.062569981068584" lon="11.950498242922473"><ele>78.0</ele><time>2026-03-29T09:14:06Z</time></trkpt><trkpt lat="42.062488481848106" lon="11.950517190979113"><ele>78.0</ele><time>2026-03-29T09:14:08Z</time></trkpt><trkpt lat="42.06239095249364" lon="11.950487260804707"><ele>78.0</ele><time>2026-03-29T09:14:10Z</time></trkpt><trkpt lat="42.062295302970256" lon="11.950402189691365"><ele>77.16666666666667</ele><time>2026-03-29T09:14:12Z</time></trkpt><trkpt lat="42.062205457669926" lon="11.950352357252717"><ele>76.33333333333333</ele><time>2026-03-29T09:14:14Z</time></trkpt><trkpt lat="42.06214038239171" lon="11.95032425091022"><ele>75.5</ele><time>2026-03-29T09:14:15Z</time></trkpt><trkpt lat="42.062069412012136" lon="11.950321029640826"><ele>74.66666666666666</ele><time>2026-03-29T09:14:17Z</time></trkpt><trkpt lat="42.06198765801348" lon="11.950371613360003"><ele>73.83333333333333</ele><time>2026-03-29T09:14:19Z</time></trkpt><trkpt lat="42.06193593048308" lon="11.950320653631769"><ele>73.0</ele><time>2026-03-29T09:14:21Z</time></trkpt><trkpt lat="42.061872205064574" lon="11.950261589643628"><ele>73.0</ele><time>2026-03-29T09:14:23Z</time></trkpt><trkpt lat="42.06178287864747" lon="11.95022741984047"><ele>73.0</ele><time>2026-03-29T09:14:25Z</time></trkpt><trkpt lat="42.06168972621704" lon="11.95027006551209"><ele>73.0</ele><time>2026-03-29T09:14:27Z</time></trkpt><trkpt lat="42.061591278113625" lon="11.95026112785141"><ele>73.0</ele><time>2026-03-29T09:14:30Z</time></trkpt><trkpt lat="42.06149270765311" lon="11.950284773614857"><ele>73.0</ele><time>2026-03-29T09:14:33Z</time></trkpt><trkpt lat="42.06146575501006" lon="11.950382022008338"><ele>73.0</ele><time>2026-03-29T09:14:37Z</time></trkpt><trkpt lat="42.06155255754927" lon="11.950495263177563"><ele>73.0</ele><time>2026-03-29T09:14:40Z</time></trkpt><trkpt lat="42.06161668803958" lon="11.95064273886114"><ele>73.0</ele><time>2026-03-29T09:14:44Z</time></trkpt><trkpt lat="42.0616551480666" lon="11.95073423129825"><ele>73.0</ele><time>2026-03-29T09:14:45Z</time></trkpt><trkpt lat="42.06172673965121" lon="11.950809765496867"><ele>73.0</ele><time>2026-03-29T09:14:45.999Z</time></trkpt><trkpt lat="42.06182285097995" lon="11.950919095436802"><ele>70.8</ele><time>2026-03-29T09:14:47.999Z</time></trkpt><trkpt lat="42.061882559384124" lon="11.950981389937835"><ele>68.6</ele><time>2026-03-29T09:14:48.999Z</time></trkpt><trkpt lat="42.061865741115575" lon="11.951091741965657"><ele>66.4</ele><time>2026-03-29T09:14:50.999Z</time></trkpt><trkpt lat="42.06185260905859" lon="11.95131220494215"><ele>64.2</ele><time>2026-03-29T09:14:56.999Z</time></trkpt><trkpt lat="42.0617952430296" lon="11.951404002445503"><ele>62.0</ele><time>2026-03-29T09:15:00.999Z</time></trkpt><trkpt lat="42.061780440910006" lon="11.951499419545788"><ele>62.0</ele><time>2026-03-29T09:15:03.999Z</time></trkpt><trkpt lat="42.06172469007315" lon="11.951583930957128"><ele>62.00000000000001</ele><time>2026-03-29T09:15:09.999Z</time></trkpt><trkpt lat="42.061700047179585" lon="11.951666788684967"><ele>62.0</ele><time>2026-03-29T09:15:12.999Z</time></trkpt><trkpt lat="42.06167972303469" lon="11.951753924781542"><ele>62.0</ele><time>2026-03-29T09:15:16.999Z</time></trkpt><trkpt lat="42.061621303308854" lon="11.951819165482034"><ele>62.00000000000001</ele><time>2026-03-29T09:16:01Z</time></trkpt><trkpt lat="42.061606014223955" lon="11.95191368285016"><ele>62.0</ele><time>2026-03-29T09:16:37Z</time></trkpt><trkpt lat="42.06161829609147" lon="11.9520189561647"><ele>62.0</ele><time>2026-03-29T09:16:39Z</time></trkpt><trkpt lat="42.061606308473486" lon="11.952129578319376"><ele>60.833333333333336</ele><time>2026-03-29T09:16:41Z</time></trkpt><trkpt lat="42.06152472080863" lon="11.952145243217005"><ele>59.66666666666667</ele><time>2026-03-29T09:16:43Z</time></trkpt><trkpt lat="42.06142432312018" lon="11.952031382301517"><ele>58.5</ele><time>2026-03-29T09:16:45Z</time></trkpt><trkpt lat="42.061358219745735" lon="11.952008771283124"><ele>57.33333333333333</ele><time>2026-03-29T09:16:46Z</time></trkpt><trkpt lat="42.06126851807432" lon="11.951988504154858"><ele>56.166666666666664</ele><time>2026-03-29T09:16:47Z</time></trkpt><trkpt lat="42.06120288442516" lon="11.951961018282184"><ele>55.0</ele><time>2026-03-29T09:16:48Z</time></trkpt><trkpt lat="42.061140649964145" lon="11.95193482631735"><ele>54.99999999999999</ele><time>2026-03-29T09:16:49Z</time></trkpt><trkpt lat="42.06109742720556" lon="11.951868052060144"><ele>55.0</ele><time>2026-03-29T09:16:50Z</time></trkpt><trkpt lat="42.06103145749566" lon="11.951817951861162"><ele>55.0</ele><time>2026-03-29T09:16:51Z</time></trkpt><trkpt lat="42.060968325886975" lon="11.951755260962543"><ele>55.0</ele><time>2026-03-29T09:16:52Z</time></trkpt><trkpt lat="42.06090211075796" lon="11.951683727227007"><ele>54.99999999999999</ele><time>2026-03-29T09:16:53Z</time></trkpt><trkpt lat="42.06086923355496" lon="11.951557647643805"><ele>55.0</ele><time>2026-03-29T09:16:53.999Z</time></trkpt><trkpt lat="42.06082172422561" lon="11.951485045610427"><ele>54.49999999999999</ele><time>2026-03-29T09:16:54.999Z</time></trkpt><trkpt lat="42.060760499469765" lon="11.951419931405484"><ele>54.0</ele><time>2026-03-29T09:16:55.999Z</time></trkpt><trkpt lat="42.06070038796278" lon="11.95135765970527"><ele>53.5</ele><time>2026-03-29T09:16:56.999Z</time></trkpt><trkpt lat="42.06059601156445" lon="11.951283229422128"><ele>53.0</ele><time>2026-03-29T09:16:58.999Z</time></trkpt><trkpt lat="42.060537059972404" lon="11.95123683345709"><ele>52.49999999999999</ele><time>2026-03-29T09:16:59.999Z</time></trkpt><trkpt lat="42.0604628708449" lon="11.95118029772456"><ele>52.0</ele><time>2026-03-29T09:17:00.999Z</time></trkpt><trkpt lat="42.060398834978876" lon="11.951146307219856"><ele>51.99999999999999</ele><time>2026-03-29T09:17:01.999Z</time></trkpt><trkpt lat="42.060332010876586" lon="11.951067577686214"><ele>52.0</ele><time>2026-03-29T09:17:03.999Z</time></trkpt><trkpt lat="42.0602805241141" lon="11.950997432865723"><ele>52.0</ele><time>2026-03-29T09:17:05.999Z</time></trkpt><trkpt lat="42.06021802976353" lon="11.9510111146267"><ele>52.0</ele><time>2026-03-29T09:17:13.999Z</time></trkpt><trkpt lat="42.06017779427658" lon="11.951080767597722"><ele>51.99999999999999</ele><time>2026-03-29T09:17:21.999Z</time></trkpt><trkpt lat="42.060093515801434" lon="11.951074950137402"><ele>52.0</ele><time>2026-03-29T09:17:25.999Z</time></trkpt><trkpt lat="42.060017965812634" lon="11.951139815890652"><ele>51.99999999999999</ele><time>2026-03-29T09:17:28.999Z</time></trkpt><trkpt lat="42.06000870144127" lon="11.951246739399439"><ele>52.0</ele><time>2026-03-29T09:17:29.999Z</time></trkpt><trkpt lat="42.059994259822055" lon="11.951339194611968"><ele>52.0</ele><time>2026-03-29T09:17:30.999Z</time></trkpt><trkpt lat="42.05996609637388" lon="11.951456656454855"><ele>52.0</ele><time>2026-03-29T09:17:31.999Z</time></trkpt><trkpt lat="42.059949638555075" lon="11.951591422377081"><ele>51.99999999999999</ele><time>2026-03-29T09:17:32.999Z</time></trkpt><trkpt lat="42.05994894152564" lon="11.951712721623924"><ele>52.0</ele><time>2026-03-29T09:17:33.999Z</time></trkpt><trkpt lat="42.059963778131724" lon="11.951833363435135"><ele>53.49999999999999</ele><time>2026-03-29T09:17:34.999Z</time></trkpt><trkpt lat="42.05997102637342" lon="11.951946520374092"><ele>55.0</ele><time>2026-03-29T09:17:35.999Z</time></trkpt><trkpt lat="42.05998207063067" lon="11.952050949616597"><ele>56.5</ele><time>2026-03-29T09:17:36.999Z</time></trkpt><trkpt lat="42.05998470875578" lon="11.952162106585185"><ele>58.0</ele><time>2026-03-29T09:17:37.999Z</time></trkpt><trkpt lat="42.05999430478826" lon="11.952278990796902"><ele>59.49999999999999</ele><time>2026-03-29T09:17:38.999Z</time></trkpt><trkpt lat="42.06001420537246" lon="11.952388649306469"><ele>61.0</ele><time>2026-03-29T09:17:39.999Z</time></trkpt><trkpt lat="42.06005195992194" lon="11.952475459825955"><ele>63.599999999999994</ele><time>2026-03-29T09:17:40.999Z</time></trkpt><trkpt lat="42.060087707343335" lon="11.952628232361459"><ele>66.19999999999999</ele><time>2026-03-29T09:17:42.999Z</time></trkpt><trkpt lat="42.06007467496689" lon="11.952792955773642"><ele>68.80000000000001</ele><time>2026-03-29T09:17:44.999Z</time></trkpt><trkpt lat="42.06007111157566" lon="11.95288406769199"><ele>71.4</ele><time>2026-03-29T09:17:45.999Z</time></trkpt><trkpt lat="42.06006459798203" lon="11.953051947735759"><ele>74.0</ele><time>2026-03-29T09:17:47.999Z</time></trkpt><trkpt lat="42.06007731057999" lon="11.953166003246476"><ele>74.0</ele><time>2026-03-29T09:17:48.999Z</time></trkpt><trkpt lat="42.06008966557833" lon="11.953304958799196"><ele>74.0</ele><time>2026-03-29T09:17:49.999Z</time></trkpt><trkpt lat="42.0600840180298" lon="11.9534006328686"><ele>74.0</ele><time>2026-03-29T09:17:50.999Z</time></trkpt><trkpt lat="42.06005072337612" lon="11.95349514353132"><ele>74.0</ele><time>2026-03-29T09:17:51.999Z</time></trkpt><trkpt lat="42.06000433163192" lon="11.953596944868266"><ele>74.0</ele><time>2026-03-29T09:17:52.999Z</time></trkpt><trkpt lat="42.05992167303208" lon="11.953647318144833"><ele>74.0</ele><time>2026-03-29T09:17:53.999Z</time></trkpt><trkpt lat="42.05987504770751" lon="11.953712059569124"><ele>76.0</ele><time>2026-03-29T09:17:54.999Z</time></trkpt><trkpt lat="42.05983569704198" lon="11.953787045040242"><ele>78.0</ele><time>2026-03-29T09:17:55.999Z</time></trkpt><trkpt lat="42.05980687493059" lon="11.953863459076905"><ele>80.0</ele><time>2026-03-29T09:17:56.999Z</time></trkpt><trkpt lat="42.059845602858694" lon="11.954046264715751"><ele>82.0</ele><time>2026-03-29T09:17:59Z</time></trkpt><trkpt lat="42.05989792108443" lon="11.954200965567278"><ele>84.0</ele><time>2026-03-29T09:18:00Z</time></trkpt><trkpt lat="42.059917435597036" lon="11.954324441787204"><ele>85.5</ele><time>2026-03-29T09:18:01Z</time></trkpt><trkpt lat="42.059960617599074" lon="11.954426483958818"><ele>87.0</ele><time>2026-03-29T09:18:02Z</time></trkpt><trkpt lat="42.05994855612091" lon="11.95452103181178"><ele>88.5</ele><time>2026-03-29T09:18:03Z</time></trkpt><trkpt lat="42.059936471847934" lon="11.954611729057204"><ele>90.0</ele><time>2026-03-29T09:18:04Z</time></trkpt><trkpt lat="42.05990214453994" lon="11.954759910376154"><ele>91.5</ele><time>2026-03-29T09:18:06Z</time></trkpt><trkpt lat="42.059899841777266" lon="11.954875253661703"><ele>93.0</ele><time>2026-03-29T09:18:07Z</time></trkpt><trkpt lat="42.05990191937379" lon="11.954982541679707"><ele>94.33333333333333</ele><time>2026-03-29T09:18:08Z</time></trkpt><trkpt lat="42.0599267186985" lon="11.955144437684794"><ele>95.66666666666666</ele><time>2026-03-29T09:18:10Z</time></trkpt><trkpt lat="42.05992549124772" lon="11.955242847751732"><ele>97.0</ele><time>2026-03-29T09:18:11Z</time></trkpt><trkpt lat="42.05994954726939" lon="11.955350572201704"><ele>98.33333333333333</ele><time>2026-03-29T09:18:12Z</time></trkpt><trkpt lat="42.0599907889287" lon="11.955449482785516"><ele>99.66666666666666</ele><time>2026-03-29T09:18:13Z</time></trkpt><trkpt lat="42.06004269733293" lon="11.955536290023998"><ele>101.0</ele><time>2026-03-29T09:18:14Z</time></trkpt><trkpt lat="42.06009514133162" lon="11.95561786923009"><ele>101.66666666666666</ele><time>2026-03-29T09:18:15Z</time></trkpt><trkpt lat="42.06014645532119" lon="11.955699876094021"><ele>102.33333333333333</ele><time>2026-03-29T09:18:16Z</time></trkpt><trkpt lat="42.060206305569885" lon="11.955821427144556"><ele>103.0</ele><time>2026-03-29T09:18:17Z</time></trkpt><trkpt lat="42.06021446351524" lon="11.95592860318656"><ele>103.66666666666666</ele><time>2026-03-29T09:18:18Z</time></trkpt><trkpt lat="42.06022407262652" lon="11.956054452668438"><ele>104.33333333333333</ele><time>2026-03-29T09:18:19Z</time></trkpt><trkpt lat="42.0602265732862" lon="11.956162635424322"><ele>105.0</ele><time>2026-03-29T09:18:20Z</time></trkpt><trkpt lat="42.06024779278549" lon="11.956264690463387"><ele>106.0</ele><time>2026-03-29T09:18:21Z</time></trkpt><trkpt lat="42.060275111693485" lon="11.956360640029464"><ele>107.0</ele><time>2026-03-29T09:18:22Z</time></trkpt><trkpt lat="42.060327730487224" lon="11.956484685783984"><ele>108.0</ele><time>2026-03-29T09:18:23Z</time></trkpt><trkpt lat="42.06036035581598" lon="11.956587513357668"><ele>109.0</ele><time>2026-03-29T09:18:24Z</time></trkpt><trkpt lat="42.060402801904075" lon="11.956688399769885"><ele>110.0</ele><time>2026-03-29T09:18:25Z</time></trkpt><trkpt lat="42.06046264468837" lon="11.956786402871026"><ele>111.0</ele><time>2026-03-29T09:18:26Z</time></trkpt><trkpt lat="42.0605104690268" lon="11.956883240516708"><ele>111.4</ele><time>2026-03-29T09:18:27Z</time></trkpt><trkpt lat="42.060571969869855" lon="11.956992832798038"><ele>111.8</ele><time>2026-03-29T09:18:28Z</time></trkpt><trkpt lat="42.06061951071309" lon="11.957088962628788"><ele>112.20000000000002</ele><time>2026-03-29T09:18:29Z</time></trkpt><trkpt lat="42.06066803961836" lon="11.957166938992609"><ele>112.60000000000001</ele><time>2026-03-29T09:18:30Z</time></trkpt><trkpt lat="42.06076438925317" lon="11.957271866415134"><ele>113.0</ele><time>2026-03-29T09:18:32Z</time></trkpt><trkpt lat="42.060873880571606" lon="11.957288508516072"><ele>112.99999999999999</ele><time>2026-03-29T09:18:34Z</time></trkpt><trkpt lat="42.0609409933339" lon="11.957276052066971"><ele>113.0</ele><time>2026-03-29T09:18:35Z</time></trkpt><trkpt lat="42.06103266726836" lon="11.957301740655414"><ele>113.0</ele><time>2026-03-29T09:18:36Z</time></trkpt><trkpt lat="42.06110742541054" lon="11.957325196104476"><ele>113.0</ele><time>2026-03-29T09:18:37Z</time></trkpt><trkpt lat="42.06117262862688" lon="11.957359486080822"><ele>112.99999999999999</ele><time>2026-03-29T09:18:38Z</time></trkpt><trkpt lat="42.061206481073626" lon="11.9574706154151"><ele>113.0</ele><time>2026-03-29T09:18:40Z</time></trkpt><trkpt lat="42.061180736789105" lon="11.957596420440487"><ele>114.60000000000001</ele><time>2026-03-29T09:18:42Z</time></trkpt><trkpt lat="42.06117701426122" lon="11.95769478029687"><ele>116.20000000000002</ele><time>2026-03-29T09:18:43Z</time></trkpt><trkpt lat="42.06114700297342" lon="11.957813861959153"><ele>117.8</ele><time>2026-03-29T09:18:44Z</time></trkpt><trkpt lat="42.06113197929495" lon="11.95790542848601"><ele>119.4</ele><time>2026-03-29T09:18:45Z</time></trkpt><trkpt lat="42.061120264407" lon="11.958067596607263"><ele>121.0</ele><time>2026-03-29T09:18:47Z</time></trkpt><trkpt lat="42.06110703721344" lon="11.95819317418786"><ele>121.00000000000001</ele><time>2026-03-29T09:18:49Z</time></trkpt><trkpt lat="42.061062182513965" lon="11.958309585451081"><ele>121.0</ele><time>2026-03-29T09:18:51Z</time></trkpt><trkpt lat="42.0610659403506" lon="11.958455808095762"><ele>121.0</ele><time>2026-03-29T09:18:53Z</time></trkpt><trkpt lat="42.0610847038875" lon="11.958591453195622"><ele>121.0</ele><time>2026-03-29T09:18:55Z</time></trkpt><trkpt lat="42.06112292624135" lon="11.958672502490408"><ele>121.00000000000001</ele><time>2026-03-29T09:18:56.999Z</time></trkpt><trkpt lat="42.06115598094172" lon="11.958748358588661"><ele>121.0</ele><time>2026-03-29T09:19:10.999Z</time></trkpt><trkpt lat="42.061251820961026" lon="11.95897570349505"><ele>123.0</ele><time>2026-03-29T09:19:51.999Z</time></trkpt><trkpt lat="42.06127766641635" lon="11.959054070906832"><ele>125.0</ele><time>2026-03-29T09:19:52.999Z</time></trkpt><trkpt lat="42.0613225640592" lon="11.959197711594216"><ele>127.0</ele><time>2026-03-29T09:19:54.999Z</time></trkpt><trkpt lat="42.061370562790536" lon="11.95935055162334"><ele>129.0</ele><time>2026-03-29T09:19:56.999Z</time></trkpt><trkpt lat="42.06142319303257" lon="11.959461753712562"><ele>131.0</ele><time>2026-03-29T09:19:58.999Z</time></trkpt><trkpt lat="42.061481181764734" lon="11.95958360113762"><ele>133.4</ele><time>2026-03-29T09:20:00.999Z</time></trkpt><trkpt lat="42.06151362643807" lon="11.959674408186771"><ele>135.8</ele><time>2026-03-29T09:20:01.999Z</time></trkpt><trkpt lat="42.06155620710398" lon="11.959823250055267"><ele>138.20000000000002</ele><time>2026-03-29T09:20:03.999Z</time></trkpt><trkpt lat="42.06159541960983" lon="11.959975387513634"><ele>140.6</ele><time>2026-03-29T09:20:06Z</time></trkpt><trkpt lat="42.06164816784668" lon="11.96012744566867"><ele>143.0</ele><time>2026-03-29T09:20:08Z</time></trkpt><trkpt lat="42.06169452101156" lon="11.960221609657545"><ele>145.83333333333331</ele><time>2026-03-29T09:20:09Z</time></trkpt><trkpt lat="42.0617213745266" lon="11.960301000627442"><ele>148.66666666666666</ele><time>2026-03-29T09:20:10Z</time></trkpt><trkpt lat="42.06174138537656" lon="11.960385790369727"><ele>151.5</ele><time>2026-03-29T09:20:11Z</time></trkpt><trkpt lat="42.061763193257946" lon="11.960486958891043"><ele>154.33333333333334</ele><time>2026-03-29T09:20:12Z</time></trkpt><trkpt lat="42.0618087429215" lon="11.960596966094156"><ele>157.16666666666669</ele><time>2026-03-29T09:20:14Z</time></trkpt><trkpt lat="42.06186718446068" lon="11.960687698654818"><ele>160.0</ele><time>2026-03-29T09:20:16Z</time></trkpt><trkpt lat="42.06178934521164" lon="11.960604963652946"><ele>160.0</ele><time>2026-03-29T09:20:17Z</time></trkpt><trkpt lat="42.06183278354691" lon="11.960695889445939"><ele>160.0</ele><time>2026-03-29T09:20:19Z</time></trkpt><trkpt lat="42.06185179935306" lon="11.960792952651554"><ele>160.0</ele><time>2026-03-29T09:20:22Z</time></trkpt><trkpt lat="42.061900146421365" lon="11.96092281756927"><ele>160.0</ele><time>2026-03-29T09:20:24Z</time></trkpt><trkpt lat="42.061924862265684" lon="11.96113139689172"><ele>160.0</ele><time>2026-03-29T09:20:25Z</time></trkpt><trkpt lat="42.06202356557725" lon="11.961265549144589"><ele>161.8</ele><time>2026-03-29T09:20:26Z</time></trkpt><trkpt lat="42.06205638915888" lon="11.961384439000266"><ele>163.6</ele><time>2026-03-29T09:20:27Z</time></trkpt><trkpt lat="42.06201808546109" lon="11.96149624990927"><ele>165.39999999999998</ele><time>2026-03-29T09:20:34Z</time></trkpt><trkpt lat="42.061943319176606" lon="11.961535262263558"><ele>167.2</ele><time>2026-03-29T09:20:36Z</time></trkpt><trkpt lat="42.06183497493845" lon="11.961603472046736"><ele>169.0</ele><time>2026-03-29T09:20:38Z</time></trkpt><trkpt lat="42.06174214523148" lon="11.961696280000595"><ele>169.5</ele><time>2026-03-29T09:20:40Z</time></trkpt><trkpt lat="42.06168053189054" lon="11.961779119531764"><ele>170.0</ele><time>2026-03-29T09:20:41Z</time></trkpt><trkpt lat="42.06161145194737" lon="11.961841949801695"><ele>170.5</ele><time>2026-03-29T09:20:42Z</time></trkpt><trkpt lat="42.061542436157985" lon="11.96195635227672"><ele>171.0</ele><time>2026-03-29T09:20:44Z</time></trkpt><trkpt lat="42.061553281388285" lon="11.962045220608745"><ele>171.5</ele><time>2026-03-29T09:20:46Z</time></trkpt><trkpt lat="42.06161963187136" lon="11.96203329470274"><ele>172.0</ele><time>2026-03-29T09:20:50Z</time></trkpt><trkpt lat="42.061718197216415" lon="11.962045140686696"><ele>173.66666666666669</ele><time>2026-03-29T09:20:52Z</time></trkpt><trkpt lat="42.06179195014774" lon="11.961981065793589"><ele>175.33333333333334</ele><time>2026-03-29T09:20:56Z</time></trkpt><trkpt lat="42.06185638898627" lon="11.961966104305485"><ele>177.0</ele><time>2026-03-29T09:20:58Z</time></trkpt><trkpt lat="42.06192314950725" lon="11.962006680105317"><ele>178.66666666666666</ele><time>2026-03-29T09:21:00Z</time></trkpt><trkpt lat="42.06200907820558" lon="11.962048760947924"><ele>180.33333333333331</ele><time>2026-03-29T09:21:02Z</time></trkpt><trkpt lat="42.0620831400947" lon="11.962099712735544"><ele>182.0</ele><time>2026-03-29T09:21:03.999Z</time></trkpt><trkpt lat="42.06216937740581" lon="11.962154724403698"><ele>182.0</ele><time>2026-03-29T09:21:05.999Z</time></trkpt><trkpt lat="42.06226016135487" lon="11.962249194132056"><ele>182.0</ele><time>2026-03-29T09:21:07.999Z</time></trkpt><trkpt lat="42.06233069245625" lon="11.962317525285847"><ele>182.0</ele><time>2026-03-29T09:21:09.999Z</time></trkpt><trkpt lat="42.06233064554921" lon="11.962408124372473"><ele>182.0</ele><time>2026-03-29T09:21:44.999Z</time></trkpt><trkpt lat="42.06236348992401" lon="11.962496552065376"><ele>182.0</ele><time>2026-03-29T09:21:48.999Z</time></trkpt><trkpt lat="42.06236173906429" lon="11.962585161314719"><ele>182.0</ele><time>2026-03-29T09:21:50.999Z</time></trkpt><trkpt lat="42.06238673933905" lon="11.96266340225997"><ele>184.5</ele><time>2026-03-29T09:21:53.999Z</time></trkpt><trkpt lat="42.062413363709794" lon="11.96276223216677"><ele>187.0</ele><time>2026-03-29T09:21:56.999Z</time></trkpt><trkpt lat="42.062433420577435" lon="11.96286674650041"><ele>189.5</ele><time>2026-03-29T09:21:58.999Z</time></trkpt><trkpt lat="42.062526391493265" lon="11.962953160506865"><ele>192.0</ele><time>2026-03-29T09:22:01.999Z</time></trkpt><trkpt lat="42.062603705619246" lon="11.96304082353675"><ele>194.50000000000003</ele><time>2026-03-29T09:22:03.999Z</time></trkpt><trkpt lat="42.06264796913341" lon="11.963101571145005"><ele>197.0</ele><time>2026-03-29T09:22:05.999Z</time></trkpt><trkpt lat="42.06271761476587" lon="11.96317567603097"><ele>199.16666666666669</ele><time>2026-03-29T09:22:07.999Z</time></trkpt><trkpt lat="42.06276685387669" lon="11.963250917476783"><ele>201.33333333333334</ele><time>2026-03-29T09:22:09.999Z</time></trkpt><trkpt lat="42.06280489333993" lon="11.963367874584577"><ele>203.5</ele><time>2026-03-29T09:22:12Z</time></trkpt><trkpt lat="42.06280739031332" lon="11.963482240123355"><ele>205.66666666666669</ele><time>2026-03-29T09:22:14Z</time></trkpt><trkpt lat="42.062837574122334" lon="11.963615260508638"><ele>207.83333333333334</ele><time>2026-03-29T09:22:16Z</time></trkpt><trkpt lat="42.06285257372065" lon="11.96370201904165"><ele>210.0</ele><time>2026-03-29T09:22:17Z</time></trkpt><trkpt lat="42.062876479659025" lon="11.963792984380577"><ele>212.66666666666666</ele><time>2026-03-29T09:22:18Z</time></trkpt><trkpt lat="42.06288320160399" lon="11.963886759237075"><ele>215.33333333333331</ele><time>2026-03-29T09:22:19Z</time></trkpt><trkpt lat="42.06290662507191" lon="11.963977808939475"><ele>218.0</ele><time>2026-03-29T09:22:20Z</time></trkpt><trkpt lat="42.062910832319375" lon="11.964067960129148"><ele>220.66666666666666</ele><time>2026-03-29T09:22:21Z</time></trkpt><trkpt lat="42.06290990412374" lon="11.964207953436995"><ele>223.33333333333331</ele><time>2026-03-29T09:22:23Z</time></trkpt><trkpt lat="42.06290887005151" lon="11.96432486482881"><ele>226.0</ele><time>2026-03-29T09:22:25Z</time></trkpt><trkpt lat="42.06289742366353" lon="11.964451804124847"><ele>227.33333333333331</ele><time>2026-03-29T09:22:27Z</time></trkpt><trkpt lat="42.06286954308469" lon="11.964538894231742"><ele>228.66666666666666</ele><time>2026-03-29T09:22:28Z</time></trkpt><trkpt lat="42.06285053300711" lon="11.964658605607992"><ele>230.0</ele><time>2026-03-29T09:22:30Z</time></trkpt><trkpt lat="42.06278563437486" lon="11.964753807232407"><ele>231.33333333333331</ele><time>2026-03-29T09:22:32Z</time></trkpt><trkpt lat="42.06271451336357" lon="11.964845572496907"><ele>232.66666666666666</ele><time>2026-03-29T09:22:34Z</time></trkpt><trkpt lat="42.062644349862765" lon="11.964904574921102"><ele>234.0</ele><time>2026-03-29T09:22:36Z</time></trkpt><trkpt lat="42.06262276909461" lon="11.96503551503352"><ele>234.79999999999998</ele><time>2026-03-29T09:22:38Z</time></trkpt><trkpt lat="42.06260413690984" lon="11.965157731642154"><ele>235.59999999999997</ele><time>2026-03-29T09:22:40Z</time></trkpt><trkpt lat="42.0625848655403" lon="11.965248449962875"><ele>236.4</ele><time>2026-03-29T09:22:43Z</time></trkpt><trkpt lat="42.06254198906001" lon="11.965345754469892"><ele>237.2</ele><time>2026-03-29T09:25:11Z</time></trkpt><trkpt lat="42.06246362936505" lon="11.965460344675646"><ele>238.0</ele><time>2026-03-29T09:25:13Z</time></trkpt><trkpt lat="42.06241901690724" lon="11.965614477411435"><ele>238.0</ele><time>2026-03-29T09:25:14.999Z</time></trkpt><trkpt lat="42.062388769077096" lon="11.965729728303245"><ele>238.0</ele><time>2026-03-29T09:25:15.999Z</time></trkpt><trkpt lat="42.06234036494256" lon="11.965904517208354"><ele>238.0</ele><time>2026-03-29T09:25:16.999Z</time></trkpt><trkpt lat="42.06229817852088" lon="11.966054114719928"><ele>238.0</ele><time>2026-03-29T09:25:17.999Z</time></trkpt><trkpt lat="42.06225807398319" lon="11.966149246839839"><ele>238.0</ele><time>2026-03-29T09:25:18.999Z</time></trkpt><trkpt lat="42.06222037745547" lon="11.9662475530063"><ele>238.16666666666666</ele><time>2026-03-29T09:25:19.999Z</time></trkpt><trkpt lat="42.06217551951847" lon="11.96637467017164"><ele>238.33333333333331</ele><time>2026-03-29T09:25:21.999Z</time></trkpt><trkpt lat="42.062134012010816" lon="11.966465973092506"><ele>238.5</ele><time>2026-03-29T09:25:23.999Z</time></trkpt><trkpt lat="42.0621255424184" lon="11.966557361882241"><ele>238.66666666666669</ele><time>2026-03-29T09:25:57.999Z</time></trkpt><trkpt lat="42.06211609646639" lon="11.966677727481503"><ele>238.83333333333334</ele><time>2026-03-29T09:26:35Z</time></trkpt><trkpt lat="42.06209618481445" lon="11.966785281958616"><ele>239.0</ele><time>2026-03-29T09:26:36Z</time></trkpt><trkpt lat="42.06207582217971" lon="11.966880041168396"><ele>238.6</ele><time>2026-03-29T09:26:37Z</time></trkpt><trkpt lat="42.0620566204998" lon="11.966989933630632"><ele>238.2</ele><time>2026-03-29T09:26:38Z</time></trkpt><trkpt lat="42.06202182997311" lon="11.967122875534654"><ele>237.79999999999998</ele><time>2026-03-29T09:26:39Z</time></trkpt><trkpt lat="42.06200993246091" lon="11.967238445850361"><ele>237.39999999999998</ele><time>2026-03-29T09:26:40Z</time></trkpt><trkpt lat="42.06202136848661" lon="11.967372994550841"><ele>237.0</ele><time>2026-03-29T09:26:41Z</time></trkpt><trkpt lat="42.06202732737745" lon="11.9674955598109"><ele>235.85714285714283</ele><time>2026-03-29T09:26:42Z</time></trkpt><trkpt lat="42.06202296865782" lon="11.967601306503418"><ele>234.71428571428572</ele><time>2026-03-29T09:26:43Z</time></trkpt><trkpt lat="42.06201419106548" lon="11.967700862175134"><ele>233.57142857142856</ele><time>2026-03-29T09:26:44Z</time></trkpt><trkpt lat="42.06200997605645" lon="11.967812703989729"><ele>232.42857142857142</ele><time>2026-03-29T09:26:45Z</time></trkpt><trkpt lat="42.06200543361006" lon="11.967910510868737"><ele>231.28571428571428</ele><time>2026-03-29T09:26:46Z</time></trkpt><trkpt lat="42.062009700875166" lon="11.968001463663567"><ele>230.14285714285714</ele><time>2026-03-29T09:26:47Z</time></trkpt><trkpt lat="42.0620110539735" lon="11.968098372669969"><ele>229.0</ele><time>2026-03-29T09:26:48Z</time></trkpt><trkpt lat="42.061998645795754" lon="11.968215437264655"><ele>228.99999999999997</ele><time>2026-03-29T09:26:49Z</time></trkpt><trkpt lat="42.06197903431536" lon="11.968311634320035"><ele>229.0</ele><time>2026-03-29T09:26:50Z</time></trkpt><trkpt lat="42.0619664829884" lon="11.968413000161998"><ele>229.0</ele><time>2026-03-29T09:26:51Z</time></trkpt><trkpt lat="42.06196504603985" lon="11.96853533413811"><ele>229.0</ele><time>2026-03-29T09:26:52Z</time></trkpt><trkpt lat="42.061955914101745" lon="11.968666145623947"><ele>228.99999999999997</ele><time>2026-03-29T09:26:53Z</time></trkpt><trkpt lat="42.06195493108045" lon="11.968778694360946"><ele>229.0</ele><time>2026-03-29T09:26:54Z</time></trkpt><trkpt lat="42.06196238302845" lon="11.968908171197446"><ele>228.0</ele><time>2026-03-29T09:26:55Z</time></trkpt><trkpt lat="42.06196552558078" lon="11.969035890420784"><ele>226.99999999999997</ele><time>2026-03-29T09:26:56Z</time></trkpt><trkpt lat="42.061951818942525" lon="11.96915942437108"><ele>225.99999999999997</ele><time>2026-03-29T09:26:57Z</time></trkpt><trkpt lat="42.06193269413098" lon="11.96928267708425"><ele>225.0</ele><time>2026-03-29T09:26:58Z</time></trkpt><trkpt lat="42.061926617083934" lon="11.9694000946317"><ele>224.0</ele><time>2026-03-29T09:26:59Z</time></trkpt><trkpt lat="42.06194229050912" lon="11.96957889452065"><ele>223.00000000000003</ele><time>2026-03-29T09:27:01Z</time></trkpt><trkpt lat="42.061954348994604" lon="11.969669376096807"><ele>222.0</ele><time>2026-03-29T09:27:02Z</time></trkpt><trkpt lat="42.06200065717378" lon="11.969737855864665"><ele>221.0</ele><time>2026-03-29T09:27:03Z</time></trkpt><trkpt lat="42.062061302297444" lon="11.969771886114462"><ele>220.0</ele><time>2026-03-29T09:27:04Z</time></trkpt><trkpt lat="42.06213125259731" lon="11.969802990414045"><ele>219.00000000000003</ele><time>2026-03-29T09:27:05Z</time></trkpt><trkpt lat="42.062200024475835" lon="11.969813156427856"><ele>218.0</ele><time>2026-03-29T09:27:06Z</time></trkpt><trkpt lat="42.06229018121089" lon="11.969886496578006"><ele>218.00000000000003</ele><time>2026-03-29T09:27:08Z</time></trkpt><trkpt lat="42.06230961333757" lon="11.970004749638735"><ele>218.0</ele><time>2026-03-29T09:27:10Z</time></trkpt><trkpt lat="42.0623418051085" lon="11.970081861190849"><ele>218.0</ele><time>2026-03-29T09:27:12Z</time></trkpt><trkpt lat="42.062419235143444" lon="11.970076850272292"><ele>218.0</ele><time>2026-03-29T09:27:25.999Z</time></trkpt><trkpt lat="42.062500035570686" lon="11.97007262757489"><ele>218.00000000000003</ele><time>2026-03-29T09:27:49.999Z</time></trkpt><trkpt lat="42.06256737665423" lon="11.970082981277269"><ele>218.0</ele><time>2026-03-29T09:27:50.999Z</time></trkpt><trkpt lat="42.06269890002481" lon="11.9700680697834"><ele>218.50000000000003</ele><time>2026-03-29T09:27:52.999Z</time></trkpt><trkpt lat="42.062786495488986" lon="11.970035226320196"><ele>219.0</ele><time>2026-03-29T09:27:53.999Z</time></trkpt><trkpt lat="42.06286330556233" lon="11.970015792673136"><ele>219.5</ele><time>2026-03-29T09:27:54.999Z</time></trkpt><trkpt lat="42.06295991551602" lon="11.969995214617915"><ele>220.0</ele><time>2026-03-29T09:27:55.999Z</time></trkpt><trkpt lat="42.06302767947816" lon="11.969975914680358"><ele>220.50000000000003</ele><time>2026-03-29T09:27:56.999Z</time></trkpt><trkpt lat="42.06311221096902" lon="11.969941738481678"><ele>221.0</ele><time>2026-03-29T09:27:57.999Z</time></trkpt><trkpt lat="42.06321112377945" lon="11.969925928061796"><ele>222.20000000000002</ele><time>2026-03-29T09:27:58.999Z</time></trkpt><trkpt lat="42.06331102205795" lon="11.96990947805262"><ele>223.40000000000003</ele><time>2026-03-29T09:27:59.999Z</time></trkpt><trkpt lat="42.06340871616643" lon="11.96988928852245"><ele>224.6</ele><time>2026-03-29T09:28:00.999Z</time></trkpt><trkpt lat="42.06350821760246" lon="11.969850863319369"><ele>225.8</ele><time>2026-03-29T09:28:01.999Z</time></trkpt><trkpt lat="42.06361496960737" lon="11.969811112070536"><ele>227.0</ele><time>2026-03-29T09:28:02.999Z</time></trkpt><trkpt lat="42.06372304608971" lon="11.969776283155474"><ele>227.0</ele><time>2026-03-29T09:28:03.999Z</time></trkpt><trkpt lat="42.0638339858005" lon="11.969745199093772"><ele>227.0</ele><time>2026-03-29T09:28:04.999Z</time></trkpt><trkpt lat="42.063937090848746" lon="11.969709428550875"><ele>227.0</ele><time>2026-03-29T09:28:05.999Z</time></trkpt><trkpt lat="42.06404655578371" lon="11.969675807461769"><ele>227.0</ele><time>2026-03-29T09:28:06.999Z</time></trkpt><trkpt lat="42.06416099150085" lon="11.969662665684254"><ele>227.0</ele><time>2026-03-29T09:28:07.999Z</time></trkpt><trkpt lat="42.064266920827436" lon="11.969658932715618"><ele>227.0</ele><time>2026-03-29T09:28:08.999Z</time></trkpt><trkpt lat="42.06439168972419" lon="11.969651344495182"><ele>227.0</ele><time>2026-03-29T09:28:09.999Z</time></trkpt><trkpt lat="42.064497050849035" lon="11.96966613661116"><ele>227.0</ele><time>2026-03-29T09:28:10.999Z</time></trkpt><trkpt lat="42.064591245988055" lon="11.969678237699437"><ele>227.0</ele><time>2026-03-29T09:28:11.999Z</time></trkpt><trkpt lat="42.06469256355883" lon="11.969699040636913"><ele>227.0</ele><time>2026-03-29T09:28:12.999Z</time></trkpt><trkpt lat="42.064787096150404" lon="11.969736296980187"><ele>227.0</ele><time>2026-03-29T09:28:13.999Z</time></trkpt><trkpt lat="42.06486975215164" lon="11.969779598577272"><ele>227.0</ele><time>2026-03-29T09:28:14.999Z</time></trkpt><trkpt lat="42.064981435659625" lon="11.969809984031272"><ele>227.0</ele><time>2026-03-29T09:28:15.999Z</time></trkpt><trkpt lat="42.06507940093811" lon="11.96983044489636"><ele>227.0</ele><time>2026-03-29T09:28:16.999Z</time></trkpt><trkpt lat="42.06517177335647" lon="11.969838611141508"><ele>227.0</ele><time>2026-03-29T09:28:17.999Z</time></trkpt><trkpt lat="42.065263842250296" lon="11.969842156004642"><ele>227.83333333333334</ele><time>2026-03-29T09:28:18.999Z</time></trkpt><trkpt lat="42.06534097845748" lon="11.969836836775253"><ele>228.66666666666669</ele><time>2026-03-29T09:28:19.999Z</time></trkpt><trkpt lat="42.065429726772045" lon="11.969832356766151"><ele>229.5</ele><time>2026-03-29T09:28:20.999Z</time></trkpt><trkpt lat="42.06551160577983" lon="11.969859662616683"><ele>230.33333333333331</ele><time>2026-03-29T09:28:21.999Z</time></trkpt><trkpt lat="42.0655816294936" lon="11.969911261464866"><ele>231.16666666666666</ele><time>2026-03-29T09:28:22.999Z</time></trkpt><trkpt lat="42.06562199722423" lon="11.970021605478616"><ele>232.0</ele><time>2026-03-29T09:28:23.999Z</time></trkpt><trkpt lat="42.065716464018394" lon="11.970082362723703"><ele>233.8</ele><time>2026-03-29T09:28:24.999Z</time></trkpt><trkpt lat="42.06580718078589" lon="11.970133360114893"><ele>235.6</ele><time>2026-03-29T09:28:25.999Z</time></trkpt><trkpt lat="42.065911007030856" lon="11.970184009666111"><ele>237.40000000000003</ele><time>2026-03-29T09:28:26.999Z</time></trkpt><trkpt lat="42.066013709566015" lon="11.970221465484855"><ele>239.20000000000002</ele><time>2026-03-29T09:28:27.999Z</time></trkpt><trkpt lat="42.06611646085799" lon="11.970256175405089"><ele>241.0</ele><time>2026-03-29T09:28:29Z</time></trkpt><trkpt lat="42.06621304661576" lon="11.970275525488487"><ele>241.0</ele><time>2026-03-29T09:28:30Z</time></trkpt><trkpt lat="42.066325372096586" lon="11.970310342371356"><ele>241.00000000000003</ele><time>2026-03-29T09:28:31Z</time></trkpt><trkpt lat="42.066426207600564" lon="11.97036626199496"><ele>241.00000000000003</ele><time>2026-03-29T09:28:32Z</time></trkpt><trkpt lat="42.06651182556331" lon="11.970452751044562"><ele>241.0</ele><time>2026-03-29T09:28:33Z</time></trkpt><trkpt lat="42.06649122647021" lon="11.970608579176389"><ele>241.0</ele><time>2026-03-29T09:28:34Z</time></trkpt><trkpt lat="42.06655563196062" lon="11.970702915561453"><ele>241.8</ele><time>2026-03-29T09:28:35Z</time></trkpt><trkpt lat="42.06662409990526" lon="11.970790784157467"><ele>242.60000000000002</ele><time>2026-03-29T09:28:36Z</time></trkpt><trkpt lat="42.06667498547775" lon="11.970856605783016"><ele>243.4</ele><time>2026-03-29T09:28:37Z</time></trkpt><trkpt lat="42.066753883426685" lon="11.97091302191284"><ele>244.2</ele><time>2026-03-29T09:28:39Z</time></trkpt><trkpt lat="42.06688108928645" lon="11.971049355902233"><ele>245.0</ele><time>2026-03-29T09:28:41Z</time></trkpt><trkpt lat="42.06694018101232" lon="11.97111823819203"><ele>246.0</ele><time>2026-03-29T09:28:42Z</time></trkpt><trkpt lat="42.06701002403201" lon="11.971179925208347"><ele>247.0</ele><time>2026-03-29T09:28:43Z</time></trkpt><trkpt lat="42.067078048747376" lon="11.971262257451095"><ele>248.0</ele><time>2026-03-29T09:28:44Z</time></trkpt><trkpt lat="42.067153076932854" lon="11.971357611040922"><ele>249.0</ele><time>2026-03-29T09:28:45Z</time></trkpt><trkpt lat="42.0672405034799" lon="11.971442953942717"><ele>250.0</ele><time>2026-03-29T09:28:46Z</time></trkpt><trkpt lat="42.06731813170122" lon="11.971530082525645"><ele>249.99999999999997</ele><time>2026-03-29T09:28:47Z</time></trkpt><trkpt lat="42.067396822829174" lon="11.971617795480746"><ele>250.0</ele><time>2026-03-29T09:28:48Z</time></trkpt><trkpt lat="42.06743811250987" lon="11.971699431515933"><ele>250.0</ele><time>2026-03-29T09:28:49Z</time></trkpt><trkpt lat="42.06752219078669" lon="11.971752185849338"><ele>250.0</ele><time>2026-03-29T09:28:50Z</time></trkpt><trkpt lat="42.06759454087312" lon="11.971810593167937"><ele>249.99999999999997</ele><time>2026-03-29T09:28:51Z</time></trkpt><trkpt lat="42.06766465938299" lon="11.971878187099376"><ele>250.0</ele><time>2026-03-29T09:28:52Z</time></trkpt><trkpt lat="42.067758392959114" lon="11.971960213010368"><ele>250.2</ele><time>2026-03-29T09:28:53Z</time></trkpt><trkpt lat="42.067839142442224" lon="11.972060226394682"><ele>250.4</ele><time>2026-03-29T09:28:54Z</time></trkpt><trkpt lat="42.06791699344246" lon="11.97216092562236"><ele>250.60000000000002</ele><time>2026-03-29T09:28:55Z</time></trkpt><trkpt lat="42.06798208316473" lon="11.9722498099315"><ele>250.8</ele><time>2026-03-29T09:28:56Z</time></trkpt><trkpt lat="42.068004549814745" lon="11.972343283059308"><ele>251.0</ele><time>2026-03-29T09:28:57Z</time></trkpt><trkpt lat="42.06804916747115" lon="11.972429901384983"><ele>252.16666666666669</ele><time>2026-03-29T09:28:58Z</time></trkpt><trkpt lat="42.06807251534055" lon="11.972554260030774"><ele>253.33333333333334</ele><time>2026-03-29T09:28:59Z</time></trkpt><trkpt lat="42.068105909023274" lon="11.97266870605971"><ele>254.5</ele><time>2026-03-29T09:29:00Z</time></trkpt><trkpt lat="42.068150733899614" lon="11.97277583645712"><ele>255.66666666666669</ele><time>2026-03-29T09:29:01Z</time></trkpt><trkpt lat="42.068205245368816" lon="11.972854389755604"><ele>256.8333333333333</ele><time>2026-03-29T09:29:02Z</time></trkpt><trkpt lat="42.06826269811388" lon="11.97290659438032"><ele>258.0</ele><time>2026-03-29T09:29:03Z</time></trkpt><trkpt lat="42.068382062027574" lon="11.972900298494654"><ele>258.0</ele><time>2026-03-29T09:29:05Z</time></trkpt><trkpt lat="42.06846925290565" lon="11.972853497691057"><ele>258.0</ele><time>2026-03-29T09:29:06Z</time></trkpt><trkpt lat="42.06851300345491" lon="11.972791921007316"><ele>258.0</ele><time>2026-03-29T09:29:07Z</time></trkpt><trkpt lat="42.068594228900544" lon="11.972794685241396"><ele>258.0</ele><time>2026-03-29T09:29:08Z</time></trkpt><trkpt lat="42.06870971425292" lon="11.972816536961101"><ele>258.0</ele><time>2026-03-29T09:29:09Z</time></trkpt><trkpt lat="42.06879327724573" lon="11.972868434872575"><ele>258.0</ele><time>2026-03-29T09:29:10Z</time></trkpt><trkpt lat="42.0688752394746" lon="11.972986960497483"><ele>258.0</ele><time>2026-03-29T09:29:11Z</time></trkpt><trkpt lat="42.06894728015905" lon="11.97305810867596"><ele>258.0</ele><time>2026-03-29T09:29:12Z</time></trkpt><trkpt lat="42.069017231928285" lon="11.973116351289278"><ele>258.0</ele><time>2026-03-29T09:29:13Z</time></trkpt><trkpt lat="42.06913852340246" lon="11.97321116333339"><ele>258.0</ele><time>2026-03-29T09:29:15Z</time></trkpt><trkpt lat="42.06921392267738" lon="11.973251298423547"><ele>258.0</ele><time>2026-03-29T09:29:16Z</time></trkpt><trkpt lat="42.06929207921351" lon="11.97329935004647"><ele>258.5</ele><time>2026-03-29T09:29:17Z</time></trkpt><trkpt lat="42.069366691237406" lon="11.973340197836844"><ele>259.0</ele><time>2026-03-29T09:29:18Z</time></trkpt><trkpt lat="42.069445032032135" lon="11.97340356653489"><ele>259.5</ele><time>2026-03-29T09:29:19Z</time></trkpt><trkpt lat="42.06951729757738" lon="11.973456302095855"><ele>260.0</ele><time>2026-03-29T09:29:20Z</time></trkpt><trkpt lat="42.06960543811353" lon="11.973504652569645"><ele>260.5</ele><time>2026-03-29T09:29:21Z</time></trkpt><trkpt lat="42.06968907860838" lon="11.973536279888885"><ele>261.0</ele><time>2026-03-29T09:29:22Z</time></trkpt><trkpt lat="42.06977304852855" lon="11.973542838886381"><ele>262.6</ele><time>2026-03-29T09:29:23Z</time></trkpt><trkpt lat="42.06991596688713" lon="11.973615698359241"><ele>264.20000000000005</ele><time>2026-03-29T09:29:25Z</time></trkpt><trkpt lat="42.0699852050481" lon="11.973688785219966"><ele>265.79999999999995</ele><time>2026-03-29T09:29:26Z</time></trkpt><trkpt lat="42.07005005503194" lon="11.973727127642457"><ele>267.4</ele><time>2026-03-29T09:29:26.999Z</time></trkpt><trkpt lat="42.070112421466874" lon="11.973764282441484"><ele>269.0</ele><time>2026-03-29T09:29:27.999Z</time></trkpt><trkpt lat="42.07018552601382" lon="11.97375968071917"><ele>269.4</ele><time>2026-03-29T09:29:28.999Z</time></trkpt><trkpt lat="42.07025237610057" lon="11.973758686880982"><ele>269.79999999999995</ele><time>2026-03-29T09:29:29.999Z</time></trkpt><trkpt lat="42.070380839510825" lon="11.973750314191877"><ele>270.20000000000005</ele><time>2026-03-29T09:29:31.999Z</time></trkpt><trkpt lat="42.07047397351272" lon="11.973747348358621"><ele>270.6</ele><time>2026-03-29T09:29:32.999Z</time></trkpt><trkpt lat="42.07054471853417" lon="11.97376898459498"><ele>271.0</ele><time>2026-03-29T09:29:33.999Z</time></trkpt><trkpt lat="42.070664302675056" lon="11.973859616546932"><ele>271.0</ele><time>2026-03-29T09:29:34.999Z</time></trkpt><trkpt lat="42.07075919826003" lon="11.973926997451947"><ele>271.0</ele><time>2026-03-29T09:29:35.999Z</time></trkpt><trkpt lat="42.070842322137985" lon="11.9739731977379"><ele>271.0</ele><time>2026-03-29T09:29:36.999Z</time></trkpt><trkpt lat="42.07094117580989" lon="11.973989419554805"><ele>271.0</ele><time>2026-03-29T09:29:37.999Z</time></trkpt><trkpt lat="42.07103364495133" lon="11.973996181834853"><ele>271.0</ele><time>2026-03-29T09:29:38.999Z</time></trkpt><trkpt lat="42.071122112787414" lon="11.974004608518776"><ele>271.66666666666663</ele><time>2026-03-29T09:29:39.999Z</time></trkpt><trkpt lat="42.07139296657828" lon="11.974083387427234"><ele>272.3333333333333</ele><time>2026-03-29T09:29:43.999Z</time></trkpt><trkpt lat="42.07149817011314" lon="11.974162057755294"><ele>273.0</ele><time>2026-03-29T09:29:45.999Z</time></trkpt><trkpt lat="42.0715707069409" lon="11.974224973627136"><ele>274.0</ele><time>2026-03-29T09:29:46.999Z</time></trkpt><trkpt lat="42.07163024551202" lon="11.974278464140973"><ele>275.0</ele><time>2026-03-29T09:29:47.999Z</time></trkpt><trkpt lat="42.07169191336548" lon="11.974313671586419"><ele>276.0</ele><time>2026-03-29T09:29:48.999Z</time></trkpt><trkpt lat="42.07176563504889" lon="11.974383633067085"><ele>277.0</ele><time>2026-03-29T09:29:49.999Z</time></trkpt><trkpt lat="42.07183590721252" lon="11.974466723256052"><ele>278.0</ele><time>2026-03-29T09:29:50.999Z</time></trkpt><trkpt lat="42.07192201573742" lon="11.974553667491746"><ele>279.0</ele><time>2026-03-29T09:29:51.999Z</time></trkpt><trkpt lat="42.07198919402912" lon="11.974636720144556"><ele>279.0</ele><time>2026-03-29T09:29:52.999Z</time></trkpt><trkpt lat="42.07206759815468" lon="11.974694726645357"><ele>279.0</ele><time>2026-03-29T09:29:53.999Z</time></trkpt><trkpt lat="42.07214550265889" lon="11.974756178206723"><ele>279.0</ele><time>2026-03-29T09:29:54.999Z</time></trkpt><trkpt lat="42.07221263171929" lon="11.974799841085062"><ele>279.0</ele><time>2026-03-29T09:29:55.999Z</time></trkpt><trkpt lat="42.07229569923448" lon="11.974838355255644"><ele>279.0</ele><time>2026-03-29T09:29:56.999Z</time></trkpt><trkpt lat="42.072369599790456" lon="11.974857534585642"><ele>279.0</ele><time>2026-03-29T09:29:57.999Z</time></trkpt><trkpt lat="42.07243841188792" lon="11.974865846161352"><ele>279.8</ele><time>2026-03-29T09:29:58.999Z</time></trkpt><trkpt lat="42.07254308283073" lon="11.974858568630982"><ele>280.59999999999997</ele><time>2026-03-29T09:29:59.999Z</time></trkpt><trkpt lat="42.07263210949232" lon="11.974858462720663"><ele>281.4</ele><time>2026-03-29T09:30:00.999Z</time></trkpt><trkpt lat="42.07272148872768" lon="11.974849364989462"><ele>282.2</ele><time>2026-03-29T09:30:01.999Z</time></trkpt><trkpt lat="42.072807584744076" lon="11.97485107243688"><ele>283.0</ele><time>2026-03-29T09:30:02.999Z</time></trkpt><trkpt lat="42.07289038312561" lon="11.974848084046299"><ele>283.0</ele><time>2026-03-29T09:30:03.999Z</time></trkpt><trkpt lat="42.072962841696" lon="11.974861232265729"><ele>283.0</ele><time>2026-03-29T09:30:04.999Z</time></trkpt><trkpt lat="42.07304230429666" lon="11.974871416932402"><ele>283.0</ele><time>2026-03-29T09:30:05.999Z</time></trkpt><trkpt lat="42.07312227492419" lon="11.9748927954151"><ele>283.0</ele><time>2026-03-29T09:30:06.999Z</time></trkpt><trkpt lat="42.07320742998505" lon="11.974911561470543"><ele>283.0</ele><time>2026-03-29T09:30:07.999Z</time></trkpt><trkpt lat="42.07329662603321" lon="11.974927953717854"><ele>283.0</ele><time>2026-03-29T09:30:09.999Z</time></trkpt><trkpt lat="42.073363781213" lon="11.974952474313438"><ele>283.3333333333333</ele><time>2026-03-29T09:30:10.999Z</time></trkpt><trkpt lat="42.07340943927725" lon="11.975012168467936"><ele>283.66666666666663</ele><time>2026-03-29T09:30:11.999Z</time></trkpt><trkpt lat="42.07346787854537" lon="11.975104056857225"><ele>284.0</ele><time>2026-03-29T09:30:12.999Z</time></trkpt><trkpt lat="42.073524391827966" lon="11.97517155980566"><ele>284.3333333333333</ele><time>2026-03-29T09:30:13.999Z</time></trkpt><trkpt lat="42.07357525615565" lon="11.975245380869312"><ele>284.6666666666667</ele><time>2026-03-29T09:30:14.999Z</time></trkpt><trkpt lat="42.073636573432445" lon="11.97538518299082"><ele>285.0</ele><time>2026-03-29T09:30:16.999Z</time></trkpt><trkpt lat="42.0736840956452" lon="11.97545407463436"><ele>286.1666666666667</ele><time>2026-03-29T09:30:17.999Z</time></trkpt><trkpt lat="42.0737862989694" lon="11.975572422986424"><ele>287.3333333333333</ele><time>2026-03-29T09:30:19.999Z</time></trkpt><trkpt lat="42.073844629799396" lon="11.97562027459326"><ele>288.5</ele><time>2026-03-29T09:30:20.999Z</time></trkpt><trkpt lat="42.073908518534246" lon="11.975670136765007"><ele>289.66666666666663</ele><time>2026-03-29T09:30:21.999Z</time></trkpt><trkpt lat="42.07396962032493" lon="11.975712397244767"><ele>290.8333333333333</ele><time>2026-03-29T09:30:22.999Z</time></trkpt><trkpt lat="42.074036553217105" lon="11.97575281336163"><ele>292.0</ele><time>2026-03-29T09:30:23.999Z</time></trkpt><trkpt lat="42.074118165464924" lon="11.97579857628246"><ele>292.16666666666663</ele><time>2026-03-29T09:30:24.999Z</time></trkpt><trkpt lat="42.07419205677765" lon="11.975847275543584"><ele>292.3333333333333</ele><time>2026-03-29T09:30:25.999Z</time></trkpt><trkpt lat="42.07426578783682" lon="11.975902130999627"><ele>292.5</ele><time>2026-03-29T09:30:26.999Z</time></trkpt><trkpt lat="42.07434833451251" lon="11.97595614705079"><ele>292.6666666666667</ele><time>2026-03-29T09:30:27.999Z</time></trkpt><trkpt lat="42.07443409524403" lon="11.976014306689265"><ele>292.83333333333337</ele><time>2026-03-29T09:30:28.999Z</time></trkpt><trkpt lat="42.07451739652588" lon="11.97604812615108"><ele>293.0</ele><time>2026-03-29T09:30:29.999Z</time></trkpt><trkpt lat="42.074592987586094" lon="11.97609892940255"><ele>294.1666666666667</ele><time>2026-03-29T09:30:30.999Z</time></trkpt><trkpt lat="42.07466918510417" lon="11.976134323403347"><ele>295.33333333333337</ele><time>2026-03-29T09:30:31.999Z</time></trkpt><trkpt lat="42.07475422093307" lon="11.976147856316015"><ele>296.5</ele><time>2026-03-29T09:30:32.999Z</time></trkpt><trkpt lat="42.07484230738426" lon="11.97616915715105"><ele>297.6666666666667</ele><time>2026-03-29T09:30:33.999Z</time></trkpt><trkpt lat="42.07493236744825" lon="11.97614869342833"><ele>298.8333333333333</ele><time>2026-03-29T09:30:35Z</time></trkpt><trkpt lat="42.07500699060028" lon="11.97614735079785"><ele>300.0</ele><time>2026-03-29T09:30:36Z</time></trkpt><trkpt lat="42.075087127645425" lon="11.976168632498776"><ele>300.0</ele><time>2026-03-29T09:30:37Z</time></trkpt><trkpt lat="42.07515481300392" lon="11.976176066855846"><ele>300.0</ele><time>2026-03-29T09:30:38Z</time></trkpt><trkpt lat="42.075226408677224" lon="11.976165123521877"><ele>300.0</ele><time>2026-03-29T09:30:39Z</time></trkpt><trkpt lat="42.07530638020978" lon="11.9761799023449"><ele>300.0</ele><time>2026-03-29T09:30:40Z</time></trkpt><trkpt lat="42.07541165161202" lon="11.976201237913994"><ele>300.0</ele><time>2026-03-29T09:30:42Z</time></trkpt><trkpt lat="42.075513471459004" lon="11.976206060474771"><ele>300.0</ele><time>2026-03-29T09:30:44Z</time></trkpt><trkpt lat="42.075595949446075" lon="11.976196491690597"><ele>300.0</ele><time>2026-03-29T09:30:46Z</time></trkpt><trkpt lat="42.075565170224664" lon="11.976103367192518"><ele>300.0</ele><time>2026-03-29T09:31:00Z</time></trkpt><trkpt lat="42.07559738823548" lon="11.975989684711752"><ele>300.0</ele><time>2026-03-29T09:31:04Z</time></trkpt><trkpt lat="42.07561501219789" lon="11.97587047077243"><ele>300.0</ele><time>2026-03-29T09:31:06Z</time></trkpt><trkpt lat="42.07559004917733" lon="11.975740694431257"><ele>300.0</ele><time>2026-03-29T09:31:08Z</time></trkpt><trkpt lat="42.0755501596214" lon="11.97563191599411"><ele>300.0</ele><time>2026-03-29T09:31:09Z</time></trkpt><trkpt lat="42.07551385886416" lon="11.97552666019171"><ele>300.5</ele><time>2026-03-29T09:31:11Z</time></trkpt><trkpt lat="42.07555992852466" lon="11.975420989382577"><ele>301.0</ele><time>2026-03-29T09:31:13Z</time></trkpt><trkpt lat="42.075563594629536" lon="11.975307215838841"><ele>301.5</ele><time>2026-03-29T09:31:15Z</time></trkpt><trkpt lat="42.07549544123626" lon="11.975250245144222"><ele>302.0</ele><time>2026-03-29T09:31:17Z</time></trkpt><trkpt lat="42.07549074353807" lon="11.975164691985132"><ele>302.5</ele><time>2026-03-29T09:31:22Z</time></trkpt><trkpt lat="42.07547201563259" lon="11.975071921827274"><ele>303.0</ele><time>2026-03-29T09:31:25Z</time></trkpt><trkpt lat="42.0755032972981" lon="11.97497080917688"><ele>305.0</ele><time>2026-03-29T09:31:28Z</time></trkpt><trkpt lat="42.07555242413257" lon="11.974906473561463"><ele>307.0</ele><time>2026-03-29T09:31:30Z</time></trkpt><trkpt lat="42.07564937874458" lon="11.97490883753023"><ele>309.0</ele><time>2026-03-29T09:31:31.999Z</time></trkpt><trkpt lat="42.075724102382296" lon="11.974895489014772"><ele>311.0</ele><time>2026-03-29T09:31:33.999Z</time></trkpt><trkpt lat="42.07580895654642" lon="11.974849345707216"><ele>313.0</ele><time>2026-03-29T09:31:35.999Z</time></trkpt><trkpt lat="42.07590669721661" lon="11.974866045772773"><ele>315.0</ele><time>2026-03-29T09:31:37.999Z</time></trkpt><trkpt lat="42.07601929063765" lon="11.974860495026729"><ele>317.3333333333333</ele><time>2026-03-29T09:31:39.999Z</time></trkpt><trkpt lat="42.07613013498329" lon="11.974830873178705"><ele>319.6666666666667</ele><time>2026-03-29T09:31:41.999Z</time></trkpt><trkpt lat="42.07619839069857" lon="11.974833887896835"><ele>322.0</ele><time>2026-03-29T09:31:42.999Z</time></trkpt><trkpt lat="42.076298527873504" lon="11.974793651133558"><ele>324.33333333333337</ele><time>2026-03-29T09:31:44.999Z</time></trkpt><trkpt lat="42.07634359824832" lon="11.974694199506555"><ele>326.6666666666667</ele><time>2026-03-29T09:31:46.999Z</time></trkpt><trkpt lat="42.07637125112" lon="11.97461611124558"><ele>329.0</ele><time>2026-03-29T09:31:47.999Z</time></trkpt><trkpt lat="42.07639214233055" lon="11.974492270936464"><ele>329.0</ele><time>2026-03-29T09:31:49.999Z</time></trkpt><trkpt lat="42.07637212514713" lon="11.974341446139139"><ele>329.0</ele><time>2026-03-29T09:31:51.999Z</time></trkpt><trkpt lat="42.076335414694555" lon="11.974266292822723"><ele>329.0</ele><time>2026-03-29T09:31:52.999Z</time></trkpt><trkpt lat="42.076261069019466" lon="11.974151286580302"><ele>329.0</ele><time>2026-03-29T09:31:54.999Z</time></trkpt><trkpt lat="42.076242386137274" lon="11.974069221393497"><ele>329.0</ele><time>2026-03-29T09:31:55.999Z</time></trkpt><trkpt lat="42.07620168706987" lon="11.973949227780727"><ele>333.4</ele><time>2026-03-29T09:31:57.999Z</time></trkpt><trkpt lat="42.07614676737997" lon="11.973858255456369"><ele>337.79999999999995</ele><time>2026-03-29T09:31:59.999Z</time></trkpt><trkpt lat="42.07611248046092" lon="11.973733771651212"><ele>342.20000000000005</ele><time>2026-03-29T09:32:01.999Z</time></trkpt><trkpt lat="42.07609023659236" lon="11.973584812429078"><ele>346.6</ele><time>2026-03-29T09:32:03.999Z</time></trkpt><trkpt lat="42.07606401036597" lon="11.973463272320133"><ele>351.0</ele><time>2026-03-29T09:32:05.999Z</time></trkpt><trkpt lat="42.07602345109673" lon="11.973360106147995"><ele>352.5</ele><time>2026-03-29T09:32:08.999Z</time></trkpt><trkpt lat="42.07594111381559" lon="11.973277918174707"><ele>354.0</ele><time>2026-03-29T09:32:10.999Z</time></trkpt><trkpt lat="42.07588407608355" lon="11.973207057962197"><ele>355.5</ele><time>2026-03-29T09:32:12.999Z</time></trkpt><trkpt lat="42.075814123867765" lon="11.973091867462688"><ele>357.0</ele><time>2026-03-29T09:32:14.999Z</time></trkpt><trkpt lat="42.07578070630458" lon="11.973018204890119"><ele>358.5</ele><time>2026-03-29T09:32:15.999Z</time></trkpt><trkpt lat="42.07573390723605" lon="11.972940793680484"><ele>360.0</ele><time>2026-03-29T09:32:17.999Z</time></trkpt><trkpt lat="42.075745320587714" lon="11.972804926850461"><ele>360.0</ele><time>2026-03-29T09:32:19.999Z</time></trkpt><trkpt lat="42.07574850083125" lon="11.972712039834807"><ele>360.0</ele><time>2026-03-29T09:32:20.999Z</time></trkpt><trkpt lat="42.07567149763951" lon="11.972661279270158"><ele>360.0</ele><time>2026-03-29T09:32:25.999Z</time></trkpt><trkpt lat="42.07560494805277" lon="11.972672473103797"><ele>360.0</ele><time>2026-03-29T09:32:27.999Z</time></trkpt><trkpt lat="42.07550661003013" lon="11.972713434054125"><ele>360.0</ele><time>2026-03-29T09:32:30.999Z</time></trkpt><trkpt lat="42.07541589456595" lon="11.972656991730098"><ele>360.0</ele><time>2026-03-29T09:32:32.999Z</time></trkpt><trkpt lat="42.075348847351414" lon="11.972574828460194"><ele>358.6666666666667</ele><time>2026-03-29T09:32:34.999Z</time></trkpt><trkpt lat="42.0753180697215" lon="11.972494172761296"><ele>357.3333333333333</ele><time>2026-03-29T09:32:36.999Z</time></trkpt><trkpt lat="42.07525327930309" lon="11.97242133403585"><ele>356.0</ele><time>2026-03-29T09:32:38.999Z</time></trkpt><trkpt lat="42.07517261824776" lon="11.972379208026968"><ele>354.66666666666663</ele><time>2026-03-29T09:32:41Z</time></trkpt><trkpt lat="42.07508617247046" lon="11.972347535312682"><ele>353.3333333333333</ele><time>2026-03-29T09:32:43Z</time></trkpt><trkpt lat="42.07501021186645" lon="11.972290366935834"><ele>352.0</ele><time>2026-03-29T09:32:45Z</time></trkpt><trkpt lat="42.07492641968919" lon="11.972226394624226"><ele>352.0</ele><time>2026-03-29T09:32:47Z</time></trkpt><trkpt lat="42.07486344178371" lon="11.972201803915135"><ele>352.0</ele><time>2026-03-29T09:32:48Z</time></trkpt><trkpt lat="42.07477462605424" lon="11.972130827244406"><ele>352.0</ele><time>2026-03-29T09:32:50Z</time></trkpt><trkpt lat="42.07470529024001" lon="11.972050535580532"><ele>352.0</ele><time>2026-03-29T09:32:52Z</time></trkpt><trkpt lat="42.074648737628614" lon="11.971946402518075"><ele>352.0</ele><time>2026-03-29T09:32:54Z</time></trkpt><trkpt lat="42.07455804853165" lon="11.971860614611826"><ele>352.0</ele><time>2026-03-29T09:32:56Z</time></trkpt><trkpt lat="42.07450245764964" lon="11.971816650017097"><ele>352.0</ele><time>2026-03-29T09:32:57Z</time></trkpt><trkpt lat="42.07443582117901" lon="11.97178058477457"><ele>352.0</ele><time>2026-03-29T09:32:58Z</time></trkpt><trkpt lat="42.07431210490626" lon="11.971688328608062"><ele>352.0</ele><time>2026-03-29T09:33:00Z</time></trkpt><trkpt lat="42.074247962185154" lon="11.971651796870022"><ele>352.0</ele><time>2026-03-29T09:33:01Z</time></trkpt><trkpt lat="42.07418545107796" lon="11.971617477876018"><ele>352.0</ele><time>2026-03-29T09:33:02Z</time></trkpt><trkpt lat="42.0741247872762" lon="11.971581279091998"><ele>353.0</ele><time>2026-03-29T09:33:03Z</time></trkpt><trkpt lat="42.07406677474399" lon="11.971538800458978"><ele>354.0</ele><time>2026-03-29T09:33:04Z</time></trkpt><trkpt lat="42.07399209364821" lon="11.97147477294812"><ele>355.0</ele><time>2026-03-29T09:33:05Z</time></trkpt><trkpt lat="42.07392032261346" lon="11.971441877546216"><ele>356.0</ele><time>2026-03-29T09:33:06Z</time></trkpt><trkpt lat="42.07382211229919" lon="11.97137213592875"><ele>357.0</ele><time>2026-03-29T09:33:08Z</time></trkpt><trkpt lat="42.07373433068704" lon="11.971342388171845"><ele>358.0</ele><time>2026-03-29T09:33:10Z</time></trkpt><trkpt lat="42.073649674461585" lon="11.97131483084052"><ele>358.0</ele><time>2026-03-29T09:33:12Z</time></trkpt><trkpt lat="42.0736020312123" lon="11.971198766952881"><ele>358.0</ele><time>2026-03-29T09:33:14Z</time></trkpt><trkpt lat="42.07355184963464" lon="11.971073854903233"><ele>358.0</ele><time>2026-03-29T09:33:18Z</time></trkpt><trkpt lat="42.07348839834711" lon="11.971015391133342"><ele>358.0</ele><time>2026-03-29T09:33:19Z</time></trkpt><trkpt lat="42.07343540638023" lon="11.970955464211086"><ele>358.0</ele><time>2026-03-29T09:33:20Z</time></trkpt><trkpt lat="42.07338286333962" lon="11.970862976622621"><ele>358.0</ele><time>2026-03-29T09:33:22Z</time></trkpt><trkpt lat="42.073326858985745" lon="11.970794419797626"><ele>358.8333333333333</ele><time>2026-03-29T09:33:24Z</time></trkpt><trkpt lat="42.07325903014632" lon="11.970774278560679"><ele>359.66666666666663</ele><time>2026-03-29T09:35:32Z</time></trkpt><trkpt lat="42.07317593404219" lon="11.970774800496578"><ele>360.5</ele><time>2026-03-29T09:35:37Z</time></trkpt><trkpt lat="42.073095687814465" lon="11.970799708647974"><ele>361.3333333333333</ele><time>2026-03-29T09:35:39Z</time></trkpt><trkpt lat="42.07302851533229" lon="11.970836678838479"><ele>362.1666666666667</ele><time>2026-03-29T09:35:41Z</time></trkpt><trkpt lat="42.0729527776841" lon="11.970841717063655"><ele>363.0</ele><time>2026-03-29T09:35:42.999Z</time></trkpt><trkpt lat="42.072874400730335" lon="11.970736768550795"><ele>363.0</ele><time>2026-03-29T09:35:44.999Z</time></trkpt><trkpt lat="42.07279286195653" lon="11.97063555328553"><ele>363.0</ele><time>2026-03-29T09:35:46.999Z</time></trkpt><trkpt lat="42.07272950881055" lon="11.970564467415352"><ele>363.0</ele><time>2026-03-29T09:35:48.999Z</time></trkpt><trkpt lat="42.07266485272425" lon="11.970550586473722"><ele>363.0</ele><time>2026-03-29T09:35:50.999Z</time></trkpt><trkpt lat="42.07258093925346" lon="11.970608740557806"><ele>363.0</ele><time>2026-03-29T09:35:53.999Z</time></trkpt><trkpt lat="42.072527404136025" lon="11.970670615605755"><ele>363.0</ele><time>2026-03-29T09:35:55.999Z</time></trkpt><trkpt lat="42.07246370736989" lon="11.970700770946417"><ele>358.0</ele><time>2026-03-29T09:35:57.999Z</time></trkpt><trkpt lat="42.072394548166784" lon="11.970606074304003"><ele>353.0</ele><time>2026-03-29T09:35:59.999Z</time></trkpt><trkpt lat="42.072373734987124" lon="11.97044815139255"><ele>348.0</ele><time>2026-03-29T09:36:01.999Z</time></trkpt><trkpt lat="42.07231665752454" lon="11.970311527850317"><ele>343.0</ele><time>2026-03-29T09:36:03.999Z</time></trkpt><trkpt lat="42.072279949299656" lon="11.970238659677479"><ele>338.0</ele><time>2026-03-29T09:36:04.999Z</time></trkpt><trkpt lat="42.072222706269606" lon="11.97018381660455"><ele>338.0</ele><time>2026-03-29T09:36:06.999Z</time></trkpt><trkpt lat="42.07215645097118" lon="11.970170638831862"><ele>338.0</ele><time>2026-03-29T09:36:09.999Z</time></trkpt><trkpt lat="42.07208490747781" lon="11.970139885171765"><ele>338.0</ele><time>2026-03-29T09:36:11.999Z</time></trkpt><trkpt lat="42.07200693243639" lon="11.970088829942789"><ele>338.0</ele><time>2026-03-29T09:36:13.999Z</time></trkpt><trkpt lat="42.071928472357484" lon="11.97004182886305"><ele>338.0</ele><time>2026-03-29T09:36:15.999Z</time></trkpt><trkpt lat="42.07183640065493" lon="11.970017207150624"><ele>338.0</ele><time>2026-03-29T09:36:18.999Z</time></trkpt><trkpt lat="42.071749134358896" lon="11.970021944484476"><ele>338.0</ele><time>2026-03-29T09:36:20.999Z</time></trkpt><trkpt lat="42.07165703485688" lon="11.970067086990316"><ele>338.0</ele><time>2026-03-29T09:36:22.999Z</time></trkpt><trkpt lat="42.07163561796297" lon="11.969966741034096"><ele>338.0</ele><time>2026-03-29T09:36:25.999Z</time></trkpt><trkpt lat="42.07154527676924" lon="11.969939429057055"><ele>338.0</ele><time>2026-03-29T09:36:28.999Z</time></trkpt><trkpt lat="42.071447038288234" lon="11.969948152834407"><ele>338.0</ele><time>2026-03-29T09:36:29.999Z</time></trkpt><trkpt lat="42.07137877092199" lon="11.969942515318541"><ele>338.0</ele><time>2026-03-29T09:36:30.999Z</time></trkpt><trkpt lat="42.07131553898499" lon="11.969928530945777"><ele>335.1666666666667</ele><time>2026-03-29T09:36:31.999Z</time></trkpt><trkpt lat="42.07121419260405" lon="11.969905894132946"><ele>332.33333333333337</ele><time>2026-03-29T09:36:33.999Z</time></trkpt><trkpt lat="42.07113895410313" lon="11.969899033021333"><ele>329.5</ele><time>2026-03-29T09:36:35.999Z</time></trkpt><trkpt lat="42.07107107850574" lon="11.969819579215134"><ele>326.6666666666667</ele><time>2026-03-29T09:36:39.999Z</time></trkpt><trkpt lat="42.07100016656264" lon="11.969791691515294"><ele>323.8333333333333</ele><time>2026-03-29T09:36:41.999Z</time></trkpt><trkpt lat="42.0709389927659" lon="11.969757320538532"><ele>321.0</ele><time>2026-03-29T09:36:42.999Z</time></trkpt><trkpt lat="42.07087874703953" lon="11.96972766056526"><ele>321.0</ele><time>2026-03-29T09:36:43.999Z</time></trkpt><trkpt lat="42.07080684286603" lon="11.96971078304376"><ele>321.0</ele><time>2026-03-29T09:36:44.999Z</time></trkpt><trkpt lat="42.07071130502423" lon="11.96968613525869"><ele>321.0</ele><time>2026-03-29T09:36:45.999Z</time></trkpt><trkpt lat="42.0706153005624" lon="11.969668356340643"><ele>321.0</ele><time>2026-03-29T09:36:46.999Z</time></trkpt><trkpt lat="42.07052322274766" lon="11.969652746729338"><ele>321.0</ele><time>2026-03-29T09:36:47.999Z</time></trkpt><trkpt lat="42.07044577462593" lon="11.96962758205298"><ele>321.0</ele><time>2026-03-29T09:36:48.999Z</time></trkpt><trkpt lat="42.07031469355489" lon="11.969645954484744"><ele>319.3333333333333</ele><time>2026-03-29T09:36:50.999Z</time></trkpt><trkpt lat="42.07025159431385" lon="11.969643385358724"><ele>317.6666666666667</ele><time>2026-03-29T09:36:51.999Z</time></trkpt><trkpt lat="42.07018835241896" lon="11.969633891697848"><ele>316.0</ele><time>2026-03-29T09:36:53Z</time></trkpt><trkpt lat="42.07009121506082" lon="11.969568747935144"><ele>314.33333333333337</ele><time>2026-03-29T09:36:55Z</time></trkpt><trkpt lat="42.070039294858454" lon="11.969444352757565"><ele>312.6666666666667</ele><time>2026-03-29T09:36:57Z</time></trkpt><trkpt lat="42.0700653542745" lon="11.96935480933283"><ele>311.0</ele><time>2026-03-29T09:36:58Z</time></trkpt><trkpt lat="42.070106096558796" lon="11.96927969712883"><ele>311.25</ele><time>2026-03-29T09:36:59Z</time></trkpt><trkpt lat="42.07006328543527" lon="11.969172171441782"><ele>311.5</ele><time>2026-03-29T09:37:01Z</time></trkpt><trkpt lat="42.06994161062179" lon="11.969040987068116"><ele>311.75</ele><time>2026-03-29T09:37:03Z</time></trkpt><trkpt lat="42.0698636941191" lon="11.968940902358215"><ele>312.0</ele><time>2026-03-29T09:37:05Z</time></trkpt><trkpt lat="42.06983402894144" lon="11.968782354903468"><ele>312.0</ele><time>2026-03-29T09:37:07Z</time></trkpt><trkpt lat="42.06982277472668" lon="11.968634169906792"><ele>312.0</ele><time>2026-03-29T09:37:09Z</time></trkpt><trkpt lat="42.06977813289219" lon="11.968510979605169"><ele>312.0</ele><time>2026-03-29T09:37:11Z</time></trkpt><trkpt lat="42.06979157199575" lon="11.96834532026047"><ele>312.0</ele><time>2026-03-29T09:37:13Z</time></trkpt><trkpt lat="42.06979186128546" lon="11.968167508136393"><ele>312.4</ele><time>2026-03-29T09:37:15Z</time></trkpt><trkpt lat="42.06977445128279" lon="11.96807999062742"><ele>312.79999999999995</ele><time>2026-03-29T09:37:16Z</time></trkpt><trkpt lat="42.06974206336919" lon="11.967934917944573"><ele>313.2</ele><time>2026-03-29T09:37:18Z</time></trkpt><trkpt lat="42.069664908196415" lon="11.96780868045581"><ele>313.59999999999997</ele><time>2026-03-29T09:37:20Z</time></trkpt><trkpt lat="42.069637072467295" lon="11.967729741850825"><ele>314.0</ele><time>2026-03-29T09:37:21Z</time></trkpt><trkpt lat="42.06965064118602" lon="11.967569518301897"><ele>313.0</ele><time>2026-03-29T09:37:23Z</time></trkpt><trkpt lat="42.069710904825534" lon="11.967432487704944"><ele>312.0</ele><time>2026-03-29T09:37:25Z</time></trkpt><trkpt lat="42.069762933856204" lon="11.967278448135843"><ele>311.0</ele><time>2026-03-29T09:37:27Z</time></trkpt><trkpt lat="42.06974015817307" lon="11.967141023041757"><ele>310.0</ele><time>2026-03-29T09:37:29Z</time></trkpt><trkpt lat="42.06965302900016" lon="11.96703201288015"><ele>310.0</ele><time>2026-03-29T09:37:31Z</time></trkpt><trkpt lat="42.06961120812614" lon="11.966964224950608"><ele>310.0</ele><time>2026-03-29T09:37:32Z</time></trkpt><trkpt lat="42.069569878238205" lon="11.966879817946259"><ele>310.0</ele><time>2026-03-29T09:37:33Z</time></trkpt><trkpt lat="42.06955006729364" lon="11.966783995766566"><ele>310.0</ele><time>2026-03-29T09:37:34Z</time></trkpt><trkpt lat="42.06954195859781" lon="11.966692671864362"><ele>310.0</ele><time>2026-03-29T09:37:35Z</time></trkpt><trkpt lat="42.06952747597383" lon="11.966596965111362"><ele>310.0</ele><time>2026-03-29T09:37:36Z</time></trkpt><trkpt lat="42.06949190840482" lon="11.96651567169421"><ele>310.0</ele><time>2026-03-29T09:37:37Z</time></trkpt><trkpt lat="42.06946424419369" lon="11.966431263130463"><ele>309.8333333333333</ele><time>2026-03-29T09:37:38Z</time></trkpt><trkpt lat="42.069447168532555" lon="11.966338290714049"><ele>309.66666666666663</ele><time>2026-03-29T09:37:39Z</time></trkpt><trkpt lat="42.06943806489041" lon="11.966230047166583"><ele>309.5</ele><time>2026-03-29T09:37:40Z</time></trkpt><trkpt lat="42.06944433819388" lon="11.966103342226756"><ele>309.3333333333333</ele><time>2026-03-29T09:37:41Z</time></trkpt><trkpt lat="42.06944540812073" lon="11.966010530929793"><ele>309.1666666666667</ele><time>2026-03-29T09:37:42Z</time></trkpt><trkpt lat="42.0693846246176" lon="11.965868560856869"><ele>309.0</ele><time>2026-03-29T09:37:44Z</time></trkpt><trkpt lat="42.06929240085118" lon="11.965789805053411"><ele>309.0</ele><time>2026-03-29T09:37:46Z</time></trkpt><trkpt lat="42.069227186210604" lon="11.965756468002814"><ele>309.0</ele><time>2026-03-29T09:37:47Z</time></trkpt><trkpt lat="42.069155594220476" lon="11.965743017418378"><ele>309.0</ele><time>2026-03-29T09:37:48Z</time></trkpt><trkpt lat="42.06901308898024" lon="11.965720736502226"><ele>309.0</ele><time>2026-03-29T09:37:49.999Z</time></trkpt><trkpt lat="42.0689128762527" lon="11.965677240126517"><ele>309.0</ele><time>2026-03-29T09:37:50.999Z</time></trkpt><trkpt lat="42.06880035445052" lon="11.965655660311183"><ele>308.1666666666667</ele><time>2026-03-29T09:37:51.999Z</time></trkpt><trkpt lat="42.06871662756302" lon="11.965630076361206"><ele>307.3333333333333</ele><time>2026-03-29T09:37:52.999Z</time></trkpt><trkpt lat="42.06862930631118" lon="11.965604486605166"><ele>306.5</ele><time>2026-03-29T09:37:53.999Z</time></trkpt><trkpt lat="42.06855647237638" lon="11.965557824182525"><ele>305.66666666666663</ele><time>2026-03-29T09:37:54.999Z</time></trkpt><trkpt lat="42.06848482346997" lon="11.965505911199664"><ele>304.8333333333333</ele><time>2026-03-29T09:37:55.999Z</time></trkpt><trkpt lat="42.06842694771439" lon="11.965450470889492"><ele>304.0</ele><time>2026-03-29T09:37:56.999Z</time></trkpt><trkpt lat="42.0683641062857" lon="11.965383774819635"><ele>304.0</ele><time>2026-03-29T09:37:57.999Z</time></trkpt><trkpt lat="42.06830802349016" lon="11.965317859094169"><ele>304.0</ele><time>2026-03-29T09:37:58.999Z</time></trkpt><trkpt lat="42.06824884258289" lon="11.965254126583195"><ele>304.0</ele><time>2026-03-29T09:37:59.999Z</time></trkpt><trkpt lat="42.06817661751208" lon="11.965190911811899"><ele>304.0</ele><time>2026-03-29T09:38:00.999Z</time></trkpt><trkpt lat="42.06811206820271" lon="11.96513388758492"><ele>304.0</ele><time>2026-03-29T09:38:01.999Z</time></trkpt><trkpt lat="42.06801764622007" lon="11.965105960591165"><ele>304.0</ele><time>2026-03-29T09:38:03.999Z</time></trkpt><trkpt lat="42.06791166759913" lon="11.965074939519985"><ele>304.0</ele><time>2026-03-29T09:38:05.999Z</time></trkpt><trkpt lat="42.067811216258185" lon="11.964993006167436"><ele>304.0</ele><time>2026-03-29T09:38:07.999Z</time></trkpt><trkpt lat="42.06774939907133" lon="11.964941185861562"><ele>304.0</ele><time>2026-03-29T09:38:08.999Z</time></trkpt><trkpt lat="42.067673968439514" lon="11.964892443957062"><ele>304.0</ele><time>2026-03-29T09:38:09.999Z</time></trkpt><trkpt lat="42.067596633132524" lon="11.964841860047823"><ele>304.0</ele><time>2026-03-29T09:38:10.999Z</time></trkpt><trkpt lat="42.06752480875765" lon="11.964804326223994"><ele>304.0</ele><time>2026-03-29T09:38:11.999Z</time></trkpt><trkpt lat="42.06745612459012" lon="11.964785832841516"><ele>302.3333333333333</ele><time>2026-03-29T09:38:12.999Z</time></trkpt><trkpt lat="42.06737810471963" lon="11.964757810935762"><ele>300.66666666666663</ele><time>2026-03-29T09:38:13.999Z</time></trkpt><trkpt lat="42.06731406455198" lon="11.964738844619067"><ele>299.0</ele><time>2026-03-29T09:38:14.999Z</time></trkpt><trkpt lat="42.06725097641893" lon="11.964715665198575"><ele>297.3333333333333</ele><time>2026-03-29T09:38:15.999Z</time></trkpt><trkpt lat="42.067156942345036" lon="11.96468835698714"><ele>295.6666666666667</ele><time>2026-03-29T09:38:17.999Z</time></trkpt><trkpt lat="42.06707568054249" lon="11.964737963681303"><ele>294.0</ele><time>2026-03-29T09:38:19.999Z</time></trkpt><trkpt lat="42.067025094730106" lon="11.964828033408148"><ele>294.0</ele><time>2026-03-29T09:38:21.999Z</time></trkpt><trkpt lat="42.0670082950446" lon="11.964998541716025"><ele>294.0</ele><time>2026-03-29T09:38:23.999Z</time></trkpt><trkpt lat="42.06700130814211" lon="11.965087959383315"><ele>294.0</ele><time>2026-03-29T09:38:24.999Z</time></trkpt><trkpt lat="42.06693399723766" lon="11.965193718637753"><ele>294.0</ele><time>2026-03-29T09:38:26.999Z</time></trkpt><trkpt lat="42.06682304276231" lon="11.96519519049849"><ele>294.0</ele><time>2026-03-29T09:38:28.999Z</time></trkpt><trkpt lat="42.066771527486665" lon="11.965249549456692"><ele>293.0</ele><time>2026-03-29T09:38:30.999Z</time></trkpt><trkpt lat="42.0667487304001" lon="11.96534122912432"><ele>292.0</ele><time>2026-03-29T09:38:32.999Z</time></trkpt><trkpt lat="42.066686040846314" lon="11.96544905144982"><ele>291.0</ele><time>2026-03-29T09:38:34.999Z</time></trkpt><trkpt lat="42.06657573699027" lon="11.965423179711353"><ele>290.0</ele><time>2026-03-29T09:38:36.999Z</time></trkpt><trkpt lat="42.066462999817496" lon="11.965486862049328"><ele>289.0</ele><time>2026-03-29T09:38:38.999Z</time></trkpt><trkpt lat="42.066348646547155" lon="11.96551746424804"><ele>286.4</ele><time>2026-03-29T09:38:40.999Z</time></trkpt><trkpt lat="42.066231186876934" lon="11.965533376571479"><ele>283.79999999999995</ele><time>2026-03-29T09:38:42.999Z</time></trkpt><trkpt lat="42.066165607349355" lon="11.965573486234089"><ele>281.20000000000005</ele><time>2026-03-29T09:38:43.999Z</time></trkpt><trkpt lat="42.06608730684109" lon="11.965590450477189"><ele>278.6</ele><time>2026-03-29T09:38:45.999Z</time></trkpt><trkpt lat="42.06598348144723" lon="11.965633462215948"><ele>276.0</ele><time>2026-03-29T09:38:47.999Z</time></trkpt><trkpt lat="42.06585776651797" lon="11.965723446167368"><ele>276.0</ele><time>2026-03-29T09:38:49.999Z</time></trkpt><trkpt lat="42.06579237648816" lon="11.965766480646957"><ele>276.0</ele><time>2026-03-29T09:38:51.999Z</time></trkpt><trkpt lat="42.065703412486386" lon="11.965905209819065"><ele>276.0</ele><time>2026-03-29T09:38:53.999Z</time></trkpt><trkpt lat="42.06566303980172" lon="11.966056192971541"><ele>276.0</ele><time>2026-03-29T09:38:55.999Z</time></trkpt><trkpt lat="42.06560226109458" lon="11.966231824534127"><ele>272.8</ele><time>2026-03-29T09:38:57.999Z</time></trkpt><trkpt lat="42.06557251690219" lon="11.966383121307896"><ele>269.6</ele><time>2026-03-29T09:39:00Z</time></trkpt><trkpt lat="42.065453360155104" lon="11.966423628403255"><ele>266.4</ele><time>2026-03-29T09:39:02Z</time></trkpt><trkpt lat="42.06538673176377" lon="11.966414601815877"><ele>263.2</ele><time>2026-03-29T09:39:03Z</time></trkpt><trkpt lat="42.06531099423997" lon="11.966419767567132"><ele>260.0</ele><time>2026-03-29T09:39:04Z</time></trkpt><trkpt lat="42.06523188700917" lon="11.96641992782209"><ele>260.0</ele><time>2026-03-29T09:39:05Z</time></trkpt><trkpt lat="42.065168921049704" lon="11.966417218103553"><ele>260.0</ele><time>2026-03-29T09:39:06Z</time></trkpt><trkpt lat="42.06507501631242" lon="11.966348781226936"><ele>260.0</ele><time>2026-03-29T09:39:08Z</time></trkpt><trkpt lat="42.06495336371735" lon="11.96637330108132"><ele>260.0</ele><time>2026-03-29T09:39:10Z</time></trkpt><trkpt lat="42.06488634862207" lon="11.966420151985087"><ele>260.0</ele><time>2026-03-29T09:39:11Z</time></trkpt><trkpt lat="42.064828223556916" lon="11.96648208473549"><ele>260.0</ele><time>2026-03-29T09:39:12Z</time></trkpt><trkpt lat="42.064771006112096" lon="11.966550333491208"><ele>258.6</ele><time>2026-03-29T09:39:13Z</time></trkpt><trkpt lat="42.064704610825224" lon="11.966611563247325"><ele>257.2</ele><time>2026-03-29T09:39:14Z</time></trkpt><trkpt lat="42.06462117011088" lon="11.966655038613075"><ele>255.8</ele><time>2026-03-29T09:39:15Z</time></trkpt><trkpt lat="42.064527603373" lon="11.966705676570552"><ele>254.4</ele><time>2026-03-29T09:39:16Z</time></trkpt><trkpt lat="42.06443241802651" lon="11.966765805812669"><ele>253.0</ele><time>2026-03-29T09:39:17Z</time></trkpt><trkpt lat="42.06434661480923" lon="11.966825263503006"><ele>253.0</ele><time>2026-03-29T09:39:18Z</time></trkpt><trkpt lat="42.06425728880797" lon="11.96688771770629"><ele>253.0</ele><time>2026-03-29T09:39:19Z</time></trkpt><trkpt lat="42.064167498772235" lon="11.966927793515657"><ele>253.0</ele><time>2026-03-29T09:39:20Z</time></trkpt><trkpt lat="42.064076940382265" lon="11.96695289526213"><ele>253.0</ele><time>2026-03-29T09:39:21Z</time></trkpt><trkpt lat="42.06399041602244" lon="11.966951406215992"><ele>253.0</ele><time>2026-03-29T09:39:22Z</time></trkpt><trkpt lat="42.06391739821552" lon="11.966981404906091"><ele>252.49999999999997</ele><time>2026-03-29T09:39:23Z</time></trkpt><trkpt lat="42.06385631396388" lon="11.967049489606675"><ele>252.0</ele><time>2026-03-29T09:39:24Z</time></trkpt><trkpt lat="42.063797812201706" lon="11.967137394507962"><ele>251.5</ele><time>2026-03-29T09:39:25Z</time></trkpt><trkpt lat="42.06373399149542" lon="11.96721568911904"><ele>251.0</ele><time>2026-03-29T09:39:26Z</time></trkpt><trkpt lat="42.063675330306026" lon="11.967288270824714"><ele>250.49999999999997</ele><time>2026-03-29T09:39:27Z</time></trkpt><trkpt lat="42.063612415078815" lon="11.967324381297864"><ele>250.0</ele><time>2026-03-29T09:39:28Z</time></trkpt><trkpt lat="42.063479873621404" lon="11.967315615422061"><ele>249.99999999999997</ele><time>2026-03-29T09:39:30Z</time></trkpt><trkpt lat="42.063368725997805" lon="11.967373782511302"><ele>250.0</ele><time>2026-03-29T09:39:32Z</time></trkpt><trkpt lat="42.063309039359645" lon="11.967416482001177"><ele>250.0</ele><time>2026-03-29T09:39:33Z</time></trkpt><trkpt lat="42.06326186014093" lon="11.967474034648689"><ele>250.0</ele><time>2026-03-29T09:39:34Z</time></trkpt><trkpt lat="42.06322866253794" lon="11.967579084710932"><ele>249.99999999999997</ele><time>2026-03-29T09:39:35Z</time></trkpt><trkpt lat="42.06321221782924" lon="11.967684282849282"><ele>250.0</ele><time>2026-03-29T09:39:36Z</time></trkpt><trkpt lat="42.06317586045161" lon="11.967788219662182"><ele>247.49999999999997</ele><time>2026-03-29T09:39:37Z</time></trkpt><trkpt lat="42.06313900653883" lon="11.967885350004778"><ele>245.0</ele><time>2026-03-29T09:39:38Z</time></trkpt><trkpt lat="42.06313851212708" lon="11.96800087267943"><ele>242.5</ele><time>2026-03-29T09:39:39Z</time></trkpt><trkpt lat="42.06314092456223" lon="11.96811483274826"><ele>240.0</ele><time>2026-03-29T09:39:40Z</time></trkpt><trkpt lat="42.06314314938558" lon="11.968213504914564"><ele>237.49999999999997</ele><time>2026-03-29T09:39:41Z</time></trkpt><trkpt lat="42.063133518880846" lon="11.96837483727893"><ele>235.0</ele><time>2026-03-29T09:39:43Z</time></trkpt><trkpt lat="42.06311296232659" lon="11.96846515948232"><ele>234.33333333333331</ele><time>2026-03-29T09:39:44Z</time></trkpt><trkpt lat="42.063055521392855" lon="11.968545740077667"><ele>233.66666666666666</ele><time>2026-03-29T09:39:45Z</time></trkpt><trkpt lat="42.06302049706126" lon="11.968618632708619"><ele>233.0</ele><time>2026-03-29T09:39:46Z</time></trkpt><trkpt lat="42.06301143320892" lon="11.968757481262234"><ele>232.33333333333331</ele><time>2026-03-29T09:39:48Z</time></trkpt><trkpt lat="42.06304212188198" lon="11.96884197495611"><ele>231.66666666666666</ele><time>2026-03-29T09:39:49Z</time></trkpt><trkpt lat="42.0630778336908" lon="11.968981548577908"><ele>231.0</ele><time>2026-03-29T09:39:51Z</time></trkpt><trkpt lat="42.06308621544984" lon="11.969092967323535"><ele>229.83333333333334</ele><time>2026-03-29T09:39:53Z</time></trkpt><trkpt lat="42.06308002261301" lon="11.969238658752738"><ele>228.66666666666669</ele><time>2026-03-29T09:39:54.999Z</time></trkpt><trkpt lat="42.06306331571531" lon="11.969335206434245"><ele>227.5</ele><time>2026-03-29T09:39:55.999Z</time></trkpt><trkpt lat="42.0630104102125" lon="11.969414539128884"><ele>226.33333333333334</ele><time>2026-03-29T09:39:56.999Z</time></trkpt><trkpt lat="42.06295648447991" lon="11.969509081158824"><ele>225.16666666666669</ele><time>2026-03-29T09:39:57.999Z</time></trkpt><trkpt lat="42.0629059628502" lon="11.969604700392297"><ele>224.0</ele><time>2026-03-29T09:39:58.999Z</time></trkpt><trkpt lat="42.06285904310971" lon="11.969717152029213"><ele>224.00000000000003</ele><time>2026-03-29T09:39:59.999Z</time></trkpt><trkpt lat="42.06282313400354" lon="11.969817636360794"><ele>224.0</ele><time>2026-03-29T09:40:00.999Z</time></trkpt><trkpt lat="42.06279581143111" lon="11.969917867535461"><ele>224.0</ele><time>2026-03-29T09:40:01.999Z</time></trkpt><trkpt lat="42.06277190530863" lon="11.970001272475974"><ele>224.0</ele><time>2026-03-29T09:40:02.999Z</time></trkpt><trkpt lat="42.06271500043988" lon="11.970142487319212"><ele>224.00000000000003</ele><time>2026-03-29T09:40:04.999Z</time></trkpt><trkpt lat="42.06265433793828" lon="11.970178971301587"><ele>224.0</ele><time>2026-03-29T09:40:05.999Z</time></trkpt><trkpt lat="42.06258026539996" lon="11.970126606014608"><ele>223.57142857142858</ele><time>2026-03-29T09:40:06.999Z</time></trkpt><trkpt lat="42.062514647605866" lon="11.970129220649882"><ele>223.14285714285714</ele><time>2026-03-29T09:40:07.999Z</time></trkpt><trkpt lat="42.06243689797222" lon="11.9701133901339"><ele>222.71428571428572</ele><time>2026-03-29T09:40:09.999Z</time></trkpt><trkpt lat="42.06237347689448" lon="11.970082577440879"><ele>222.28571428571428</ele><time>2026-03-29T09:40:12.999Z</time></trkpt><trkpt lat="42.062321087044275" lon="11.970034033601058"><ele>221.85714285714286</ele><time>2026-03-29T09:40:48.999Z</time></trkpt><trkpt lat="42.062263668500755" lon="11.97011095019305"><ele>221.42857142857144</ele><time>2026-03-29T09:40:54.999Z</time></trkpt><trkpt lat="42.06220821720977" lon="11.970191900402956"><ele>221.0</ele><time>2026-03-29T09:40:56.999Z</time></trkpt><trkpt lat="42.06214942918182" lon="11.970274601157024"><ele>219.83333333333334</ele><time>2026-03-29T09:40:57.999Z</time></trkpt><trkpt lat="42.06202420604864" lon="11.970291729726478"><ele>218.66666666666669</ele><time>2026-03-29T09:40:59.999Z</time></trkpt><trkpt lat="42.061959991653765" lon="11.97028184208972"><ele>217.5</ele><time>2026-03-29T09:41:00.999Z</time></trkpt><trkpt lat="42.06189481952336" lon="11.970279396823315"><ele>216.33333333333331</ele><time>2026-03-29T09:41:01.999Z</time></trkpt><trkpt lat="42.06182823467363" lon="11.970279429700424"><ele>215.16666666666666</ele><time>2026-03-29T09:41:02.999Z</time></trkpt><trkpt lat="42.06176532206392" lon="11.970273191728108"><ele>214.0</ele><time>2026-03-29T09:41:03.999Z</time></trkpt><trkpt lat="42.06169926835478" lon="11.970292148444765"><ele>213.66666666666666</ele><time>2026-03-29T09:41:05Z</time></trkpt><trkpt lat="42.06160752332587" lon="11.970301376933204"><ele>213.33333333333331</ele><time>2026-03-29T09:41:07Z</time></trkpt><trkpt lat="42.061502762465906" lon="11.970268832944827"><ele>213.0</ele><time>2026-03-29T09:41:09Z</time></trkpt><trkpt lat="42.061453453910524" lon="11.97021478508243"><ele>212.66666666666669</ele><time>2026-03-29T09:41:11Z</time></trkpt><trkpt lat="42.06146420593438" lon="11.970304752432732"><ele>212.33333333333334</ele><time>2026-03-29T09:41:14Z</time></trkpt><trkpt lat="42.06139156630659" lon="11.970291577069972"><ele>212.0</ele><time>2026-03-29T09:41:33Z</time></trkpt><trkpt lat="42.06128775527265" lon="11.970332881651572"><ele>212.0</ele><time>2026-03-29T09:41:35Z</time></trkpt><trkpt lat="42.0611703723699" lon="11.970379805475178"><ele>212.0</ele><time>2026-03-29T09:41:37Z</time></trkpt><trkpt lat="42.06108341698019" lon="11.970402390049882"><ele>212.0</ele><time>2026-03-29T09:41:38Z</time></trkpt><trkpt lat="42.06098415423988" lon="11.970414642219872"><ele>212.0</ele><time>2026-03-29T09:41:39Z</time></trkpt><trkpt lat="42.06089702204369" lon="11.970433814244908"><ele>212.0</ele><time>2026-03-29T09:41:40Z</time></trkpt><trkpt lat="42.06082904862058" lon="11.970471453381775"><ele>212.0</ele><time>2026-03-29T09:41:41Z</time></trkpt><trkpt lat="42.0607658073961" lon="11.970518723305862"><ele>212.0</ele><time>2026-03-29T09:41:42Z</time></trkpt><trkpt lat="42.06077041664561" lon="11.970639850085968"><ele>212.0</ele><time>2026-03-29T09:41:44Z</time></trkpt><trkpt lat="42.06082676429787" lon="11.970800407773222"><ele>212.0</ele><time>2026-03-29T09:41:46Z</time></trkpt><trkpt lat="42.06083840535404" lon="11.970967067393117"><ele>212.0</ele><time>2026-03-29T09:41:48Z</time></trkpt><trkpt lat="42.06081521519295" lon="11.971052415181667"><ele>211.6</ele><time>2026-03-29T09:41:49Z</time></trkpt><trkpt lat="42.060736508752626" lon="11.97115626798458"><ele>211.2</ele><time>2026-03-29T09:41:51Z</time></trkpt><trkpt lat="42.060663882586766" lon="11.971191876491378"><ele>210.8</ele><time>2026-03-29T09:41:52Z</time></trkpt><trkpt lat="42.06055019735902" lon="11.97122942923181"><ele>210.4</ele><time>2026-03-29T09:41:54Z</time></trkpt><trkpt lat="42.06047982520132" lon="11.971237633726519"><ele>210.0</ele><time>2026-03-29T09:41:55Z</time></trkpt><trkpt lat="42.06039207363947" lon="11.971256118866306"><ele>210.0</ele><time>2026-03-29T09:41:57Z</time></trkpt><trkpt lat="42.06031408280198" lon="11.971322705017078"><ele>210.0</ele><time>2026-03-29T09:41:59Z</time></trkpt><trkpt lat="42.06028121812851" lon="11.97141109174391"><ele>210.0</ele><time>2026-03-29T09:42:01Z</time></trkpt><trkpt lat="42.06025498296032" lon="11.97156596377473"><ele>210.0</ele><time>2026-03-29T09:42:03Z</time></trkpt><trkpt lat="42.06022351672795" lon="11.971659904436898"><ele>210.0</ele><time>2026-03-29T09:42:04Z</time></trkpt><trkpt lat="42.060174470669345" lon="11.971814097340603"><ele>209.2</ele><time>2026-03-29T09:42:05.999Z</time></trkpt><trkpt lat="42.06010219843556" lon="11.971919425794873"><ele>208.4</ele><time>2026-03-29T09:42:07.999Z</time></trkpt><trkpt lat="42.06002918304738" lon="11.972028253040305"><ele>207.60000000000002</ele><time>2026-03-29T09:42:09.999Z</time></trkpt><trkpt lat="42.059960670887186" lon="11.972124198435973"><ele>206.8</ele><time>2026-03-29T09:42:11.999Z</time></trkpt><trkpt lat="42.05989705464625" lon="11.972166284558082"><ele>206.0</ele><time>2026-03-29T09:42:12.999Z</time></trkpt><trkpt lat="42.059838974772035" lon="11.972215539653444"><ele>205.66666666666669</ele><time>2026-03-29T09:42:13.999Z</time></trkpt><trkpt lat="42.05977064606732" lon="11.972264861462639"><ele>205.33333333333334</ele><time>2026-03-29T09:42:14.999Z</time></trkpt><trkpt lat="42.05970991715816" lon="11.972309130446888"><ele>205.0</ele><time>2026-03-29T09:42:15.999Z</time></trkpt><trkpt lat="42.059647448380055" lon="11.97236036771503"><ele>204.66666666666669</ele><time>2026-03-29T09:42:16.999Z</time></trkpt><trkpt lat="42.05957387070198" lon="11.972404879166891"><ele>204.33333333333334</ele><time>2026-03-29T09:42:17.999Z</time></trkpt><trkpt lat="42.059497904412005" lon="11.972440630191322"><ele>204.0</ele><time>2026-03-29T09:42:18.999Z</time></trkpt><trkpt lat="42.05942517016712" lon="11.972479778036334"><ele>204.0</ele><time>2026-03-29T09:42:19.999Z</time></trkpt><trkpt lat="42.05936514684372" lon="11.972519165520652"><ele>204.0</ele><time>2026-03-29T09:42:20.999Z</time></trkpt><trkpt lat="42.05929757062044" lon="11.972594792006186"><ele>204.0</ele><time>2026-03-29T09:42:21.999Z</time></trkpt><trkpt lat="42.059246252516644" lon="11.972656479852173"><ele>204.0</ele><time>2026-03-29T09:42:22.999Z</time></trkpt><trkpt lat="42.0591915375319" lon="11.972733643114422"><ele>204.0</ele><time>2026-03-29T09:42:23.999Z</time></trkpt><trkpt lat="42.05910265890472" lon="11.972831480390532"><ele>204.0</ele><time>2026-03-29T09:42:25.999Z</time></trkpt><trkpt lat="42.059060647731755" lon="11.972910775417496"><ele>203.16666666666666</ele><time>2026-03-29T09:42:26.999Z</time></trkpt><trkpt lat="42.05900464720237" lon="11.972967220318454"><ele>202.33333333333331</ele><time>2026-03-29T09:42:27.999Z</time></trkpt><trkpt lat="42.05894897783466" lon="11.973025825351854"><ele>201.5</ele><time>2026-03-29T09:42:28.999Z</time></trkpt><trkpt lat="42.058874183330616" lon="11.973065881278108"><ele>200.66666666666666</ele><time>2026-03-29T09:42:29.999Z</time></trkpt><trkpt lat="42.05876233952335" lon="11.973121339457629"><ele>199.83333333333331</ele><time>2026-03-29T09:42:31.999Z</time></trkpt><trkpt lat="42.058704760598495" lon="11.97316256101278"><ele>199.0</ele><time>2026-03-29T09:42:32.999Z</time></trkpt><trkpt lat="42.05864501770867" lon="11.97321902389016"><ele>198.99999999999997</ele><time>2026-03-29T09:42:33.999Z</time></trkpt><trkpt lat="42.05857044547602" lon="11.973274701913855"><ele>199.0</ele><time>2026-03-29T09:42:34.999Z</time></trkpt><trkpt lat="42.058488767149626" lon="11.973345248820518"><ele>199.0</ele><time>2026-03-29T09:42:35.999Z</time></trkpt><trkpt lat="42.05842541984296" lon="11.973413586294877"><ele>199.0</ele><time>2026-03-29T09:42:36.999Z</time></trkpt><trkpt lat="42.05837129922502" lon="11.973470970013825"><ele>198.99999999999997</ele><time>2026-03-29T09:42:37.999Z</time></trkpt><trkpt lat="42.05829209280024" lon="11.973561785114615"><ele>199.0</ele><time>2026-03-29T09:42:39.999Z</time></trkpt><trkpt lat="42.058212564668544" lon="11.973651125565068"><ele>198.39999999999998</ele><time>2026-03-29T09:42:41.999Z</time></trkpt><trkpt lat="42.05815343678974" lon="11.973747539973726"><ele>197.8</ele><time>2026-03-29T09:42:43.999Z</time></trkpt><trkpt lat="42.05810193218785" lon="11.973845304176805"><ele>197.2</ele><time>2026-03-29T09:42:45.999Z</time></trkpt><trkpt lat="42.05805580240194" lon="11.973919819802424"><ele>196.60000000000002</ele><time>2026-03-29T09:42:50.999Z</time></trkpt><trkpt lat="42.05802028293644" lon="11.974003456330797"><ele>196.0</ele><time>2026-03-29T09:42:51.999Z</time></trkpt><trkpt lat="42.057960672222066" lon="11.974157463588435"><ele>194.83333333333331</ele><time>2026-03-29T09:42:52.999Z</time></trkpt><trkpt lat="42.057893085347104" lon="11.974267773815178"><ele>193.66666666666666</ele><time>2026-03-29T09:42:53.999Z</time></trkpt><trkpt lat="42.05785637118959" lon="11.974365817571394"><ele>192.5</ele><time>2026-03-29T09:42:54.999Z</time></trkpt><trkpt lat="42.05781738576635" lon="11.974471811725396"><ele>191.33333333333331</ele><time>2026-03-29T09:42:55.999Z</time></trkpt><trkpt lat="42.05777927130008" lon="11.974543608677868"><ele>190.16666666666666</ele><time>2026-03-29T09:42:56.999Z</time></trkpt><trkpt lat="42.05773611197098" lon="11.974608996138638"><ele>189.0</ele><time>2026-03-29T09:42:57.999Z</time></trkpt><trkpt lat="42.057668088775124" lon="11.974727663095532"><ele>189.0</ele><time>2026-03-29T09:42:59.999Z</time></trkpt><trkpt lat="42.05760908175407" lon="11.97477731593988"><ele>189.0</ele><time>2026-03-29T09:43:00.999Z</time></trkpt><trkpt lat="42.057521652255694" lon="11.974874872901575"><ele>189.0</ele><time>2026-03-29T09:43:02.999Z</time></trkpt><trkpt lat="42.057406277555906" lon="11.974954204406957"><ele>189.0</ele><time>2026-03-29T09:43:04.999Z</time></trkpt><trkpt lat="42.05726467535481" lon="11.97500346782447"><ele>189.0</ele><time>2026-03-29T09:43:06.999Z</time></trkpt><trkpt lat="42.05718872443129" lon="11.975055181528447"><ele>189.0</ele><time>2026-03-29T09:43:07.999Z</time></trkpt><trkpt lat="42.05712472583854" lon="11.975085395159544"><ele>189.0</ele><time>2026-03-29T09:43:08.999Z</time></trkpt><trkpt lat="42.05706176422009" lon="11.975129803207453"><ele>189.0</ele><time>2026-03-29T09:43:09.999Z</time></trkpt><trkpt lat="42.057002807852655" lon="11.975195709646163"><ele>189.0</ele><time>2026-03-29T09:43:11Z</time></trkpt><trkpt lat="42.056935761768095" lon="11.975223580827224"><ele>189.0</ele><time>2026-03-29T09:43:12Z</time></trkpt><trkpt lat="42.05685731215481" lon="11.975255679262618"><ele>189.0</ele><time>2026-03-29T09:43:13Z</time></trkpt><trkpt lat="42.05677836300684" lon="11.975268614108556"><ele>189.0</ele><time>2026-03-29T09:43:14Z</time></trkpt><trkpt lat="42.05671201948037" lon="11.975309911606999"><ele>189.0</ele><time>2026-03-29T09:43:15Z</time></trkpt><trkpt lat="42.05665550334622" lon="11.975370467188558"><ele>189.0</ele><time>2026-03-29T09:43:16Z</time></trkpt><trkpt lat="42.0565689683176" lon="11.975391798982345"><ele>189.0</ele><time>2026-03-29T09:43:18Z</time></trkpt><trkpt lat="42.056494942524736" lon="11.97538916067557"><ele>189.0</ele><time>2026-03-29T09:43:19Z</time></trkpt><trkpt lat="42.05640830515833" lon="11.975420148269233"><ele>188.33333333333334</ele><time>2026-03-29T09:43:20Z</time></trkpt><trkpt lat="42.056343775674115" lon="11.975469471956142"><ele>187.66666666666666</ele><time>2026-03-29T09:43:21Z</time></trkpt><trkpt lat="42.05626944942348" lon="11.975502588265535"><ele>187.0</ele><time>2026-03-29T09:43:22Z</time></trkpt><trkpt lat="42.056195763921416" lon="11.975524197583644"><ele>186.33333333333331</ele><time>2026-03-29T09:43:23Z</time></trkpt><trkpt lat="42.05608195084857" lon="11.975488835651772"><ele>185.66666666666666</ele><time>2026-03-29T09:43:25Z</time></trkpt><trkpt lat="42.05602065872457" lon="11.97546497433628"><ele>185.0</ele><time>2026-03-29T09:43:26Z</time></trkpt><trkpt lat="42.05592498088243" lon="11.97540617367209"><ele>185.0</ele><time>2026-03-29T09:43:28Z</time></trkpt><trkpt lat="42.05583380242889" lon="11.975342450303177"><ele>185.0</ele><time>2026-03-29T09:43:30Z</time></trkpt><trkpt lat="42.05567023233077" lon="11.975292934915124"><ele>185.0</ele><time>2026-03-29T09:43:34Z</time></trkpt><trkpt lat="42.05559858275684" lon="11.975286081296742"><ele>185.0</ele><time>2026-03-29T09:43:35Z</time></trkpt><trkpt lat="42.05553122986757" lon="11.975376142293072"><ele>185.0</ele><time>2026-03-29T09:43:37Z</time></trkpt><trkpt lat="42.055559696368704" lon="11.975510066716156"><ele>184.83333333333331</ele><time>2026-03-29T09:43:40Z</time></trkpt><trkpt lat="42.05556237160912" lon="11.975603136643619"><ele>184.66666666666666</ele><time>2026-03-29T09:43:41Z</time></trkpt><trkpt lat="42.055561357181226" lon="11.975717913956682"><ele>184.5</ele><time>2026-03-29T09:43:42Z</time></trkpt><trkpt lat="42.05550102700568" lon="11.975874482504425"><ele>184.33333333333334</ele><time>2026-03-29T09:43:44Z</time></trkpt><trkpt lat="42.05542867515785" lon="11.975952317708584"><ele>184.16666666666669</ele><time>2026-03-29T09:43:45Z</time></trkpt><trkpt lat="42.05538335663814" lon="11.976016391852005"><ele>184.0</ele><time>2026-03-29T09:43:46Z</time></trkpt><trkpt lat="42.05529710477888" lon="11.976113634927385"><ele>183.2857142857143</ele><time>2026-03-29T09:43:48Z</time></trkpt><trkpt lat="42.055252153108995" lon="11.97618337218838"><ele>182.57142857142856</ele><time>2026-03-29T09:43:49Z</time></trkpt><trkpt lat="42.05521321211327" lon="11.976262191588559"><ele>181.85714285714286</ele><time>2026-03-29T09:43:50Z</time></trkpt><trkpt lat="42.05517413117089" lon="11.976341197000805"><ele>181.14285714285717</ele><time>2026-03-29T09:43:51Z</time></trkpt><trkpt lat="42.05512991714205" lon="11.97640722312955"><ele>180.42857142857144</ele><time>2026-03-29T09:43:52Z</time></trkpt><trkpt lat="42.05508743304789" lon="11.976480598435518"><ele>179.71428571428572</ele><time>2026-03-29T09:43:53Z</time></trkpt><trkpt lat="42.055024247368074" lon="11.97650590571086"><ele>179.0</ele><time>2026-03-29T09:43:54Z</time></trkpt><trkpt lat="42.054953088485455" lon="11.976541104149977"><ele>179.0</ele><time>2026-03-29T09:43:56Z</time></trkpt><trkpt lat="42.05485109137814" lon="11.976643651942863"><ele>179.0</ele><time>2026-03-29T09:43:58Z</time></trkpt><trkpt lat="42.05482734339693" lon="11.976547845040033"><ele>179.0</ele><time>2026-03-29T09:44:00Z</time></trkpt><trkpt lat="42.05476654796246" lon="11.976600926922757"><ele>179.0</ele><time>2026-03-29T09:44:02Z</time></trkpt><trkpt lat="42.054694302023655" lon="11.976611384911317"><ele>179.0</ele><time>2026-03-29T09:44:04Z</time></trkpt><trkpt lat="42.05459494269643" lon="11.976629791830252"><ele>179.0</ele><time>2026-03-29T09:44:05Z</time></trkpt><trkpt lat="42.05452464375232" lon="11.976698424741738"><ele>178.0</ele><time>2026-03-29T09:44:08Z</time></trkpt><trkpt lat="42.05442630165499" lon="11.97677675207264"><ele>177.0</ele><time>2026-03-29T09:44:10Z</time></trkpt><trkpt lat="42.05433101025155" lon="11.976845908814866"><ele>176.0</ele><time>2026-03-29T09:44:11Z</time></trkpt><trkpt lat="42.05425877102785" lon="11.976902014134156"><ele>175.0</ele><time>2026-03-29T09:44:12Z</time></trkpt><trkpt lat="42.05419351052851" lon="11.977139530818183"><ele>175.0</ele><time>2026-03-29T09:44:13.999Z</time></trkpt><trkpt lat="42.05421294967052" lon="11.977240881706422"><ele>175.0</ele><time>2026-03-29T09:45:00.999Z</time></trkpt><trkpt lat="42.054334190866754" lon="11.977248062058335"><ele>175.0</ele><time>2026-03-29T09:45:04.999Z</time></trkpt><trkpt lat="42.0544684506939" lon="11.977085355920096"><ele>175.0</ele><time>2026-03-29T09:45:07.999Z</time></trkpt><trkpt lat="42.05453082870125" lon="11.977044188637366"><ele>175.0</ele><time>2026-03-29T09:45:08.999Z</time></trkpt><trkpt lat="42.05459458318261" lon="11.97706122635202"><ele>175.0</ele><time>2026-03-29T09:45:09.999Z</time></trkpt><trkpt lat="42.05470672350603" lon="11.977156850018416"><ele>175.0</ele><time>2026-03-29T09:45:11.999Z</time></trkpt><trkpt lat="42.05477335246295" lon="11.977208679281084"><ele>175.0</ele><time>2026-03-29T09:45:12.999Z</time></trkpt><trkpt lat="42.05484321739426" lon="11.977285581594504"><ele>175.0</ele><time>2026-03-29T09:45:13.999Z</time></trkpt><trkpt lat="42.05490902023518" lon="11.977380782112494"><ele>175.0</ele><time>2026-03-29T09:45:14.999Z</time></trkpt><trkpt lat="42.05496636842789" lon="11.977492450638197"><ele>176.2</ele><time>2026-03-29T09:45:15.999Z</time></trkpt><trkpt lat="42.055025622747465" lon="11.977600321794803"><ele>177.4</ele><time>2026-03-29T09:45:17Z</time></trkpt><trkpt lat="42.05505211910738" lon="11.977731264627582"><ele>178.60000000000002</ele><time>2026-03-29T09:45:18Z</time></trkpt><trkpt lat="42.05508236280765" lon="11.977813336518485"><ele>179.8</ele><time>2026-03-29T09:45:19Z</time></trkpt><trkpt lat="42.05511189781015" lon="11.977898797220545"><ele>181.0</ele><time>2026-03-29T09:45:20Z</time></trkpt><trkpt lat="42.05516625674944" lon="11.978042956877733"><ele>181.0</ele><time>2026-03-29T09:45:22Z</time></trkpt><trkpt lat="42.05524157523844" lon="11.978184650469604"><ele>181.0</ele><time>2026-03-29T09:45:24Z</time></trkpt><trkpt lat="42.05527486973747" lon="11.978257942485707"><ele>181.0</ele><time>2026-03-29T09:45:25Z</time></trkpt><trkpt lat="42.055318818352994" lon="11.978329822434187"><ele>181.0</ele><time>2026-03-29T09:45:26Z</time></trkpt><trkpt lat="42.05536709243345" lon="11.978392812851329"><ele>181.0</ele><time>2026-03-29T09:45:27Z</time></trkpt><trkpt lat="42.05543895218647" lon="11.97848845848858"><ele>181.0</ele><time>2026-03-29T09:45:29Z</time></trkpt><trkpt lat="42.05550247836594" lon="11.97858203204371"><ele>182.4</ele><time>2026-03-29T09:45:31Z</time></trkpt><trkpt lat="42.05554312414621" lon="11.978712032746776"><ele>183.8</ele><time>2026-03-29T09:45:33Z</time></trkpt><trkpt lat="42.05559878748779" lon="11.978855871831959"><ele>185.20000000000002</ele><time>2026-03-29T09:45:35Z</time></trkpt><trkpt lat="42.05565735811489" lon="11.979013910642365"><ele>186.60000000000002</ele><time>2026-03-29T09:45:37Z</time></trkpt><trkpt lat="42.0557003814194" lon="11.979089111813597"><ele>188.0</ele><time>2026-03-29T09:45:38Z</time></trkpt><trkpt lat="42.05574539689165" lon="11.979167866002353"><ele>187.66666666666666</ele><time>2026-03-29T09:45:39Z</time></trkpt><trkpt lat="42.05579049328261" lon="11.97922887910192"><ele>187.33333333333331</ele><time>2026-03-29T09:45:40Z</time></trkpt><trkpt lat="42.05582398462406" lon="11.979301443641617"><ele>187.0</ele><time>2026-03-29T09:45:41Z</time></trkpt><trkpt lat="42.0558532580332" lon="11.97944930748174"><ele>186.66666666666666</ele><time>2026-03-29T09:45:43Z</time></trkpt><trkpt lat="42.05588492077367" lon="11.979538489766059"><ele>186.33333333333334</ele><time>2026-03-29T09:45:44Z</time></trkpt><trkpt lat="42.05592471955442" lon="11.979698595448868"><ele>186.0</ele><time>2026-03-29T09:45:46Z</time></trkpt><trkpt lat="42.05596003968114" lon="11.9797811272698"><ele>186.0</ele><time>2026-03-29T09:45:47Z</time></trkpt><trkpt lat="42.056017254402306" lon="11.979936252227308"><ele>186.0</ele><time>2026-03-29T09:45:49Z</time></trkpt><trkpt lat="42.05606952205623" lon="11.980030135246395"><ele>186.0</ele><time>2026-03-29T09:45:50Z</time></trkpt><trkpt lat="42.05612102269584" lon="11.980125854734217"><ele>186.0</ele><time>2026-03-29T09:45:51Z</time></trkpt><trkpt lat="42.05620991015133" lon="11.980206582039582"><ele>186.0</ele><time>2026-03-29T09:45:53Z</time></trkpt><trkpt lat="42.056294277432315" lon="11.98028978283403"><ele>186.66666666666666</ele><time>2026-03-29T09:45:55Z</time></trkpt><trkpt lat="42.05636960549647" lon="11.980371360249771"><ele>187.33333333333334</ele><time>2026-03-29T09:45:57Z</time></trkpt><trkpt lat="42.05643506012472" lon="11.980460092288608"><ele>188.0</ele><time>2026-03-29T09:45:59Z</time></trkpt><trkpt lat="42.05649466919199" lon="11.980559933588872"><ele>188.66666666666669</ele><time>2026-03-29T09:46:02Z</time></trkpt><trkpt lat="42.05653087310076" lon="11.98064228054487"><ele>189.33333333333334</ele><time>2026-03-29T09:46:04Z</time></trkpt><trkpt lat="42.056529931450385" lon="11.98072933388336"><ele>190.0</ele><time>2026-03-29T09:46:06Z</time></trkpt><trkpt lat="42.05654023734889" lon="11.98084907274228"><ele>190.4</ele><time>2026-03-29T09:46:08Z</time></trkpt><trkpt lat="42.05655678867232" lon="11.98098126182022"><ele>190.8</ele><time>2026-03-29T09:46:10Z</time></trkpt><trkpt lat="42.05658103392495" lon="11.98106207214829"><ele>191.2</ele><time>2026-03-29T09:46:11Z</time></trkpt><trkpt lat="42.056670206864716" lon="11.98121317828528"><ele>191.6</ele><time>2026-03-29T09:46:13Z</time></trkpt><trkpt lat="42.05673041321606" lon="11.981309750155729"><ele>192.0</ele><time>2026-03-29T09:46:14Z</time></trkpt><trkpt lat="42.056780648477655" lon="11.981399535694434"><ele>192.0</ele><time>2026-03-29T09:46:15Z</time></trkpt><trkpt lat="42.05682177565766" lon="11.981494157752662"><ele>192.0</ele><time>2026-03-29T09:46:16Z</time></trkpt><trkpt lat="42.05687258930922" lon="11.981588259930554"><ele>192.0</ele><time>2026-03-29T09:46:17Z</time></trkpt><trkpt lat="42.056922995561955" lon="11.981687022999653"><ele>192.0</ele><time>2026-03-29T09:46:18Z</time></trkpt><trkpt lat="42.05698986678084" lon="11.981765417313577"><ele>192.0</ele><time>2026-03-29T09:46:19Z</time></trkpt><trkpt lat="42.057081493553234" lon="11.981861146123736"><ele>193.39999999999998</ele><time>2026-03-29T09:46:20.999Z</time></trkpt><trkpt lat="42.05713456405946" lon="11.981922614756343"><ele>194.79999999999998</ele><time>2026-03-29T09:46:21.999Z</time></trkpt><trkpt lat="42.05720072373024" lon="11.982042547838814"><ele>196.2</ele><time>2026-03-29T09:46:23.999Z</time></trkpt><trkpt lat="42.05726887378423" lon="11.982160579221178"><ele>197.6</ele><time>2026-03-29T09:46:25.999Z</time></trkpt><trkpt lat="42.05735081548251" lon="11.982254970047993"><ele>199.0</ele><time>2026-03-29T09:46:27.999Z</time></trkpt><trkpt lat="42.057412932444045" lon="11.98236717203887"><ele>199.33333333333331</ele><time>2026-03-29T09:46:29.999Z</time></trkpt><trkpt lat="42.05746718091619" lon="11.982478608378573"><ele>199.66666666666666</ele><time>2026-03-29T09:46:31.999Z</time></trkpt><trkpt lat="42.0575271501927" lon="11.982622250626722"><ele>200.0</ele><time>2026-03-29T09:46:33.999Z</time></trkpt><trkpt lat="42.05756361211245" lon="11.982696936951227"><ele>200.33333333333331</ele><time>2026-03-29T09:46:34.999Z</time></trkpt><trkpt lat="42.057595720832815" lon="11.982781445847952"><ele>200.66666666666666</ele><time>2026-03-29T09:46:35.999Z</time></trkpt><trkpt lat="42.057639640174116" lon="11.982862561138692"><ele>201.0</ele><time>2026-03-29T09:46:36.999Z</time></trkpt><trkpt lat="42.05770874691666" lon="11.983021954213735"><ele>201.16666666666666</ele><time>2026-03-29T09:46:38.999Z</time></trkpt><trkpt lat="42.05775679493294" lon="11.983111874141242"><ele>201.33333333333331</ele><time>2026-03-29T09:46:39.999Z</time></trkpt><trkpt lat="42.05779200982298" lon="11.98318572413559"><ele>201.5</ele><time>2026-03-29T09:46:40.999Z</time></trkpt><trkpt lat="42.057851392469004" lon="11.98323498561215"><ele>201.66666666666666</ele><time>2026-03-29T09:46:41.999Z</time></trkpt><trkpt lat="42.05793377122334" lon="11.983336616167577"><ele>201.83333333333331</ele><time>2026-03-29T09:46:43.999Z</time></trkpt><trkpt lat="42.05797759816579" lon="11.98339768672453"><ele>202.0</ele><time>2026-03-29T09:46:44.999Z</time></trkpt><trkpt lat="42.05804934736317" lon="11.983456883693117"><ele>202.49999999999997</ele><time>2026-03-29T09:46:45.999Z</time></trkpt><trkpt lat="42.05811579550117" lon="11.983499431993721"><ele>203.0</ele><time>2026-03-29T09:46:46.999Z</time></trkpt><trkpt lat="42.05818766735231" lon="11.983556975828447"><ele>203.5</ele><time>2026-03-29T09:46:47.999Z</time></trkpt><trkpt lat="42.058263431634714" lon="11.983615013514378"><ele>204.0</ele><time>2026-03-29T09:46:48.999Z</time></trkpt><trkpt lat="42.058331062089636" lon="11.983684427415776"><ele>204.49999999999997</ele><time>2026-03-29T09:46:49.999Z</time></trkpt><trkpt lat="42.058389965224144" lon="11.983739077282772"><ele>205.0</ele><time>2026-03-29T09:46:50.999Z</time></trkpt><trkpt lat="42.05844982051246" lon="11.983765765367487"><ele>205.0</ele><time>2026-03-29T09:46:51.999Z</time></trkpt><trkpt lat="42.058530969633914" lon="11.983807248106347"><ele>205.0</ele><time>2026-03-29T09:46:53.999Z</time></trkpt><trkpt lat="42.05857073455748" lon="11.9839141443781"><ele>205.0</ele><time>2026-03-29T09:46:55.999Z</time></trkpt><trkpt lat="42.05863403649072" lon="11.984033960956456"><ele>205.0</ele><time>2026-03-29T09:46:57.999Z</time></trkpt><trkpt lat="42.058655831263806" lon="11.984179270698732"><ele>205.0</ele><time>2026-03-29T09:46:59.999Z</time></trkpt><trkpt lat="42.05860320417912" lon="11.984346804452107"><ele>205.8</ele><time>2026-03-29T09:47:01.999Z</time></trkpt><trkpt lat="42.058565789939834" lon="11.984525586748653"><ele>206.6</ele><time>2026-03-29T09:47:03.999Z</time></trkpt><trkpt lat="42.05856226352312" lon="11.98466610708053"><ele>207.39999999999998</ele><time>2026-03-29T09:47:04.999Z</time></trkpt><trkpt lat="42.058558669564576" lon="11.984758590647555"><ele>208.2</ele><time>2026-03-29T09:47:05.999Z</time></trkpt><trkpt lat="42.05856334575582" lon="11.984919882751214"><ele>209.0</ele><time>2026-03-29T09:47:07.999Z</time></trkpt><trkpt lat="42.058574315074" lon="11.985004000019638"><ele>209.66666666666669</ele><time>2026-03-29T09:47:08.999Z</time></trkpt><trkpt lat="42.05858433408016" lon="11.985108604502654"><ele>210.33333333333334</ele><time>2026-03-29T09:47:09.999Z</time></trkpt><trkpt lat="42.058615828128495" lon="11.985211815790123"><ele>211.0</ele><time>2026-03-29T09:47:10.999Z</time></trkpt><trkpt lat="42.058640062067916" lon="11.985290654118323"><ele>211.66666666666669</ele><time>2026-03-29T09:47:11.999Z</time></trkpt><trkpt lat="42.0586592445991" lon="11.98537261106812"><ele>212.33333333333334</ele><time>2026-03-29T09:47:12.999Z</time></trkpt><trkpt lat="42.05870501901935" lon="11.985520713487244"><ele>213.0</ele><time>2026-03-29T09:47:14.999Z</time></trkpt><trkpt lat="42.05870011513049" lon="11.985605423466328"><ele>212.99999999999997</ele><time>2026-03-29T09:47:15.999Z</time></trkpt><trkpt lat="42.05870137286746" lon="11.985692478443791"><ele>213.0</ele><time>2026-03-29T09:47:16.999Z</time></trkpt><trkpt lat="42.05868862958062" lon="11.98577835296689"><ele>213.0</ele><time>2026-03-29T09:47:17.999Z</time></trkpt><trkpt lat="42.058637694736426" lon="11.98585599960362"><ele>213.0</ele><time>2026-03-29T09:47:18.999Z</time></trkpt><trkpt lat="42.05859535821133" lon="11.985943591944872"><ele>213.0</ele><time>2026-03-29T09:47:19.999Z</time></trkpt><trkpt lat="42.05856071056918" lon="11.986026103506612"><ele>212.99999999999997</ele><time>2026-03-29T09:47:20.999Z</time></trkpt><trkpt lat="42.05853642243642" lon="11.986130656642288"><ele>213.0</ele><time>2026-03-29T09:47:21.999Z</time></trkpt><trkpt lat="42.05852403865532" lon="11.98623064961018"><ele>214.5</ele><time>2026-03-29T09:47:23Z</time></trkpt><trkpt lat="42.058540998977094" lon="11.98633898840175"><ele>216.0</ele><time>2026-03-29T09:47:24Z</time></trkpt><trkpt lat="42.05856803825622" lon="11.986469797624824"><ele>217.5</ele><time>2026-03-29T09:47:26Z</time></trkpt><trkpt lat="42.05857450691763" lon="11.98656541875115"><ele>219.0</ele><time>2026-03-29T09:47:27Z</time></trkpt><trkpt lat="42.05860347814862" lon="11.98670154071001"><ele>220.5</ele><time>2026-03-29T09:47:28Z</time></trkpt><trkpt lat="42.0586404498662" lon="11.986797756604627"><ele>222.0</ele><time>2026-03-29T09:47:29Z</time></trkpt><trkpt lat="42.05872165960351" lon="11.986924784456216"><ele>222.66666666666666</ele><time>2026-03-29T09:47:31Z</time></trkpt><trkpt lat="42.05881949354514" lon="11.9870512422697"><ele>223.33333333333331</ele><time>2026-03-29T09:47:33Z</time></trkpt><trkpt lat="42.05885591168473" lon="11.987134554132583"><ele>224.0</ele><time>2026-03-29T09:47:34Z</time></trkpt><trkpt lat="42.0588719134036" lon="11.987226881895"><ele>224.66666666666666</ele><time>2026-03-29T09:47:35Z</time></trkpt><trkpt lat="42.05887078401576" lon="11.987325087770715"><ele>225.33333333333331</ele><time>2026-03-29T09:47:36Z</time></trkpt><trkpt lat="42.058883051968074" lon="11.987412248969585"><ele>226.0</ele><time>2026-03-29T09:47:37Z</time></trkpt><trkpt lat="42.05884156235194" lon="11.987549224591312"><ele>226.8</ele><time>2026-03-29T09:47:38Z</time></trkpt><trkpt lat="42.058829333171914" lon="11.987633918478675"><ele>227.60000000000002</ele><time>2026-03-29T09:47:39Z</time></trkpt><trkpt lat="42.058802101382156" lon="11.987785216234611"><ele>228.4</ele><time>2026-03-29T09:47:41Z</time></trkpt><trkpt lat="42.058805874817395" lon="11.987907148309558"><ele>229.2</ele><time>2026-03-29T09:47:43Z</time></trkpt><trkpt lat="42.058876057780864" lon="11.988056190905763"><ele>230.0</ele><time>2026-03-29T09:47:45Z</time></trkpt><trkpt lat="42.058901750371646" lon="11.988154086409518"><ele>230.0</ele><time>2026-03-29T09:47:47Z</time></trkpt><trkpt lat="42.058859736998855" lon="11.98823003616705"><ele>230.0</ele><time>2026-03-29T09:47:49Z</time></trkpt><trkpt lat="42.05875295065876" lon="11.988230646912571"><ele>230.0</ele><time>2026-03-29T09:47:51Z</time></trkpt><trkpt lat="42.05868053635927" lon="11.98823996551785"><ele>230.0</ele><time>2026-03-29T09:47:54Z</time></trkpt><trkpt lat="42.058637664777905" lon="11.988323085961472"><ele>230.0</ele><time>2026-03-29T09:47:58Z</time></trkpt><trkpt lat="42.058867362303786" lon="11.98832358630019"><ele>230.75</ele><time>2026-03-29T09:48:16Z</time></trkpt><trkpt lat="42.058754084153065" lon="11.988591633600008"><ele>231.5</ele><time>2026-03-29T09:48:22Z</time></trkpt><trkpt lat="42.05871122991696" lon="11.988679882930793"><ele>232.25</ele><time>2026-03-29T09:48:23Z</time></trkpt><trkpt lat="42.058650979931095" lon="11.988791307491528"><ele>233.0</ele><time>2026-03-29T09:48:23.999Z</time></trkpt><trkpt lat="42.05862454644331" lon="11.988880794577572"><ele>233.00000000000003</ele><time>2026-03-29T09:48:24.999Z</time></trkpt><trkpt lat="42.05858129619214" lon="11.988976007694246"><ele>233.0</ele><time>2026-03-29T09:48:25.999Z</time></trkpt><trkpt lat="42.05854042818692" lon="11.9890504345067"><ele>233.0</ele><time>2026-03-29T09:48:26.999Z</time></trkpt><trkpt lat="42.058489311380704" lon="11.989143380206313"><ele>233.0</ele><time>2026-03-29T09:48:27.999Z</time></trkpt><trkpt lat="42.058435061008254" lon="11.989230254077373"><ele>233.00000000000003</ele><time>2026-03-29T09:48:28.999Z</time></trkpt><trkpt lat="42.058382822796986" lon="11.989318670711157"><ele>233.0</ele><time>2026-03-29T09:48:29.999Z</time></trkpt><trkpt lat="42.05830082767979" lon="11.98939742385405"><ele>234.16666666666669</ele><time>2026-03-29T09:48:30.999Z</time></trkpt><trkpt lat="42.05821641720465" lon="11.98946522368132"><ele>235.33333333333334</ele><time>2026-03-29T09:48:31.999Z</time></trkpt><trkpt lat="42.05815016613234" lon="11.989522492278624"><ele>236.5</ele><time>2026-03-29T09:48:32.999Z</time></trkpt><trkpt lat="42.05809688666582" lon="11.989592387460482"><ele>237.66666666666669</ele><time>2026-03-29T09:48:33.999Z</time></trkpt><trkpt lat="42.05804891703899" lon="11.989672703829992"><ele>238.83333333333334</ele><time>2026-03-29T09:48:34.999Z</time></trkpt><trkpt lat="42.05801140076645" lon="11.989740878557832"><ele>240.0</ele><time>2026-03-29T09:48:35.999Z</time></trkpt><trkpt lat="42.05798729414435" lon="11.98983862133942"><ele>240.0</ele><time>2026-03-29T09:48:36.999Z</time></trkpt><trkpt lat="42.05794927991423" lon="11.989948061510892"><ele>240.0</ele><time>2026-03-29T09:48:37.999Z</time></trkpt><trkpt lat="42.05789498213431" lon="11.990055638089453"><ele>240.0</ele><time>2026-03-29T09:48:38.999Z</time></trkpt><trkpt lat="42.057844092140215" lon="11.990165434622124"><ele>240.0</ele><time>2026-03-29T09:48:39.999Z</time></trkpt><trkpt lat="42.05779795128326" lon="11.990265127463116"><ele>240.0</ele><time>2026-03-29T09:48:40.999Z</time></trkpt><trkpt lat="42.0577482532914" lon="11.99036539086093"><ele>240.33333333333334</ele><time>2026-03-29T09:48:41.999Z</time></trkpt><trkpt lat="42.05769800621934" lon="11.990454975329738"><ele>240.66666666666669</ele><time>2026-03-29T09:48:42.999Z</time></trkpt><trkpt lat="42.05765942876046" lon="11.990546375708027"><ele>241.0</ele><time>2026-03-29T09:48:43.999Z</time></trkpt><trkpt lat="42.05760584229612" lon="11.99063414139597"><ele>241.33333333333334</ele><time>2026-03-29T09:48:44.999Z</time></trkpt><trkpt lat="42.05756025633441" lon="11.990704756101826"><ele>241.66666666666669</ele><time>2026-03-29T09:48:45.999Z</time></trkpt><trkpt lat="42.0575175561862" lon="11.990834572115133"><ele>242.0</ele><time>2026-03-29T09:48:47.999Z</time></trkpt><trkpt lat="42.05758476845195" lon="11.990972367796132"><ele>242.50000000000003</ele><time>2026-03-29T09:48:49.999Z</time></trkpt><trkpt lat="42.05763869578079" lon="11.99104221837634"><ele>243.0</ele><time>2026-03-29T09:48:50.999Z</time></trkpt><trkpt lat="42.05769148132308" lon="11.991117471534904"><ele>243.5</ele><time>2026-03-29T09:48:51.999Z</time></trkpt><trkpt lat="42.05774345169459" lon="11.991185337873361"><ele>244.0</ele><time>2026-03-29T09:48:52.999Z</time></trkpt><trkpt lat="42.05777427080422" lon="11.991259372156158"><ele>244.50000000000003</ele><time>2026-03-29T09:48:53.999Z</time></trkpt><trkpt lat="42.05779579973516" lon="11.991363771575768"><ele>245.0</ele><time>2026-03-29T09:48:54.999Z</time></trkpt><trkpt lat="42.057811520715276" lon="11.9914808328763"><ele>245.0</ele><time>2026-03-29T09:48:55.999Z</time></trkpt><trkpt lat="42.057842445596116" lon="11.991598224574313"><ele>245.0</ele><time>2026-03-29T09:48:56.999Z</time></trkpt><trkpt lat="42.05789126867738" lon="11.99171171018351"><ele>245.0</ele><time>2026-03-29T09:48:57.999Z</time></trkpt><trkpt lat="42.057925504066624" lon="11.991803293893557"><ele>245.0</ele><time>2026-03-29T09:48:58.999Z</time></trkpt><trkpt lat="42.05794763861861" lon="11.991959077908707"><ele>245.0</ele><time>2026-03-29T09:49:00.999Z</time></trkpt><trkpt lat="42.05791824788099" lon="11.99210884378574"><ele>245.83333333333334</ele><time>2026-03-29T09:49:02.999Z</time></trkpt><trkpt lat="42.057823402017384" lon="11.9922305537588"><ele>246.66666666666669</ele><time>2026-03-29T09:49:04.999Z</time></trkpt><trkpt lat="42.057767958328085" lon="11.99227901142522"><ele>247.5</ele><time>2026-03-29T09:49:05.999Z</time></trkpt><trkpt lat="42.05770655822221" lon="11.99232208674429"><ele>248.33333333333331</ele><time>2026-03-29T09:49:06.999Z</time></trkpt><trkpt lat="42.05763661158983" lon="11.992377091173926"><ele>249.16666666666666</ele><time>2026-03-29T09:49:07.999Z</time></trkpt><trkpt lat="42.05757406230612" lon="11.992439018846603"><ele>250.0</ele><time>2026-03-29T09:49:08.999Z</time></trkpt><trkpt lat="42.057507898927426" lon="11.992515327323705"><ele>250.66666666666666</ele><time>2026-03-29T09:49:09.999Z</time></trkpt><trkpt lat="42.057445853172275" lon="11.992596122543599"><ele>251.33333333333331</ele><time>2026-03-29T09:49:10.999Z</time></trkpt><trkpt lat="42.05737429126019" lon="11.992679333903151"><ele>252.0</ele><time>2026-03-29T09:49:11.999Z</time></trkpt><trkpt lat="42.05731891166843" lon="11.992757493268927"><ele>252.66666666666669</ele><time>2026-03-29T09:49:12.999Z</time></trkpt><trkpt lat="42.057269760981825" lon="11.99284633942892"><ele>253.33333333333334</ele><time>2026-03-29T09:49:13.999Z</time></trkpt><trkpt lat="42.05722752528687" lon="11.99293899280173"><ele>254.0</ele><time>2026-03-29T09:49:14.999Z</time></trkpt><trkpt lat="42.05718903216946" lon="11.993050591927203"><ele>254.0</ele><time>2026-03-29T09:49:15.999Z</time></trkpt><trkpt lat="42.05716665257495" lon="11.993189751431387"><ele>253.99999999999997</ele><time>2026-03-29T09:49:16.999Z</time></trkpt><trkpt lat="42.0571364158079" lon="11.993322074126512"><ele>253.99999999999997</ele><time>2026-03-29T09:49:17.999Z</time></trkpt><trkpt lat="42.05710145166025" lon="11.993435119453528"><ele>254.0</ele><time>2026-03-29T09:49:18.999Z</time></trkpt><trkpt lat="42.05706527708033" lon="11.993558870878633"><ele>254.0</ele><time>2026-03-29T09:49:19.999Z</time></trkpt><trkpt lat="42.057022441074004" lon="11.993676973690075"><ele>254.66666666666669</ele><time>2026-03-29T09:49:20.999Z</time></trkpt><trkpt lat="42.05698129386302" lon="11.993772803787307"><ele>255.33333333333334</ele><time>2026-03-29T09:49:21.999Z</time></trkpt><trkpt lat="42.0569378588021" lon="11.993883050169764"><ele>256.0</ele><time>2026-03-29T09:49:22.999Z</time></trkpt><trkpt lat="42.05690123978759" lon="11.99398977306796"><ele>256.6666666666667</ele><time>2026-03-29T09:49:23.999Z</time></trkpt><trkpt lat="42.056878921168064" lon="11.994111098806165"><ele>257.3333333333333</ele><time>2026-03-29T09:49:24.999Z</time></trkpt><trkpt lat="42.056844591562644" lon="11.994195054395654"><ele>258.0</ele><time>2026-03-29T09:49:25.999Z</time></trkpt><trkpt lat="42.056806349678915" lon="11.994288528300832"><ele>258.0</ele><time>2026-03-29T09:49:27.999Z</time></trkpt><trkpt lat="42.05677176754144" lon="11.994384244265893"><ele>258.0</ele><time>2026-03-29T09:49:45Z</time></trkpt><trkpt lat="42.05667716346969" lon="11.994452170430227"><ele>258.0</ele><time>2026-03-29T09:50:37.999Z</time></trkpt><trkpt lat="42.056558036438716" lon="11.994508116576762"><ele>258.0</ele><time>2026-03-29T09:50:39.999Z</time></trkpt><trkpt lat="42.05648069191807" lon="11.994563361257088"><ele>258.0</ele><time>2026-03-29T09:50:40.999Z</time></trkpt><trkpt lat="42.05638405096773" lon="11.994574760030558"><ele>257.6</ele><time>2026-03-29T09:50:41.999Z</time></trkpt><trkpt lat="42.05629526370284" lon="11.994614440894177"><ele>257.20000000000005</ele><time>2026-03-29T09:50:42.999Z</time></trkpt><trkpt lat="42.05620245594509" lon="11.994655918597122"><ele>256.8</ele><time>2026-03-29T09:50:43.999Z</time></trkpt><trkpt lat="42.05610645587897" lon="11.99471911204773"><ele>256.40000000000003</ele><time>2026-03-29T09:50:44.999Z</time></trkpt><trkpt lat="42.0560143322765" lon="11.994754680400208"><ele>256.0</ele><time>2026-03-29T09:50:45.999Z</time></trkpt><trkpt lat="42.055920723097415" lon="11.994775748780476"><ele>256.0</ele><time>2026-03-29T09:50:46.999Z</time></trkpt><trkpt lat="42.0558301722401" lon="11.994813034424132"><ele>256.0</ele><time>2026-03-29T09:50:47.999Z</time></trkpt><trkpt lat="42.05572749664896" lon="11.994855312609118"><ele>256.0</ele><time>2026-03-29T09:50:48.999Z</time></trkpt><trkpt lat="42.0556160904372" lon="11.99490118575471"><ele>256.0</ele><time>2026-03-29T09:50:49.999Z</time></trkpt><trkpt lat="42.055486552882854" lon="11.994955046528153"><ele>256.0</ele><time>2026-03-29T09:50:50.999Z</time></trkpt><trkpt lat="42.05537212624479" lon="11.995002746253949"><ele>256.0</ele><time>2026-03-29T09:50:51.999Z</time></trkpt><trkpt lat="42.05525813376715" lon="11.995050264997174"><ele>256.0</ele><time>2026-03-29T09:50:52.999Z</time></trkpt><trkpt lat="42.055160755073096" lon="11.995090858143831"><ele>256.0</ele><time>2026-03-29T09:50:53.999Z</time></trkpt><trkpt lat="42.05506090752378" lon="11.995133554940963"><ele>256.0</ele><time>2026-03-29T09:50:54.999Z</time></trkpt><trkpt lat="42.054950636790025" lon="11.995179538262192"><ele>255.0</ele><time>2026-03-29T09:50:55.999Z</time></trkpt><trkpt lat="42.05483644286946" lon="11.995223267365116"><ele>254.0</ele><time>2026-03-29T09:50:56.999Z</time></trkpt><trkpt lat="42.05472874461852" lon="11.99527750596477"><ele>253.0</ele><time>2026-03-29T09:50:57.999Z</time></trkpt><trkpt lat="42.05462454447139" lon="11.995331372398232"><ele>252.0</ele><time>2026-03-29T09:50:58.999Z</time></trkpt><trkpt lat="42.054506406685036" lon="11.995377095621789"><ele>252.0</ele><time>2026-03-29T09:50:59.999Z</time></trkpt><trkpt lat="42.054406046983665" lon="11.995415226949097"><ele>252.0</ele><time>2026-03-29T09:51:00.999Z</time></trkpt><trkpt lat="42.05430405177927" lon="11.995478959448965"><ele>252.0</ele><time>2026-03-29T09:51:01.999Z</time></trkpt><trkpt lat="42.05418016915952" lon="11.99550969394784"><ele>252.0</ele><time>2026-03-29T09:51:02.999Z</time></trkpt><trkpt lat="42.05405798751737" lon="11.995560195501827"><ele>252.25</ele><time>2026-03-29T09:51:03.999Z</time></trkpt><trkpt lat="42.053935257685445" lon="11.995613417808578"><ele>252.5</ele><time>2026-03-29T09:51:04.999Z</time></trkpt><trkpt lat="42.05380467980515" lon="11.99567052764917"><ele>252.75</ele><time>2026-03-29T09:51:05.999Z</time></trkpt><trkpt lat="42.05366462044607" lon="11.99573234587837"><ele>253.0</ele><time>2026-03-29T09:51:06.999Z</time></trkpt><trkpt lat="42.05353972775498" lon="11.995791831287114"><ele>252.0</ele><time>2026-03-29T09:51:07.999Z</time></trkpt><trkpt lat="42.05340877168691" lon="11.99583968056413"><ele>251.0</ele><time>2026-03-29T09:51:08.999Z</time></trkpt><trkpt lat="42.05326565536002" lon="11.995902558824827"><ele>250.0</ele><time>2026-03-29T09:51:09.999Z</time></trkpt><trkpt lat="42.05312041566879" lon="11.995968235245272"><ele>249.0</ele><time>2026-03-29T09:51:10.999Z</time></trkpt><trkpt lat="42.05299720796748" lon="11.99602507683906"><ele>248.25</ele><time>2026-03-29T09:51:11.999Z</time></trkpt><trkpt lat="42.05286952175792" lon="11.996074667914112"><ele>247.5</ele><time>2026-03-29T09:51:12.999Z</time></trkpt><trkpt lat="42.05274157083322" lon="11.996131546003605"><ele>246.75</ele><time>2026-03-29T09:51:13.999Z</time></trkpt><trkpt lat="42.05263130959186" lon="11.99618636156412"><ele>246.0</ele><time>2026-03-29T09:51:14.999Z</time></trkpt><trkpt lat="42.05253138198129" lon="11.996237551909774"><ele>245.25</ele><time>2026-03-29T09:51:15.999Z</time></trkpt><trkpt lat="42.05242709872091" lon="11.996304797133371"><ele>244.5</ele><time>2026-03-29T09:51:16.999Z</time></trkpt><trkpt lat="42.05232683758742" lon="11.996379791788064"><ele>243.75</ele><time>2026-03-29T09:51:17.999Z</time></trkpt><trkpt lat="42.05222395757343" lon="11.99647072808661"><ele>243.0</ele><time>2026-03-29T09:51:18.999Z</time></trkpt><trkpt lat="42.05211004359509" lon="11.99655267560606"><ele>243.0</ele><time>2026-03-29T09:51:19.999Z</time></trkpt><trkpt lat="42.05200892190511" lon="11.996651606115925"><ele>243.0</ele><time>2026-03-29T09:51:20.999Z</time></trkpt><trkpt lat="42.051895125135246" lon="11.996763175543729"><ele>243.0</ele><time>2026-03-29T09:51:21.999Z</time></trkpt><trkpt lat="42.05178731880633" lon="11.996872153882986"><ele>243.0</ele><time>2026-03-29T09:51:22.999Z</time></trkpt><trkpt lat="42.051683346064024" lon="11.996982106898114"><ele>240.5</ele><time>2026-03-29T09:51:23.999Z</time></trkpt><trkpt lat="42.051573669154195" lon="11.997091394869308"><ele>238.0</ele><time>2026-03-29T09:51:24.999Z</time></trkpt><trkpt lat="42.05145991315744" lon="11.997204630436276"><ele>235.5</ele><time>2026-03-29T09:51:25.999Z</time></trkpt><trkpt lat="42.05134228276072" lon="11.997294529941321"><ele>233.0</ele><time>2026-03-29T09:51:26.999Z</time></trkpt><trkpt lat="42.0512242934652" lon="11.997409182653433"><ele>231.75</ele><time>2026-03-29T09:51:27.999Z</time></trkpt><trkpt lat="42.051117377592334" lon="11.997540800779705"><ele>230.5</ele><time>2026-03-29T09:51:28.999Z</time></trkpt><trkpt lat="42.05100707802845" lon="11.997644227106676"><ele>229.25</ele><time>2026-03-29T09:51:29.999Z</time></trkpt><trkpt lat="42.050900225723595" lon="11.997750123397516"><ele>228.0</ele><time>2026-03-29T09:51:30.999Z</time></trkpt><trkpt lat="42.050791643361826" lon="11.997853945507734"><ele>227.0</ele><time>2026-03-29T09:51:31.999Z</time></trkpt><trkpt lat="42.050690310092854" lon="11.997944370465842"><ele>226.0</ele><time>2026-03-29T09:51:32.999Z</time></trkpt><trkpt lat="42.05060416802273" lon="11.998037951881766"><ele>225.0</ele><time>2026-03-29T09:51:33.999Z</time></trkpt><trkpt lat="42.05050390330955" lon="11.998137435021288"><ele>224.0</ele><time>2026-03-29T09:51:35Z</time></trkpt><trkpt lat="42.050418264125035" lon="11.998239146397438"><ele>224.0</ele><time>2026-03-29T09:51:36Z</time></trkpt><trkpt lat="42.050337726938785" lon="11.998305909781537"><ele>223.99999999999997</ele><time>2026-03-29T09:51:37Z</time></trkpt><trkpt lat="42.05026797918365" lon="11.99839623846347"><ele>223.99999999999997</ele><time>2026-03-29T09:51:38Z</time></trkpt><trkpt lat="42.0502019773956" lon="11.99851671457631"><ele>224.0</ele><time>2026-03-29T09:51:39Z</time></trkpt><trkpt lat="42.050132326366736" lon="11.998638795923524"><ele>224.0</ele><time>2026-03-29T09:51:40Z</time></trkpt><trkpt lat="42.05006848024703" lon="11.998789156455572"><ele>223.0</ele><time>2026-03-29T09:51:41Z</time></trkpt><trkpt lat="42.050017081739014" lon="11.998948180109961"><ele>222.0</ele><time>2026-03-29T09:51:42Z</time></trkpt><trkpt lat="42.0499431581251" lon="11.999084271629355"><ele>221.0</ele><time>2026-03-29T09:51:43Z</time></trkpt><trkpt lat="42.04987633219053" lon="11.999224253522659"><ele>220.0</ele><time>2026-03-29T09:51:44Z</time></trkpt><trkpt lat="42.04981707319075" lon="11.999370404565576"><ele>218.75</ele><time>2026-03-29T09:51:45Z</time></trkpt><trkpt lat="42.04975915763204" lon="11.999514268757448"><ele>217.5</ele><time>2026-03-29T09:51:46Z</time></trkpt><trkpt lat="42.04970370562824" lon="11.999646876142354"><ele>216.25</ele><time>2026-03-29T09:51:47Z</time></trkpt><trkpt lat="42.04962900096893" lon="11.999770477498675"><ele>215.0</ele><time>2026-03-29T09:51:48Z</time></trkpt><trkpt lat="42.0495664264704" lon="11.999898644812287"><ele>215.0</ele><time>2026-03-29T09:51:49Z</time></trkpt><trkpt lat="42.04949642918495" lon="12.000015456369844"><ele>215.0</ele><time>2026-03-29T09:51:50Z</time></trkpt><trkpt lat="42.04942149455262" lon="12.000122179657597"><ele>215.0</ele><time>2026-03-29T09:51:51Z</time></trkpt><trkpt lat="42.0493371274852" lon="12.000219306760512"><ele>215.0</ele><time>2026-03-29T09:51:52Z</time></trkpt><trkpt lat="42.049242267758544" lon="12.000325719764486"><ele>215.0</ele><time>2026-03-29T09:51:53Z</time></trkpt><trkpt lat="42.04914687168329" lon="12.000418023012134"><ele>215.0</ele><time>2026-03-29T09:51:54Z</time></trkpt><trkpt lat="42.04905240299662" lon="12.000510760264525"><ele>215.0</ele><time>2026-03-29T09:51:55Z</time></trkpt><trkpt lat="42.04896853800625" lon="12.000611248038766"><ele>215.0</ele><time>2026-03-29T09:51:56Z</time></trkpt><trkpt lat="42.048861455471425" lon="12.00066931723177"><ele>214.5</ele><time>2026-03-29T09:51:57Z</time></trkpt><trkpt lat="42.048759016786505" lon="12.000768309752257"><ele>214.0</ele><time>2026-03-29T09:51:58Z</time></trkpt><trkpt lat="42.04864574770066" lon="12.000824335759107"><ele>213.5</ele><time>2026-03-29T09:51:59Z</time></trkpt><trkpt lat="42.048538099058405" lon="12.000881464131975"><ele>213.0</ele><time>2026-03-29T09:52:00Z</time></trkpt><trkpt lat="42.04842002190221" lon="12.000951999419788"><ele>211.0</ele><time>2026-03-29T09:52:01Z</time></trkpt><trkpt lat="42.048298551922166" lon="12.001014442097487"><ele>209.0</ele><time>2026-03-29T09:52:02Z</time></trkpt><trkpt lat="42.04817937933483" lon="12.001082344064914"><ele>207.0</ele><time>2026-03-29T09:52:03Z</time></trkpt><trkpt lat="42.0480629281419" lon="12.001151776452076"><ele>205.0</ele><time>2026-03-29T09:52:04Z</time></trkpt><trkpt lat="42.04794101606486" lon="12.001228027927176"><ele>205.0</ele><time>2026-03-29T09:52:05Z</time></trkpt><trkpt lat="42.04782188969188" lon="12.00128590376926"><ele>205.0</ele><time>2026-03-29T09:52:06Z</time></trkpt><trkpt lat="42.047702508159105" lon="12.001355478028797"><ele>205.0</ele><time>2026-03-29T09:52:07Z</time></trkpt><trkpt lat="42.047580651198956" lon="12.001424509180572"><ele>205.0</ele><time>2026-03-29T09:52:08Z</time></trkpt><trkpt lat="42.04745573782899" lon="12.00149673452884"><ele>205.25</ele><time>2026-03-29T09:52:09Z</time></trkpt><trkpt lat="42.04733017227162" lon="12.0015778273032"><ele>205.5</ele><time>2026-03-29T09:52:10Z</time></trkpt><trkpt lat="42.04719012254144" lon="12.001588981019868"><ele>205.75</ele><time>2026-03-29T09:52:11Z</time></trkpt><trkpt lat="42.04707871858813" lon="12.00165692691898"><ele>206.0</ele><time>2026-03-29T09:52:12Z</time></trkpt><trkpt lat="42.0469914746862" lon="12.001710800328988"><ele>203.8</ele><time>2026-03-29T09:52:13Z</time></trkpt><trkpt lat="42.046895311238124" lon="12.001771117432979"><ele>201.60000000000002</ele><time>2026-03-29T09:52:14Z</time></trkpt><trkpt lat="42.046796346573814" lon="12.001831803855662"><ele>199.4</ele><time>2026-03-29T09:52:15Z</time></trkpt><trkpt lat="42.04670125998995" lon="12.001884827452958"><ele>197.2</ele><time>2026-03-29T09:52:16Z</time></trkpt><trkpt lat="42.04659740787107" lon="12.001929354987052"><ele>195.0</ele><time>2026-03-29T09:52:17Z</time></trkpt><trkpt lat="42.0464925308524" lon="12.0019308877789"><ele>194.6</ele><time>2026-03-29T09:52:18Z</time></trkpt><trkpt lat="42.04638641322097" lon="12.00192257399454"><ele>194.2</ele><time>2026-03-29T09:52:19Z</time></trkpt><trkpt lat="42.04628263924666" lon="12.001899296465579"><ele>193.8</ele><time>2026-03-29T09:52:20Z</time></trkpt><trkpt lat="42.04618192498051" lon="12.001862612940474"><ele>193.4</ele><time>2026-03-29T09:52:21Z</time></trkpt><trkpt lat="42.04609424418877" lon="12.001787097828354"><ele>193.0</ele><time>2026-03-29T09:52:22Z</time></trkpt><trkpt lat="42.04597902149825" lon="12.00174182838632"><ele>193.4</ele><time>2026-03-29T09:52:23Z</time></trkpt><trkpt lat="42.04588737325998" lon="12.001657187360081"><ele>193.8</ele><time>2026-03-29T09:52:24Z</time></trkpt><trkpt lat="42.04579946019626" lon="12.001582593893591"><ele>194.2</ele><time>2026-03-29T09:52:25Z</time></trkpt><trkpt lat="42.04570776757027" lon="12.001521000159272"><ele>194.6</ele><time>2026-03-29T09:52:26Z</time></trkpt><trkpt lat="42.04560026885289" lon="12.001465944948496"><ele>195.0</ele><time>2026-03-29T09:52:27Z</time></trkpt><trkpt lat="42.04548147492626" lon="12.001428644878963"><ele>193.0</ele><time>2026-03-29T09:52:28Z</time></trkpt><trkpt lat="42.04537350695897" lon="12.001382966539742"><ele>191.0</ele><time>2026-03-29T09:52:29Z</time></trkpt><trkpt lat="42.045272624590325" lon="12.001326426778455"><ele>189.0</ele><time>2026-03-29T09:52:30Z</time></trkpt><trkpt lat="42.04517202299058" lon="12.001280087232344"><ele>187.0</ele><time>2026-03-29T09:52:31Z</time></trkpt><trkpt lat="42.04505921036232" lon="12.00124950232377"><ele>185.0</ele><time>2026-03-29T09:52:32Z</time></trkpt><trkpt lat="42.04493939770816" lon="12.001208317850923"><ele>182.8</ele><time>2026-03-29T09:52:32.999Z</time></trkpt><trkpt lat="42.04484358452277" lon="12.001176574173874"><ele>180.6</ele><time>2026-03-29T09:52:33.999Z</time></trkpt><trkpt lat="42.04476089735928" lon="12.001137712893364"><ele>178.39999999999998</ele><time>2026-03-29T09:52:34.999Z</time></trkpt><trkpt lat="42.04466474680025" lon="12.001120090432245"><ele>176.2</ele><time>2026-03-29T09:52:35.999Z</time></trkpt><trkpt lat="42.04457339670075" lon="12.00110306265254"><ele>174.0</ele><time>2026-03-29T09:52:36.999Z</time></trkpt><trkpt lat="42.044459961696845" lon="12.001101342041972"><ele>174.0</ele><time>2026-03-29T09:52:37.999Z</time></trkpt><trkpt lat="42.044349558758626" lon="12.001130030426973"><ele>174.0</ele><time>2026-03-29T09:52:38.999Z</time></trkpt><trkpt lat="42.04424428159884" lon="12.00115853106336"><ele>174.0</ele><time>2026-03-29T09:52:39.999Z</time></trkpt><trkpt lat="42.044137434429324" lon="12.001198513546088"><ele>174.0</ele><time>2026-03-29T09:52:40.999Z</time></trkpt><trkpt lat="42.04403377606788" lon="12.001254705532707"><ele>174.0</ele><time>2026-03-29T09:52:41.999Z</time></trkpt><trkpt lat="42.04392429230577" lon="12.001328117443265"><ele>171.5</ele><time>2026-03-29T09:52:42.999Z</time></trkpt><trkpt lat="42.04381328445778" lon="12.001399097279275"><ele>169.0</ele><time>2026-03-29T09:52:43.999Z</time></trkpt><trkpt lat="42.04370657481845" lon="12.00146216824809"><ele>166.5</ele><time>2026-03-29T09:52:44.999Z</time></trkpt><trkpt lat="42.04359615792489" lon="12.001527723377677"><ele>164.0</ele><time>2026-03-29T09:52:45.999Z</time></trkpt><trkpt lat="42.04348052927622" lon="12.001580556327927"><ele>164.0</ele><time>2026-03-29T09:52:46.999Z</time></trkpt><trkpt lat="42.04336562820088" lon="12.00161585720438"><ele>164.0</ele><time>2026-03-29T09:52:47.999Z</time></trkpt><trkpt lat="42.04324528066457" lon="12.001635980859618"><ele>164.0</ele><time>2026-03-29T09:52:48.999Z</time></trkpt><trkpt lat="42.04313046612776" lon="12.001636524581675"><ele>164.0</ele><time>2026-03-29T09:52:49.999Z</time></trkpt><trkpt lat="42.04301685295871" lon="12.001627634449166"><ele>162.25</ele><time>2026-03-29T09:52:50.999Z</time></trkpt><trkpt lat="42.04290140463954" lon="12.001602839445779"><ele>160.5</ele><time>2026-03-29T09:52:51.999Z</time></trkpt><trkpt lat="42.042785176841974" lon="12.00156483436405"><ele>158.75</ele><time>2026-03-29T09:52:52.999Z</time></trkpt><trkpt lat="42.04267401859743" lon="12.001520457373807"><ele>157.0</ele><time>2026-03-29T09:52:53.999Z</time></trkpt><trkpt lat="42.042568942554986" lon="12.001471104620537"><ele>157.0</ele><time>2026-03-29T09:52:54.999Z</time></trkpt><trkpt lat="42.042468222685216" lon="12.001412919238206"><ele>157.0</ele><time>2026-03-29T09:52:55.999Z</time></trkpt><trkpt lat="42.0423676776747" lon="12.00134395449163"><ele>157.0</ele><time>2026-03-29T09:52:56.999Z</time></trkpt><trkpt lat="42.042258228988615" lon="12.00128733953223"><ele>157.0</ele><time>2026-03-29T09:52:57.999Z</time></trkpt><trkpt lat="42.04215162903224" lon="12.001232060545398"><ele>155.5</ele><time>2026-03-29T09:52:58.999Z</time></trkpt><trkpt lat="42.04203330110754" lon="12.00117995207376"><ele>154.0</ele><time>2026-03-29T09:52:59.999Z</time></trkpt><trkpt lat="42.04191897055885" lon="12.001133850439535"><ele>152.5</ele><time>2026-03-29T09:53:00.999Z</time></trkpt><trkpt lat="42.04179863636564" lon="12.001100966310023"><ele>151.0</ele><time>2026-03-29T09:53:01.999Z</time></trkpt><trkpt lat="42.04166759749973" lon="12.001071818078465"><ele>149.25</ele><time>2026-03-29T09:53:02.999Z</time></trkpt><trkpt lat="42.04154636642385" lon="12.001040597219772"><ele>147.5</ele><time>2026-03-29T09:53:03.999Z</time></trkpt><trkpt lat="42.04141742377977" lon="12.001010678366685"><ele>145.75</ele><time>2026-03-29T09:53:04.999Z</time></trkpt><trkpt lat="42.041291956189255" lon="12.000984411059594"><ele>144.0</ele><time>2026-03-29T09:53:05.999Z</time></trkpt><trkpt lat="42.04116973408263" lon="12.00096083371095"><ele>144.0</ele><time>2026-03-29T09:53:06.999Z</time></trkpt><trkpt lat="42.04105178833889" lon="12.000929728955008"><ele>144.0</ele><time>2026-03-29T09:53:07.999Z</time></trkpt><trkpt lat="42.040933517302165" lon="12.000904968137379"><ele>144.0</ele><time>2026-03-29T09:53:08.999Z</time></trkpt><trkpt lat="42.04080910433345" lon="12.000880258257615"><ele>144.0</ele><time>2026-03-29T09:53:09.999Z</time></trkpt><trkpt lat="42.04068631379002" lon="12.000859400665691"><ele>142.5</ele><time>2026-03-29T09:53:10.999Z</time></trkpt><trkpt lat="42.04057314629461" lon="12.000844147720985"><ele>141.0</ele><time>2026-03-29T09:53:11.999Z</time></trkpt><trkpt lat="42.04045469530618" lon="12.000840659332253"><ele>139.5</ele><time>2026-03-29T09:53:12.999Z</time></trkpt><trkpt lat="42.04034234661978" lon="12.000842540604479"><ele>138.0</ele><time>2026-03-29T09:53:13.999Z</time></trkpt><trkpt lat="42.04023562697954" lon="12.000841954817941"><ele>138.0</ele><time>2026-03-29T09:53:14.999Z</time></trkpt><trkpt lat="42.04013814620476" lon="12.00083409511981"><ele>138.0</ele><time>2026-03-29T09:53:15.999Z</time></trkpt><trkpt lat="42.04003653271884" lon="12.00082786329422"><ele>138.0</ele><time>2026-03-29T09:53:16.999Z</time></trkpt><trkpt lat="42.03993128899864" lon="12.000813347196855"><ele>138.0</ele><time>2026-03-29T09:53:17.999Z</time></trkpt><trkpt lat="42.03980892139947" lon="12.000804056556795"><ele>138.0</ele><time>2026-03-29T09:53:18.999Z</time></trkpt><trkpt lat="42.039686003998966" lon="12.00079998377747"><ele>134.25</ele><time>2026-03-29T09:53:19.999Z</time></trkpt><trkpt lat="42.0395696453414" lon="12.000798431120137"><ele>130.5</ele><time>2026-03-29T09:53:20.999Z</time></trkpt><trkpt lat="42.0394491836646" lon="12.000801360300066"><ele>126.75</ele><time>2026-03-29T09:53:21.999Z</time></trkpt><trkpt lat="42.03932895720648" lon="12.000800210664938"><ele>123.0</ele><time>2026-03-29T09:53:22.999Z</time></trkpt><trkpt lat="42.0392188253219" lon="12.000796007108638"><ele>120.5</ele><time>2026-03-29T09:53:23.999Z</time></trkpt><trkpt lat="42.03910437648721" lon="12.000802148335016"><ele>118.0</ele><time>2026-03-29T09:53:24.999Z</time></trkpt><trkpt lat="42.03899109416205" lon="12.000807886475629"><ele>115.5</ele><time>2026-03-29T09:53:25.999Z</time></trkpt><trkpt lat="42.038868355421656" lon="12.000818502063776"><ele>113.0</ele><time>2026-03-29T09:53:26.999Z</time></trkpt><trkpt lat="42.038746313280704" lon="12.000824594483747"><ele>113.0</ele><time>2026-03-29T09:53:27.999Z</time></trkpt><trkpt lat="42.03863263993188" lon="12.00081218590154"><ele>113.0</ele><time>2026-03-29T09:53:28.999Z</time></trkpt><trkpt lat="42.038510909912155" lon="12.000818951091217"><ele>113.0</ele><time>2026-03-29T09:53:29.999Z</time></trkpt><trkpt lat="42.038392772398915" lon="12.000827910690871"><ele>113.0</ele><time>2026-03-29T09:53:30.999Z</time></trkpt><trkpt lat="42.0382753852381" lon="12.000844780330901"><ele>112.75</ele><time>2026-03-29T09:53:31.999Z</time></trkpt><trkpt lat="42.038154928550846" lon="12.000859533562192"><ele>112.5</ele><time>2026-03-29T09:53:32.999Z</time></trkpt><trkpt lat="42.0380404498197" lon="12.000872757364139"><ele>112.25</ele><time>2026-03-29T09:53:33.999Z</time></trkpt><trkpt lat="42.03792741582215" lon="12.000908124493044"><ele>112.0</ele><time>2026-03-29T09:53:34.999Z</time></trkpt><trkpt lat="42.03780465399719" lon="12.00093349448062"><ele>112.0</ele><time>2026-03-29T09:53:35.999Z</time></trkpt><trkpt lat="42.03768439424793" lon="12.000948951121554"><ele>112.0</ele><time>2026-03-29T09:53:36.999Z</time></trkpt><trkpt lat="42.03757092940197" lon="12.00097181733589"><ele>112.0</ele><time>2026-03-29T09:53:37.999Z</time></trkpt><trkpt lat="42.037442016322075" lon="12.000998886011333"><ele>112.0</ele><time>2026-03-29T09:53:38.999Z</time></trkpt><trkpt lat="42.03731901505335" lon="12.001028157129454"><ele>110.25</ele><time>2026-03-29T09:53:39.999Z</time></trkpt><trkpt lat="42.037199122741356" lon="12.001063116948906"><ele>108.5</ele><time>2026-03-29T09:53:41Z</time></trkpt><trkpt lat="42.0370809964133" lon="12.001093564808652"><ele>106.75</ele><time>2026-03-29T09:53:42Z</time></trkpt><trkpt lat="42.036953814935195" lon="12.001124713108736"><ele>105.0</ele><time>2026-03-29T09:53:43Z</time></trkpt><trkpt lat="42.03682622636545" lon="12.001152152524242"><ele>105.0</ele><time>2026-03-29T09:53:44Z</time></trkpt><trkpt lat="42.036701287417706" lon="12.001167744085613"><ele>105.0</ele><time>2026-03-29T09:53:45Z</time></trkpt><trkpt lat="42.03658228205353" lon="12.001170845014725"><ele>105.0</ele><time>2026-03-29T09:53:46Z</time></trkpt><trkpt lat="42.03646604967178" lon="12.001146765818742"><ele>105.0</ele><time>2026-03-29T09:53:47Z</time></trkpt><trkpt lat="42.036364086083154" lon="12.00112966318418"><ele>104.0</ele><time>2026-03-29T09:53:48Z</time></trkpt><trkpt lat="42.036246492429655" lon="12.001125888231597"><ele>103.0</ele><time>2026-03-29T09:53:49Z</time></trkpt><trkpt lat="42.03612438674455" lon="12.001087409504132"><ele>102.0</ele><time>2026-03-29T09:53:50Z</time></trkpt><trkpt lat="42.03601217222591" lon="12.00104501724251"><ele>101.0</ele><time>2026-03-29T09:53:51Z</time></trkpt><trkpt lat="42.03589008655962" lon="12.00100564925754"><ele>99.75</ele><time>2026-03-29T09:53:52Z</time></trkpt><trkpt lat="42.035778675654754" lon="12.00098112030212"><ele>98.5</ele><time>2026-03-29T09:53:53Z</time></trkpt><trkpt lat="42.035672197559336" lon="12.000952655150657"><ele>97.25</ele><time>2026-03-29T09:53:54Z</time></trkpt><trkpt lat="42.03556435458037" lon="12.00090209669952"><ele>96.0</ele><time>2026-03-29T09:53:55Z</time></trkpt><trkpt lat="42.03544920899801" lon="12.000873163216685"><ele>96.0</ele><time>2026-03-29T09:53:56Z</time></trkpt><trkpt lat="42.03533296383426" lon="12.0008476584655"><ele>96.0</ele><time>2026-03-29T09:53:57Z</time></trkpt><trkpt lat="42.03522146445118" lon="12.000813373392102"><ele>96.0</ele><time>2026-03-29T09:53:58Z</time></trkpt><trkpt lat="42.035111329744936" lon="12.000784176388319"><ele>96.0</ele><time>2026-03-29T09:53:59Z</time></trkpt><trkpt lat="42.03500062074546" lon="12.000750635004975"><ele>92.75</ele><time>2026-03-29T09:54:00Z</time></trkpt><trkpt lat="42.034877709114994" lon="12.000717044230313"><ele>89.5</ele><time>2026-03-29T09:54:01Z</time></trkpt><trkpt lat="42.03476231468196" lon="12.000695136280985"><ele>86.25</ele><time>2026-03-29T09:54:02Z</time></trkpt><trkpt lat="42.034655799806345" lon="12.000667918071478"><ele>83.0</ele><time>2026-03-29T09:54:03Z</time></trkpt><trkpt lat="42.03454230710634" lon="12.000635650601211"><ele>83.0</ele><time>2026-03-29T09:54:04Z</time></trkpt><trkpt lat="42.03442658319789" lon="12.000606493540813"><ele>83.0</ele><time>2026-03-29T09:54:05Z</time></trkpt><trkpt lat="42.034310364341486" lon="12.000582964383677"><ele>83.0</ele><time>2026-03-29T09:54:06Z</time></trkpt><trkpt lat="42.03420365013588" lon="12.000571867307103"><ele>83.0</ele><time>2026-03-29T09:54:07Z</time></trkpt><trkpt lat="42.03409450084304" lon="12.000559401997723"><ele>81.75</ele><time>2026-03-29T09:54:08Z</time></trkpt><trkpt lat="42.03397912793626" lon="12.000555105771102"><ele>80.5</ele><time>2026-03-29T09:54:09Z</time></trkpt><trkpt lat="42.03384483733713" lon="12.000551385157321"><ele>79.25</ele><time>2026-03-29T09:54:10Z</time></trkpt><trkpt lat="42.03372008738808" lon="12.000543471243478"><ele>78.0</ele><time>2026-03-29T09:54:11Z</time></trkpt><trkpt lat="42.03358715016388" lon="12.000538566023137"><ele>78.0</ele><time>2026-03-29T09:54:12Z</time></trkpt><trkpt lat="42.033456308569846" lon="12.000524902345711"><ele>78.0</ele><time>2026-03-29T09:54:13Z</time></trkpt><trkpt lat="42.03333227564907" lon="12.00051915408094"><ele>78.0</ele><time>2026-03-29T09:54:14Z</time></trkpt><trkpt lat="42.03321322669263" lon="12.00050742953286"><ele>78.0</ele><time>2026-03-29T09:54:15Z</time></trkpt><trkpt lat="42.033095353091625" lon="12.000483590790498"><ele>77.25</ele><time>2026-03-29T09:54:16Z</time></trkpt><trkpt lat="42.0329693541505" lon="12.000468679148582"><ele>76.5</ele><time>2026-03-29T09:54:17Z</time></trkpt><trkpt lat="42.03284335340748" lon="12.000459271332927"><ele>75.75</ele><time>2026-03-29T09:54:18Z</time></trkpt><trkpt lat="42.032716048396374" lon="12.00044738253652"><ele>75.0</ele><time>2026-03-29T09:54:19Z</time></trkpt><trkpt lat="42.032592760208665" lon="12.000438311225112"><ele>73.25</ele><time>2026-03-29T09:54:20Z</time></trkpt><trkpt lat="42.03246603621691" lon="12.000421506137402"><ele>71.5</ele><time>2026-03-29T09:54:21Z</time></trkpt><trkpt lat="42.03234210555793" lon="12.000401807942298"><ele>69.75</ele><time>2026-03-29T09:54:22Z</time></trkpt><trkpt lat="42.032218349809824" lon="12.000384100158612"><ele>68.0</ele><time>2026-03-29T09:54:23Z</time></trkpt><trkpt lat="42.03209115342375" lon="12.00037065123097"><ele>68.0</ele><time>2026-03-29T09:54:24Z</time></trkpt><trkpt lat="42.031962747395795" lon="12.000360330468146"><ele>68.0</ele><time>2026-03-29T09:54:25Z</time></trkpt><trkpt lat="42.03183248640394" lon="12.000346720506917"><ele>68.0</ele><time>2026-03-29T09:54:26Z</time></trkpt><trkpt lat="42.031700518228575" lon="12.000328809322026"><ele>68.0</ele><time>2026-03-29T09:54:27Z</time></trkpt><trkpt lat="42.03156321413384" lon="12.000317793962664"><ele>67.0</ele><time>2026-03-29T09:54:28Z</time></trkpt><trkpt lat="42.03142240237672" lon="12.000305729088568"><ele>66.0</ele><time>2026-03-29T09:54:29Z</time></trkpt><trkpt lat="42.03128508587253" lon="12.000287794110132"><ele>65.0</ele><time>2026-03-29T09:54:30Z</time></trkpt><trkpt lat="42.03114629052227" lon="12.00027758973881"><ele>64.0</ele><time>2026-03-29T09:54:31Z</time></trkpt><trkpt lat="42.031009488460775" lon="12.000267496738184"><ele>64.0</ele><time>2026-03-29T09:54:32Z</time></trkpt><trkpt lat="42.0308711411854" lon="12.000258118206247"><ele>64.0</ele><time>2026-03-29T09:54:33Z</time></trkpt><trkpt lat="42.030732068153384" lon="12.000252909053197"><ele>64.0</ele><time>2026-03-29T09:54:34Z</time></trkpt><trkpt lat="42.030591154655674" lon="12.000251144225727"><ele>64.0</ele><time>2026-03-29T09:54:35Z</time></trkpt><trkpt lat="42.030464298084006" lon="12.000242220206633"><ele>62.6</ele><time>2026-03-29T09:54:36Z</time></trkpt><trkpt lat="42.03034486773635" lon="12.000240556612589"><ele>61.2</ele><time>2026-03-29T09:54:36.999Z</time></trkpt><trkpt lat="42.03022918400408" lon="12.000241762560673"><ele>59.800000000000004</ele><time>2026-03-29T09:54:37.999Z</time></trkpt><trkpt lat="42.030126757907325" lon="12.00024409830245"><ele>58.400000000000006</ele><time>2026-03-29T09:54:38.999Z</time></trkpt><trkpt lat="42.030020481597475" lon="12.000254274388242"><ele>57.0</ele><time>2026-03-29T09:54:39.999Z</time></trkpt><trkpt lat="42.02991806534267" lon="12.000269112720405"><ele>55.8</ele><time>2026-03-29T09:54:40.999Z</time></trkpt><trkpt lat="42.02981594275097" lon="12.00029670602697"><ele>54.6</ele><time>2026-03-29T09:54:41.999Z</time></trkpt><trkpt lat="42.02971021862665" lon="12.000307815990357"><ele>53.4</ele><time>2026-03-29T09:54:42.999Z</time></trkpt><trkpt lat="42.02959128642945" lon="12.000315835325095"><ele>52.199999999999996</ele><time>2026-03-29T09:54:43.999Z</time></trkpt><trkpt lat="42.029483514414494" lon="12.000321565096822"><ele>51.0</ele><time>2026-03-29T09:54:44.999Z</time></trkpt><trkpt lat="42.02937086906836" lon="12.000327553965766"><ele>51.0</ele><time>2026-03-29T09:54:45.999Z</time></trkpt><trkpt lat="42.029270787332976" lon="12.000464013335883"><ele>51.0</ele><time>2026-03-29T09:54:46.999Z</time></trkpt><trkpt lat="42.02917182982383" lon="12.00051082318405"><ele>51.0</ele><time>2026-03-29T09:54:47.999Z</time></trkpt><trkpt lat="42.029082139824396" lon="12.000563778982466"><ele>51.0</ele><time>2026-03-29T09:54:48.999Z</time></trkpt><trkpt lat="42.02898617445303" lon="12.000601738852817"><ele>51.0</ele><time>2026-03-29T09:54:49.999Z</time></trkpt><trkpt lat="42.02889131168327" lon="12.000634358319493"><ele>51.666666666666664</ele><time>2026-03-29T09:54:50.999Z</time></trkpt><trkpt lat="42.028797884153036" lon="12.00067318219642"><ele>52.33333333333333</ele><time>2026-03-29T09:54:51.999Z</time></trkpt><trkpt lat="42.028710160596304" lon="12.00071725264134"><ele>53.0</ele><time>2026-03-29T09:54:52.999Z</time></trkpt><trkpt lat="42.02863176438101" lon="12.000767199352715"><ele>53.666666666666664</ele><time>2026-03-29T09:54:53.999Z</time></trkpt><trkpt lat="42.028555846216996" lon="12.000812525264758"><ele>54.33333333333333</ele><time>2026-03-29T09:54:54.999Z</time></trkpt><trkpt lat="42.02848985481637" lon="12.000861133572991"><ele>55.0</ele><time>2026-03-29T09:54:55.999Z</time></trkpt><trkpt lat="42.02841884671289" lon="12.000910068825778"><ele>54.99999999999999</ele><time>2026-03-29T09:54:56.999Z</time></trkpt><trkpt lat="42.02836221471332" lon="12.000988005462393"><ele>55.0</ele><time>2026-03-29T09:54:57.999Z</time></trkpt><trkpt lat="42.0283280033976" lon="12.001089704720824"><ele>55.0</ele><time>2026-03-29T09:54:58.999Z</time></trkpt><trkpt lat="42.02833888678684" lon="12.001229246050796"><ele>55.0</ele><time>2026-03-29T09:54:59.999Z</time></trkpt><trkpt lat="42.02837774114677" lon="12.001312877476742"><ele>54.99999999999999</ele><time>2026-03-29T09:55:00.999Z</time></trkpt><trkpt lat="42.028417393095665" lon="12.001406757540742"><ele>55.0</ele><time>2026-03-29T09:55:01.999Z</time></trkpt><trkpt lat="42.02846159466651" lon="12.001512410144214"><ele>54.99999999999999</ele><time>2026-03-29T09:55:02.999Z</time></trkpt><trkpt lat="42.02851052550827" lon="12.001612236584561"><ele>55.0</ele><time>2026-03-29T09:55:03.999Z</time></trkpt><trkpt lat="42.028570746419966" lon="12.001693032232765"><ele>55.0</ele><time>2026-03-29T09:55:04.999Z</time></trkpt><trkpt lat="42.02860976862978" lon="12.001771677243562"><ele>55.0</ele><time>2026-03-29T09:55:05.999Z</time></trkpt><trkpt lat="42.028654404965415" lon="12.00186363404927"><ele>54.99999999999999</ele><time>2026-03-29T09:55:06.999Z</time></trkpt><trkpt lat="42.02869990883911" lon="12.001971192770814"><ele>55.0</ele><time>2026-03-29T09:55:07.999Z</time></trkpt><trkpt lat="42.02874905552379" lon="12.002056351603093"><ele>55.166666666666664</ele><time>2026-03-29T09:55:08.999Z</time></trkpt><trkpt lat="42.028809688901866" lon="12.002130649003107"><ele>55.33333333333333</ele><time>2026-03-29T09:55:09.999Z</time></trkpt><trkpt lat="42.028856529815606" lon="12.002223106328627"><ele>55.5</ele><time>2026-03-29T09:55:10.999Z</time></trkpt><trkpt lat="42.0289109072197" lon="12.002304580595402"><ele>55.66666666666667</ele><time>2026-03-29T09:55:11.999Z</time></trkpt><trkpt lat="42.0289607813243" lon="12.00238552167762"><ele>55.833333333333336</ele><time>2026-03-29T09:55:12.999Z</time></trkpt><trkpt lat="42.02902541138659" lon="12.002518920785928"><ele>56.0</ele><time>2026-03-29T09:55:14.999Z</time></trkpt><trkpt lat="42.029077574091936" lon="12.002571210545973"><ele>56.00000000000001</ele><time>2026-03-29T09:55:15.999Z</time></trkpt><trkpt lat="42.02912225766473" lon="12.002657406524706"><ele>56.0</ele><time>2026-03-29T09:55:16.999Z</time></trkpt><trkpt lat="42.02917847647714" lon="12.002746348296292"><ele>56.0</ele><time>2026-03-29T09:55:17.999Z</time></trkpt><trkpt lat="42.02923035907687" lon="12.002830636175498"><ele>56.0</ele><time>2026-03-29T09:55:18.999Z</time></trkpt><trkpt lat="42.02927323645052" lon="12.002907531898396"><ele>56.00000000000001</ele><time>2026-03-29T09:55:19.999Z</time></trkpt><trkpt lat="42.02931375535019" lon="12.002984886281206"><ele>56.0</ele><time>2026-03-29T09:55:20.999Z</time></trkpt><trkpt lat="42.029342337262435" lon="12.003075286649004"><ele>56.00000000000001</ele><time>2026-03-29T09:55:21.999Z</time></trkpt><trkpt lat="42.029388112864545" lon="12.00316308929296"><ele>56.0</ele><time>2026-03-29T09:55:22.999Z</time></trkpt><trkpt lat="42.02942974634802" lon="12.003242946906074"><ele>56.0</ele><time>2026-03-29T09:55:23.999Z</time></trkpt><trkpt lat="42.02948322098795" lon="12.003313729876432"><ele>56.0</ele><time>2026-03-29T09:55:24.999Z</time></trkpt><trkpt lat="42.02952158322038" lon="12.00340329710938"><ele>56.00000000000001</ele><time>2026-03-29T09:55:25.999Z</time></trkpt><trkpt lat="42.02957298319976" lon="12.00348623253584"><ele>56.0</ele><time>2026-03-29T09:55:26.999Z</time></trkpt><trkpt lat="42.02960785414937" lon="12.003567155354098"><ele>55.0</ele><time>2026-03-29T09:55:27.999Z</time></trkpt><trkpt lat="42.029704621499725" lon="12.003703830534931"><ele>53.99999999999999</ele><time>2026-03-29T09:55:29.999Z</time></trkpt><trkpt lat="42.02975252956947" lon="12.003796413117852"><ele>53.0</ele><time>2026-03-29T09:55:30.999Z</time></trkpt><trkpt lat="42.02979711595944" lon="12.003879898669197"><ele>52.0</ele><time>2026-03-29T09:55:31.999Z</time></trkpt><trkpt lat="42.02984030612426" lon="12.003973109939029"><ele>51.0</ele><time>2026-03-29T09:55:32.999Z</time></trkpt><trkpt lat="42.02988340139516" lon="12.004047571312109"><ele>51.0</ele><time>2026-03-29T09:55:33.999Z</time></trkpt><trkpt lat="42.02992555385809" lon="12.004120298532504"><ele>51.0</ele><time>2026-03-29T09:55:34.999Z</time></trkpt><trkpt lat="42.02997114253146" lon="12.004198954393472"><ele>51.0</ele><time>2026-03-29T09:55:35.999Z</time></trkpt><trkpt lat="42.03001237135075" lon="12.004270088077563"><ele>51.0</ele><time>2026-03-29T09:55:36.999Z</time></trkpt><trkpt lat="42.03005867090212" lon="12.004349970209146"><ele>51.0</ele><time>2026-03-29T09:55:37.999Z</time></trkpt><trkpt lat="42.030106910220056" lon="12.00441867215845"><ele>51.0</ele><time>2026-03-29T09:55:38.999Z</time></trkpt><trkpt lat="42.030143280903005" lon="12.004490436086021"><ele>51.0</ele><time>2026-03-29T09:55:39.999Z</time></trkpt><trkpt lat="42.0301931019744" lon="12.004552084048743"><ele>51.833333333333336</ele><time>2026-03-29T09:55:40.999Z</time></trkpt><trkpt lat="42.03023349577389" lon="12.004647510235644"><ele>52.66666666666667</ele><time>2026-03-29T09:55:41.999Z</time></trkpt><trkpt lat="42.030281272556074" lon="12.004726889164807"><ele>53.5</ele><time>2026-03-29T09:55:42.999Z</time></trkpt><trkpt lat="42.03033689769854" lon="12.004785040814482"><ele>54.333333333333336</ele><time>2026-03-29T09:55:43.999Z</time></trkpt><trkpt lat="42.030365497990616" lon="12.004861599476222"><ele>55.16666666666667</ele><time>2026-03-29T09:55:44.999Z</time></trkpt><trkpt lat="42.030411522969835" lon="12.004933558319863"><ele>56.0</ele><time>2026-03-29T09:55:45.999Z</time></trkpt><trkpt lat="42.03049300283894" lon="12.00506155078702"><ele>56.0</ele><time>2026-03-29T09:55:48Z</time></trkpt><trkpt lat="42.03057818271607" lon="12.00520155792264"><ele>55.99999999999999</ele><time>2026-03-29T09:55:50Z</time></trkpt><trkpt lat="42.03062515056336" lon="12.005285703069868"><ele>55.99999999999999</ele><time>2026-03-29T09:55:51Z</time></trkpt><trkpt lat="42.03068660291792" lon="12.005405582927448"><ele>56.0</ele><time>2026-03-29T09:55:53Z</time></trkpt><trkpt lat="42.0307431484097" lon="12.00552257068623"><ele>56.0</ele><time>2026-03-29T09:55:55Z</time></trkpt><trkpt lat="42.030801918273745" lon="12.005605559799"><ele>57.75</ele><time>2026-03-29T09:55:57Z</time></trkpt><trkpt lat="42.030855546571324" lon="12.005752141098116"><ele>59.5</ele><time>2026-03-29T09:55:59Z</time></trkpt><trkpt lat="42.030911623352345" lon="12.005862558381017"><ele>61.25</ele><time>2026-03-29T09:56:01Z</time></trkpt><trkpt lat="42.03097467712688" lon="12.00598671357255"><ele>63.0</ele><time>2026-03-29T09:56:03Z</time></trkpt><trkpt lat="42.03104728132034" lon="12.00612314243477"><ele>63.0</ele><time>2026-03-29T09:56:05Z</time></trkpt><trkpt lat="42.031088350198026" lon="12.006198924832479"><ele>63.0</ele><time>2026-03-29T09:56:06Z</time></trkpt><trkpt lat="42.031130042847636" lon="12.006273096261523"><ele>63.0</ele><time>2026-03-29T09:56:07Z</time></trkpt><trkpt lat="42.03118220800466" lon="12.006338679967262"><ele>63.0</ele><time>2026-03-29T09:56:08Z</time></trkpt><trkpt lat="42.031219709865475" lon="12.006411144746808"><ele>63.0</ele><time>2026-03-29T09:56:09Z</time></trkpt><trkpt lat="42.03125201139037" lon="12.006492023087686"><ele>63.0</ele><time>2026-03-29T09:56:10Z</time></trkpt><trkpt lat="42.03129872387669" lon="12.006581012070233"><ele>63.0</ele><time>2026-03-29T09:56:11Z</time></trkpt><trkpt lat="42.03134021886887" lon="12.006660123649093"><ele>63.0</ele><time>2026-03-29T09:56:12Z</time></trkpt><trkpt lat="42.03137687667807" lon="12.006730928967018"><ele>63.0</ele><time>2026-03-29T09:56:13Z</time></trkpt><trkpt lat="42.03142089703348" lon="12.00679568808998"><ele>63.0</ele><time>2026-03-29T09:56:14Z</time></trkpt><trkpt lat="42.03145480029748" lon="12.006883414119507"><ele>63.0</ele><time>2026-03-29T09:56:15Z</time></trkpt><trkpt lat="42.03149627727221" lon="12.0069654171807"><ele>63.0</ele><time>2026-03-29T09:56:16Z</time></trkpt><trkpt lat="42.03155492477369" lon="12.007046785694072"><ele>63.0</ele><time>2026-03-29T09:56:17Z</time></trkpt><trkpt lat="42.03158699400141" lon="12.007143368136774"><ele>63.0</ele><time>2026-03-29T09:56:18Z</time></trkpt><trkpt lat="42.031631027154326" lon="12.00722180144739"><ele>63.599999999999994</ele><time>2026-03-29T09:56:19Z</time></trkpt><trkpt lat="42.03167755196381" lon="12.007344391550815"><ele>64.19999999999999</ele><time>2026-03-29T09:56:21Z</time></trkpt><trkpt lat="42.03176588537798" lon="12.007485241203266"><ele>64.8</ele><time>2026-03-29T09:56:23Z</time></trkpt><trkpt lat="42.031807330806586" lon="12.007570965078143"><ele>65.39999999999999</ele><time>2026-03-29T09:56:24Z</time></trkpt><trkpt lat="42.03183143318186" lon="12.007656111083488"><ele>66.0</ele><time>2026-03-29T09:56:25Z</time></trkpt><trkpt lat="42.031871223051596" lon="12.007735464751127"><ele>66.33333333333333</ele><time>2026-03-29T09:56:26Z</time></trkpt><trkpt lat="42.03192651566953" lon="12.007807082764055"><ele>66.66666666666667</ele><time>2026-03-29T09:56:27Z</time></trkpt><trkpt lat="42.03197116726579" lon="12.007895971714898"><ele>67.0</ele><time>2026-03-29T09:56:28Z</time></trkpt><trkpt lat="42.03201370240723" lon="12.00797938094993"><ele>67.33333333333334</ele><time>2026-03-29T09:56:29Z</time></trkpt><trkpt lat="42.03204786894889" lon="12.008080497721174"><ele>67.66666666666667</ele><time>2026-03-29T09:56:30Z</time></trkpt><trkpt lat="42.03210867111078" lon="12.008159372680444"><ele>68.0</ele><time>2026-03-29T09:56:31Z</time></trkpt><trkpt lat="42.0321464984969" lon="12.008244518686071"><ele>68.0</ele><time>2026-03-29T09:56:32Z</time></trkpt><trkpt lat="42.032192465664046" lon="12.008324187322371"><ele>68.0</ele><time>2026-03-29T09:56:33Z</time></trkpt><trkpt lat="42.03223954996484" lon="12.00841270222519"><ele>68.0</ele><time>2026-03-29T09:56:34Z</time></trkpt><trkpt lat="42.03228307079552" lon="12.008497631590703"><ele>68.0</ele><time>2026-03-29T09:56:35Z</time></trkpt><trkpt lat="42.03232862301195" lon="12.008587004825856"><ele>68.0</ele><time>2026-03-29T09:56:36Z</time></trkpt><trkpt lat="42.03237442347742" lon="12.00867706414159"><ele>68.0</ele><time>2026-03-29T09:56:37Z</time></trkpt><trkpt lat="42.0324087622826" lon="12.00877637996608"><ele>68.66666666666667</ele><time>2026-03-29T09:56:38Z</time></trkpt><trkpt lat="42.03246694668078" lon="12.008851451459872"><ele>69.33333333333334</ele><time>2026-03-29T09:56:39Z</time></trkpt><trkpt lat="42.032512482816564" lon="12.00894317508402"><ele>70.0</ele><time>2026-03-29T09:56:40Z</time></trkpt><trkpt lat="42.03254396865188" lon="12.00904824751939"><ele>70.66666666666667</ele><time>2026-03-29T09:56:41Z</time></trkpt><trkpt lat="42.032585071396554" lon="12.009136447697353"><ele>71.33333333333333</ele><time>2026-03-29T09:56:42Z</time></trkpt><trkpt lat="42.03262337418578" lon="12.009219900885297"><ele>72.0</ele><time>2026-03-29T09:56:43Z</time></trkpt><trkpt lat="42.03266178703756" lon="12.009303593867548"><ele>72.5</ele><time>2026-03-29T09:56:43.999Z</time></trkpt><trkpt lat="42.032711916740666" lon="12.009375678393077"><ele>73.0</ele><time>2026-03-29T09:56:44.999Z</time></trkpt><trkpt lat="42.032753553954834" lon="12.009462531783406"><ele>73.5</ele><time>2026-03-29T09:56:45.999Z</time></trkpt><trkpt lat="42.0327956003052" lon="12.009544544433158"><ele>74.0</ele><time>2026-03-29T09:56:46.999Z</time></trkpt><trkpt lat="42.03283499691577" lon="12.009645067584799"><ele>74.5</ele><time>2026-03-29T09:56:47.999Z</time></trkpt><trkpt lat="42.03290366364495" lon="12.009736374942651"><ele>75.0</ele><time>2026-03-29T09:56:48.999Z</time></trkpt><trkpt lat="42.03295266284931" lon="12.009854094669135"><ele>75.0</ele><time>2026-03-29T09:56:49.999Z</time></trkpt><trkpt lat="42.03302273937995" lon="12.009941232466419"><ele>75.0</ele><time>2026-03-29T09:56:50.999Z</time></trkpt><trkpt lat="42.0330672314804" lon="12.010052178968053"><ele>75.0</ele><time>2026-03-29T09:56:51.999Z</time></trkpt><trkpt lat="42.03311546514301" lon="12.01013546295859"><ele>75.0</ele><time>2026-03-29T09:56:52.999Z</time></trkpt><trkpt lat="42.03317564684303" lon="12.010213793132198"><ele>75.0</ele><time>2026-03-29T09:56:53.999Z</time></trkpt><trkpt lat="42.03322512049918" lon="12.010295918175062"><ele>75.0</ele><time>2026-03-29T09:56:54.999Z</time></trkpt><trkpt lat="42.03327519154507" lon="12.010380351548248"><ele>76.0</ele><time>2026-03-29T09:56:55.999Z</time></trkpt><trkpt lat="42.03331289419122" lon="12.01048638675431"><ele>77.0</ele><time>2026-03-29T09:56:56.999Z</time></trkpt><trkpt lat="42.03336355774706" lon="12.010579542319498"><ele>78.0</ele><time>2026-03-29T09:56:57.999Z</time></trkpt><trkpt lat="42.03341652131121" lon="12.010678195267285"><ele>79.0</ele><time>2026-03-29T09:56:58.999Z</time></trkpt><trkpt lat="42.03347398272246" lon="12.010785301432009"><ele>80.0</ele><time>2026-03-29T09:56:59.999Z</time></trkpt><trkpt lat="42.03353138826312" lon="12.010892303852208"><ele>80.0</ele><time>2026-03-29T09:57:00.999Z</time></trkpt><trkpt lat="42.03359251871026" lon="12.011006249220099"><ele>80.0</ele><time>2026-03-29T09:57:01.999Z</time></trkpt><trkpt lat="42.03365639993632" lon="12.01112392592864"><ele>80.0</ele><time>2026-03-29T09:57:02.999Z</time></trkpt><trkpt lat="42.0337153034313" lon="12.01122715989143"><ele>80.0</ele><time>2026-03-29T09:57:03.999Z</time></trkpt><trkpt lat="42.0337821392249" lon="12.011311878048899"><ele>80.0</ele><time>2026-03-29T09:57:04.999Z</time></trkpt><trkpt lat="42.033816464207185" lon="12.011430201956047"><ele>80.0</ele><time>2026-03-29T09:57:05.999Z</time></trkpt><trkpt lat="42.03384445105545" lon="12.011531802339032"><ele>80.0</ele><time>2026-03-29T09:57:06.999Z</time></trkpt><trkpt lat="42.03387563240546" lon="12.011627130179654"><ele>80.0</ele><time>2026-03-29T09:57:07.999Z</time></trkpt><trkpt lat="42.0338445308367" lon="12.01170177195787"><ele>80.0</ele><time>2026-03-29T09:57:08.999Z</time></trkpt><trkpt lat="42.0340336563128" lon="12.011794478637373"><ele>80.0</ele><time>2026-03-29T09:57:10.999Z</time></trkpt><trkpt lat="42.03408574440611" lon="12.011911299512605"><ele>80.2</ele><time>2026-03-29T09:57:12.999Z</time></trkpt><trkpt lat="42.03411524376453" lon="12.01202883307188"><ele>80.4</ele><time>2026-03-29T09:57:14.999Z</time></trkpt><trkpt lat="42.034118837818134" lon="12.012140228354538"><ele>80.6</ele><time>2026-03-29T09:57:16.999Z</time></trkpt><trkpt lat="42.03412937355628" lon="12.012225582653288"><ele>80.8</ele><time>2026-03-29T09:57:17.999Z</time></trkpt><trkpt lat="42.034161711253894" lon="12.01238609413855"><ele>81.0</ele><time>2026-03-29T09:57:19.999Z</time></trkpt><trkpt lat="42.03419538362402" lon="12.012545577484433"><ele>79.2</ele><time>2026-03-29T09:57:21.999Z</time></trkpt><trkpt lat="42.03427020197318" lon="12.012672857829832"><ele>77.39999999999999</ele><time>2026-03-29T09:57:23.999Z</time></trkpt><trkpt lat="42.03433839776268" lon="12.012818243664409"><ele>75.6</ele><time>2026-03-29T09:57:25.999Z</time></trkpt><trkpt lat="42.03438300146966" lon="12.012886358198797"><ele>73.8</ele><time>2026-03-29T09:57:26.999Z</time></trkpt><trkpt lat="42.03443140747857" lon="12.01295327499399"><ele>72.0</ele><time>2026-03-29T09:57:27.999Z</time></trkpt><trkpt lat="42.034516094862695" lon="12.013061421789272"><ele>72.0</ele><time>2026-03-29T09:57:29.999Z</time></trkpt><trkpt lat="42.034589566514846" lon="12.013168094048128"><ele>72.0</ele><time>2026-03-29T09:57:31.999Z</time></trkpt><trkpt lat="42.03463892321761" lon="12.01323459166773"><ele>72.0</ele><time>2026-03-29T09:57:33.999Z</time></trkpt><trkpt lat="42.03470015895965" lon="12.013289799823923"><ele>72.0</ele><time>2026-03-29T09:57:36.999Z</time></trkpt><trkpt lat="42.034760320902016" lon="12.013348453736066"><ele>72.0</ele><time>2026-03-29T09:57:38.999Z</time></trkpt><trkpt lat="42.03483993951689" lon="12.013427506429442"><ele>72.0</ele><time>2026-03-29T09:57:40.999Z</time></trkpt><trkpt lat="42.03490898602145" lon="12.013482546826415"><ele>69.83333333333333</ele><time>2026-03-29T09:57:42.999Z</time></trkpt><trkpt lat="42.0349772847452" lon="12.013546807140322"><ele>67.66666666666667</ele><time>2026-03-29T09:57:44.999Z</time></trkpt><trkpt lat="42.03507076887022" lon="12.013590659193765"><ele>65.5</ele><time>2026-03-29T09:57:46.999Z</time></trkpt><trkpt lat="42.03515203900246" lon="12.01359284400351"><ele>63.333333333333336</ele><time>2026-03-29T09:57:48.999Z</time></trkpt><trkpt lat="42.03523579754858" lon="12.013567786440175"><ele>61.16666666666667</ele><time>2026-03-29T09:57:50.999Z</time></trkpt><trkpt lat="42.0353007787025" lon="12.013540071505233"><ele>59.0</ele><time>2026-03-29T09:57:53Z</time></trkpt><trkpt lat="42.035382671720335" lon="12.013564924969467"><ele>59.0</ele><time>2026-03-29T09:57:56Z</time></trkpt><trkpt lat="42.03544115046631" lon="12.01361526946091"><ele>59.00000000000001</ele><time>2026-03-29T09:57:58Z</time></trkpt><trkpt lat="42.0355070734147" lon="12.013703795500282"><ele>59.00000000000001</ele><time>2026-03-29T09:58:01Z</time></trkpt><trkpt lat="42.035482282220606" lon="12.013828228946265"><ele>59.0</ele><time>2026-03-29T09:58:04Z</time></trkpt><trkpt lat="42.03551109813632" lon="12.013929047517069"><ele>59.0</ele><time>2026-03-29T09:58:06Z</time></trkpt><trkpt lat="42.035526773016976" lon="12.014104610932138"><ele>58.400000000000006</ele><time>2026-03-29T09:58:08Z</time></trkpt><trkpt lat="42.03553952604881" lon="12.014201707577797"><ele>57.800000000000004</ele><time>2026-03-29T09:58:09Z</time></trkpt><trkpt lat="42.03556380934574" lon="12.014332087125277"><ele>57.199999999999996</ele><time>2026-03-29T09:58:10Z</time></trkpt><trkpt lat="42.03559774083725" lon="12.01446868352276"><ele>56.599999999999994</ele><time>2026-03-29T09:58:11Z</time></trkpt><trkpt lat="42.03563023090211" lon="12.01459895256683"><ele>56.0</ele><time>2026-03-29T09:58:12Z</time></trkpt><trkpt lat="42.035660754518744" lon="12.01473904865623"><ele>56.0</ele><time>2026-03-29T09:58:13Z</time></trkpt><trkpt lat="42.03569785238053" lon="12.0148748918688"><ele>55.99999999999999</ele><time>2026-03-29T09:58:14Z</time></trkpt><trkpt lat="42.035734421043195" lon="12.01501047843646"><ele>55.99999999999999</ele><time>2026-03-29T09:58:15Z</time></trkpt><trkpt lat="42.03575138292145" lon="12.015128110873125"><ele>56.0</ele><time>2026-03-29T09:58:16Z</time></trkpt><trkpt lat="42.03572520902131" lon="12.01526661889223"><ele>56.0</ele><time>2026-03-29T09:58:18Z</time></trkpt><trkpt lat="42.03565462645602" lon="12.01529433819962"><ele>56.50000000000001</ele><time>2026-03-29T09:58:19Z</time></trkpt><trkpt lat="42.03557252913572" lon="12.01529903219056"><ele>57.0</ele><time>2026-03-29T09:58:20Z</time></trkpt><trkpt lat="42.035497923141456" lon="12.01530408954985"><ele>57.5</ele><time>2026-03-29T09:58:21Z</time></trkpt><trkpt lat="42.035418008189765" lon="12.015299581453897"><ele>58.0</ele><time>2026-03-29T09:58:22Z</time></trkpt><trkpt lat="42.0353361714002" lon="12.015286709570972"><ele>58.50000000000001</ele><time>2026-03-29T09:58:23Z</time></trkpt><trkpt lat="42.03525817822468" lon="12.015263045031089"><ele>59.0</ele><time>2026-03-29T09:58:24Z</time></trkpt><trkpt lat="42.03519417838556" lon="12.015263431759543"><ele>59.00000000000001</ele><time>2026-03-29T09:58:25Z</time></trkpt><trkpt lat="42.0351200446295" lon="12.015276354732153"><ele>59.0</ele><time>2026-03-29T09:58:27Z</time></trkpt><trkpt lat="42.03500039562716" lon="12.015292424931712"><ele>59.0</ele><time>2026-03-29T09:58:29Z</time></trkpt><trkpt lat="42.03492509995283" lon="12.01531978517247"><ele>59.0</ele><time>2026-03-29T09:58:30Z</time></trkpt><trkpt lat="42.03484587222525" lon="12.01535534176772"><ele>59.00000000000001</ele><time>2026-03-29T09:58:31Z</time></trkpt><trkpt lat="42.03476114659436" lon="12.015369745717612"><ele>59.0</ele><time>2026-03-29T09:58:32Z</time></trkpt><trkpt lat="42.034663837906706" lon="12.015380999553427"><ele>58.333333333333336</ele><time>2026-03-29T09:58:33Z</time></trkpt><trkpt lat="42.034562022899095" lon="12.015401716173498"><ele>57.66666666666667</ele><time>2026-03-29T09:58:34Z</time></trkpt><trkpt lat="42.03446828939113" lon="12.0154095055387"><ele>57.0</ele><time>2026-03-29T09:58:35Z</time></trkpt><trkpt lat="42.034377345782715" lon="12.01541513634695"><ele>56.33333333333333</ele><time>2026-03-29T09:58:36Z</time></trkpt><trkpt lat="42.03430699362176" lon="12.015443865640169"><ele>55.666666666666664</ele><time>2026-03-29T09:58:37Z</time></trkpt><trkpt lat="42.03423225543422" lon="12.015477246559394"><ele>55.0</ele><time>2026-03-29T09:58:38Z</time></trkpt><trkpt lat="42.03415890750148" lon="12.015484643583143"><ele>54.83333333333333</ele><time>2026-03-29T09:58:39Z</time></trkpt><trkpt lat="42.03409011460506" lon="12.015527378734111"><ele>54.666666666666664</ele><time>2026-03-29T09:58:40Z</time></trkpt><trkpt lat="42.03402548259848" lon="12.01556602035592"><ele>54.5</ele><time>2026-03-29T09:58:41Z</time></trkpt><trkpt lat="42.03394737435285" lon="12.015614853393036"><ele>54.33333333333333</ele><time>2026-03-29T09:58:42Z</time></trkpt><trkpt lat="42.03387729915625" lon="12.015682052225213"><ele>54.166666666666664</ele><time>2026-03-29T09:58:43Z</time></trkpt><trkpt lat="42.03382156178929" lon="12.015762672085923"><ele>54.0</ele><time>2026-03-29T09:58:44Z</time></trkpt><trkpt lat="42.0337896200703" lon="12.015907494425802"><ele>54.0</ele><time>2026-03-29T09:58:46Z</time></trkpt><trkpt lat="42.03369302193229" lon="12.016000228584216"><ele>54.00000000000001</ele><time>2026-03-29T09:58:48Z</time></trkpt><trkpt lat="42.03362476373759" lon="12.016040118775804"><ele>54.00000000000001</ele><time>2026-03-29T09:58:49Z</time></trkpt><trkpt lat="42.033574086749454" lon="12.016118051858781"><ele>54.0</ele><time>2026-03-29T09:58:50Z</time></trkpt><trkpt lat="42.03353630140361" lon="12.016194443551246"><ele>54.0</ele><time>2026-03-29T09:58:51Z</time></trkpt><trkpt lat="42.033497389740525" lon="12.01638404204892"><ele>54.0</ele><time>2026-03-29T09:58:52.999Z</time></trkpt><trkpt lat="42.0334349611622" lon="12.016510959557355"><ele>54.0</ele><time>2026-03-29T09:58:54.999Z</time></trkpt><trkpt lat="42.033368069407146" lon="12.016549837666979"><ele>54.0</ele><time>2026-03-29T09:58:56.999Z</time></trkpt><trkpt lat="42.03329714138084" lon="12.016533600540091"><ele>54.0</ele><time>2026-03-29T09:58:57.999Z</time></trkpt><trkpt lat="42.03323327769919" lon="12.016556159996105"><ele>54.0</ele><time>2026-03-29T09:58:58.999Z</time></trkpt><trkpt lat="42.033168401510345" lon="12.016631268879133"><ele>54.0</ele><time>2026-03-29T09:58:59.999Z</time></trkpt><trkpt lat="42.0331004453647" lon="12.016718718464174"><ele>54.0</ele><time>2026-03-29T09:59:00.999Z</time></trkpt><trkpt lat="42.03304892286041" lon="12.016807959387084"><ele>54.0</ele><time>2026-03-29T09:59:01.999Z</time></trkpt><trkpt lat="42.032963886645355" lon="12.01687348573882"><ele>54.0</ele><time>2026-03-29T09:59:02.999Z</time></trkpt><trkpt lat="42.03288018240634" lon="12.016931779347834"><ele>54.0</ele><time>2026-03-29T09:59:03.999Z</time></trkpt><trkpt lat="42.03279956557794" lon="12.01697986382827"><ele>54.0</ele><time>2026-03-29T09:59:04.999Z</time></trkpt><trkpt lat="42.032728316844505" lon="12.017010549183722"><ele>54.0</ele><time>2026-03-29T09:59:05.999Z</time></trkpt><trkpt lat="42.03266394415912" lon="12.017065963388669"><ele>54.0</ele><time>2026-03-29T09:59:06.999Z</time></trkpt><trkpt lat="42.03258141967994" lon="12.017156139522315"><ele>54.00000000000001</ele><time>2026-03-29T09:59:08.999Z</time></trkpt><trkpt lat="42.032493000710694" lon="12.01723932369014"><ele>54.00000000000001</ele><time>2026-03-29T09:59:10.999Z</time></trkpt><trkpt lat="42.03240844197262" lon="12.017302027993448"><ele>54.0</ele><time>2026-03-29T09:59:12.999Z</time></trkpt><trkpt lat="42.03232641588231" lon="12.017368570043855"><ele>54.0</ele><time>2026-03-29T09:59:14.999Z</time></trkpt><trkpt lat="42.03224457700178" lon="12.01747624751953"><ele>52.833333333333336</ele><time>2026-03-29T09:59:16.999Z</time></trkpt><trkpt lat="42.03218748576408" lon="12.017526272930592"><ele>51.666666666666664</ele><time>2026-03-29T09:59:17.999Z</time></trkpt><trkpt lat="42.03212995333624" lon="12.01756989207663"><ele>50.5</ele><time>2026-03-29T09:59:18.999Z</time></trkpt><trkpt lat="42.032030733074144" lon="12.017638417054403"><ele>49.33333333333333</ele><time>2026-03-29T09:59:20.999Z</time></trkpt><trkpt lat="42.03197811944117" lon="12.017700033878821"><ele>48.166666666666664</ele><time>2026-03-29T09:59:21.999Z</time></trkpt><trkpt lat="42.031930091310755" lon="12.017761370094908"><ele>47.0</ele><time>2026-03-29T09:59:22.999Z</time></trkpt><trkpt lat="42.03188371822342" lon="12.017829879766811"><ele>47.0</ele><time>2026-03-29T09:59:23.999Z</time></trkpt><trkpt lat="42.03183813587204" lon="12.017893250677458"><ele>47.0</ele><time>2026-03-29T09:59:24.999Z</time></trkpt><trkpt lat="42.031764228250225" lon="12.017987519420666"><ele>47.0</ele><time>2026-03-29T09:59:26.999Z</time></trkpt><trkpt lat="42.03169323215314" lon="12.01806888247503"><ele>47.0</ele><time>2026-03-29T09:59:28.999Z</time></trkpt><trkpt lat="42.03161934146814" lon="12.018133617923336"><ele>47.0</ele><time>2026-03-29T09:59:30.999Z</time></trkpt><trkpt lat="42.03155624322087" lon="12.018106972948068"><ele>47.0</ele><time>2026-03-29T09:59:32.999Z</time></trkpt><trkpt lat="42.03146349950518" lon="12.018073641836764"><ele>46.400000000000006</ele><time>2026-03-29T09:59:35.999Z</time></trkpt><trkpt lat="42.031370377013154" lon="12.01814401219075"><ele>45.800000000000004</ele><time>2026-03-29T09:59:40.999Z</time></trkpt><trkpt lat="42.031259035233" lon="12.018260023354253"><ele>45.2</ele><time>2026-03-29T09:59:43.999Z</time></trkpt><trkpt lat="42.03120350455963" lon="12.018329795887619"><ele>44.6</ele><time>2026-03-29T09:59:45.999Z</time></trkpt><trkpt lat="42.031125163797434" lon="12.018402627749007"><ele>44.0</ele><time>2026-03-29T09:59:46.999Z</time></trkpt><trkpt lat="42.03101510000838" lon="12.018532009700616"><ele>44.0</ele><time>2026-03-29T09:59:47.999Z</time></trkpt><trkpt lat="42.03087858373695" lon="12.018679364065283"><ele>44.0</ele><time>2026-03-29T09:59:48.999Z</time></trkpt><trkpt lat="42.03076315249231" lon="12.01882996775125"><ele>44.0</ele><time>2026-03-29T09:59:49.999Z</time></trkpt><trkpt lat="42.03062144000539" lon="12.019025991232526"><ele>43.666666666666664</ele><time>2026-03-29T09:59:50.999Z</time></trkpt><trkpt lat="42.03050106193572" lon="12.019168289211123"><ele>43.333333333333336</ele><time>2026-03-29T09:59:51.999Z</time></trkpt><trkpt lat="42.03035861516702" lon="12.019332071314368"><ele>43.0</ele><time>2026-03-29T09:59:52.999Z</time></trkpt><trkpt lat="42.03022288037246" lon="12.019484257632069"><ele>43.0</ele><time>2026-03-29T09:59:53.999Z</time></trkpt><trkpt lat="42.03011693530638" lon="12.019603043619911"><ele>43.0</ele><time>2026-03-29T09:59:54.999Z</time></trkpt><trkpt lat="42.03005511249396" lon="12.019672359450137"><ele>43.0</ele><time>2026-03-29T09:59:55.999Z</time></trkpt><trkpt lat="42.02996170357884" lon="12.019789282505265"><ele>43.0</ele><time>2026-03-29T09:59:56.999Z</time></trkpt><trkpt lat="42.029862012691765" lon="12.019875240910542"><ele>42.599999999999994</ele><time>2026-03-29T09:59:57.999Z</time></trkpt><trkpt lat="42.02978438041842" lon="12.019978902527832"><ele>42.199999999999996</ele><time>2026-03-29T09:59:59Z</time></trkpt><trkpt lat="42.02971735038672" lon="12.020034820653384"><ele>41.8</ele><time>2026-03-29T10:00:00Z</time></trkpt><trkpt lat="42.02967614109517" lon="12.020133275777015"><ele>41.4</ele><time>2026-03-29T10:00:01Z</time></trkpt><trkpt lat="42.02962019247988" lon="12.02019468181037"><ele>41.0</ele><time>2026-03-29T10:00:02Z</time></trkpt><trkpt lat="42.02958456077858" lon="12.020343082415485"><ele>41.0</ele><time>2026-03-29T10:00:03Z</time></trkpt><trkpt lat="42.0295704953892" lon="12.020499459839817"><ele>41.0</ele><time>2026-03-29T10:00:04Z</time></trkpt><trkpt lat="42.02957190317227" lon="12.020681451958042"><ele>41.0</ele><time>2026-03-29T10:00:05Z</time></trkpt><trkpt lat="42.029541192670386" lon="12.020901763644588"><ele>41.0</ele><time>2026-03-29T10:00:06Z</time></trkpt><trkpt lat="42.02951444825264" lon="12.021044584801698"><ele>41.8</ele><time>2026-03-29T10:00:07Z</time></trkpt><trkpt lat="42.0294914612485" lon="12.021201021133253"><ele>42.599999999999994</ele><time>2026-03-29T10:00:08Z</time></trkpt><trkpt lat="42.02948233666341" lon="12.021336730411406"><ele>43.4</ele><time>2026-03-29T10:00:09Z</time></trkpt><trkpt lat="42.029469168945724" lon="12.02149706950646"><ele>44.2</ele><time>2026-03-29T10:00:10Z</time></trkpt><trkpt lat="42.02944982589934" lon="12.021639139524837"><ele>45.0</ele><time>2026-03-29T10:00:11Z</time></trkpt><trkpt lat="42.02943297923437" lon="12.021788836819427"><ele>46.0</ele><time>2026-03-29T10:00:12Z</time></trkpt><trkpt lat="42.029413799794106" lon="12.02195679072828"><ele>47.0</ele><time>2026-03-29T10:00:13Z</time></trkpt><trkpt lat="42.029397085852494" lon="12.022082196461382"><ele>48.0</ele><time>2026-03-29T10:00:14Z</time></trkpt><trkpt lat="42.02938229438272" lon="12.022206434717356"><ele>49.0</ele><time>2026-03-29T10:00:15Z</time></trkpt><trkpt lat="42.029358767148096" lon="12.022341773383133"><ele>50.0</ele><time>2026-03-29T10:00:16Z</time></trkpt><trkpt lat="42.02934767135269" lon="12.022449538404967"><ele>50.8</ele><time>2026-03-29T10:00:17Z</time></trkpt><trkpt lat="42.029341245350224" lon="12.022595303127547"><ele>51.6</ele><time>2026-03-29T10:00:19Z</time></trkpt><trkpt lat="42.02934101001788" lon="12.022748054904412"><ele>52.400000000000006</ele><time>2026-03-29T10:00:21Z</time></trkpt><trkpt lat="42.02931306172704" lon="12.022852964687084"><ele>53.2</ele><time>2026-03-29T10:00:22Z</time></trkpt><trkpt lat="42.02928189933672" lon="12.022954349670943"><ele>54.0</ele><time>2026-03-29T10:00:23Z</time></trkpt><trkpt lat="42.02927004407182" lon="12.023069211664488"><ele>54.0</ele><time>2026-03-29T10:00:24Z</time></trkpt><trkpt lat="42.02926059418736" lon="12.023212404938961"><ele>54.00000000000001</ele><time>2026-03-29T10:00:25Z</time></trkpt><trkpt lat="42.02925274256114" lon="12.023365868567609"><ele>54.00000000000001</ele><time>2026-03-29T10:00:26Z</time></trkpt><trkpt lat="42.02924609991289" lon="12.023505968390207"><ele>54.0</ele><time>2026-03-29T10:00:27Z</time></trkpt><trkpt lat="42.02925479617843" lon="12.023656154358818"><ele>54.0</ele><time>2026-03-29T10:00:28Z</time></trkpt><trkpt lat="42.029252884554985" lon="12.02381531535897"><ele>53.5</ele><time>2026-03-29T10:00:29Z</time></trkpt><trkpt lat="42.02924437334595" lon="12.023993525459522"><ele>53.0</ele><time>2026-03-29T10:00:30Z</time></trkpt><trkpt lat="42.029232699721355" lon="12.02415589905157"><ele>52.5</ele><time>2026-03-29T10:00:31Z</time></trkpt><trkpt lat="42.029214485134716" lon="12.024329036197933"><ele>52.0</ele><time>2026-03-29T10:00:32Z</time></trkpt><trkpt lat="42.029189898855336" lon="12.024489187062477"><ele>50.75</ele><time>2026-03-29T10:00:33Z</time></trkpt><trkpt lat="42.029161217142985" lon="12.024633714343281"><ele>49.5</ele><time>2026-03-29T10:00:34Z</time></trkpt><trkpt lat="42.029123644437995" lon="12.02477932529112"><ele>48.25</ele><time>2026-03-29T10:00:35Z</time></trkpt><trkpt lat="42.029078301197565" lon="12.024920602286336"><ele>47.0</ele><time>2026-03-29T10:00:36Z</time></trkpt><trkpt lat="42.029029209807355" lon="12.025060181228984"><ele>45.8</ele><time>2026-03-29T10:00:37Z</time></trkpt><trkpt lat="42.028977190846646" lon="12.025175936582224"><ele>44.6</ele><time>2026-03-29T10:00:38Z</time></trkpt><trkpt lat="42.02890917538818" lon="12.02528411386662"><ele>43.4</ele><time>2026-03-29T10:00:39Z</time></trkpt><trkpt lat="42.028828943969515" lon="12.025386858352716"><ele>42.199999999999996</ele><time>2026-03-29T10:00:40Z</time></trkpt><trkpt lat="42.02875179845605" lon="12.025498871386253"><ele>41.0</ele><time>2026-03-29T10:00:41Z</time></trkpt><trkpt lat="42.02864336542736" lon="12.025600070407021"><ele>41.0</ele><time>2026-03-29T10:00:42Z</time></trkpt><trkpt lat="42.02851383174927" lon="12.025673773699248"><ele>41.0</ele><time>2026-03-29T10:00:43Z</time></trkpt><trkpt lat="42.02837324501753" lon="12.025695423141148"><ele>41.0</ele><time>2026-03-29T10:00:44Z</time></trkpt><trkpt lat="42.028226316148036" lon="12.025749981069012"><ele>41.0</ele><time>2026-03-29T10:00:45Z</time></trkpt><trkpt lat="42.02806767580962" lon="12.02578216904785"><ele>41.25</ele><time>2026-03-29T10:00:46Z</time></trkpt><trkpt lat="42.0279248458835" lon="12.02580291328316"><ele>41.5</ele><time>2026-03-29T10:00:47Z</time></trkpt><trkpt lat="42.02777773388259" lon="12.025821342989651"><ele>41.75</ele><time>2026-03-29T10:00:48Z</time></trkpt><trkpt lat="42.02762806619387" lon="12.025840037505816"><ele>42.0</ele><time>2026-03-29T10:00:49Z</time></trkpt><trkpt lat="42.027479469932764" lon="12.025846419180123"><ele>43.666666666666664</ele><time>2026-03-29T10:00:50Z</time></trkpt><trkpt lat="42.02732612474718" lon="12.025845790941432"><ele>45.33333333333333</ele><time>2026-03-29T10:00:51Z</time></trkpt><trkpt lat="42.027163608232485" lon="12.025856352179273"><ele>47.0</ele><time>2026-03-29T10:00:52Z</time></trkpt><trkpt lat="42.0269937809452" lon="12.025871818273306"><ele>47.0</ele><time>2026-03-29T10:00:53Z</time></trkpt><trkpt lat="42.02681931268222" lon="12.02589277464046"><ele>47.0</ele><time>2026-03-29T10:00:54Z</time></trkpt><trkpt lat="42.026665963055876" lon="12.025918734982563"><ele>47.0</ele><time>2026-03-29T10:00:55Z</time></trkpt><trkpt lat="42.026517316594536" lon="12.025934508329843"><ele>47.0</ele><time>2026-03-29T10:00:56Z</time></trkpt><trkpt lat="42.02637177504098" lon="12.025938896123233"><ele>47.0</ele><time>2026-03-29T10:00:57Z</time></trkpt><trkpt lat="42.026222318334526" lon="12.025950139578594"><ele>47.0</ele><time>2026-03-29T10:00:57.999Z</time></trkpt><trkpt lat="42.0260778202027" lon="12.025961363700988"><ele>47.0</ele><time>2026-03-29T10:00:58.999Z</time></trkpt><trkpt lat="42.02593005937031" lon="12.025977467386479"><ele>46.5</ele><time>2026-03-29T10:00:59.999Z</time></trkpt><trkpt lat="42.025783667962386" lon="12.02599879896592"><ele>46.0</ele><time>2026-03-29T10:01:00.999Z</time></trkpt><trkpt lat="42.0256410074887" lon="12.02602115992545"><ele>45.5</ele><time>2026-03-29T10:01:01.999Z</time></trkpt><trkpt lat="42.02550874957327" lon="12.026043004747885"><ele>45.0</ele><time>2026-03-29T10:01:02.999Z</time></trkpt><trkpt lat="42.02539191851993" lon="12.026066035095035"><ele>45.0</ele><time>2026-03-29T10:01:03.999Z</time></trkpt><trkpt lat="42.02528768066514" lon="12.026069144233059"><ele>45.0</ele><time>2026-03-29T10:01:04.999Z</time></trkpt><trkpt lat="42.025190593301026" lon="12.02610318264508"><ele>45.0</ele><time>2026-03-29T10:01:05.999Z</time></trkpt><trkpt lat="42.02512328656849" lon="12.026166728457195"><ele>45.0</ele><time>2026-03-29T10:01:06.999Z</time></trkpt><trkpt lat="42.02507354344835" lon="12.026303410535494"><ele>45.0</ele><time>2026-03-29T10:01:07.999Z</time></trkpt><trkpt lat="42.02503419590979" lon="12.026429411804465"><ele>45.0</ele><time>2026-03-29T10:01:08.999Z</time></trkpt><trkpt lat="42.02502246588923" lon="12.026531501426797"><ele>45.0</ele><time>2026-03-29T10:01:09.999Z</time></trkpt><trkpt lat="42.025010895255406" lon="12.026629290040681"><ele>45.0</ele><time>2026-03-29T10:01:10.999Z</time></trkpt><trkpt lat="42.02498707703753" lon="12.026817497483576"><ele>45.0</ele><time>2026-03-29T10:01:12.999Z</time></trkpt><trkpt lat="42.02496152749918" lon="12.026943182088795"><ele>45.0</ele><time>2026-03-29T10:01:13.999Z</time></trkpt><trkpt lat="42.02493817767044" lon="12.027075286575114"><ele>45.75</ele><time>2026-03-29T10:01:14.999Z</time></trkpt><trkpt lat="42.024913647392815" lon="12.027212185381975"><ele>46.5</ele><time>2026-03-29T10:01:15.999Z</time></trkpt><trkpt lat="42.02488890962617" lon="12.02736439550618"><ele>47.25</ele><time>2026-03-29T10:01:16.999Z</time></trkpt><trkpt lat="42.02485717088449" lon="12.027527245710381"><ele>48.0</ele><time>2026-03-29T10:01:17.999Z</time></trkpt><trkpt lat="42.02483256469608" lon="12.0276836862668"><ele>48.5</ele><time>2026-03-29T10:01:18.999Z</time></trkpt><trkpt lat="42.02479433899058" lon="12.02782844141155"><ele>49.0</ele><time>2026-03-29T10:01:19.999Z</time></trkpt><trkpt lat="42.024770584538985" lon="12.027987341422806"><ele>49.5</ele><time>2026-03-29T10:01:20.999Z</time></trkpt><trkpt lat="42.024745439000554" lon="12.028169052518809"><ele>50.0</ele><time>2026-03-29T10:01:21.999Z</time></trkpt><trkpt lat="42.02470901818183" lon="12.028347980324877"><ele>50.25</ele><time>2026-03-29T10:01:22.999Z</time></trkpt><trkpt lat="42.02468161186201" lon="12.028516091747917"><ele>50.5</ele><time>2026-03-29T10:01:23.999Z</time></trkpt><trkpt lat="42.024658300863706" lon="12.028681272171497"><ele>50.75</ele><time>2026-03-29T10:01:24.999Z</time></trkpt><trkpt lat="42.02462012261696" lon="12.028841020831468"><ele>51.0</ele><time>2026-03-29T10:01:25.999Z</time></trkpt><trkpt lat="42.02459442488276" lon="12.028990908991426"><ele>51.0</ele><time>2026-03-29T10:01:26.999Z</time></trkpt><trkpt lat="42.02457114149913" lon="12.029127040183704"><ele>51.0</ele><time>2026-03-29T10:01:27.999Z</time></trkpt><trkpt lat="42.02455097261849" lon="12.029247934387918"><ele>51.0</ele><time>2026-03-29T10:01:28.999Z</time></trkpt><trkpt lat="42.024532062660725" lon="12.02936128229973"><ele>51.0</ele><time>2026-03-29T10:01:29.999Z</time></trkpt><trkpt lat="42.024517483930666" lon="12.02944630633725"><ele>51.0</ele><time>2026-03-29T10:01:30.999Z</time></trkpt><trkpt lat="42.024497576089736" lon="12.029546564982528"><ele>51.0</ele><time>2026-03-29T10:01:32.999Z</time></trkpt><trkpt lat="42.0244053065029" lon="12.029567747627045"><ele>50.8</ele><time>2026-03-29T10:02:01.999Z</time></trkpt><trkpt lat="42.02431740402686" lon="12.02952624246275"><ele>50.599999999999994</ele><time>2026-03-29T10:02:02.999Z</time></trkpt><trkpt lat="42.024221165842675" lon="12.029484978127101"><ele>50.4</ele><time>2026-03-29T10:02:03.999Z</time></trkpt><trkpt lat="42.02411147563112" lon="12.029450271919988"><ele>50.2</ele><time>2026-03-29T10:02:05Z</time></trkpt><trkpt lat="42.0240069902738" lon="12.029407805574442"><ele>50.0</ele><time>2026-03-29T10:02:06Z</time></trkpt><trkpt lat="42.0239005502728" lon="12.029360827659115"><ele>49.6</ele><time>2026-03-29T10:02:07Z</time></trkpt><trkpt lat="42.02379397224636" lon="12.029319046636212"><ele>49.2</ele><time>2026-03-29T10:02:08Z</time></trkpt><trkpt lat="42.023684764935254" lon="12.02928505816643"><ele>48.8</ele><time>2026-03-29T10:02:09Z</time></trkpt><trkpt lat="42.02358299923023" lon="12.029247180421864"><ele>48.4</ele><time>2026-03-29T10:02:10Z</time></trkpt><trkpt lat="42.02348313174314" lon="12.02921479573591"><ele>48.0</ele><time>2026-03-29T10:02:11Z</time></trkpt><trkpt lat="42.023386013480696" lon="12.029178244204015"><ele>47.4</ele><time>2026-03-29T10:02:12Z</time></trkpt><trkpt lat="42.02329617583813" lon="12.029141158360288"><ele>46.8</ele><time>2026-03-29T10:02:13Z</time></trkpt><trkpt lat="42.02320468279938" lon="12.029109145418166"><ele>46.2</ele><time>2026-03-29T10:02:14Z</time></trkpt><trkpt lat="42.02312515054279" lon="12.029083981623838"><ele>45.6</ele><time>2026-03-29T10:02:15Z</time></trkpt><trkpt lat="42.023051058817416" lon="12.029060314746234"><ele>45.0</ele><time>2026-03-29T10:02:16Z</time></trkpt><trkpt lat="42.02294625719163" lon="12.02900498083761"><ele>45.666666666666664</ele><time>2026-03-29T10:02:18Z</time></trkpt><trkpt lat="42.02290446822992" lon="12.02927233143349"><ele>46.33333333333333</ele><time>2026-03-29T10:02:21Z</time></trkpt><trkpt lat="42.022856139449104" lon="12.029437243146539"><ele>47.0</ele><time>2026-03-29T10:02:22Z</time></trkpt><trkpt lat="42.02275401042172" lon="12.029652226396253"><ele>47.0</ele><time>2026-03-29T10:02:23Z</time></trkpt><trkpt lat="42.02268582149936" lon="12.02989064790187"><ele>47.0</ele><time>2026-03-29T10:02:24Z</time></trkpt><trkpt lat="42.022604374655316" lon="12.030092307569685"><ele>47.0</ele><time>2026-03-29T10:02:25Z</time></trkpt><trkpt lat="42.02251630780144" lon="12.030275001246826"><ele>46.0</ele><time>2026-03-29T10:02:26Z</time></trkpt><trkpt lat="42.02246366842753" lon="12.030445560923164"><ele>45.0</ele><time>2026-03-29T10:02:27Z</time></trkpt><trkpt lat="42.02240764116256" lon="12.030599100986139"><ele>44.0</ele><time>2026-03-29T10:02:28Z</time></trkpt><trkpt lat="42.022336594688234" lon="12.03076776382516"><ele>43.0</ele><time>2026-03-29T10:02:29Z</time></trkpt><trkpt lat="42.02226139734968" lon="12.030934293747373"><ele>43.0</ele><time>2026-03-29T10:02:30Z</time></trkpt><trkpt lat="42.02219117257503" lon="12.031106760337165"><ele>43.0</ele><time>2026-03-29T10:02:31Z</time></trkpt><trkpt lat="42.022128362837044" lon="12.031271214725665"><ele>43.0</ele><time>2026-03-29T10:02:32Z</time></trkpt><trkpt lat="42.022057442314896" lon="12.03141421475789"><ele>43.0</ele><time>2026-03-29T10:02:33Z</time></trkpt><trkpt lat="42.02199591262639" lon="12.031577003364264"><ele>43.25</ele><time>2026-03-29T10:02:34Z</time></trkpt><trkpt lat="42.02194646567178" lon="12.031748400666014"><ele>43.5</ele><time>2026-03-29T10:02:35Z</time></trkpt><trkpt lat="42.0218914527" lon="12.031903798264176"><ele>43.75</ele><time>2026-03-29T10:02:36Z</time></trkpt><trkpt lat="42.02185008272003" lon="12.032056643707495"><ele>44.0</ele><time>2026-03-29T10:02:37Z</time></trkpt><trkpt lat="42.02181881085057" lon="12.032217335455401"><ele>44.0</ele><time>2026-03-29T10:02:38Z</time></trkpt><trkpt lat="42.02180161288921" lon="12.03238234821221"><ele>44.0</ele><time>2026-03-29T10:02:39Z</time></trkpt><trkpt lat="42.021804436949424" lon="12.032572177651703"><ele>44.0</ele><time>2026-03-29T10:02:40Z</time></trkpt><trkpt lat="42.02183474310651" lon="12.032757162344316"><ele>44.0</ele><time>2026-03-29T10:02:41Z</time></trkpt><trkpt lat="42.02186994028026" lon="12.032956793272398"><ele>44.0</ele><time>2026-03-29T10:02:42Z</time></trkpt><trkpt lat="42.02189891988333" lon="12.033158999741152"><ele>44.0</ele><time>2026-03-29T10:02:43Z</time></trkpt><trkpt lat="42.02192365432135" lon="12.033355796790282"><ele>44.0</ele><time>2026-03-29T10:02:44Z</time></trkpt><trkpt lat="42.02195392481082" lon="12.033559828989043"><ele>44.0</ele><time>2026-03-29T10:02:45Z</time></trkpt><trkpt lat="42.021982557568556" lon="12.03375319001371"><ele>44.0</ele><time>2026-03-29T10:02:46Z</time></trkpt><trkpt lat="42.02201111910983" lon="12.033960918076236"><ele>44.0</ele><time>2026-03-29T10:02:47Z</time></trkpt><trkpt lat="42.02202973612335" lon="12.034156347371736"><ele>44.0</ele><time>2026-03-29T10:02:48Z</time></trkpt><trkpt lat="42.02206119303333" lon="12.03435335540617"><ele>44.0</ele><time>2026-03-29T10:02:49Z</time></trkpt><trkpt lat="42.02209185499539" lon="12.034548122539166"><ele>44.0</ele><time>2026-03-29T10:02:50Z</time></trkpt><trkpt lat="42.022121380142266" lon="12.034742619907597"><ele>44.0</ele><time>2026-03-29T10:02:51Z</time></trkpt><trkpt lat="42.02215251643851" lon="12.034944469851748"><ele>44.0</ele><time>2026-03-29T10:02:52Z</time></trkpt><trkpt lat="42.02218082765007" lon="12.0351447411486"><ele>44.0</ele><time>2026-03-29T10:02:53Z</time></trkpt><trkpt lat="42.02221270018715" lon="12.035346964428106"><ele>44.0</ele><time>2026-03-29T10:02:54Z</time></trkpt><trkpt lat="42.02224694062325" lon="12.035549434373523"><ele>44.0</ele><time>2026-03-29T10:02:55Z</time></trkpt><trkpt lat="42.02227760195409" lon="12.035750231979376"><ele>44.0</ele><time>2026-03-29T10:02:56Z</time></trkpt><trkpt lat="42.02230691443608" lon="12.035949475276876"><ele>44.0</ele><time>2026-03-29T10:02:57Z</time></trkpt><trkpt lat="42.02233890828138" lon="12.036152824352142"><ele>43.666666666666664</ele><time>2026-03-29T10:02:58Z</time></trkpt><trkpt lat="42.022367205420124" lon="12.03635531464734"><ele>43.333333333333336</ele><time>2026-03-29T10:02:59Z</time></trkpt><trkpt lat="42.022384420986235" lon="12.0365727058909"><ele>43.0</ele><time>2026-03-29T10:03:00Z</time></trkpt><trkpt lat="42.022414406652885" lon="12.03677746665772"><ele>43.0</ele><time>2026-03-29T10:03:01Z</time></trkpt><trkpt lat="42.02244360593045" lon="12.036988461424723"><ele>43.0</ele><time>2026-03-29T10:03:02Z</time></trkpt><trkpt lat="42.022485380241484" lon="12.037188173922251"><ele>43.0</ele><time>2026-03-29T10:03:03Z</time></trkpt><trkpt lat="42.02250580275044" lon="12.03739472153128"><ele>44.0</ele><time>2026-03-29T10:03:03.999Z</time></trkpt><trkpt lat="42.0225248231039" lon="12.037605309419488"><ele>45.0</ele><time>2026-03-29T10:03:04.999Z</time></trkpt><trkpt lat="42.02254211008555" lon="12.037803870214722"><ele>46.0</ele><time>2026-03-29T10:03:05.999Z</time></trkpt><trkpt lat="42.02254719158325" lon="12.038006068948695"><ele>46.0</ele><time>2026-03-29T10:03:06.999Z</time></trkpt><trkpt lat="42.02255904080837" lon="12.038212035891881"><ele>46.0</ele><time>2026-03-29T10:03:07.999Z</time></trkpt><trkpt lat="42.022570757835155" lon="12.038416731391097"><ele>46.0</ele><time>2026-03-29T10:03:08.999Z</time></trkpt><trkpt lat="42.02258061166617" lon="12.03862000973287"><ele>45.66666666666667</ele><time>2026-03-29T10:03:09.999Z</time></trkpt><trkpt lat="42.02259189346635" lon="12.038827760948145"><ele>45.333333333333336</ele><time>2026-03-29T10:03:10.999Z</time></trkpt><trkpt lat="42.022601540195176" lon="12.039040516313277"><ele>45.0</ele><time>2026-03-29T10:03:11.999Z</time></trkpt><trkpt lat="42.02260998706029" lon="12.039254421171046"><ele>44.666666666666664</ele><time>2026-03-29T10:03:12.999Z</time></trkpt><trkpt lat="42.02261488428211" lon="12.039474132175563"><ele>44.33333333333333</ele><time>2026-03-29T10:03:13.999Z</time></trkpt><trkpt lat="42.02262322705785" lon="12.039690316607855"><ele>44.0</ele><time>2026-03-29T10:03:14.999Z</time></trkpt><trkpt lat="42.02263346666567" lon="12.039912616612373"><ele>45.0</ele><time>2026-03-29T10:03:15.999Z</time></trkpt><trkpt lat="42.02264412647295" lon="12.040124160534289"><ele>46.0</ele><time>2026-03-29T10:03:16.999Z</time></trkpt><trkpt lat="42.02265243926768" lon="12.040338964680808"><ele>47.0</ele><time>2026-03-29T10:03:17.999Z</time></trkpt><trkpt lat="42.022667153156604" lon="12.040549389544493"><ele>47.0</ele><time>2026-03-29T10:03:18.999Z</time></trkpt><trkpt lat="42.02268236894747" lon="12.040763294045405"><ele>47.0</ele><time>2026-03-29T10:03:19.999Z</time></trkpt><trkpt lat="42.0226954315755" lon="12.040980840676946"><ele>47.0</ele><time>2026-03-29T10:03:20.999Z</time></trkpt><trkpt lat="42.022705762746234" lon="12.04120006150216"><ele>48.33333333333333</ele><time>2026-03-29T10:03:21.999Z</time></trkpt><trkpt lat="42.02271186983159" lon="12.041412374989845"><ele>49.666666666666664</ele><time>2026-03-29T10:03:22.999Z</time></trkpt><trkpt lat="42.022719977130414" lon="12.041626502367293"><ele>51.0</ele><time>2026-03-29T10:03:23.999Z</time></trkpt><trkpt lat="42.02273015115878" lon="12.041842004895091"><ele>51.66666666666667</ele><time>2026-03-29T10:03:24.999Z</time></trkpt><trkpt lat="42.022739725436715" lon="12.042050465850828"><ele>52.333333333333336</ele><time>2026-03-29T10:03:25.999Z</time></trkpt><trkpt lat="42.022753211305805" lon="12.042257003676095"><ele>53.0</ele><time>2026-03-29T10:03:26.999Z</time></trkpt><trkpt lat="42.022767395143674" lon="12.042460371728957"><ele>54.0</ele><time>2026-03-29T10:03:27.999Z</time></trkpt><trkpt lat="42.02278090937779" lon="12.042667704307176"><ele>55.0</ele><time>2026-03-29T10:03:28.999Z</time></trkpt><trkpt lat="42.02279392488896" lon="12.042865339669348"><ele>56.0</ele><time>2026-03-29T10:03:29.999Z</time></trkpt><trkpt lat="42.02280174705525" lon="12.043074112809611"><ele>56.0</ele><time>2026-03-29T10:03:30.999Z</time></trkpt><trkpt lat="42.02281032576377" lon="12.043287946336834"><ele>56.0</ele><time>2026-03-29T10:03:31.999Z</time></trkpt><trkpt lat="42.02280808411365" lon="12.043506284958335"><ele>56.0</ele><time>2026-03-29T10:03:32.999Z</time></trkpt><trkpt lat="42.0228006563958" lon="12.043715348785113"><ele>55.66666666666667</ele><time>2026-03-29T10:03:33.999Z</time></trkpt><trkpt lat="42.022789751842375" lon="12.043925349150275"><ele>55.33333333333333</ele><time>2026-03-29T10:03:34.999Z</time></trkpt><trkpt lat="42.02277236814891" lon="12.04413994136629"><ele>55.0</ele><time>2026-03-29T10:03:35.999Z</time></trkpt><trkpt lat="42.02275596873774" lon="12.0443540128785"><ele>53.666666666666664</ele><time>2026-03-29T10:03:36.999Z</time></trkpt><trkpt lat="42.02273711725733" lon="12.04456723871292"><ele>52.33333333333333</ele><time>2026-03-29T10:03:37.999Z</time></trkpt><trkpt lat="42.02272389708591" lon="12.044784438982061"><ele>51.0</ele><time>2026-03-29T10:03:38.999Z</time></trkpt><trkpt lat="42.02270662088105" lon="12.045006292841894"><ele>50.66666666666667</ele><time>2026-03-29T10:03:39.999Z</time></trkpt><trkpt lat="42.022686232136614" lon="12.04523238724225"><ele>50.333333333333336</ele><time>2026-03-29T10:03:40.999Z</time></trkpt><trkpt lat="42.02266246251125" lon="12.045457009517442"><ele>50.0</ele><time>2026-03-29T10:03:41.999Z</time></trkpt><trkpt lat="42.022646527037544" lon="12.045678968701882"><ele>49.66666666666667</ele><time>2026-03-29T10:03:42.999Z</time></trkpt><trkpt lat="42.02262681410941" lon="12.04589988829893"><ele>49.33333333333333</ele><time>2026-03-29T10:03:43.999Z</time></trkpt><trkpt lat="42.022610205674226" lon="12.046129113089192"><ele>49.0</ele><time>2026-03-29T10:03:44.999Z</time></trkpt><trkpt lat="42.022594560566105" lon="12.0463419691444"><ele>49.0</ele><time>2026-03-29T10:03:45.999Z</time></trkpt><trkpt lat="42.022574932180895" lon="12.046566889245513"><ele>49.0</ele><time>2026-03-29T10:03:46.999Z</time></trkpt><trkpt lat="42.022552886053866" lon="12.046789225896097"><ele>49.0</ele><time>2026-03-29T10:03:47.999Z</time></trkpt><trkpt lat="42.02253332753233" lon="12.04700563376551"><ele>49.0</ele><time>2026-03-29T10:03:48.999Z</time></trkpt><trkpt lat="42.02250664650012" lon="12.047211026060376"><ele>49.0</ele><time>2026-03-29T10:03:49.999Z</time></trkpt><trkpt lat="42.02248774720328" lon="12.04741397912561"><ele>49.0</ele><time>2026-03-29T10:03:50.999Z</time></trkpt><trkpt lat="42.02246839329923" lon="12.047614389560803"><ele>49.0</ele><time>2026-03-29T10:03:51.999Z</time></trkpt><trkpt lat="42.0224483026999" lon="12.04780914127026"><ele>49.0</ele><time>2026-03-29T10:03:52.999Z</time></trkpt><trkpt lat="42.022427276533875" lon="12.048011733356448"><ele>49.0</ele><time>2026-03-29T10:03:53.999Z</time></trkpt><trkpt lat="42.022408571852765" lon="12.048210306668441"><ele>49.0</ele><time>2026-03-29T10:03:54.999Z</time></trkpt><trkpt lat="42.02239074758292" lon="12.048405259796496"><ele>49.0</ele><time>2026-03-29T10:03:55.999Z</time></trkpt><trkpt lat="42.02237498411327" lon="12.048626232961189"><ele>49.0</ele><time>2026-03-29T10:03:56.999Z</time></trkpt><trkpt lat="42.02236664590811" lon="12.048824040102259"><ele>49.0</ele><time>2026-03-29T10:03:57.999Z</time></trkpt><trkpt lat="42.02235286930185" lon="12.049024748149787"><ele>49.0</ele><time>2026-03-29T10:03:58.999Z</time></trkpt><trkpt lat="42.022336910812726" lon="12.04923537765137"><ele>49.0</ele><time>2026-03-29T10:03:59.999Z</time></trkpt><trkpt lat="42.022321564249694" lon="12.049441392842404"><ele>49.0</ele><time>2026-03-29T10:04:00.999Z</time></trkpt><trkpt lat="42.02229437058729" lon="12.049642713086868"><ele>49.0</ele><time>2026-03-29T10:04:01.999Z</time></trkpt><trkpt lat="42.0222564413731" lon="12.049846304608304"><ele>49.0</ele><time>2026-03-29T10:04:02.999Z</time></trkpt><trkpt lat="42.022206986710245" lon="12.05004011476449"><ele>49.0</ele><time>2026-03-29T10:04:03.999Z</time></trkpt><trkpt lat="42.02216095654865" lon="12.05021614907849"><ele>49.0</ele><time>2026-03-29T10:04:04.999Z</time></trkpt><trkpt lat="42.02211652861221" lon="12.050381164385625"><ele>49.5</ele><time>2026-03-29T10:04:05.999Z</time></trkpt><trkpt lat="42.022077542030786" lon="12.050537252654454"><ele>50.0</ele><time>2026-03-29T10:04:06.999Z</time></trkpt><trkpt lat="42.02204262951039" lon="12.050688142688129"><ele>50.5</ele><time>2026-03-29T10:04:07.999Z</time></trkpt><trkpt lat="42.02201183969349" lon="12.050826870394625"><ele>51.0</ele><time>2026-03-29T10:04:08.999Z</time></trkpt><trkpt lat="42.02196272221426" lon="12.050948677428464"><ele>51.0</ele><time>2026-03-29T10:04:09.999Z</time></trkpt><trkpt lat="42.02193383881546" lon="12.051056650469569"><ele>51.0</ele><time>2026-03-29T10:04:11Z</time></trkpt><trkpt lat="42.021910502080324" lon="12.051152311672645"><ele>51.0</ele><time>2026-03-29T10:04:12Z</time></trkpt><trkpt lat="42.02187899596746" lon="12.051243322636756"><ele>51.0</ele><time>2026-03-29T10:04:14Z</time></trkpt><trkpt lat="42.02202635945304" lon="12.051315432811846"><ele>51.0</ele><time>2026-03-29T10:04:16Z</time></trkpt><trkpt lat="42.022141570839075" lon="12.051392565971994"><ele>51.0</ele><time>2026-03-29T10:04:18Z</time></trkpt><trkpt lat="42.02221216602478" lon="12.05143442676535"><ele>51.0</ele><time>2026-03-29T10:04:19Z</time></trkpt><trkpt lat="42.02228571080301" lon="12.05145437245976"><ele>51.0</ele><time>2026-03-29T10:04:20Z</time></trkpt><trkpt lat="42.022351495801956" lon="12.051520827383628"><ele>51.0</ele><time>2026-03-29T10:04:21Z</time></trkpt><trkpt lat="42.02242501257661" lon="12.05157401004077"><ele>51.0</ele><time>2026-03-29T10:04:22Z</time></trkpt><trkpt lat="42.02250375167179" lon="12.051621370258934"><ele>51.0</ele><time>2026-03-29T10:04:23Z</time></trkpt><trkpt lat="42.02258179301023" lon="12.051651454950742"><ele>52.4</ele><time>2026-03-29T10:04:24Z</time></trkpt><trkpt lat="42.022646396785206" lon="12.051689597066048"><ele>53.8</ele><time>2026-03-29T10:04:25Z</time></trkpt><trkpt lat="42.02276431210329" lon="12.051764056395207"><ele>55.199999999999996</ele><time>2026-03-29T10:04:27Z</time></trkpt><trkpt lat="42.02286791209129" lon="12.051834004609237"><ele>56.599999999999994</ele><time>2026-03-29T10:04:29Z</time></trkpt><trkpt lat="42.022932372661955" lon="12.051868491695046"><ele>58.0</ele><time>2026-03-29T10:04:30Z</time></trkpt><trkpt lat="42.022999451200164" lon="12.051911711897397"><ele>58.00000000000001</ele><time>2026-03-29T10:04:31Z</time></trkpt><trkpt lat="42.02307030607397" lon="12.051954921241895"><ele>58.0</ele><time>2026-03-29T10:04:32Z</time></trkpt><trkpt lat="42.02312289477238" lon="12.052005180612218"><ele>58.00000000000001</ele><time>2026-03-29T10:04:33Z</time></trkpt><trkpt lat="42.023184608964684" lon="12.052044399204506"><ele>58.00000000000001</ele><time>2026-03-29T10:04:34Z</time></trkpt><trkpt lat="42.023247300932574" lon="12.052084028510134"><ele>58.0</ele><time>2026-03-29T10:04:35Z</time></trkpt><trkpt lat="42.02331326726628" lon="12.052125727616183"><ele>58.00000000000001</ele><time>2026-03-29T10:04:36Z</time></trkpt><trkpt lat="42.02339169656982" lon="12.052173360942788"><ele>58.00000000000001</ele><time>2026-03-29T10:04:37Z</time></trkpt><trkpt lat="42.02346229767673" lon="12.052215688771193"><ele>58.666666666666664</ele><time>2026-03-29T10:04:38Z</time></trkpt><trkpt lat="42.023537705385785" lon="12.052260897184098"><ele>59.33333333333333</ele><time>2026-03-29T10:04:39Z</time></trkpt><trkpt lat="42.02361958412517" lon="12.052307278348664"><ele>60.0</ele><time>2026-03-29T10:04:40Z</time></trkpt><trkpt lat="42.02369316581059" lon="12.052349659288408"><ele>60.66666666666667</ele><time>2026-03-29T10:04:41Z</time></trkpt><trkpt lat="42.02376846270735" lon="12.05239379598307"><ele>61.333333333333336</ele><time>2026-03-29T10:04:42Z</time></trkpt><trkpt lat="42.023847703932226" lon="12.05244224050655"><ele>62.0</ele><time>2026-03-29T10:04:43Z</time></trkpt><trkpt lat="42.02392837075021" lon="12.052474076537434"><ele>62.00000000000001</ele><time>2026-03-29T10:04:44Z</time></trkpt><trkpt lat="42.02399765329661" lon="12.052531722080234"><ele>62.0</ele><time>2026-03-29T10:04:45Z</time></trkpt><trkpt lat="42.02406400139982" lon="12.052590441309517"><ele>62.0</ele><time>2026-03-29T10:04:46Z</time></trkpt><trkpt lat="42.02413738824172" lon="12.052647066734774"><ele>62.0</ele><time>2026-03-29T10:04:47Z</time></trkpt><trkpt lat="42.02421015919504" lon="12.052690988067866"><ele>62.00000000000001</ele><time>2026-03-29T10:04:48Z</time></trkpt><trkpt lat="42.024279994938716" lon="12.052734871974375"><ele>62.0</ele><time>2026-03-29T10:04:49Z</time></trkpt><trkpt lat="42.0243695322966" lon="12.052794415628512"><ele>70.0</ele><time>2026-03-29T10:04:51Z</time></trkpt><trkpt lat="42.02443214885117" lon="12.0528408327236"><ele>70.0</ele><time>2026-03-29T10:04:54Z</time></trkpt></trkseg></trk></gpx>